<?xml version="1.0" encoding="UTF-8" standalone="no" ?>
<gpx xmlns="http://www.topografix.com/GPX/1/1" xmlns:xsi="http://www.w3.org/2001/XMLSchema-instance" xsi:schemaLocation="http://www.topografix.com/GPX/1/1 http://www.topografix.com/GPX/1/1/gpx.xsd" version="1.1" creator="VisuGPX - https://www.visugpx.com">
  <metadata>
    <name>Bois Meur</name>
    <desc><![CDATA[Une longue promenade de 13 km au coeur de Bois Meur, forêt départementale. Sur un parcours bien balisé, vous apprécierez les beaux sentiers forestiers qui serpentent dans une magnifique forêt.]]></desc>
  </metadata>
  <trk>
    <name><![CDATA[002-2014/04/27-13:00:07]]></name>
    <trkseg>
      <trkpt lat="48.47906" lon="-3.06617">
        <ele>194</ele>
        <time>2014-04-27T11:00:07Z</time>
      </trkpt>
      <trkpt lat="48.47915" lon="-3.06578">
        <ele>195</ele>
        <time>2014-04-27T11:01:08Z</time>
      </trkpt>
      <trkpt lat="48.47916" lon="-3.06579">
        <ele>195</ele>
        <time>2014-04-27T11:01:10Z</time>
      </trkpt>
      <trkpt lat="48.47918" lon="-3.0658">
        <ele>195</ele>
        <time>2014-04-27T11:01:11Z</time>
      </trkpt>
      <trkpt lat="48.47919" lon="-3.06579">
        <ele>195</ele>
        <time>2014-04-27T11:01:13Z</time>
      </trkpt>
      <trkpt lat="48.4792" lon="-3.06578">
        <ele>195</ele>
        <time>2014-04-27T11:01:15Z</time>
      </trkpt>
      <trkpt lat="48.47918" lon="-3.06577">
        <ele>197</ele>
        <time>2014-04-27T11:01:20Z</time>
      </trkpt>
      <trkpt lat="48.47917" lon="-3.06573">
        <ele>199</ele>
        <time>2014-04-27T11:01:22Z</time>
      </trkpt>
      <trkpt lat="48.47916" lon="-3.06568">
        <ele>200</ele>
        <time>2014-04-27T11:01:23Z</time>
      </trkpt>
      <trkpt lat="48.47916" lon="-3.06565">
        <ele>200</ele>
        <time>2014-04-27T11:01:24Z</time>
      </trkpt>
      <trkpt lat="48.47917" lon="-3.06567">
        <ele>200</ele>
        <time>2014-04-27T11:01:27Z</time>
      </trkpt>
      <trkpt lat="48.47918" lon="-3.06569">
        <ele>200</ele>
        <time>2014-04-27T11:01:29Z</time>
      </trkpt>
      <trkpt lat="48.47919" lon="-3.0657">
        <ele>200</ele>
        <time>2014-04-27T11:01:30Z</time>
      </trkpt>
      <trkpt lat="48.47921" lon="-3.06571">
        <ele>200</ele>
        <time>2014-04-27T11:01:31Z</time>
      </trkpt>
      <trkpt lat="48.47923" lon="-3.0657">
        <ele>199</ele>
        <time>2014-04-27T11:01:32Z</time>
      </trkpt>
      <trkpt lat="48.47921" lon="-3.06568">
        <ele>197</ele>
        <time>2014-04-27T11:01:34Z</time>
      </trkpt>
      <trkpt lat="48.47921" lon="-3.06571">
        <ele>196</ele>
        <time>2014-04-27T11:01:35Z</time>
      </trkpt>
      <trkpt lat="48.47922" lon="-3.06574">
        <ele>195</ele>
        <time>2014-04-27T11:01:36Z</time>
      </trkpt>
      <trkpt lat="48.47923" lon="-3.06577">
        <ele>194</ele>
        <time>2014-04-27T11:01:37Z</time>
      </trkpt>
      <trkpt lat="48.47922" lon="-3.06581">
        <ele>194</ele>
        <time>2014-04-27T11:01:38Z</time>
      </trkpt>
      <trkpt lat="48.4792" lon="-3.06574">
        <ele>194</ele>
        <time>2014-04-27T11:01:42Z</time>
      </trkpt>
      <trkpt lat="48.47918" lon="-3.06568">
        <ele>194</ele>
        <time>2014-04-27T11:01:43Z</time>
      </trkpt>
      <trkpt lat="48.47917" lon="-3.06566">
        <ele>194</ele>
        <time>2014-04-27T11:01:44Z</time>
      </trkpt>
      <trkpt lat="48.47918" lon="-3.06568">
        <ele>194</ele>
        <time>2014-04-27T11:01:45Z</time>
      </trkpt>
      <trkpt lat="48.47918" lon="-3.0657">
        <ele>194</ele>
        <time>2014-04-27T11:01:46Z</time>
      </trkpt>
      <trkpt lat="48.4792" lon="-3.06573">
        <ele>194</ele>
        <time>2014-04-27T11:01:47Z</time>
      </trkpt>
      <trkpt lat="48.4792" lon="-3.06575">
        <ele>193</ele>
        <time>2014-04-27T11:01:48Z</time>
      </trkpt>
      <trkpt lat="48.47921" lon="-3.06578">
        <ele>193</ele>
        <time>2014-04-27T11:01:49Z</time>
      </trkpt>
      <trkpt lat="48.47922" lon="-3.0658">
        <ele>193</ele>
        <time>2014-04-27T11:01:51Z</time>
      </trkpt>
      <trkpt lat="48.4792" lon="-3.06579">
        <ele>191</ele>
        <time>2014-04-27T11:01:58Z</time>
      </trkpt>
      <trkpt lat="48.47919" lon="-3.06576">
        <ele>190</ele>
        <time>2014-04-27T11:01:59Z</time>
      </trkpt>
      <trkpt lat="48.47921" lon="-3.06575">
        <ele>190</ele>
        <time>2014-04-27T11:02:02Z</time>
      </trkpt>
      <trkpt lat="48.47922" lon="-3.06577">
        <ele>189</ele>
        <time>2014-04-27T11:02:03Z</time>
      </trkpt>
      <trkpt lat="48.47922" lon="-3.06579">
        <ele>187</ele>
        <time>2014-04-27T11:02:05Z</time>
      </trkpt>
      <trkpt lat="48.4792" lon="-3.06579">
        <ele>187</ele>
        <time>2014-04-27T11:02:08Z</time>
      </trkpt>
      <trkpt lat="48.47919" lon="-3.06579">
        <ele>187</ele>
        <time>2014-04-27T11:02:11Z</time>
      </trkpt>
      <trkpt lat="48.4792" lon="-3.06582">
        <ele>187</ele>
        <time>2014-04-27T11:02:16Z</time>
      </trkpt>
      <trkpt lat="48.47921" lon="-3.06583">
        <ele>187</ele>
        <time>2014-04-27T11:02:18Z</time>
      </trkpt>
      <trkpt lat="48.47922" lon="-3.06581">
        <ele>188</ele>
        <time>2014-04-27T11:02:20Z</time>
      </trkpt>
      <trkpt lat="48.47925" lon="-3.06582">
        <ele>190</ele>
        <time>2014-04-27T11:02:22Z</time>
      </trkpt>
      <trkpt lat="48.47927" lon="-3.06584">
        <ele>190</ele>
        <time>2014-04-27T11:02:24Z</time>
      </trkpt>
      <trkpt lat="48.47928" lon="-3.06585">
        <ele>190</ele>
        <time>2014-04-27T11:02:25Z</time>
      </trkpt>
      <trkpt lat="48.4793" lon="-3.06586">
        <ele>190</ele>
        <time>2014-04-27T11:02:26Z</time>
      </trkpt>
      <trkpt lat="48.47931" lon="-3.06584">
        <ele>190</ele>
        <time>2014-04-27T11:02:28Z</time>
      </trkpt>
      <trkpt lat="48.4793" lon="-3.0658">
        <ele>190</ele>
        <time>2014-04-27T11:02:33Z</time>
      </trkpt>
      <trkpt lat="48.47932" lon="-3.06582">
        <ele>191</ele>
        <time>2014-04-27T11:02:36Z</time>
      </trkpt>
      <trkpt lat="48.47934" lon="-3.0658">
        <ele>192</ele>
        <time>2014-04-27T11:02:38Z</time>
      </trkpt>
      <trkpt lat="48.47935" lon="-3.06578">
        <ele>192</ele>
        <time>2014-04-27T11:02:39Z</time>
      </trkpt>
      <trkpt lat="48.47936" lon="-3.06579">
        <ele>192</ele>
        <time>2014-04-27T11:02:40Z</time>
      </trkpt>
      <trkpt lat="48.47938" lon="-3.0658">
        <ele>192</ele>
        <time>2014-04-27T11:02:41Z</time>
      </trkpt>
      <trkpt lat="48.4794" lon="-3.0658">
        <ele>192</ele>
        <time>2014-04-27T11:02:42Z</time>
      </trkpt>
      <trkpt lat="48.47941" lon="-3.06579">
        <ele>192</ele>
        <time>2014-04-27T11:02:44Z</time>
      </trkpt>
      <trkpt lat="48.47941" lon="-3.06577">
        <ele>192</ele>
        <time>2014-04-27T11:02:46Z</time>
      </trkpt>
      <trkpt lat="48.47943" lon="-3.06577">
        <ele>192</ele>
        <time>2014-04-27T11:02:48Z</time>
      </trkpt>
      <trkpt lat="48.47945" lon="-3.06578">
        <ele>192</ele>
        <time>2014-04-27T11:02:50Z</time>
      </trkpt>
      <trkpt lat="48.47946" lon="-3.06577">
        <ele>192</ele>
        <time>2014-04-27T11:02:51Z</time>
      </trkpt>
      <trkpt lat="48.47947" lon="-3.06577">
        <ele>192</ele>
        <time>2014-04-27T11:02:52Z</time>
      </trkpt>
      <trkpt lat="48.47948" lon="-3.06574">
        <ele>192</ele>
        <time>2014-04-27T11:02:54Z</time>
      </trkpt>
      <trkpt lat="48.47949" lon="-3.06572">
        <ele>192</ele>
        <time>2014-04-27T11:02:55Z</time>
      </trkpt>
      <trkpt lat="48.4795" lon="-3.06569">
        <ele>192</ele>
        <time>2014-04-27T11:02:57Z</time>
      </trkpt>
      <trkpt lat="48.47951" lon="-3.06567">
        <ele>192</ele>
        <time>2014-04-27T11:02:59Z</time>
      </trkpt>
      <trkpt lat="48.47953" lon="-3.06565">
        <ele>193</ele>
        <time>2014-04-27T11:03:01Z</time>
      </trkpt>
      <trkpt lat="48.47953" lon="-3.06563">
        <ele>193</ele>
        <time>2014-04-27T11:03:02Z</time>
      </trkpt>
      <trkpt lat="48.47952" lon="-3.06558">
        <ele>195</ele>
        <time>2014-04-27T11:03:04Z</time>
      </trkpt>
      <trkpt lat="48.47951" lon="-3.06556">
        <ele>197</ele>
        <time>2014-04-27T11:03:06Z</time>
      </trkpt>
      <trkpt lat="48.4795" lon="-3.06556">
        <ele>199</ele>
        <time>2014-04-27T11:03:08Z</time>
      </trkpt>
      <trkpt lat="48.47949" lon="-3.06557">
        <ele>199</ele>
        <time>2014-04-27T11:03:11Z</time>
      </trkpt>
      <trkpt lat="48.47947" lon="-3.06558">
        <ele>199</ele>
        <time>2014-04-27T11:03:14Z</time>
      </trkpt>
      <trkpt lat="48.47947" lon="-3.06555">
        <ele>200</ele>
        <time>2014-04-27T11:03:18Z</time>
      </trkpt>
      <trkpt lat="48.47946" lon="-3.06552">
        <ele>202</ele>
        <time>2014-04-27T11:03:20Z</time>
      </trkpt>
      <trkpt lat="48.47948" lon="-3.06549">
        <ele>203</ele>
        <time>2014-04-27T11:03:23Z</time>
      </trkpt>
      <trkpt lat="48.47949" lon="-3.06548">
        <ele>204</ele>
        <time>2014-04-27T11:03:24Z</time>
      </trkpt>
      <trkpt lat="48.47952" lon="-3.06545">
        <ele>205</ele>
        <time>2014-04-27T11:03:25Z</time>
      </trkpt>
      <trkpt lat="48.47953" lon="-3.06541">
        <ele>206</ele>
        <time>2014-04-27T11:03:26Z</time>
      </trkpt>
      <trkpt lat="48.47955" lon="-3.06539">
        <ele>206</ele>
        <time>2014-04-27T11:03:27Z</time>
      </trkpt>
      <trkpt lat="48.47956" lon="-3.06536">
        <ele>207</ele>
        <time>2014-04-27T11:03:28Z</time>
      </trkpt>
      <trkpt lat="48.47958" lon="-3.06537">
        <ele>207</ele>
        <time>2014-04-27T11:03:30Z</time>
      </trkpt>
      <trkpt lat="48.47959" lon="-3.06535">
        <ele>207</ele>
        <time>2014-04-27T11:03:31Z</time>
      </trkpt>
      <trkpt lat="48.4796" lon="-3.06535">
        <ele>207</ele>
        <time>2014-04-27T11:03:32Z</time>
      </trkpt>
      <trkpt lat="48.47962" lon="-3.06533">
        <ele>207</ele>
        <time>2014-04-27T11:03:35Z</time>
      </trkpt>
      <trkpt lat="48.47964" lon="-3.06532">
        <ele>207</ele>
        <time>2014-04-27T11:03:37Z</time>
      </trkpt>
      <trkpt lat="48.47965" lon="-3.06532">
        <ele>207</ele>
        <time>2014-04-27T11:03:40Z</time>
      </trkpt>
      <trkpt lat="48.47967" lon="-3.06533">
        <ele>207</ele>
        <time>2014-04-27T11:03:41Z</time>
      </trkpt>
      <trkpt lat="48.47968" lon="-3.06534">
        <ele>207</ele>
        <time>2014-04-27T11:03:42Z</time>
      </trkpt>
      <trkpt lat="48.47969" lon="-3.06534">
        <ele>207</ele>
        <time>2014-04-27T11:03:43Z</time>
      </trkpt>
      <trkpt lat="48.47971" lon="-3.06535">
        <ele>207</ele>
        <time>2014-04-27T11:03:44Z</time>
      </trkpt>
      <trkpt lat="48.47972" lon="-3.06535">
        <ele>207</ele>
        <time>2014-04-27T11:03:45Z</time>
      </trkpt>
      <trkpt lat="48.47974" lon="-3.06536">
        <ele>207</ele>
        <time>2014-04-27T11:03:46Z</time>
      </trkpt>
      <trkpt lat="48.47976" lon="-3.06538">
        <ele>207</ele>
        <time>2014-04-27T11:03:48Z</time>
      </trkpt>
      <trkpt lat="48.47978" lon="-3.06538">
        <ele>207</ele>
        <time>2014-04-27T11:03:49Z</time>
      </trkpt>
      <trkpt lat="48.47979" lon="-3.06539">
        <ele>206</ele>
        <time>2014-04-27T11:03:51Z</time>
      </trkpt>
      <trkpt lat="48.47981" lon="-3.06538">
        <ele>205</ele>
        <time>2014-04-27T11:03:53Z</time>
      </trkpt>
      <trkpt lat="48.47983" lon="-3.06537">
        <ele>205</ele>
        <time>2014-04-27T11:03:55Z</time>
      </trkpt>
      <trkpt lat="48.47984" lon="-3.06536">
        <ele>205</ele>
        <time>2014-04-27T11:03:56Z</time>
      </trkpt>
      <trkpt lat="48.47985" lon="-3.06536">
        <ele>205</ele>
        <time>2014-04-27T11:03:58Z</time>
      </trkpt>
      <trkpt lat="48.47985" lon="-3.06534">
        <ele>205</ele>
        <time>2014-04-27T11:04:00Z</time>
      </trkpt>
      <trkpt lat="48.47987" lon="-3.06533">
        <ele>205</ele>
        <time>2014-04-27T11:04:04Z</time>
      </trkpt>
      <trkpt lat="48.47991" lon="-3.06536">
        <ele>205</ele>
        <time>2014-04-27T11:04:05Z</time>
      </trkpt>
      <trkpt lat="48.47993" lon="-3.06536">
        <ele>205</ele>
        <time>2014-04-27T11:04:06Z</time>
      </trkpt>
      <trkpt lat="48.47995" lon="-3.06536">
        <ele>205</ele>
        <time>2014-04-27T11:04:07Z</time>
      </trkpt>
      <trkpt lat="48.47995" lon="-3.06538">
        <ele>205</ele>
        <time>2014-04-27T11:04:08Z</time>
      </trkpt>
      <trkpt lat="48.47996" lon="-3.06538">
        <ele>205</ele>
        <time>2014-04-27T11:04:09Z</time>
      </trkpt>
      <trkpt lat="48.47997" lon="-3.06536">
        <ele>205</ele>
        <time>2014-04-27T11:04:11Z</time>
      </trkpt>
      <trkpt lat="48.47999" lon="-3.06534">
        <ele>205</ele>
        <time>2014-04-27T11:04:13Z</time>
      </trkpt>
      <trkpt lat="48.48" lon="-3.06534">
        <ele>205</ele>
        <time>2014-04-27T11:04:15Z</time>
      </trkpt>
      <trkpt lat="48.48001" lon="-3.06532">
        <ele>202</ele>
        <time>2014-04-27T11:04:22Z</time>
      </trkpt>
      <trkpt lat="48.48003" lon="-3.0653">
        <ele>202</ele>
        <time>2014-04-27T11:04:27Z</time>
      </trkpt>
      <trkpt lat="48.48003" lon="-3.06534">
        <ele>201</ele>
        <time>2014-04-27T11:04:35Z</time>
      </trkpt>
      <trkpt lat="48.48003" lon="-3.06535">
        <ele>201</ele>
        <time>2014-04-27T11:04:36Z</time>
      </trkpt>
      <trkpt lat="48.48005" lon="-3.06537">
        <ele>201</ele>
        <time>2014-04-27T11:04:37Z</time>
      </trkpt>
      <trkpt lat="48.48006" lon="-3.0654">
        <ele>200</ele>
        <time>2014-04-27T11:04:38Z</time>
      </trkpt>
      <trkpt lat="48.48008" lon="-3.06543">
        <ele>199</ele>
        <time>2014-04-27T11:04:39Z</time>
      </trkpt>
      <trkpt lat="48.4801" lon="-3.06544">
        <ele>198</ele>
        <time>2014-04-27T11:04:40Z</time>
      </trkpt>
      <trkpt lat="48.48011" lon="-3.06546">
        <ele>195</ele>
        <time>2014-04-27T11:04:43Z</time>
      </trkpt>
      <trkpt lat="48.48014" lon="-3.06551">
        <ele>193</ele>
        <time>2014-04-27T11:04:46Z</time>
      </trkpt>
      <trkpt lat="48.48015" lon="-3.06553">
        <ele>192</ele>
        <time>2014-04-27T11:04:47Z</time>
      </trkpt>
      <trkpt lat="48.48017" lon="-3.06554">
        <ele>191</ele>
        <time>2014-04-27T11:04:48Z</time>
      </trkpt>
      <trkpt lat="48.48018" lon="-3.06557">
        <ele>190</ele>
        <time>2014-04-27T11:04:49Z</time>
      </trkpt>
      <trkpt lat="48.48019" lon="-3.06559">
        <ele>188</ele>
        <time>2014-04-27T11:04:54Z</time>
      </trkpt>
      <trkpt lat="48.4802" lon="-3.0656">
        <ele>188</ele>
        <time>2014-04-27T11:04:55Z</time>
      </trkpt>
      <trkpt lat="48.48022" lon="-3.06563">
        <ele>189</ele>
        <time>2014-04-27T11:04:57Z</time>
      </trkpt>
      <trkpt lat="48.48023" lon="-3.06566">
        <ele>190</ele>
        <time>2014-04-27T11:04:58Z</time>
      </trkpt>
      <trkpt lat="48.48026" lon="-3.06573">
        <ele>191</ele>
        <time>2014-04-27T11:05:01Z</time>
      </trkpt>
      <trkpt lat="48.48027" lon="-3.06578">
        <ele>191</ele>
        <time>2014-04-27T11:05:02Z</time>
      </trkpt>
      <trkpt lat="48.48037" lon="-3.06587">
        <ele>191</ele>
        <time>2014-04-27T11:05:09Z</time>
      </trkpt>
      <trkpt lat="48.48037" lon="-3.06584">
        <ele>191</ele>
        <time>2014-04-27T11:05:10Z</time>
      </trkpt>
      <trkpt lat="48.48037" lon="-3.06582">
        <ele>191</ele>
        <time>2014-04-27T11:05:11Z</time>
      </trkpt>
      <trkpt lat="48.48036" lon="-3.0658">
        <ele>191</ele>
        <time>2014-04-27T11:05:13Z</time>
      </trkpt>
      <trkpt lat="48.48038" lon="-3.06583">
        <ele>193</ele>
        <time>2014-04-27T11:05:15Z</time>
      </trkpt>
      <trkpt lat="48.48037" lon="-3.06581">
        <ele>197</ele>
        <time>2014-04-27T11:05:19Z</time>
      </trkpt>
      <trkpt lat="48.48038" lon="-3.06583">
        <ele>199</ele>
        <time>2014-04-27T11:05:21Z</time>
      </trkpt>
      <trkpt lat="48.48039" lon="-3.06581">
        <ele>199</ele>
        <time>2014-04-27T11:05:23Z</time>
      </trkpt>
      <trkpt lat="48.4804" lon="-3.0658">
        <ele>199</ele>
        <time>2014-04-27T11:05:27Z</time>
      </trkpt>
      <trkpt lat="48.48042" lon="-3.06583">
        <ele>199</ele>
        <time>2014-04-27T11:05:28Z</time>
      </trkpt>
      <trkpt lat="48.48043" lon="-3.06586">
        <ele>199</ele>
        <time>2014-04-27T11:05:30Z</time>
      </trkpt>
      <trkpt lat="48.48044" lon="-3.06588">
        <ele>199</ele>
        <time>2014-04-27T11:05:32Z</time>
      </trkpt>
      <trkpt lat="48.48045" lon="-3.06591">
        <ele>200</ele>
        <time>2014-04-27T11:05:35Z</time>
      </trkpt>
      <trkpt lat="48.48047" lon="-3.06594">
        <ele>200</ele>
        <time>2014-04-27T11:05:36Z</time>
      </trkpt>
      <trkpt lat="48.48046" lon="-3.06595">
        <ele>200</ele>
        <time>2014-04-27T11:05:37Z</time>
      </trkpt>
      <trkpt lat="48.48048" lon="-3.06596">
        <ele>200</ele>
        <time>2014-04-27T11:05:39Z</time>
      </trkpt>
      <trkpt lat="48.48047" lon="-3.0661">
        <ele>188</ele>
        <time>2014-04-27T11:05:53Z</time>
      </trkpt>
      <trkpt lat="48.4805" lon="-3.06617">
        <ele>187</ele>
        <time>2014-04-27T11:05:57Z</time>
      </trkpt>
      <trkpt lat="48.48054" lon="-3.0662">
        <ele>185</ele>
        <time>2014-04-27T11:06:01Z</time>
      </trkpt>
      <trkpt lat="48.48054" lon="-3.06616">
        <ele>185</ele>
        <time>2014-04-27T11:06:02Z</time>
      </trkpt>
      <trkpt lat="48.48053" lon="-3.06613">
        <ele>185</ele>
        <time>2014-04-27T11:06:03Z</time>
      </trkpt>
      <trkpt lat="48.48052" lon="-3.06611">
        <ele>185</ele>
        <time>2014-04-27T11:06:04Z</time>
      </trkpt>
      <trkpt lat="48.48051" lon="-3.06612">
        <ele>188</ele>
        <time>2014-04-27T11:06:07Z</time>
      </trkpt>
      <trkpt lat="48.4805" lon="-3.06614">
        <ele>190</ele>
        <time>2014-04-27T11:06:09Z</time>
      </trkpt>
      <trkpt lat="48.48051" lon="-3.06617">
        <ele>192</ele>
        <time>2014-04-27T11:06:13Z</time>
      </trkpt>
      <trkpt lat="48.48051" lon="-3.06621">
        <ele>194</ele>
        <time>2014-04-27T11:06:15Z</time>
      </trkpt>
      <trkpt lat="48.4805" lon="-3.06622">
        <ele>196</ele>
        <time>2014-04-27T11:06:17Z</time>
      </trkpt>
      <trkpt lat="48.4805" lon="-3.06628">
        <ele>199</ele>
        <time>2014-04-27T11:06:20Z</time>
      </trkpt>
      <trkpt lat="48.4805" lon="-3.06625">
        <ele>200</ele>
        <time>2014-04-27T11:06:22Z</time>
      </trkpt>
      <trkpt lat="48.48053" lon="-3.06623">
        <ele>202</ele>
        <time>2014-04-27T11:06:33Z</time>
      </trkpt>
      <trkpt lat="48.48053" lon="-3.06625">
        <ele>202</ele>
        <time>2014-04-27T11:06:35Z</time>
      </trkpt>
      <trkpt lat="48.48053" lon="-3.06629">
        <ele>202</ele>
        <time>2014-04-27T11:06:36Z</time>
      </trkpt>
      <trkpt lat="48.48054" lon="-3.06632">
        <ele>202</ele>
        <time>2014-04-27T11:06:37Z</time>
      </trkpt>
      <trkpt lat="48.48053" lon="-3.06635">
        <ele>202</ele>
        <time>2014-04-27T11:06:39Z</time>
      </trkpt>
      <trkpt lat="48.48054" lon="-3.06638">
        <ele>202</ele>
        <time>2014-04-27T11:06:40Z</time>
      </trkpt>
      <trkpt lat="48.48062" lon="-3.06653">
        <ele>197</ele>
        <time>2014-04-27T11:06:48Z</time>
      </trkpt>
      <trkpt lat="48.48063" lon="-3.06657">
        <ele>196</ele>
        <time>2014-04-27T11:06:49Z</time>
      </trkpt>
      <trkpt lat="48.48064" lon="-3.0666">
        <ele>195</ele>
        <time>2014-04-27T11:06:50Z</time>
      </trkpt>
      <trkpt lat="48.48066" lon="-3.06663">
        <ele>194</ele>
        <time>2014-04-27T11:06:53Z</time>
      </trkpt>
      <trkpt lat="48.48065" lon="-3.06661">
        <ele>192</ele>
        <time>2014-04-27T11:06:55Z</time>
      </trkpt>
      <trkpt lat="48.48068" lon="-3.06662">
        <ele>190</ele>
        <time>2014-04-27T11:06:59Z</time>
      </trkpt>
      <trkpt lat="48.48066" lon="-3.06657">
        <ele>190</ele>
        <time>2014-04-27T11:07:00Z</time>
      </trkpt>
      <trkpt lat="48.48064" lon="-3.06648">
        <ele>190</ele>
        <time>2014-04-27T11:07:01Z</time>
      </trkpt>
      <trkpt lat="48.48065" lon="-3.06653">
        <ele>190</ele>
        <time>2014-04-27T11:07:03Z</time>
      </trkpt>
      <trkpt lat="48.48066" lon="-3.06657">
        <ele>191</ele>
        <time>2014-04-27T11:07:04Z</time>
      </trkpt>
      <trkpt lat="48.48065" lon="-3.0666">
        <ele>193</ele>
        <time>2014-04-27T11:07:06Z</time>
      </trkpt>
      <trkpt lat="48.48064" lon="-3.0666">
        <ele>194</ele>
        <time>2014-04-27T11:07:07Z</time>
      </trkpt>
      <trkpt lat="48.48062" lon="-3.06659">
        <ele>195</ele>
        <time>2014-04-27T11:07:08Z</time>
      </trkpt>
      <trkpt lat="48.4806" lon="-3.06658">
        <ele>197</ele>
        <time>2014-04-27T11:07:10Z</time>
      </trkpt>
      <trkpt lat="48.48058" lon="-3.06657">
        <ele>199</ele>
        <time>2014-04-27T11:07:12Z</time>
      </trkpt>
      <trkpt lat="48.48056" lon="-3.06657">
        <ele>200</ele>
        <time>2014-04-27T11:07:14Z</time>
      </trkpt>
      <trkpt lat="48.48054" lon="-3.06658">
        <ele>201</ele>
        <time>2014-04-27T11:07:15Z</time>
      </trkpt>
      <trkpt lat="48.48053" lon="-3.06654">
        <ele>202</ele>
        <time>2014-04-27T11:07:17Z</time>
      </trkpt>
      <trkpt lat="48.48055" lon="-3.06654">
        <ele>204</ele>
        <time>2014-04-27T11:07:20Z</time>
      </trkpt>
      <trkpt lat="48.48056" lon="-3.06653">
        <ele>208</ele>
        <time>2014-04-27T11:07:24Z</time>
      </trkpt>
      <trkpt lat="48.48057" lon="-3.06653">
        <ele>208</ele>
        <time>2014-04-27T11:07:33Z</time>
      </trkpt>
      <trkpt lat="48.48058" lon="-3.06656">
        <ele>208</ele>
        <time>2014-04-27T11:07:34Z</time>
      </trkpt>
      <trkpt lat="48.48057" lon="-3.06656">
        <ele>208</ele>
        <time>2014-04-27T11:07:38Z</time>
      </trkpt>
      <trkpt lat="48.48056" lon="-3.06653">
        <ele>208</ele>
        <time>2014-04-27T11:07:41Z</time>
      </trkpt>
      <trkpt lat="48.48059" lon="-3.06651">
        <ele>208</ele>
        <time>2014-04-27T11:07:49Z</time>
      </trkpt>
      <trkpt lat="48.4806" lon="-3.06648">
        <ele>208</ele>
        <time>2014-04-27T11:07:51Z</time>
      </trkpt>
      <trkpt lat="48.48063" lon="-3.06648">
        <ele>208</ele>
        <time>2014-04-27T11:07:54Z</time>
      </trkpt>
      <trkpt lat="48.4806" lon="-3.0665">
        <ele>207</ele>
        <time>2014-04-27T11:07:55Z</time>
      </trkpt>
      <trkpt lat="48.48057" lon="-3.06652">
        <ele>206</ele>
        <time>2014-04-27T11:07:56Z</time>
      </trkpt>
      <trkpt lat="48.48059" lon="-3.06655">
        <ele>205</ele>
        <time>2014-04-27T11:07:57Z</time>
      </trkpt>
      <trkpt lat="48.48063" lon="-3.06662">
        <ele>203</ele>
        <time>2014-04-27T11:07:59Z</time>
      </trkpt>
      <trkpt lat="48.48064" lon="-3.06664">
        <ele>202</ele>
        <time>2014-04-27T11:08:00Z</time>
      </trkpt>
      <trkpt lat="48.48067" lon="-3.06667">
        <ele>200</ele>
        <time>2014-04-27T11:08:04Z</time>
      </trkpt>
      <trkpt lat="48.48069" lon="-3.06666">
        <ele>199</ele>
        <time>2014-04-27T11:08:05Z</time>
      </trkpt>
      <trkpt lat="48.48071" lon="-3.06667">
        <ele>198</ele>
        <time>2014-04-27T11:08:06Z</time>
      </trkpt>
      <trkpt lat="48.48073" lon="-3.06667">
        <ele>197</ele>
        <time>2014-04-27T11:08:07Z</time>
      </trkpt>
      <trkpt lat="48.48082" lon="-3.06677">
        <ele>195</ele>
        <time>2014-04-27T11:08:12Z</time>
      </trkpt>
      <trkpt lat="48.48084" lon="-3.06676">
        <ele>195</ele>
        <time>2014-04-27T11:08:13Z</time>
      </trkpt>
      <trkpt lat="48.48086" lon="-3.06674">
        <ele>194</ele>
        <time>2014-04-27T11:08:14Z</time>
      </trkpt>
      <trkpt lat="48.48088" lon="-3.06674">
        <ele>194</ele>
        <time>2014-04-27T11:08:15Z</time>
      </trkpt>
      <trkpt lat="48.48088" lon="-3.06673">
        <ele>194</ele>
        <time>2014-04-27T11:08:16Z</time>
      </trkpt>
      <trkpt lat="48.48088" lon="-3.06671">
        <ele>194</ele>
        <time>2014-04-27T11:08:18Z</time>
      </trkpt>
      <trkpt lat="48.48089" lon="-3.06669">
        <ele>194</ele>
        <time>2014-04-27T11:08:21Z</time>
      </trkpt>
      <trkpt lat="48.4809" lon="-3.06672">
        <ele>196</ele>
        <time>2014-04-27T11:08:23Z</time>
      </trkpt>
      <trkpt lat="48.48092" lon="-3.06674">
        <ele>196</ele>
        <time>2014-04-27T11:08:24Z</time>
      </trkpt>
      <trkpt lat="48.48093" lon="-3.06676">
        <ele>196</ele>
        <time>2014-04-27T11:08:25Z</time>
      </trkpt>
      <trkpt lat="48.48093" lon="-3.06678">
        <ele>196</ele>
        <time>2014-04-27T11:08:29Z</time>
      </trkpt>
      <trkpt lat="48.48097" lon="-3.0668">
        <ele>196</ele>
        <time>2014-04-27T11:08:34Z</time>
      </trkpt>
      <trkpt lat="48.48098" lon="-3.06686">
        <ele>196</ele>
        <time>2014-04-27T11:08:35Z</time>
      </trkpt>
      <trkpt lat="48.481" lon="-3.06689">
        <ele>196</ele>
        <time>2014-04-27T11:08:36Z</time>
      </trkpt>
      <trkpt lat="48.48101" lon="-3.06691">
        <ele>196</ele>
        <time>2014-04-27T11:08:37Z</time>
      </trkpt>
      <trkpt lat="48.48105" lon="-3.06695">
        <ele>196</ele>
        <time>2014-04-27T11:08:38Z</time>
      </trkpt>
      <trkpt lat="48.48107" lon="-3.06699">
        <ele>195</ele>
        <time>2014-04-27T11:08:39Z</time>
      </trkpt>
      <trkpt lat="48.48108" lon="-3.06701">
        <ele>194</ele>
        <time>2014-04-27T11:08:40Z</time>
      </trkpt>
      <trkpt lat="48.48106" lon="-3.06702">
        <ele>193</ele>
        <time>2014-04-27T11:08:41Z</time>
      </trkpt>
      <trkpt lat="48.48107" lon="-3.06706">
        <ele>192</ele>
        <time>2014-04-27T11:08:44Z</time>
      </trkpt>
      <trkpt lat="48.48106" lon="-3.06705">
        <ele>190</ele>
        <time>2014-04-27T11:08:46Z</time>
      </trkpt>
      <trkpt lat="48.48104" lon="-3.06705">
        <ele>189</ele>
        <time>2014-04-27T11:08:47Z</time>
      </trkpt>
      <trkpt lat="48.48106" lon="-3.06709">
        <ele>188</ele>
        <time>2014-04-27T11:08:53Z</time>
      </trkpt>
      <trkpt lat="48.48108" lon="-3.0671">
        <ele>188</ele>
        <time>2014-04-27T11:08:54Z</time>
      </trkpt>
      <trkpt lat="48.4811" lon="-3.06711">
        <ele>188</ele>
        <time>2014-04-27T11:08:55Z</time>
      </trkpt>
      <trkpt lat="48.48111" lon="-3.06712">
        <ele>188</ele>
        <time>2014-04-27T11:08:56Z</time>
      </trkpt>
      <trkpt lat="48.48113" lon="-3.0671">
        <ele>188</ele>
        <time>2014-04-27T11:08:59Z</time>
      </trkpt>
      <trkpt lat="48.48115" lon="-3.06711">
        <ele>188</ele>
        <time>2014-04-27T11:09:01Z</time>
      </trkpt>
      <trkpt lat="48.48115" lon="-3.06714">
        <ele>193</ele>
        <time>2014-04-27T11:09:08Z</time>
      </trkpt>
      <trkpt lat="48.48115" lon="-3.06716">
        <ele>193</ele>
        <time>2014-04-27T11:09:09Z</time>
      </trkpt>
      <trkpt lat="48.48114" lon="-3.06719">
        <ele>193</ele>
        <time>2014-04-27T11:09:10Z</time>
      </trkpt>
      <trkpt lat="48.48114" lon="-3.06721">
        <ele>193</ele>
        <time>2014-04-27T11:09:11Z</time>
      </trkpt>
      <trkpt lat="48.48114" lon="-3.06723">
        <ele>193</ele>
        <time>2014-04-27T11:09:12Z</time>
      </trkpt>
      <trkpt lat="48.48114" lon="-3.06726">
        <ele>193</ele>
        <time>2014-04-27T11:09:13Z</time>
      </trkpt>
      <trkpt lat="48.48114" lon="-3.06727">
        <ele>193</ele>
        <time>2014-04-27T11:09:14Z</time>
      </trkpt>
      <trkpt lat="48.48115" lon="-3.06731">
        <ele>193</ele>
        <time>2014-04-27T11:09:16Z</time>
      </trkpt>
      <trkpt lat="48.48116" lon="-3.06736">
        <ele>193</ele>
        <time>2014-04-27T11:09:19Z</time>
      </trkpt>
      <trkpt lat="48.48115" lon="-3.0674">
        <ele>193</ele>
        <time>2014-04-27T11:09:20Z</time>
      </trkpt>
      <trkpt lat="48.48115" lon="-3.06742">
        <ele>193</ele>
        <time>2014-04-27T11:09:21Z</time>
      </trkpt>
      <trkpt lat="48.48116" lon="-3.06743">
        <ele>193</ele>
        <time>2014-04-27T11:09:22Z</time>
      </trkpt>
      <trkpt lat="48.48118" lon="-3.06747">
        <ele>193</ele>
        <time>2014-04-27T11:09:23Z</time>
      </trkpt>
      <trkpt lat="48.48119" lon="-3.06749">
        <ele>194</ele>
        <time>2014-04-27T11:09:25Z</time>
      </trkpt>
      <trkpt lat="48.48119" lon="-3.06753">
        <ele>194</ele>
        <time>2014-04-27T11:09:26Z</time>
      </trkpt>
      <trkpt lat="48.48121" lon="-3.06752">
        <ele>194</ele>
        <time>2014-04-27T11:09:28Z</time>
      </trkpt>
      <trkpt lat="48.48121" lon="-3.06756">
        <ele>194</ele>
        <time>2014-04-27T11:09:30Z</time>
      </trkpt>
      <trkpt lat="48.4812" lon="-3.06757">
        <ele>194</ele>
        <time>2014-04-27T11:09:32Z</time>
      </trkpt>
      <trkpt lat="48.48117" lon="-3.06758">
        <ele>194</ele>
        <time>2014-04-27T11:09:34Z</time>
      </trkpt>
      <trkpt lat="48.48117" lon="-3.0676">
        <ele>196</ele>
        <time>2014-04-27T11:09:38Z</time>
      </trkpt>
      <trkpt lat="48.48116" lon="-3.06761">
        <ele>197</ele>
        <time>2014-04-27T11:09:39Z</time>
      </trkpt>
      <trkpt lat="48.48117" lon="-3.06763">
        <ele>198</ele>
        <time>2014-04-27T11:09:40Z</time>
      </trkpt>
      <trkpt lat="48.48115" lon="-3.06765">
        <ele>199</ele>
        <time>2014-04-27T11:09:41Z</time>
      </trkpt>
      <trkpt lat="48.48115" lon="-3.06767">
        <ele>200</ele>
        <time>2014-04-27T11:09:42Z</time>
      </trkpt>
      <trkpt lat="48.48116" lon="-3.06772">
        <ele>201</ele>
        <time>2014-04-27T11:09:47Z</time>
      </trkpt>
      <trkpt lat="48.48118" lon="-3.06782">
        <ele>202</ele>
        <time>2014-04-27T11:09:48Z</time>
      </trkpt>
      <trkpt lat="48.48119" lon="-3.06785">
        <ele>202</ele>
        <time>2014-04-27T11:09:49Z</time>
      </trkpt>
      <trkpt lat="48.48119" lon="-3.06789">
        <ele>202</ele>
        <time>2014-04-27T11:09:50Z</time>
      </trkpt>
      <trkpt lat="48.48118" lon="-3.06792">
        <ele>202</ele>
        <time>2014-04-27T11:09:51Z</time>
      </trkpt>
      <trkpt lat="48.48117" lon="-3.06794">
        <ele>202</ele>
        <time>2014-04-27T11:09:53Z</time>
      </trkpt>
      <trkpt lat="48.48115" lon="-3.06795">
        <ele>202</ele>
        <time>2014-04-27T11:09:54Z</time>
      </trkpt>
      <trkpt lat="48.48113" lon="-3.06797">
        <ele>202</ele>
        <time>2014-04-27T11:09:56Z</time>
      </trkpt>
      <trkpt lat="48.48112" lon="-3.06799">
        <ele>206</ele>
        <time>2014-04-27T11:10:01Z</time>
      </trkpt>
      <trkpt lat="48.48112" lon="-3.06802">
        <ele>207</ele>
        <time>2014-04-27T11:10:03Z</time>
      </trkpt>
      <trkpt lat="48.4811" lon="-3.06805">
        <ele>207</ele>
        <time>2014-04-27T11:10:06Z</time>
      </trkpt>
      <trkpt lat="48.4811" lon="-3.06807">
        <ele>207</ele>
        <time>2014-04-27T11:10:08Z</time>
      </trkpt>
      <trkpt lat="48.4811" lon="-3.06809">
        <ele>207</ele>
        <time>2014-04-27T11:10:09Z</time>
      </trkpt>
      <trkpt lat="48.4811" lon="-3.06814">
        <ele>207</ele>
        <time>2014-04-27T11:10:14Z</time>
      </trkpt>
      <trkpt lat="48.48111" lon="-3.06818">
        <ele>207</ele>
        <time>2014-04-27T11:10:15Z</time>
      </trkpt>
      <trkpt lat="48.48112" lon="-3.06819">
        <ele>207</ele>
        <time>2014-04-27T11:10:16Z</time>
      </trkpt>
      <trkpt lat="48.48113" lon="-3.06822">
        <ele>207</ele>
        <time>2014-04-27T11:10:19Z</time>
      </trkpt>
      <trkpt lat="48.48114" lon="-3.06825">
        <ele>207</ele>
        <time>2014-04-27T11:10:20Z</time>
      </trkpt>
      <trkpt lat="48.48117" lon="-3.06827">
        <ele>207</ele>
        <time>2014-04-27T11:10:21Z</time>
      </trkpt>
      <trkpt lat="48.48119" lon="-3.06829">
        <ele>207</ele>
        <time>2014-04-27T11:10:22Z</time>
      </trkpt>
      <trkpt lat="48.48121" lon="-3.06829">
        <ele>207</ele>
        <time>2014-04-27T11:10:23Z</time>
      </trkpt>
      <trkpt lat="48.48122" lon="-3.0683">
        <ele>207</ele>
        <time>2014-04-27T11:10:24Z</time>
      </trkpt>
      <trkpt lat="48.48123" lon="-3.06828">
        <ele>207</ele>
        <time>2014-04-27T11:10:25Z</time>
      </trkpt>
      <trkpt lat="48.48126" lon="-3.06827">
        <ele>206</ele>
        <time>2014-04-27T11:10:27Z</time>
      </trkpt>
      <trkpt lat="48.48127" lon="-3.06827">
        <ele>205</ele>
        <time>2014-04-27T11:10:28Z</time>
      </trkpt>
      <trkpt lat="48.4813" lon="-3.06827">
        <ele>205</ele>
        <time>2014-04-27T11:10:29Z</time>
      </trkpt>
      <trkpt lat="48.48131" lon="-3.06827">
        <ele>204</ele>
        <time>2014-04-27T11:10:30Z</time>
      </trkpt>
      <trkpt lat="48.48132" lon="-3.06827">
        <ele>203</ele>
        <time>2014-04-27T11:10:31Z</time>
      </trkpt>
      <trkpt lat="48.48134" lon="-3.06828">
        <ele>202</ele>
        <time>2014-04-27T11:10:32Z</time>
      </trkpt>
      <trkpt lat="48.48135" lon="-3.06829">
        <ele>201</ele>
        <time>2014-04-27T11:10:33Z</time>
      </trkpt>
      <trkpt lat="48.48137" lon="-3.06828">
        <ele>199</ele>
        <time>2014-04-27T11:10:35Z</time>
      </trkpt>
      <trkpt lat="48.48139" lon="-3.06828">
        <ele>199</ele>
        <time>2014-04-27T11:10:37Z</time>
      </trkpt>
      <trkpt lat="48.48141" lon="-3.06826">
        <ele>199</ele>
        <time>2014-04-27T11:10:39Z</time>
      </trkpt>
      <trkpt lat="48.48144" lon="-3.06826">
        <ele>199</ele>
        <time>2014-04-27T11:10:42Z</time>
      </trkpt>
      <trkpt lat="48.48146" lon="-3.06825">
        <ele>199</ele>
        <time>2014-04-27T11:10:43Z</time>
      </trkpt>
      <trkpt lat="48.48151" lon="-3.06823">
        <ele>199</ele>
        <time>2014-04-27T11:10:46Z</time>
      </trkpt>
      <trkpt lat="48.48154" lon="-3.06822">
        <ele>199</ele>
        <time>2014-04-27T11:10:47Z</time>
      </trkpt>
      <trkpt lat="48.48156" lon="-3.06821">
        <ele>198</ele>
        <time>2014-04-27T11:10:48Z</time>
      </trkpt>
      <trkpt lat="48.48159" lon="-3.0682">
        <ele>197</ele>
        <time>2014-04-27T11:10:50Z</time>
      </trkpt>
      <trkpt lat="48.4816" lon="-3.0682">
        <ele>197</ele>
        <time>2014-04-27T11:10:51Z</time>
      </trkpt>
      <trkpt lat="48.48162" lon="-3.06821">
        <ele>197</ele>
        <time>2014-04-27T11:10:55Z</time>
      </trkpt>
      <trkpt lat="48.48165" lon="-3.06822">
        <ele>197</ele>
        <time>2014-04-27T11:10:56Z</time>
      </trkpt>
      <trkpt lat="48.48165" lon="-3.06819">
        <ele>197</ele>
        <time>2014-04-27T11:10:57Z</time>
      </trkpt>
      <trkpt lat="48.48167" lon="-3.06819">
        <ele>197</ele>
        <time>2014-04-27T11:10:58Z</time>
      </trkpt>
      <trkpt lat="48.48169" lon="-3.06818">
        <ele>199</ele>
        <time>2014-04-27T11:11:01Z</time>
      </trkpt>
      <trkpt lat="48.4817" lon="-3.06816">
        <ele>201</ele>
        <time>2014-04-27T11:11:03Z</time>
      </trkpt>
      <trkpt lat="48.48172" lon="-3.06816">
        <ele>202</ele>
        <time>2014-04-27T11:11:04Z</time>
      </trkpt>
      <trkpt lat="48.48175" lon="-3.06815">
        <ele>203</ele>
        <time>2014-04-27T11:11:06Z</time>
      </trkpt>
      <trkpt lat="48.48176" lon="-3.06816">
        <ele>203</ele>
        <time>2014-04-27T11:11:08Z</time>
      </trkpt>
      <trkpt lat="48.48177" lon="-3.06814">
        <ele>203</ele>
        <time>2014-04-27T11:11:09Z</time>
      </trkpt>
      <trkpt lat="48.48178" lon="-3.06813">
        <ele>203</ele>
        <time>2014-04-27T11:11:10Z</time>
      </trkpt>
      <trkpt lat="48.4818" lon="-3.06813">
        <ele>203</ele>
        <time>2014-04-27T11:11:11Z</time>
      </trkpt>
      <trkpt lat="48.48181" lon="-3.06812">
        <ele>205</ele>
        <time>2014-04-27T11:11:13Z</time>
      </trkpt>
      <trkpt lat="48.48182" lon="-3.0681">
        <ele>206</ele>
        <time>2014-04-27T11:11:14Z</time>
      </trkpt>
      <trkpt lat="48.48184" lon="-3.06809">
        <ele>206</ele>
        <time>2014-04-27T11:11:16Z</time>
      </trkpt>
      <trkpt lat="48.48185" lon="-3.06807">
        <ele>208</ele>
        <time>2014-04-27T11:11:18Z</time>
      </trkpt>
      <trkpt lat="48.48187" lon="-3.06806">
        <ele>209</ele>
        <time>2014-04-27T11:11:20Z</time>
      </trkpt>
      <trkpt lat="48.48189" lon="-3.06805">
        <ele>209</ele>
        <time>2014-04-27T11:11:21Z</time>
      </trkpt>
      <trkpt lat="48.4819" lon="-3.06804">
        <ele>210</ele>
        <time>2014-04-27T11:11:22Z</time>
      </trkpt>
      <trkpt lat="48.48192" lon="-3.06805">
        <ele>211</ele>
        <time>2014-04-27T11:11:23Z</time>
      </trkpt>
      <trkpt lat="48.48194" lon="-3.06806">
        <ele>211</ele>
        <time>2014-04-27T11:11:25Z</time>
      </trkpt>
      <trkpt lat="48.48195" lon="-3.06803">
        <ele>211</ele>
        <time>2014-04-27T11:11:27Z</time>
      </trkpt>
      <trkpt lat="48.48196" lon="-3.06801">
        <ele>211</ele>
        <time>2014-04-27T11:11:29Z</time>
      </trkpt>
      <trkpt lat="48.48198" lon="-3.06798">
        <ele>211</ele>
        <time>2014-04-27T11:11:31Z</time>
      </trkpt>
      <trkpt lat="48.482" lon="-3.06797">
        <ele>211</ele>
        <time>2014-04-27T11:11:34Z</time>
      </trkpt>
      <trkpt lat="48.48202" lon="-3.06796">
        <ele>211</ele>
        <time>2014-04-27T11:11:36Z</time>
      </trkpt>
      <trkpt lat="48.48204" lon="-3.06796">
        <ele>212</ele>
        <time>2014-04-27T11:11:38Z</time>
      </trkpt>
      <trkpt lat="48.48203" lon="-3.06797">
        <ele>214</ele>
        <time>2014-04-27T11:11:42Z</time>
      </trkpt>
      <trkpt lat="48.48203" lon="-3.068">
        <ele>214</ele>
        <time>2014-04-27T11:11:50Z</time>
      </trkpt>
      <trkpt lat="48.48204" lon="-3.06803">
        <ele>214</ele>
        <time>2014-04-27T11:11:52Z</time>
      </trkpt>
      <trkpt lat="48.48205" lon="-3.06805">
        <ele>214</ele>
        <time>2014-04-27T11:11:54Z</time>
      </trkpt>
      <trkpt lat="48.48207" lon="-3.06806">
        <ele>212</ele>
        <time>2014-04-27T11:11:58Z</time>
      </trkpt>
      <trkpt lat="48.48207" lon="-3.06809">
        <ele>212</ele>
        <time>2014-04-27T11:12:00Z</time>
      </trkpt>
      <trkpt lat="48.48208" lon="-3.06811">
        <ele>212</ele>
        <time>2014-04-27T11:12:02Z</time>
      </trkpt>
      <trkpt lat="48.48209" lon="-3.06811">
        <ele>208</ele>
        <time>2014-04-27T11:12:11Z</time>
      </trkpt>
      <trkpt lat="48.48206" lon="-3.06812">
        <ele>206</ele>
        <time>2014-04-27T11:12:17Z</time>
      </trkpt>
      <trkpt lat="48.48207" lon="-3.06811">
        <ele>206</ele>
        <time>2014-04-27T11:12:22Z</time>
      </trkpt>
      <trkpt lat="48.48207" lon="-3.06809">
        <ele>206</ele>
        <time>2014-04-27T11:12:24Z</time>
      </trkpt>
      <trkpt lat="48.48206" lon="-3.06808">
        <ele>206</ele>
        <time>2014-04-27T11:12:29Z</time>
      </trkpt>
      <trkpt lat="48.48204" lon="-3.06809">
        <ele>206</ele>
        <time>2014-04-27T11:12:41Z</time>
      </trkpt>
      <trkpt lat="48.48204" lon="-3.06808">
        <ele>206</ele>
        <time>2014-04-27T11:12:44Z</time>
      </trkpt>
      <trkpt lat="48.48204" lon="-3.06806">
        <ele>206</ele>
        <time>2014-04-27T11:12:56Z</time>
      </trkpt>
      <trkpt lat="48.48206" lon="-3.06805">
        <ele>206</ele>
        <time>2014-04-27T11:13:00Z</time>
      </trkpt>
      <trkpt lat="48.48207" lon="-3.06805">
        <ele>205</ele>
        <time>2014-04-27T11:13:06Z</time>
      </trkpt>
      <trkpt lat="48.48208" lon="-3.06804">
        <ele>202</ele>
        <time>2014-04-27T11:13:12Z</time>
      </trkpt>
      <trkpt lat="48.4821" lon="-3.06805">
        <ele>202</ele>
        <time>2014-04-27T11:13:16Z</time>
      </trkpt>
      <trkpt lat="48.48211" lon="-3.06806">
        <ele>202</ele>
        <time>2014-04-27T11:13:20Z</time>
      </trkpt>
      <trkpt lat="48.48209" lon="-3.06806">
        <ele>202</ele>
        <time>2014-04-27T11:13:33Z</time>
      </trkpt>
      <trkpt lat="48.48209" lon="-3.06808">
        <ele>202</ele>
        <time>2014-04-27T11:13:42Z</time>
      </trkpt>
      <trkpt lat="48.48208" lon="-3.06809">
        <ele>200</ele>
        <time>2014-04-27T11:13:52Z</time>
      </trkpt>
      <trkpt lat="48.48208" lon="-3.06812">
        <ele>200</ele>
        <time>2014-04-27T11:13:57Z</time>
      </trkpt>
      <trkpt lat="48.48208" lon="-3.06814">
        <ele>200</ele>
        <time>2014-04-27T11:13:58Z</time>
      </trkpt>
      <trkpt lat="48.48208" lon="-3.06816">
        <ele>200</ele>
        <time>2014-04-27T11:13:59Z</time>
      </trkpt>
      <trkpt lat="48.48209" lon="-3.06818">
        <ele>200</ele>
        <time>2014-04-27T11:14:01Z</time>
      </trkpt>
      <trkpt lat="48.4821" lon="-3.06819">
        <ele>202</ele>
        <time>2014-04-27T11:14:10Z</time>
      </trkpt>
      <trkpt lat="48.48211" lon="-3.06817">
        <ele>203</ele>
        <time>2014-04-27T11:14:12Z</time>
      </trkpt>
      <trkpt lat="48.4821" lon="-3.06815">
        <ele>203</ele>
        <time>2014-04-27T11:14:13Z</time>
      </trkpt>
      <trkpt lat="48.4821" lon="-3.06813">
        <ele>203</ele>
        <time>2014-04-27T11:14:15Z</time>
      </trkpt>
      <trkpt lat="48.48211" lon="-3.06813">
        <ele>203</ele>
        <time>2014-04-27T11:14:18Z</time>
      </trkpt>
      <trkpt lat="48.48211" lon="-3.0681">
        <ele>203</ele>
        <time>2014-04-27T11:14:20Z</time>
      </trkpt>
      <trkpt lat="48.48212" lon="-3.06812">
        <ele>203</ele>
        <time>2014-04-27T11:14:23Z</time>
      </trkpt>
      <trkpt lat="48.48213" lon="-3.06811">
        <ele>204</ele>
        <time>2014-04-27T11:14:26Z</time>
      </trkpt>
      <trkpt lat="48.48212" lon="-3.0681">
        <ele>204</ele>
        <time>2014-04-27T11:14:30Z</time>
      </trkpt>
      <trkpt lat="48.48213" lon="-3.06811">
        <ele>200</ele>
        <time>2014-04-27T11:14:44Z</time>
      </trkpt>
      <trkpt lat="48.48215" lon="-3.06812">
        <ele>199</ele>
        <time>2014-04-27T11:14:47Z</time>
      </trkpt>
      <trkpt lat="48.48216" lon="-3.06813">
        <ele>199</ele>
        <time>2014-04-27T11:14:49Z</time>
      </trkpt>
      <trkpt lat="48.48217" lon="-3.06815">
        <ele>199</ele>
        <time>2014-04-27T11:14:50Z</time>
      </trkpt>
      <trkpt lat="48.48217" lon="-3.06817">
        <ele>199</ele>
        <time>2014-04-27T11:14:51Z</time>
      </trkpt>
      <trkpt lat="48.48217" lon="-3.06819">
        <ele>199</ele>
        <time>2014-04-27T11:14:53Z</time>
      </trkpt>
      <trkpt lat="48.48218" lon="-3.0682">
        <ele>199</ele>
        <time>2014-04-27T11:14:54Z</time>
      </trkpt>
      <trkpt lat="48.4822" lon="-3.06822">
        <ele>199</ele>
        <time>2014-04-27T11:14:55Z</time>
      </trkpt>
      <trkpt lat="48.4822" lon="-3.06823">
        <ele>199</ele>
        <time>2014-04-27T11:14:58Z</time>
      </trkpt>
      <trkpt lat="48.48223" lon="-3.06826">
        <ele>199</ele>
        <time>2014-04-27T11:15:00Z</time>
      </trkpt>
      <trkpt lat="48.48224" lon="-3.06827">
        <ele>200</ele>
        <time>2014-04-27T11:15:02Z</time>
      </trkpt>
      <trkpt lat="48.48224" lon="-3.06828">
        <ele>202</ele>
        <time>2014-04-27T11:15:04Z</time>
      </trkpt>
      <trkpt lat="48.48224" lon="-3.0683">
        <ele>202</ele>
        <time>2014-04-27T11:15:07Z</time>
      </trkpt>
      <trkpt lat="48.48224" lon="-3.06832">
        <ele>202</ele>
        <time>2014-04-27T11:15:11Z</time>
      </trkpt>
      <trkpt lat="48.48225" lon="-3.06834">
        <ele>206</ele>
        <time>2014-04-27T11:15:16Z</time>
      </trkpt>
      <trkpt lat="48.48227" lon="-3.06835">
        <ele>207</ele>
        <time>2014-04-27T11:15:17Z</time>
      </trkpt>
      <trkpt lat="48.48229" lon="-3.06837">
        <ele>208</ele>
        <time>2014-04-27T11:15:18Z</time>
      </trkpt>
      <trkpt lat="48.48233" lon="-3.06844">
        <ele>208</ele>
        <time>2014-04-27T11:15:19Z</time>
      </trkpt>
      <trkpt lat="48.48235" lon="-3.06848">
        <ele>208</ele>
        <time>2014-04-27T11:15:20Z</time>
      </trkpt>
      <trkpt lat="48.48236" lon="-3.06851">
        <ele>208</ele>
        <time>2014-04-27T11:15:21Z</time>
      </trkpt>
      <trkpt lat="48.48236" lon="-3.06853">
        <ele>207</ele>
        <time>2014-04-27T11:15:22Z</time>
      </trkpt>
      <trkpt lat="48.48237" lon="-3.06854">
        <ele>206</ele>
        <time>2014-04-27T11:15:23Z</time>
      </trkpt>
      <trkpt lat="48.4824" lon="-3.06856">
        <ele>204</ele>
        <time>2014-04-27T11:15:25Z</time>
      </trkpt>
      <trkpt lat="48.48242" lon="-3.06858">
        <ele>203</ele>
        <time>2014-04-27T11:15:26Z</time>
      </trkpt>
      <trkpt lat="48.48242" lon="-3.06859">
        <ele>202</ele>
        <time>2014-04-27T11:15:27Z</time>
      </trkpt>
      <trkpt lat="48.48243" lon="-3.06861">
        <ele>201</ele>
        <time>2014-04-27T11:15:28Z</time>
      </trkpt>
      <trkpt lat="48.48243" lon="-3.06864">
        <ele>199</ele>
        <time>2014-04-27T11:15:30Z</time>
      </trkpt>
      <trkpt lat="48.48246" lon="-3.06865">
        <ele>198</ele>
        <time>2014-04-27T11:15:32Z</time>
      </trkpt>
      <trkpt lat="48.48248" lon="-3.06866">
        <ele>198</ele>
        <time>2014-04-27T11:15:33Z</time>
      </trkpt>
      <trkpt lat="48.48249" lon="-3.06866">
        <ele>198</ele>
        <time>2014-04-27T11:15:34Z</time>
      </trkpt>
      <trkpt lat="48.48251" lon="-3.06868">
        <ele>198</ele>
        <time>2014-04-27T11:15:36Z</time>
      </trkpt>
      <trkpt lat="48.48252" lon="-3.0687">
        <ele>198</ele>
        <time>2014-04-27T11:15:38Z</time>
      </trkpt>
      <trkpt lat="48.48253" lon="-3.06872">
        <ele>198</ele>
        <time>2014-04-27T11:15:39Z</time>
      </trkpt>
      <trkpt lat="48.48254" lon="-3.06874">
        <ele>198</ele>
        <time>2014-04-27T11:15:41Z</time>
      </trkpt>
      <trkpt lat="48.48254" lon="-3.06877">
        <ele>198</ele>
        <time>2014-04-27T11:15:43Z</time>
      </trkpt>
      <trkpt lat="48.48255" lon="-3.0688">
        <ele>198</ele>
        <time>2014-04-27T11:15:45Z</time>
      </trkpt>
      <trkpt lat="48.48256" lon="-3.06884">
        <ele>198</ele>
        <time>2014-04-27T11:15:48Z</time>
      </trkpt>
      <trkpt lat="48.48255" lon="-3.06887">
        <ele>198</ele>
        <time>2014-04-27T11:15:50Z</time>
      </trkpt>
      <trkpt lat="48.48254" lon="-3.06889">
        <ele>198</ele>
        <time>2014-04-27T11:15:51Z</time>
      </trkpt>
      <trkpt lat="48.48256" lon="-3.0689">
        <ele>198</ele>
        <time>2014-04-27T11:15:53Z</time>
      </trkpt>
      <trkpt lat="48.48257" lon="-3.06892">
        <ele>196</ele>
        <time>2014-04-27T11:15:55Z</time>
      </trkpt>
      <trkpt lat="48.48259" lon="-3.06894">
        <ele>195</ele>
        <time>2014-04-27T11:15:57Z</time>
      </trkpt>
      <trkpt lat="48.48261" lon="-3.06896">
        <ele>194</ele>
        <time>2014-04-27T11:15:59Z</time>
      </trkpt>
      <trkpt lat="48.48261" lon="-3.06898">
        <ele>194</ele>
        <time>2014-04-27T11:16:00Z</time>
      </trkpt>
      <trkpt lat="48.48262" lon="-3.069">
        <ele>194</ele>
        <time>2014-04-27T11:16:02Z</time>
      </trkpt>
      <trkpt lat="48.48264" lon="-3.06902">
        <ele>193</ele>
        <time>2014-04-27T11:16:04Z</time>
      </trkpt>
      <trkpt lat="48.48266" lon="-3.06903">
        <ele>193</ele>
        <time>2014-04-27T11:16:05Z</time>
      </trkpt>
      <trkpt lat="48.48268" lon="-3.06904">
        <ele>193</ele>
        <time>2014-04-27T11:16:06Z</time>
      </trkpt>
      <trkpt lat="48.48269" lon="-3.06905">
        <ele>193</ele>
        <time>2014-04-27T11:16:07Z</time>
      </trkpt>
      <trkpt lat="48.48272" lon="-3.06907">
        <ele>193</ele>
        <time>2014-04-27T11:16:09Z</time>
      </trkpt>
      <trkpt lat="48.48273" lon="-3.06908">
        <ele>193</ele>
        <time>2014-04-27T11:16:10Z</time>
      </trkpt>
      <trkpt lat="48.48274" lon="-3.06908">
        <ele>193</ele>
        <time>2014-04-27T11:16:11Z</time>
      </trkpt>
      <trkpt lat="48.48277" lon="-3.0691">
        <ele>193</ele>
        <time>2014-04-27T11:16:13Z</time>
      </trkpt>
      <trkpt lat="48.48278" lon="-3.06913">
        <ele>193</ele>
        <time>2014-04-27T11:16:15Z</time>
      </trkpt>
      <trkpt lat="48.48278" lon="-3.06915">
        <ele>193</ele>
        <time>2014-04-27T11:16:16Z</time>
      </trkpt>
      <trkpt lat="48.48279" lon="-3.06916">
        <ele>193</ele>
        <time>2014-04-27T11:16:17Z</time>
      </trkpt>
      <trkpt lat="48.4828" lon="-3.06917">
        <ele>193</ele>
        <time>2014-04-27T11:16:18Z</time>
      </trkpt>
      <trkpt lat="48.48281" lon="-3.06919">
        <ele>193</ele>
        <time>2014-04-27T11:16:19Z</time>
      </trkpt>
      <trkpt lat="48.48282" lon="-3.06921">
        <ele>193</ele>
        <time>2014-04-27T11:16:21Z</time>
      </trkpt>
      <trkpt lat="48.48283" lon="-3.06924">
        <ele>194</ele>
        <time>2014-04-27T11:16:23Z</time>
      </trkpt>
      <trkpt lat="48.48284" lon="-3.06927">
        <ele>194</ele>
        <time>2014-04-27T11:16:25Z</time>
      </trkpt>
      <trkpt lat="48.48286" lon="-3.06927">
        <ele>194</ele>
        <time>2014-04-27T11:16:26Z</time>
      </trkpt>
      <trkpt lat="48.48287" lon="-3.06928">
        <ele>194</ele>
        <time>2014-04-27T11:16:27Z</time>
      </trkpt>
      <trkpt lat="48.48288" lon="-3.06929">
        <ele>194</ele>
        <time>2014-04-27T11:16:28Z</time>
      </trkpt>
      <trkpt lat="48.48289" lon="-3.0693">
        <ele>194</ele>
        <time>2014-04-27T11:16:29Z</time>
      </trkpt>
      <trkpt lat="48.48291" lon="-3.06932">
        <ele>194</ele>
        <time>2014-04-27T11:16:31Z</time>
      </trkpt>
      <trkpt lat="48.48292" lon="-3.06933">
        <ele>194</ele>
        <time>2014-04-27T11:16:32Z</time>
      </trkpt>
      <trkpt lat="48.48294" lon="-3.06934">
        <ele>194</ele>
        <time>2014-04-27T11:16:33Z</time>
      </trkpt>
      <trkpt lat="48.48295" lon="-3.06935">
        <ele>194</ele>
        <time>2014-04-27T11:16:34Z</time>
      </trkpt>
      <trkpt lat="48.48296" lon="-3.06937">
        <ele>194</ele>
        <time>2014-04-27T11:16:36Z</time>
      </trkpt>
      <trkpt lat="48.48298" lon="-3.06939">
        <ele>194</ele>
        <time>2014-04-27T11:16:38Z</time>
      </trkpt>
      <trkpt lat="48.48298" lon="-3.06941">
        <ele>195</ele>
        <time>2014-04-27T11:16:39Z</time>
      </trkpt>
      <trkpt lat="48.48299" lon="-3.06943">
        <ele>195</ele>
        <time>2014-04-27T11:16:41Z</time>
      </trkpt>
      <trkpt lat="48.483" lon="-3.06946">
        <ele>195</ele>
        <time>2014-04-27T11:16:43Z</time>
      </trkpt>
      <trkpt lat="48.48301" lon="-3.06947">
        <ele>195</ele>
        <time>2014-04-27T11:16:44Z</time>
      </trkpt>
      <trkpt lat="48.48303" lon="-3.0695">
        <ele>195</ele>
        <time>2014-04-27T11:16:46Z</time>
      </trkpt>
      <trkpt lat="48.48304" lon="-3.06952">
        <ele>195</ele>
        <time>2014-04-27T11:16:48Z</time>
      </trkpt>
      <trkpt lat="48.48306" lon="-3.06954">
        <ele>195</ele>
        <time>2014-04-27T11:16:50Z</time>
      </trkpt>
      <trkpt lat="48.48307" lon="-3.06957">
        <ele>195</ele>
        <time>2014-04-27T11:16:53Z</time>
      </trkpt>
      <trkpt lat="48.48309" lon="-3.06958">
        <ele>195</ele>
        <time>2014-04-27T11:16:55Z</time>
      </trkpt>
      <trkpt lat="48.48311" lon="-3.06958">
        <ele>195</ele>
        <time>2014-04-27T11:16:56Z</time>
      </trkpt>
      <trkpt lat="48.48312" lon="-3.06959">
        <ele>195</ele>
        <time>2014-04-27T11:16:57Z</time>
      </trkpt>
      <trkpt lat="48.48313" lon="-3.0696">
        <ele>195</ele>
        <time>2014-04-27T11:16:58Z</time>
      </trkpt>
      <trkpt lat="48.48315" lon="-3.06961">
        <ele>195</ele>
        <time>2014-04-27T11:16:59Z</time>
      </trkpt>
      <trkpt lat="48.48316" lon="-3.06962">
        <ele>195</ele>
        <time>2014-04-27T11:17:00Z</time>
      </trkpt>
      <trkpt lat="48.48318" lon="-3.06964">
        <ele>195</ele>
        <time>2014-04-27T11:17:02Z</time>
      </trkpt>
      <trkpt lat="48.4832" lon="-3.06964">
        <ele>195</ele>
        <time>2014-04-27T11:17:03Z</time>
      </trkpt>
      <trkpt lat="48.48321" lon="-3.06965">
        <ele>195</ele>
        <time>2014-04-27T11:17:04Z</time>
      </trkpt>
      <trkpt lat="48.48324" lon="-3.06967">
        <ele>195</ele>
        <time>2014-04-27T11:17:06Z</time>
      </trkpt>
      <trkpt lat="48.48325" lon="-3.0697">
        <ele>195</ele>
        <time>2014-04-27T11:17:08Z</time>
      </trkpt>
      <trkpt lat="48.48326" lon="-3.06973">
        <ele>195</ele>
        <time>2014-04-27T11:17:10Z</time>
      </trkpt>
      <trkpt lat="48.48327" lon="-3.06976">
        <ele>195</ele>
        <time>2014-04-27T11:17:12Z</time>
      </trkpt>
      <trkpt lat="48.48329" lon="-3.06979">
        <ele>195</ele>
        <time>2014-04-27T11:17:14Z</time>
      </trkpt>
      <trkpt lat="48.48331" lon="-3.06982">
        <ele>195</ele>
        <time>2014-04-27T11:17:16Z</time>
      </trkpt>
      <trkpt lat="48.48333" lon="-3.06983">
        <ele>195</ele>
        <time>2014-04-27T11:17:18Z</time>
      </trkpt>
      <trkpt lat="48.48334" lon="-3.06986">
        <ele>195</ele>
        <time>2014-04-27T11:17:20Z</time>
      </trkpt>
      <trkpt lat="48.48336" lon="-3.06988">
        <ele>195</ele>
        <time>2014-04-27T11:17:22Z</time>
      </trkpt>
      <trkpt lat="48.48336" lon="-3.0699">
        <ele>195</ele>
        <time>2014-04-27T11:17:23Z</time>
      </trkpt>
      <trkpt lat="48.48336" lon="-3.06994">
        <ele>195</ele>
        <time>2014-04-27T11:17:25Z</time>
      </trkpt>
      <trkpt lat="48.48337" lon="-3.06995">
        <ele>195</ele>
        <time>2014-04-27T11:17:26Z</time>
      </trkpt>
      <trkpt lat="48.48337" lon="-3.06997">
        <ele>195</ele>
        <time>2014-04-27T11:17:27Z</time>
      </trkpt>
      <trkpt lat="48.48338" lon="-3.07">
        <ele>195</ele>
        <time>2014-04-27T11:17:29Z</time>
      </trkpt>
      <trkpt lat="48.48339" lon="-3.07002">
        <ele>195</ele>
        <time>2014-04-27T11:17:30Z</time>
      </trkpt>
      <trkpt lat="48.48341" lon="-3.07005">
        <ele>195</ele>
        <time>2014-04-27T11:17:32Z</time>
      </trkpt>
      <trkpt lat="48.4834" lon="-3.07007">
        <ele>195</ele>
        <time>2014-04-27T11:17:33Z</time>
      </trkpt>
      <trkpt lat="48.4834" lon="-3.07009">
        <ele>195</ele>
        <time>2014-04-27T11:17:34Z</time>
      </trkpt>
      <trkpt lat="48.4834" lon="-3.07012">
        <ele>195</ele>
        <time>2014-04-27T11:17:36Z</time>
      </trkpt>
      <trkpt lat="48.48342" lon="-3.07015">
        <ele>195</ele>
        <time>2014-04-27T11:17:38Z</time>
      </trkpt>
      <trkpt lat="48.48344" lon="-3.07015">
        <ele>195</ele>
        <time>2014-04-27T11:17:39Z</time>
      </trkpt>
      <trkpt lat="48.48345" lon="-3.07018">
        <ele>195</ele>
        <time>2014-04-27T11:17:41Z</time>
      </trkpt>
      <trkpt lat="48.48346" lon="-3.07019">
        <ele>195</ele>
        <time>2014-04-27T11:17:42Z</time>
      </trkpt>
      <trkpt lat="48.48348" lon="-3.07021">
        <ele>196</ele>
        <time>2014-04-27T11:17:44Z</time>
      </trkpt>
      <trkpt lat="48.4835" lon="-3.07023">
        <ele>196</ele>
        <time>2014-04-27T11:17:45Z</time>
      </trkpt>
      <trkpt lat="48.48351" lon="-3.07023">
        <ele>196</ele>
        <time>2014-04-27T11:17:46Z</time>
      </trkpt>
      <trkpt lat="48.48353" lon="-3.07025">
        <ele>196</ele>
        <time>2014-04-27T11:17:48Z</time>
      </trkpt>
      <trkpt lat="48.48355" lon="-3.07027">
        <ele>196</ele>
        <time>2014-04-27T11:17:50Z</time>
      </trkpt>
      <trkpt lat="48.48356" lon="-3.07028">
        <ele>196</ele>
        <time>2014-04-27T11:17:51Z</time>
      </trkpt>
      <trkpt lat="48.48357" lon="-3.0703">
        <ele>196</ele>
        <time>2014-04-27T11:17:53Z</time>
      </trkpt>
      <trkpt lat="48.48359" lon="-3.07032">
        <ele>196</ele>
        <time>2014-04-27T11:17:55Z</time>
      </trkpt>
      <trkpt lat="48.48359" lon="-3.07034">
        <ele>196</ele>
        <time>2014-04-27T11:17:56Z</time>
      </trkpt>
      <trkpt lat="48.4836" lon="-3.07036">
        <ele>196</ele>
        <time>2014-04-27T11:17:58Z</time>
      </trkpt>
      <trkpt lat="48.48362" lon="-3.07037">
        <ele>195</ele>
        <time>2014-04-27T11:17:59Z</time>
      </trkpt>
      <trkpt lat="48.48363" lon="-3.0704">
        <ele>195</ele>
        <time>2014-04-27T11:18:01Z</time>
      </trkpt>
      <trkpt lat="48.48364" lon="-3.07042">
        <ele>195</ele>
        <time>2014-04-27T11:18:02Z</time>
      </trkpt>
      <trkpt lat="48.48365" lon="-3.07044">
        <ele>195</ele>
        <time>2014-04-27T11:18:04Z</time>
      </trkpt>
      <trkpt lat="48.48367" lon="-3.07046">
        <ele>195</ele>
        <time>2014-04-27T11:18:06Z</time>
      </trkpt>
      <trkpt lat="48.48369" lon="-3.07047">
        <ele>194</ele>
        <time>2014-04-27T11:18:07Z</time>
      </trkpt>
      <trkpt lat="48.4837" lon="-3.07049">
        <ele>194</ele>
        <time>2014-04-27T11:18:09Z</time>
      </trkpt>
      <trkpt lat="48.48371" lon="-3.07051">
        <ele>194</ele>
        <time>2014-04-27T11:18:10Z</time>
      </trkpt>
      <trkpt lat="48.48372" lon="-3.07053">
        <ele>194</ele>
        <time>2014-04-27T11:18:11Z</time>
      </trkpt>
      <trkpt lat="48.48373" lon="-3.07056">
        <ele>194</ele>
        <time>2014-04-27T11:18:13Z</time>
      </trkpt>
      <trkpt lat="48.48374" lon="-3.07058">
        <ele>194</ele>
        <time>2014-04-27T11:18:15Z</time>
      </trkpt>
      <trkpt lat="48.48375" lon="-3.0706">
        <ele>194</ele>
        <time>2014-04-27T11:18:16Z</time>
      </trkpt>
      <trkpt lat="48.48376" lon="-3.07061">
        <ele>194</ele>
        <time>2014-04-27T11:18:17Z</time>
      </trkpt>
      <trkpt lat="48.48378" lon="-3.07063">
        <ele>194</ele>
        <time>2014-04-27T11:18:19Z</time>
      </trkpt>
      <trkpt lat="48.4838" lon="-3.07064">
        <ele>194</ele>
        <time>2014-04-27T11:18:20Z</time>
      </trkpt>
      <trkpt lat="48.48381" lon="-3.07066">
        <ele>194</ele>
        <time>2014-04-27T11:18:22Z</time>
      </trkpt>
      <trkpt lat="48.48381" lon="-3.07068">
        <ele>194</ele>
        <time>2014-04-27T11:18:23Z</time>
      </trkpt>
      <trkpt lat="48.48383" lon="-3.07071">
        <ele>194</ele>
        <time>2014-04-27T11:18:25Z</time>
      </trkpt>
      <trkpt lat="48.48384" lon="-3.07072">
        <ele>194</ele>
        <time>2014-04-27T11:18:26Z</time>
      </trkpt>
      <trkpt lat="48.48385" lon="-3.07075">
        <ele>194</ele>
        <time>2014-04-27T11:18:28Z</time>
      </trkpt>
      <trkpt lat="48.48387" lon="-3.07077">
        <ele>194</ele>
        <time>2014-04-27T11:18:30Z</time>
      </trkpt>
      <trkpt lat="48.48388" lon="-3.0708">
        <ele>194</ele>
        <time>2014-04-27T11:18:32Z</time>
      </trkpt>
      <trkpt lat="48.48389" lon="-3.07083">
        <ele>194</ele>
        <time>2014-04-27T11:18:34Z</time>
      </trkpt>
      <trkpt lat="48.4839" lon="-3.07085">
        <ele>194</ele>
        <time>2014-04-27T11:18:36Z</time>
      </trkpt>
      <trkpt lat="48.48391" lon="-3.07087">
        <ele>194</ele>
        <time>2014-04-27T11:18:37Z</time>
      </trkpt>
      <trkpt lat="48.48393" lon="-3.07089">
        <ele>194</ele>
        <time>2014-04-27T11:18:39Z</time>
      </trkpt>
      <trkpt lat="48.48393" lon="-3.07092">
        <ele>194</ele>
        <time>2014-04-27T11:18:41Z</time>
      </trkpt>
      <trkpt lat="48.48394" lon="-3.07094">
        <ele>194</ele>
        <time>2014-04-27T11:18:43Z</time>
      </trkpt>
      <trkpt lat="48.48395" lon="-3.07095">
        <ele>194</ele>
        <time>2014-04-27T11:18:45Z</time>
      </trkpt>
      <trkpt lat="48.48396" lon="-3.07098">
        <ele>194</ele>
        <time>2014-04-27T11:18:47Z</time>
      </trkpt>
      <trkpt lat="48.48398" lon="-3.07101">
        <ele>194</ele>
        <time>2014-04-27T11:18:49Z</time>
      </trkpt>
      <trkpt lat="48.48399" lon="-3.07104">
        <ele>194</ele>
        <time>2014-04-27T11:18:51Z</time>
      </trkpt>
      <trkpt lat="48.484" lon="-3.07106">
        <ele>194</ele>
        <time>2014-04-27T11:18:53Z</time>
      </trkpt>
      <trkpt lat="48.484" lon="-3.07109">
        <ele>193</ele>
        <time>2014-04-27T11:18:55Z</time>
      </trkpt>
      <trkpt lat="48.48402" lon="-3.07112">
        <ele>192</ele>
        <time>2014-04-27T11:18:57Z</time>
      </trkpt>
      <trkpt lat="48.48402" lon="-3.07114">
        <ele>192</ele>
        <time>2014-04-27T11:18:58Z</time>
      </trkpt>
      <trkpt lat="48.48404" lon="-3.07116">
        <ele>192</ele>
        <time>2014-04-27T11:19:00Z</time>
      </trkpt>
      <trkpt lat="48.48404" lon="-3.07118">
        <ele>192</ele>
        <time>2014-04-27T11:19:02Z</time>
      </trkpt>
      <trkpt lat="48.48405" lon="-3.0712">
        <ele>192</ele>
        <time>2014-04-27T11:19:03Z</time>
      </trkpt>
      <trkpt lat="48.48407" lon="-3.07122">
        <ele>192</ele>
        <time>2014-04-27T11:19:05Z</time>
      </trkpt>
      <trkpt lat="48.48407" lon="-3.07124">
        <ele>192</ele>
        <time>2014-04-27T11:19:07Z</time>
      </trkpt>
      <trkpt lat="48.48406" lon="-3.07128">
        <ele>192</ele>
        <time>2014-04-27T11:19:09Z</time>
      </trkpt>
      <trkpt lat="48.48407" lon="-3.0713">
        <ele>191</ele>
        <time>2014-04-27T11:19:10Z</time>
      </trkpt>
      <trkpt lat="48.48408" lon="-3.07132">
        <ele>191</ele>
        <time>2014-04-27T11:19:12Z</time>
      </trkpt>
      <trkpt lat="48.48409" lon="-3.07134">
        <ele>190</ele>
        <time>2014-04-27T11:19:14Z</time>
      </trkpt>
      <trkpt lat="48.48411" lon="-3.07136">
        <ele>188</ele>
        <time>2014-04-27T11:19:16Z</time>
      </trkpt>
      <trkpt lat="48.48413" lon="-3.07139">
        <ele>187</ele>
        <time>2014-04-27T11:19:18Z</time>
      </trkpt>
      <trkpt lat="48.48413" lon="-3.07141">
        <ele>186</ele>
        <time>2014-04-27T11:19:19Z</time>
      </trkpt>
      <trkpt lat="48.48412" lon="-3.07143">
        <ele>186</ele>
        <time>2014-04-27T11:19:20Z</time>
      </trkpt>
      <trkpt lat="48.48413" lon="-3.07146">
        <ele>185</ele>
        <time>2014-04-27T11:19:22Z</time>
      </trkpt>
      <trkpt lat="48.48414" lon="-3.07149">
        <ele>183</ele>
        <time>2014-04-27T11:19:24Z</time>
      </trkpt>
      <trkpt lat="48.48415" lon="-3.07152">
        <ele>183</ele>
        <time>2014-04-27T11:19:25Z</time>
      </trkpt>
      <trkpt lat="48.48416" lon="-3.07153">
        <ele>183</ele>
        <time>2014-04-27T11:19:26Z</time>
      </trkpt>
      <trkpt lat="48.48417" lon="-3.07155">
        <ele>183</ele>
        <time>2014-04-27T11:19:28Z</time>
      </trkpt>
      <trkpt lat="48.48419" lon="-3.07157">
        <ele>183</ele>
        <time>2014-04-27T11:19:29Z</time>
      </trkpt>
      <trkpt lat="48.48419" lon="-3.07159">
        <ele>183</ele>
        <time>2014-04-27T11:19:30Z</time>
      </trkpt>
      <trkpt lat="48.48419" lon="-3.07161">
        <ele>183</ele>
        <time>2014-04-27T11:19:31Z</time>
      </trkpt>
      <trkpt lat="48.4842" lon="-3.07163">
        <ele>183</ele>
        <time>2014-04-27T11:19:33Z</time>
      </trkpt>
      <trkpt lat="48.48421" lon="-3.07164">
        <ele>183</ele>
        <time>2014-04-27T11:19:34Z</time>
      </trkpt>
      <trkpt lat="48.48424" lon="-3.07165">
        <ele>183</ele>
        <time>2014-04-27T11:19:35Z</time>
      </trkpt>
      <trkpt lat="48.48426" lon="-3.07166">
        <ele>183</ele>
        <time>2014-04-27T11:19:37Z</time>
      </trkpt>
      <trkpt lat="48.48427" lon="-3.07167">
        <ele>183</ele>
        <time>2014-04-27T11:19:38Z</time>
      </trkpt>
      <trkpt lat="48.48429" lon="-3.07169">
        <ele>183</ele>
        <time>2014-04-27T11:19:40Z</time>
      </trkpt>
      <trkpt lat="48.4843" lon="-3.0717">
        <ele>183</ele>
        <time>2014-04-27T11:19:41Z</time>
      </trkpt>
      <trkpt lat="48.48432" lon="-3.0717">
        <ele>183</ele>
        <time>2014-04-27T11:19:42Z</time>
      </trkpt>
      <trkpt lat="48.48434" lon="-3.07171">
        <ele>183</ele>
        <time>2014-04-27T11:19:43Z</time>
      </trkpt>
      <trkpt lat="48.48435" lon="-3.07171">
        <ele>183</ele>
        <time>2014-04-27T11:19:44Z</time>
      </trkpt>
      <trkpt lat="48.48437" lon="-3.07171">
        <ele>183</ele>
        <time>2014-04-27T11:19:45Z</time>
      </trkpt>
      <trkpt lat="48.48439" lon="-3.07173">
        <ele>183</ele>
        <time>2014-04-27T11:19:47Z</time>
      </trkpt>
      <trkpt lat="48.4844" lon="-3.07175">
        <ele>183</ele>
        <time>2014-04-27T11:19:49Z</time>
      </trkpt>
      <trkpt lat="48.48442" lon="-3.07178">
        <ele>182</ele>
        <time>2014-04-27T11:19:51Z</time>
      </trkpt>
      <trkpt lat="48.48443" lon="-3.0718">
        <ele>182</ele>
        <time>2014-04-27T11:19:53Z</time>
      </trkpt>
      <trkpt lat="48.48445" lon="-3.07183">
        <ele>182</ele>
        <time>2014-04-27T11:19:55Z</time>
      </trkpt>
      <trkpt lat="48.48446" lon="-3.07185">
        <ele>182</ele>
        <time>2014-04-27T11:19:57Z</time>
      </trkpt>
      <trkpt lat="48.48448" lon="-3.07188">
        <ele>182</ele>
        <time>2014-04-27T11:19:59Z</time>
      </trkpt>
      <trkpt lat="48.48449" lon="-3.07189">
        <ele>182</ele>
        <time>2014-04-27T11:20:00Z</time>
      </trkpt>
      <trkpt lat="48.4845" lon="-3.0719">
        <ele>182</ele>
        <time>2014-04-27T11:20:01Z</time>
      </trkpt>
      <trkpt lat="48.48452" lon="-3.07192">
        <ele>182</ele>
        <time>2014-04-27T11:20:03Z</time>
      </trkpt>
      <trkpt lat="48.48453" lon="-3.07192">
        <ele>182</ele>
        <time>2014-04-27T11:20:04Z</time>
      </trkpt>
      <trkpt lat="48.48455" lon="-3.07194">
        <ele>182</ele>
        <time>2014-04-27T11:20:05Z</time>
      </trkpt>
      <trkpt lat="48.48456" lon="-3.07195">
        <ele>182</ele>
        <time>2014-04-27T11:20:06Z</time>
      </trkpt>
      <trkpt lat="48.48458" lon="-3.07196">
        <ele>182</ele>
        <time>2014-04-27T11:20:07Z</time>
      </trkpt>
      <trkpt lat="48.48458" lon="-3.07198">
        <ele>182</ele>
        <time>2014-04-27T11:20:08Z</time>
      </trkpt>
      <trkpt lat="48.48459" lon="-3.072">
        <ele>182</ele>
        <time>2014-04-27T11:20:09Z</time>
      </trkpt>
      <trkpt lat="48.48461" lon="-3.07202">
        <ele>182</ele>
        <time>2014-04-27T11:20:11Z</time>
      </trkpt>
      <trkpt lat="48.48461" lon="-3.07204">
        <ele>182</ele>
        <time>2014-04-27T11:20:12Z</time>
      </trkpt>
      <trkpt lat="48.48461" lon="-3.07205">
        <ele>182</ele>
        <time>2014-04-27T11:20:13Z</time>
      </trkpt>
      <trkpt lat="48.48461" lon="-3.07208">
        <ele>182</ele>
        <time>2014-04-27T11:20:14Z</time>
      </trkpt>
      <trkpt lat="48.48462" lon="-3.07209">
        <ele>182</ele>
        <time>2014-04-27T11:20:15Z</time>
      </trkpt>
      <trkpt lat="48.48462" lon="-3.07212">
        <ele>182</ele>
        <time>2014-04-27T11:20:16Z</time>
      </trkpt>
      <trkpt lat="48.48462" lon="-3.07214">
        <ele>182</ele>
        <time>2014-04-27T11:20:17Z</time>
      </trkpt>
      <trkpt lat="48.48463" lon="-3.07216">
        <ele>182</ele>
        <time>2014-04-27T11:20:18Z</time>
      </trkpt>
      <trkpt lat="48.48463" lon="-3.07218">
        <ele>182</ele>
        <time>2014-04-27T11:20:19Z</time>
      </trkpt>
      <trkpt lat="48.48464" lon="-3.07219">
        <ele>182</ele>
        <time>2014-04-27T11:20:20Z</time>
      </trkpt>
      <trkpt lat="48.48466" lon="-3.0722">
        <ele>182</ele>
        <time>2014-04-27T11:20:21Z</time>
      </trkpt>
      <trkpt lat="48.48468" lon="-3.0722">
        <ele>182</ele>
        <time>2014-04-27T11:20:22Z</time>
      </trkpt>
      <trkpt lat="48.4847" lon="-3.0722">
        <ele>182</ele>
        <time>2014-04-27T11:20:23Z</time>
      </trkpt>
      <trkpt lat="48.48473" lon="-3.0722">
        <ele>182</ele>
        <time>2014-04-27T11:20:24Z</time>
      </trkpt>
      <trkpt lat="48.48473" lon="-3.07222">
        <ele>182</ele>
        <time>2014-04-27T11:20:25Z</time>
      </trkpt>
      <trkpt lat="48.48474" lon="-3.07224">
        <ele>182</ele>
        <time>2014-04-27T11:20:26Z</time>
      </trkpt>
      <trkpt lat="48.48475" lon="-3.07225">
        <ele>182</ele>
        <time>2014-04-27T11:20:27Z</time>
      </trkpt>
      <trkpt lat="48.48477" lon="-3.07227">
        <ele>183</ele>
        <time>2014-04-27T11:20:28Z</time>
      </trkpt>
      <trkpt lat="48.48479" lon="-3.07228">
        <ele>184</ele>
        <time>2014-04-27T11:20:30Z</time>
      </trkpt>
      <trkpt lat="48.4848" lon="-3.07229">
        <ele>185</ele>
        <time>2014-04-27T11:20:31Z</time>
      </trkpt>
      <trkpt lat="48.48481" lon="-3.07231">
        <ele>186</ele>
        <time>2014-04-27T11:20:33Z</time>
      </trkpt>
      <trkpt lat="48.48482" lon="-3.07233">
        <ele>187</ele>
        <time>2014-04-27T11:20:35Z</time>
      </trkpt>
      <trkpt lat="48.48483" lon="-3.07235">
        <ele>188</ele>
        <time>2014-04-27T11:20:38Z</time>
      </trkpt>
      <trkpt lat="48.48484" lon="-3.07238">
        <ele>188</ele>
        <time>2014-04-27T11:20:40Z</time>
      </trkpt>
      <trkpt lat="48.48485" lon="-3.07241">
        <ele>188</ele>
        <time>2014-04-27T11:20:42Z</time>
      </trkpt>
      <trkpt lat="48.48484" lon="-3.07243">
        <ele>188</ele>
        <time>2014-04-27T11:20:43Z</time>
      </trkpt>
      <trkpt lat="48.48485" lon="-3.07245">
        <ele>188</ele>
        <time>2014-04-27T11:20:44Z</time>
      </trkpt>
      <trkpt lat="48.48487" lon="-3.07246">
        <ele>188</ele>
        <time>2014-04-27T11:20:45Z</time>
      </trkpt>
      <trkpt lat="48.48488" lon="-3.07247">
        <ele>188</ele>
        <time>2014-04-27T11:20:46Z</time>
      </trkpt>
      <trkpt lat="48.48491" lon="-3.07248">
        <ele>188</ele>
        <time>2014-04-27T11:20:48Z</time>
      </trkpt>
      <trkpt lat="48.48493" lon="-3.07248">
        <ele>188</ele>
        <time>2014-04-27T11:20:49Z</time>
      </trkpt>
      <trkpt lat="48.48493" lon="-3.0725">
        <ele>188</ele>
        <time>2014-04-27T11:20:50Z</time>
      </trkpt>
      <trkpt lat="48.48493" lon="-3.07251">
        <ele>188</ele>
        <time>2014-04-27T11:20:52Z</time>
      </trkpt>
      <trkpt lat="48.48492" lon="-3.07253">
        <ele>188</ele>
        <time>2014-04-27T11:20:54Z</time>
      </trkpt>
      <trkpt lat="48.48494" lon="-3.07255">
        <ele>188</ele>
        <time>2014-04-27T11:20:56Z</time>
      </trkpt>
      <trkpt lat="48.48496" lon="-3.07256">
        <ele>188</ele>
        <time>2014-04-27T11:20:57Z</time>
      </trkpt>
      <trkpt lat="48.48498" lon="-3.07257">
        <ele>188</ele>
        <time>2014-04-27T11:20:58Z</time>
      </trkpt>
      <trkpt lat="48.48499" lon="-3.07257">
        <ele>188</ele>
        <time>2014-04-27T11:20:59Z</time>
      </trkpt>
      <trkpt lat="48.48501" lon="-3.07257">
        <ele>188</ele>
        <time>2014-04-27T11:21:00Z</time>
      </trkpt>
      <trkpt lat="48.48503" lon="-3.07258">
        <ele>188</ele>
        <time>2014-04-27T11:21:01Z</time>
      </trkpt>
      <trkpt lat="48.48504" lon="-3.07258">
        <ele>188</ele>
        <time>2014-04-27T11:21:02Z</time>
      </trkpt>
      <trkpt lat="48.48507" lon="-3.0726">
        <ele>188</ele>
        <time>2014-04-27T11:21:03Z</time>
      </trkpt>
      <trkpt lat="48.4851" lon="-3.07262">
        <ele>189</ele>
        <time>2014-04-27T11:21:05Z</time>
      </trkpt>
      <trkpt lat="48.4851" lon="-3.07264">
        <ele>191</ele>
        <time>2014-04-27T11:21:07Z</time>
      </trkpt>
      <trkpt lat="48.48512" lon="-3.07265">
        <ele>192</ele>
        <time>2014-04-27T11:21:08Z</time>
      </trkpt>
      <trkpt lat="48.48515" lon="-3.07266">
        <ele>193</ele>
        <time>2014-04-27T11:21:09Z</time>
      </trkpt>
      <trkpt lat="48.48517" lon="-3.07266">
        <ele>194</ele>
        <time>2014-04-27T11:21:10Z</time>
      </trkpt>
      <trkpt lat="48.48518" lon="-3.07267">
        <ele>195</ele>
        <time>2014-04-27T11:21:11Z</time>
      </trkpt>
      <trkpt lat="48.4852" lon="-3.07269">
        <ele>197</ele>
        <time>2014-04-27T11:21:13Z</time>
      </trkpt>
      <trkpt lat="48.48522" lon="-3.07269">
        <ele>198</ele>
        <time>2014-04-27T11:21:14Z</time>
      </trkpt>
      <trkpt lat="48.48524" lon="-3.07269">
        <ele>198</ele>
        <time>2014-04-27T11:21:15Z</time>
      </trkpt>
      <trkpt lat="48.48525" lon="-3.07269">
        <ele>199</ele>
        <time>2014-04-27T11:21:16Z</time>
      </trkpt>
      <trkpt lat="48.48527" lon="-3.0727">
        <ele>199</ele>
        <time>2014-04-27T11:21:18Z</time>
      </trkpt>
      <trkpt lat="48.48528" lon="-3.0727">
        <ele>199</ele>
        <time>2014-04-27T11:21:19Z</time>
      </trkpt>
      <trkpt lat="48.4853" lon="-3.07271">
        <ele>199</ele>
        <time>2014-04-27T11:21:21Z</time>
      </trkpt>
      <trkpt lat="48.48531" lon="-3.07272">
        <ele>199</ele>
        <time>2014-04-27T11:21:24Z</time>
      </trkpt>
      <trkpt lat="48.48533" lon="-3.07272">
        <ele>199</ele>
        <time>2014-04-27T11:21:26Z</time>
      </trkpt>
      <trkpt lat="48.48535" lon="-3.07272">
        <ele>201</ele>
        <time>2014-04-27T11:21:28Z</time>
      </trkpt>
      <trkpt lat="48.48534" lon="-3.07274">
        <ele>206</ele>
        <time>2014-04-27T11:21:34Z</time>
      </trkpt>
      <trkpt lat="48.48533" lon="-3.07274">
        <ele>206</ele>
        <time>2014-04-27T11:21:37Z</time>
      </trkpt>
      <trkpt lat="48.48531" lon="-3.07275">
        <ele>207</ele>
        <time>2014-04-27T11:21:39Z</time>
      </trkpt>
      <trkpt lat="48.48533" lon="-3.07275">
        <ele>207</ele>
        <time>2014-04-27T11:21:46Z</time>
      </trkpt>
      <trkpt lat="48.48531" lon="-3.07274">
        <ele>207</ele>
        <time>2014-04-27T11:22:00Z</time>
      </trkpt>
      <trkpt lat="48.4853" lon="-3.07272">
        <ele>205</ele>
        <time>2014-04-27T11:22:11Z</time>
      </trkpt>
      <trkpt lat="48.48528" lon="-3.07274">
        <ele>205</ele>
        <time>2014-04-27T11:22:16Z</time>
      </trkpt>
      <trkpt lat="48.48527" lon="-3.07273">
        <ele>204</ele>
        <time>2014-04-27T11:22:19Z</time>
      </trkpt>
      <trkpt lat="48.48526" lon="-3.07273">
        <ele>204</ele>
        <time>2014-04-27T11:22:20Z</time>
      </trkpt>
      <trkpt lat="48.48525" lon="-3.07272">
        <ele>204</ele>
        <time>2014-04-27T11:22:24Z</time>
      </trkpt>
      <trkpt lat="48.48523" lon="-3.07272">
        <ele>204</ele>
        <time>2014-04-27T11:22:26Z</time>
      </trkpt>
      <trkpt lat="48.48522" lon="-3.07271">
        <ele>204</ele>
        <time>2014-04-27T11:22:27Z</time>
      </trkpt>
      <trkpt lat="48.48521" lon="-3.07271">
        <ele>204</ele>
        <time>2014-04-27T11:22:28Z</time>
      </trkpt>
      <trkpt lat="48.4852" lon="-3.07272">
        <ele>203</ele>
        <time>2014-04-27T11:22:30Z</time>
      </trkpt>
      <trkpt lat="48.48521" lon="-3.07274">
        <ele>201</ele>
        <time>2014-04-27T11:22:35Z</time>
      </trkpt>
      <trkpt lat="48.48523" lon="-3.07273">
        <ele>201</ele>
        <time>2014-04-27T11:22:37Z</time>
      </trkpt>
      <trkpt lat="48.48524" lon="-3.07271">
        <ele>201</ele>
        <time>2014-04-27T11:22:39Z</time>
      </trkpt>
      <trkpt lat="48.48526" lon="-3.07271">
        <ele>200</ele>
        <time>2014-04-27T11:22:45Z</time>
      </trkpt>
      <trkpt lat="48.48527" lon="-3.0727">
        <ele>200</ele>
        <time>2014-04-27T11:22:47Z</time>
      </trkpt>
      <trkpt lat="48.48528" lon="-3.07269">
        <ele>200</ele>
        <time>2014-04-27T11:22:49Z</time>
      </trkpt>
      <trkpt lat="48.48528" lon="-3.07271">
        <ele>200</ele>
        <time>2014-04-27T11:22:54Z</time>
      </trkpt>
      <trkpt lat="48.4853" lon="-3.07272">
        <ele>200</ele>
        <time>2014-04-27T11:22:57Z</time>
      </trkpt>
      <trkpt lat="48.48531" lon="-3.07272">
        <ele>200</ele>
        <time>2014-04-27T11:22:58Z</time>
      </trkpt>
      <trkpt lat="48.48533" lon="-3.07272">
        <ele>200</ele>
        <time>2014-04-27T11:22:59Z</time>
      </trkpt>
      <trkpt lat="48.48535" lon="-3.07273">
        <ele>200</ele>
        <time>2014-04-27T11:23:00Z</time>
      </trkpt>
      <trkpt lat="48.48536" lon="-3.07275">
        <ele>200</ele>
        <time>2014-04-27T11:23:01Z</time>
      </trkpt>
      <trkpt lat="48.48537" lon="-3.07276">
        <ele>200</ele>
        <time>2014-04-27T11:23:02Z</time>
      </trkpt>
      <trkpt lat="48.48539" lon="-3.07278">
        <ele>200</ele>
        <time>2014-04-27T11:23:06Z</time>
      </trkpt>
      <trkpt lat="48.48541" lon="-3.0728">
        <ele>200</ele>
        <time>2014-04-27T11:23:08Z</time>
      </trkpt>
      <trkpt lat="48.48542" lon="-3.07281">
        <ele>200</ele>
        <time>2014-04-27T11:23:09Z</time>
      </trkpt>
      <trkpt lat="48.48543" lon="-3.07282">
        <ele>200</ele>
        <time>2014-04-27T11:23:12Z</time>
      </trkpt>
      <trkpt lat="48.48544" lon="-3.07285">
        <ele>200</ele>
        <time>2014-04-27T11:23:14Z</time>
      </trkpt>
      <trkpt lat="48.48545" lon="-3.07287">
        <ele>200</ele>
        <time>2014-04-27T11:23:16Z</time>
      </trkpt>
      <trkpt lat="48.48546" lon="-3.07289">
        <ele>200</ele>
        <time>2014-04-27T11:23:18Z</time>
      </trkpt>
      <trkpt lat="48.48547" lon="-3.07291">
        <ele>200</ele>
        <time>2014-04-27T11:23:20Z</time>
      </trkpt>
      <trkpt lat="48.48548" lon="-3.07294">
        <ele>199</ele>
        <time>2014-04-27T11:23:22Z</time>
      </trkpt>
      <trkpt lat="48.48548" lon="-3.07297">
        <ele>199</ele>
        <time>2014-04-27T11:23:24Z</time>
      </trkpt>
      <trkpt lat="48.48548" lon="-3.073">
        <ele>199</ele>
        <time>2014-04-27T11:23:26Z</time>
      </trkpt>
      <trkpt lat="48.48547" lon="-3.07301">
        <ele>199</ele>
        <time>2014-04-27T11:23:27Z</time>
      </trkpt>
      <trkpt lat="48.48547" lon="-3.07303">
        <ele>199</ele>
        <time>2014-04-27T11:23:28Z</time>
      </trkpt>
      <trkpt lat="48.48548" lon="-3.07306">
        <ele>198</ele>
        <time>2014-04-27T11:23:30Z</time>
      </trkpt>
      <trkpt lat="48.48548" lon="-3.07309">
        <ele>198</ele>
        <time>2014-04-27T11:23:32Z</time>
      </trkpt>
      <trkpt lat="48.4855" lon="-3.07311">
        <ele>198</ele>
        <time>2014-04-27T11:23:34Z</time>
      </trkpt>
      <trkpt lat="48.48551" lon="-3.07313">
        <ele>198</ele>
        <time>2014-04-27T11:23:36Z</time>
      </trkpt>
      <trkpt lat="48.48552" lon="-3.07315">
        <ele>198</ele>
        <time>2014-04-27T11:23:38Z</time>
      </trkpt>
      <trkpt lat="48.48552" lon="-3.07318">
        <ele>198</ele>
        <time>2014-04-27T11:23:40Z</time>
      </trkpt>
      <trkpt lat="48.48553" lon="-3.07321">
        <ele>197</ele>
        <time>2014-04-27T11:23:42Z</time>
      </trkpt>
      <trkpt lat="48.48554" lon="-3.07323">
        <ele>197</ele>
        <time>2014-04-27T11:23:44Z</time>
      </trkpt>
      <trkpt lat="48.48554" lon="-3.07325">
        <ele>197</ele>
        <time>2014-04-27T11:23:45Z</time>
      </trkpt>
      <trkpt lat="48.48555" lon="-3.07328">
        <ele>196</ele>
        <time>2014-04-27T11:23:47Z</time>
      </trkpt>
      <trkpt lat="48.48555" lon="-3.07331">
        <ele>196</ele>
        <time>2014-04-27T11:23:49Z</time>
      </trkpt>
      <trkpt lat="48.48556" lon="-3.07333">
        <ele>195</ele>
        <time>2014-04-27T11:23:51Z</time>
      </trkpt>
      <trkpt lat="48.48556" lon="-3.07336">
        <ele>195</ele>
        <time>2014-04-27T11:23:53Z</time>
      </trkpt>
      <trkpt lat="48.48558" lon="-3.07339">
        <ele>195</ele>
        <time>2014-04-27T11:23:55Z</time>
      </trkpt>
      <trkpt lat="48.48558" lon="-3.07342">
        <ele>195</ele>
        <time>2014-04-27T11:23:57Z</time>
      </trkpt>
      <trkpt lat="48.48558" lon="-3.07344">
        <ele>195</ele>
        <time>2014-04-27T11:23:58Z</time>
      </trkpt>
      <trkpt lat="48.48558" lon="-3.07346">
        <ele>195</ele>
        <time>2014-04-27T11:23:59Z</time>
      </trkpt>
      <trkpt lat="48.48559" lon="-3.07348">
        <ele>195</ele>
        <time>2014-04-27T11:24:01Z</time>
      </trkpt>
      <trkpt lat="48.48559" lon="-3.07351">
        <ele>195</ele>
        <time>2014-04-27T11:24:03Z</time>
      </trkpt>
      <trkpt lat="48.48559" lon="-3.07354">
        <ele>195</ele>
        <time>2014-04-27T11:24:05Z</time>
      </trkpt>
      <trkpt lat="48.4856" lon="-3.07357">
        <ele>195</ele>
        <time>2014-04-27T11:24:07Z</time>
      </trkpt>
      <trkpt lat="48.48561" lon="-3.07359">
        <ele>195</ele>
        <time>2014-04-27T11:24:08Z</time>
      </trkpt>
      <trkpt lat="48.48561" lon="-3.07362">
        <ele>195</ele>
        <time>2014-04-27T11:24:09Z</time>
      </trkpt>
      <trkpt lat="48.48562" lon="-3.07365">
        <ele>195</ele>
        <time>2014-04-27T11:24:11Z</time>
      </trkpt>
      <trkpt lat="48.48562" lon="-3.07366">
        <ele>195</ele>
        <time>2014-04-27T11:24:12Z</time>
      </trkpt>
      <trkpt lat="48.48563" lon="-3.07368">
        <ele>195</ele>
        <time>2014-04-27T11:24:13Z</time>
      </trkpt>
      <trkpt lat="48.48564" lon="-3.07371">
        <ele>195</ele>
        <time>2014-04-27T11:24:15Z</time>
      </trkpt>
      <trkpt lat="48.48564" lon="-3.07374">
        <ele>195</ele>
        <time>2014-04-27T11:24:17Z</time>
      </trkpt>
      <trkpt lat="48.48565" lon="-3.07377">
        <ele>195</ele>
        <time>2014-04-27T11:24:19Z</time>
      </trkpt>
      <trkpt lat="48.48566" lon="-3.07378">
        <ele>195</ele>
        <time>2014-04-27T11:24:20Z</time>
      </trkpt>
      <trkpt lat="48.48566" lon="-3.0738">
        <ele>195</ele>
        <time>2014-04-27T11:24:21Z</time>
      </trkpt>
      <trkpt lat="48.48565" lon="-3.07382">
        <ele>195</ele>
        <time>2014-04-27T11:24:22Z</time>
      </trkpt>
      <trkpt lat="48.48566" lon="-3.07384">
        <ele>195</ele>
        <time>2014-04-27T11:24:23Z</time>
      </trkpt>
      <trkpt lat="48.48567" lon="-3.07386">
        <ele>195</ele>
        <time>2014-04-27T11:24:25Z</time>
      </trkpt>
      <trkpt lat="48.48568" lon="-3.07389">
        <ele>196</ele>
        <time>2014-04-27T11:24:27Z</time>
      </trkpt>
      <trkpt lat="48.48568" lon="-3.07391">
        <ele>197</ele>
        <time>2014-04-27T11:24:28Z</time>
      </trkpt>
      <trkpt lat="48.48568" lon="-3.07394">
        <ele>197</ele>
        <time>2014-04-27T11:24:30Z</time>
      </trkpt>
      <trkpt lat="48.48568" lon="-3.07398">
        <ele>197</ele>
        <time>2014-04-27T11:24:32Z</time>
      </trkpt>
      <trkpt lat="48.48569" lon="-3.07399">
        <ele>197</ele>
        <time>2014-04-27T11:24:33Z</time>
      </trkpt>
      <trkpt lat="48.48569" lon="-3.07401">
        <ele>197</ele>
        <time>2014-04-27T11:24:34Z</time>
      </trkpt>
      <trkpt lat="48.48569" lon="-3.07403">
        <ele>197</ele>
        <time>2014-04-27T11:24:35Z</time>
      </trkpt>
      <trkpt lat="48.48569" lon="-3.07404">
        <ele>197</ele>
        <time>2014-04-27T11:24:36Z</time>
      </trkpt>
      <trkpt lat="48.48569" lon="-3.07406">
        <ele>197</ele>
        <time>2014-04-27T11:24:37Z</time>
      </trkpt>
      <trkpt lat="48.48569" lon="-3.0741">
        <ele>197</ele>
        <time>2014-04-27T11:24:39Z</time>
      </trkpt>
      <trkpt lat="48.48569" lon="-3.07412">
        <ele>197</ele>
        <time>2014-04-27T11:24:40Z</time>
      </trkpt>
      <trkpt lat="48.48569" lon="-3.07414">
        <ele>197</ele>
        <time>2014-04-27T11:24:41Z</time>
      </trkpt>
      <trkpt lat="48.48569" lon="-3.07415">
        <ele>197</ele>
        <time>2014-04-27T11:24:42Z</time>
      </trkpt>
      <trkpt lat="48.4857" lon="-3.07418">
        <ele>198</ele>
        <time>2014-04-27T11:24:44Z</time>
      </trkpt>
      <trkpt lat="48.48571" lon="-3.07421">
        <ele>198</ele>
        <time>2014-04-27T11:24:46Z</time>
      </trkpt>
      <trkpt lat="48.48571" lon="-3.07423">
        <ele>198</ele>
        <time>2014-04-27T11:24:47Z</time>
      </trkpt>
      <trkpt lat="48.48572" lon="-3.07424">
        <ele>198</ele>
        <time>2014-04-27T11:24:48Z</time>
      </trkpt>
      <trkpt lat="48.48573" lon="-3.07428">
        <ele>198</ele>
        <time>2014-04-27T11:24:50Z</time>
      </trkpt>
      <trkpt lat="48.48573" lon="-3.0743">
        <ele>198</ele>
        <time>2014-04-27T11:24:51Z</time>
      </trkpt>
      <trkpt lat="48.48573" lon="-3.07432">
        <ele>198</ele>
        <time>2014-04-27T11:24:52Z</time>
      </trkpt>
      <trkpt lat="48.48573" lon="-3.07433">
        <ele>198</ele>
        <time>2014-04-27T11:24:53Z</time>
      </trkpt>
      <trkpt lat="48.48573" lon="-3.07436">
        <ele>198</ele>
        <time>2014-04-27T11:24:54Z</time>
      </trkpt>
      <trkpt lat="48.48573" lon="-3.07438">
        <ele>198</ele>
        <time>2014-04-27T11:24:55Z</time>
      </trkpt>
      <trkpt lat="48.48572" lon="-3.07439">
        <ele>198</ele>
        <time>2014-04-27T11:24:56Z</time>
      </trkpt>
      <trkpt lat="48.48572" lon="-3.07441">
        <ele>198</ele>
        <time>2014-04-27T11:24:57Z</time>
      </trkpt>
      <trkpt lat="48.48572" lon="-3.07443">
        <ele>198</ele>
        <time>2014-04-27T11:24:58Z</time>
      </trkpt>
      <trkpt lat="48.48572" lon="-3.07445">
        <ele>198</ele>
        <time>2014-04-27T11:24:59Z</time>
      </trkpt>
      <trkpt lat="48.48572" lon="-3.07447">
        <ele>198</ele>
        <time>2014-04-27T11:25:00Z</time>
      </trkpt>
      <trkpt lat="48.48572" lon="-3.0745">
        <ele>198</ele>
        <time>2014-04-27T11:25:02Z</time>
      </trkpt>
      <trkpt lat="48.48571" lon="-3.07454">
        <ele>198</ele>
        <time>2014-04-27T11:25:04Z</time>
      </trkpt>
      <trkpt lat="48.48571" lon="-3.07456">
        <ele>198</ele>
        <time>2014-04-27T11:25:05Z</time>
      </trkpt>
      <trkpt lat="48.48571" lon="-3.07458">
        <ele>198</ele>
        <time>2014-04-27T11:25:06Z</time>
      </trkpt>
      <trkpt lat="48.4857" lon="-3.07461">
        <ele>198</ele>
        <time>2014-04-27T11:25:07Z</time>
      </trkpt>
      <trkpt lat="48.4857" lon="-3.07464">
        <ele>198</ele>
        <time>2014-04-27T11:25:08Z</time>
      </trkpt>
      <trkpt lat="48.4857" lon="-3.07466">
        <ele>198</ele>
        <time>2014-04-27T11:25:10Z</time>
      </trkpt>
      <trkpt lat="48.4857" lon="-3.0747">
        <ele>198</ele>
        <time>2014-04-27T11:25:12Z</time>
      </trkpt>
      <trkpt lat="48.4857" lon="-3.07474">
        <ele>198</ele>
        <time>2014-04-27T11:25:14Z</time>
      </trkpt>
      <trkpt lat="48.4857" lon="-3.07476">
        <ele>198</ele>
        <time>2014-04-27T11:25:15Z</time>
      </trkpt>
      <trkpt lat="48.4857" lon="-3.07478">
        <ele>198</ele>
        <time>2014-04-27T11:25:17Z</time>
      </trkpt>
      <trkpt lat="48.48572" lon="-3.0748">
        <ele>198</ele>
        <time>2014-04-27T11:25:19Z</time>
      </trkpt>
      <trkpt lat="48.48572" lon="-3.07482">
        <ele>198</ele>
        <time>2014-04-27T11:25:20Z</time>
      </trkpt>
      <trkpt lat="48.48572" lon="-3.07484">
        <ele>198</ele>
        <time>2014-04-27T11:25:21Z</time>
      </trkpt>
      <trkpt lat="48.48572" lon="-3.07486">
        <ele>198</ele>
        <time>2014-04-27T11:25:22Z</time>
      </trkpt>
      <trkpt lat="48.48572" lon="-3.07488">
        <ele>198</ele>
        <time>2014-04-27T11:25:23Z</time>
      </trkpt>
      <trkpt lat="48.48573" lon="-3.07489">
        <ele>198</ele>
        <time>2014-04-27T11:25:24Z</time>
      </trkpt>
      <trkpt lat="48.48574" lon="-3.07489">
        <ele>198</ele>
        <time>2014-04-27T11:25:25Z</time>
      </trkpt>
      <trkpt lat="48.48579" lon="-3.07486">
        <ele>198</ele>
        <time>2014-04-27T11:25:29Z</time>
      </trkpt>
      <trkpt lat="48.4858" lon="-3.07479">
        <ele>198</ele>
        <time>2014-04-27T11:25:30Z</time>
      </trkpt>
      <trkpt lat="48.48582" lon="-3.07477">
        <ele>198</ele>
        <time>2014-04-27T11:25:31Z</time>
      </trkpt>
      <trkpt lat="48.48583" lon="-3.07475">
        <ele>198</ele>
        <time>2014-04-27T11:25:34Z</time>
      </trkpt>
      <trkpt lat="48.48585" lon="-3.07475">
        <ele>198</ele>
        <time>2014-04-27T11:25:35Z</time>
      </trkpt>
      <trkpt lat="48.48587" lon="-3.07474">
        <ele>199</ele>
        <time>2014-04-27T11:25:37Z</time>
      </trkpt>
      <trkpt lat="48.48588" lon="-3.07474">
        <ele>199</ele>
        <time>2014-04-27T11:25:38Z</time>
      </trkpt>
      <trkpt lat="48.48589" lon="-3.07472">
        <ele>199</ele>
        <time>2014-04-27T11:25:40Z</time>
      </trkpt>
      <trkpt lat="48.4859" lon="-3.0747">
        <ele>199</ele>
        <time>2014-04-27T11:25:43Z</time>
      </trkpt>
      <trkpt lat="48.48591" lon="-3.07467">
        <ele>199</ele>
        <time>2014-04-27T11:25:45Z</time>
      </trkpt>
      <trkpt lat="48.48594" lon="-3.07467">
        <ele>199</ele>
        <time>2014-04-27T11:25:49Z</time>
      </trkpt>
      <trkpt lat="48.48595" lon="-3.07465">
        <ele>199</ele>
        <time>2014-04-27T11:25:51Z</time>
      </trkpt>
      <trkpt lat="48.48597" lon="-3.07464">
        <ele>199</ele>
        <time>2014-04-27T11:25:53Z</time>
      </trkpt>
      <trkpt lat="48.48598" lon="-3.07463">
        <ele>199</ele>
        <time>2014-04-27T11:25:54Z</time>
      </trkpt>
      <trkpt lat="48.486" lon="-3.07462">
        <ele>199</ele>
        <time>2014-04-27T11:25:55Z</time>
      </trkpt>
      <trkpt lat="48.48601" lon="-3.07461">
        <ele>199</ele>
        <time>2014-04-27T11:25:56Z</time>
      </trkpt>
      <trkpt lat="48.48603" lon="-3.0746">
        <ele>199</ele>
        <time>2014-04-27T11:25:58Z</time>
      </trkpt>
      <trkpt lat="48.48604" lon="-3.07459">
        <ele>199</ele>
        <time>2014-04-27T11:25:59Z</time>
      </trkpt>
      <trkpt lat="48.48607" lon="-3.07459">
        <ele>199</ele>
        <time>2014-04-27T11:26:01Z</time>
      </trkpt>
      <trkpt lat="48.48608" lon="-3.07458">
        <ele>199</ele>
        <time>2014-04-27T11:26:02Z</time>
      </trkpt>
      <trkpt lat="48.4861" lon="-3.07457">
        <ele>199</ele>
        <time>2014-04-27T11:26:03Z</time>
      </trkpt>
      <trkpt lat="48.48611" lon="-3.07456">
        <ele>199</ele>
        <time>2014-04-27T11:26:04Z</time>
      </trkpt>
      <trkpt lat="48.48613" lon="-3.07454">
        <ele>199</ele>
        <time>2014-04-27T11:26:06Z</time>
      </trkpt>
      <trkpt lat="48.48615" lon="-3.07452">
        <ele>199</ele>
        <time>2014-04-27T11:26:08Z</time>
      </trkpt>
      <trkpt lat="48.48616" lon="-3.07451">
        <ele>199</ele>
        <time>2014-04-27T11:26:09Z</time>
      </trkpt>
      <trkpt lat="48.48617" lon="-3.07449">
        <ele>199</ele>
        <time>2014-04-27T11:26:11Z</time>
      </trkpt>
      <trkpt lat="48.48618" lon="-3.07448">
        <ele>199</ele>
        <time>2014-04-27T11:26:12Z</time>
      </trkpt>
      <trkpt lat="48.4862" lon="-3.07447">
        <ele>199</ele>
        <time>2014-04-27T11:26:16Z</time>
      </trkpt>
      <trkpt lat="48.48622" lon="-3.07445">
        <ele>199</ele>
        <time>2014-04-27T11:26:18Z</time>
      </trkpt>
      <trkpt lat="48.48623" lon="-3.07445">
        <ele>198</ele>
        <time>2014-04-27T11:26:21Z</time>
      </trkpt>
      <trkpt lat="48.48625" lon="-3.07445">
        <ele>197</ele>
        <time>2014-04-27T11:26:23Z</time>
      </trkpt>
      <trkpt lat="48.48627" lon="-3.07445">
        <ele>195</ele>
        <time>2014-04-27T11:26:25Z</time>
      </trkpt>
      <trkpt lat="48.48628" lon="-3.07444">
        <ele>195</ele>
        <time>2014-04-27T11:26:26Z</time>
      </trkpt>
      <trkpt lat="48.48629" lon="-3.07445">
        <ele>195</ele>
        <time>2014-04-27T11:26:27Z</time>
      </trkpt>
      <trkpt lat="48.48632" lon="-3.07445">
        <ele>195</ele>
        <time>2014-04-27T11:26:29Z</time>
      </trkpt>
      <trkpt lat="48.48633" lon="-3.07445">
        <ele>194</ele>
        <time>2014-04-27T11:26:31Z</time>
      </trkpt>
      <trkpt lat="48.48635" lon="-3.07446">
        <ele>194</ele>
        <time>2014-04-27T11:26:32Z</time>
      </trkpt>
      <trkpt lat="48.48637" lon="-3.07446">
        <ele>194</ele>
        <time>2014-04-27T11:26:33Z</time>
      </trkpt>
      <trkpt lat="48.48638" lon="-3.07446">
        <ele>194</ele>
        <time>2014-04-27T11:26:34Z</time>
      </trkpt>
      <trkpt lat="48.48639" lon="-3.07446">
        <ele>193</ele>
        <time>2014-04-27T11:26:35Z</time>
      </trkpt>
      <trkpt lat="48.48641" lon="-3.07446">
        <ele>193</ele>
        <time>2014-04-27T11:26:36Z</time>
      </trkpt>
      <trkpt lat="48.48643" lon="-3.07446">
        <ele>192</ele>
        <time>2014-04-27T11:26:38Z</time>
      </trkpt>
      <trkpt lat="48.48644" lon="-3.07446">
        <ele>191</ele>
        <time>2014-04-27T11:26:40Z</time>
      </trkpt>
      <trkpt lat="48.48646" lon="-3.07445">
        <ele>190</ele>
        <time>2014-04-27T11:26:44Z</time>
      </trkpt>
      <trkpt lat="48.48648" lon="-3.07445">
        <ele>190</ele>
        <time>2014-04-27T11:26:45Z</time>
      </trkpt>
      <trkpt lat="48.4865" lon="-3.07446">
        <ele>190</ele>
        <time>2014-04-27T11:26:46Z</time>
      </trkpt>
      <trkpt lat="48.48652" lon="-3.07446">
        <ele>189</ele>
        <time>2014-04-27T11:26:49Z</time>
      </trkpt>
      <trkpt lat="48.48655" lon="-3.07446">
        <ele>189</ele>
        <time>2014-04-27T11:26:50Z</time>
      </trkpt>
      <trkpt lat="48.48657" lon="-3.07448">
        <ele>189</ele>
        <time>2014-04-27T11:26:51Z</time>
      </trkpt>
      <trkpt lat="48.48659" lon="-3.0745">
        <ele>188</ele>
        <time>2014-04-27T11:26:52Z</time>
      </trkpt>
      <trkpt lat="48.48662" lon="-3.0745">
        <ele>186</ele>
        <time>2014-04-27T11:26:54Z</time>
      </trkpt>
      <trkpt lat="48.48664" lon="-3.07449">
        <ele>186</ele>
        <time>2014-04-27T11:26:55Z</time>
      </trkpt>
      <trkpt lat="48.48666" lon="-3.0745">
        <ele>186</ele>
        <time>2014-04-27T11:26:57Z</time>
      </trkpt>
      <trkpt lat="48.48668" lon="-3.07451">
        <ele>186</ele>
        <time>2014-04-27T11:26:59Z</time>
      </trkpt>
      <trkpt lat="48.4867" lon="-3.07452">
        <ele>186</ele>
        <time>2014-04-27T11:27:02Z</time>
      </trkpt>
      <trkpt lat="48.48671" lon="-3.07453">
        <ele>186</ele>
        <time>2014-04-27T11:27:05Z</time>
      </trkpt>
      <trkpt lat="48.48673" lon="-3.07453">
        <ele>186</ele>
        <time>2014-04-27T11:27:06Z</time>
      </trkpt>
      <trkpt lat="48.48674" lon="-3.07452">
        <ele>186</ele>
        <time>2014-04-27T11:27:07Z</time>
      </trkpt>
      <trkpt lat="48.48676" lon="-3.07451">
        <ele>185</ele>
        <time>2014-04-27T11:27:08Z</time>
      </trkpt>
      <trkpt lat="48.48677" lon="-3.07451">
        <ele>185</ele>
        <time>2014-04-27T11:27:09Z</time>
      </trkpt>
      <trkpt lat="48.48678" lon="-3.07451">
        <ele>185</ele>
        <time>2014-04-27T11:27:10Z</time>
      </trkpt>
      <trkpt lat="48.48681" lon="-3.07452">
        <ele>185</ele>
        <time>2014-04-27T11:27:12Z</time>
      </trkpt>
      <trkpt lat="48.48682" lon="-3.07452">
        <ele>185</ele>
        <time>2014-04-27T11:27:13Z</time>
      </trkpt>
      <trkpt lat="48.48684" lon="-3.07454">
        <ele>185</ele>
        <time>2014-04-27T11:27:15Z</time>
      </trkpt>
      <trkpt lat="48.48686" lon="-3.07454">
        <ele>185</ele>
        <time>2014-04-27T11:27:17Z</time>
      </trkpt>
      <trkpt lat="48.48687" lon="-3.07454">
        <ele>185</ele>
        <time>2014-04-27T11:27:19Z</time>
      </trkpt>
      <trkpt lat="48.48688" lon="-3.07456">
        <ele>184</ele>
        <time>2014-04-27T11:27:23Z</time>
      </trkpt>
      <trkpt lat="48.4869" lon="-3.07457">
        <ele>184</ele>
        <time>2014-04-27T11:27:24Z</time>
      </trkpt>
      <trkpt lat="48.48691" lon="-3.07457">
        <ele>184</ele>
        <time>2014-04-27T11:27:25Z</time>
      </trkpt>
      <trkpt lat="48.48693" lon="-3.07458">
        <ele>184</ele>
        <time>2014-04-27T11:27:27Z</time>
      </trkpt>
      <trkpt lat="48.48695" lon="-3.07457">
        <ele>184</ele>
        <time>2014-04-27T11:27:29Z</time>
      </trkpt>
      <trkpt lat="48.48696" lon="-3.07456">
        <ele>184</ele>
        <time>2014-04-27T11:27:30Z</time>
      </trkpt>
      <trkpt lat="48.48698" lon="-3.07455">
        <ele>184</ele>
        <time>2014-04-27T11:27:31Z</time>
      </trkpt>
      <trkpt lat="48.48699" lon="-3.07455">
        <ele>184</ele>
        <time>2014-04-27T11:27:32Z</time>
      </trkpt>
      <trkpt lat="48.487" lon="-3.07454">
        <ele>184</ele>
        <time>2014-04-27T11:27:33Z</time>
      </trkpt>
      <trkpt lat="48.48702" lon="-3.07454">
        <ele>183</ele>
        <time>2014-04-27T11:27:34Z</time>
      </trkpt>
      <trkpt lat="48.48704" lon="-3.07454">
        <ele>182</ele>
        <time>2014-04-27T11:27:35Z</time>
      </trkpt>
      <trkpt lat="48.48705" lon="-3.07454">
        <ele>181</ele>
        <time>2014-04-27T11:27:37Z</time>
      </trkpt>
      <trkpt lat="48.48707" lon="-3.07454">
        <ele>181</ele>
        <time>2014-04-27T11:27:38Z</time>
      </trkpt>
      <trkpt lat="48.48708" lon="-3.07454">
        <ele>181</ele>
        <time>2014-04-27T11:27:39Z</time>
      </trkpt>
      <trkpt lat="48.48711" lon="-3.07454">
        <ele>180</ele>
        <time>2014-04-27T11:27:40Z</time>
      </trkpt>
      <trkpt lat="48.48712" lon="-3.07454">
        <ele>180</ele>
        <time>2014-04-27T11:27:41Z</time>
      </trkpt>
      <trkpt lat="48.48713" lon="-3.07453">
        <ele>180</ele>
        <time>2014-04-27T11:27:45Z</time>
      </trkpt>
      <trkpt lat="48.48714" lon="-3.0745">
        <ele>180</ele>
        <time>2014-04-27T11:27:48Z</time>
      </trkpt>
      <trkpt lat="48.48711" lon="-3.07448">
        <ele>183</ele>
        <time>2014-04-27T11:27:52Z</time>
      </trkpt>
      <trkpt lat="48.4871" lon="-3.07446">
        <ele>185</ele>
        <time>2014-04-27T11:27:54Z</time>
      </trkpt>
      <trkpt lat="48.48712" lon="-3.07447">
        <ele>190</ele>
        <time>2014-04-27T11:27:59Z</time>
      </trkpt>
      <trkpt lat="48.48713" lon="-3.07445">
        <ele>191</ele>
        <time>2014-04-27T11:28:00Z</time>
      </trkpt>
      <trkpt lat="48.48713" lon="-3.07443">
        <ele>192</ele>
        <time>2014-04-27T11:28:01Z</time>
      </trkpt>
      <trkpt lat="48.48713" lon="-3.07442">
        <ele>195</ele>
        <time>2014-04-27T11:28:04Z</time>
      </trkpt>
      <trkpt lat="48.48715" lon="-3.07439">
        <ele>198</ele>
        <time>2014-04-27T11:28:07Z</time>
      </trkpt>
      <trkpt lat="48.48716" lon="-3.07438">
        <ele>200</ele>
        <time>2014-04-27T11:28:09Z</time>
      </trkpt>
      <trkpt lat="48.48717" lon="-3.07435">
        <ele>204</ele>
        <time>2014-04-27T11:28:13Z</time>
      </trkpt>
      <trkpt lat="48.48716" lon="-3.07434">
        <ele>208</ele>
        <time>2014-04-27T11:28:17Z</time>
      </trkpt>
      <trkpt lat="48.48715" lon="-3.07436">
        <ele>212</ele>
        <time>2014-04-27T11:28:21Z</time>
      </trkpt>
      <trkpt lat="48.48713" lon="-3.07437">
        <ele>214</ele>
        <time>2014-04-27T11:28:23Z</time>
      </trkpt>
      <trkpt lat="48.48712" lon="-3.07435">
        <ele>217</ele>
        <time>2014-04-27T11:28:26Z</time>
      </trkpt>
      <trkpt lat="48.48711" lon="-3.07436">
        <ele>217</ele>
        <time>2014-04-27T11:28:29Z</time>
      </trkpt>
      <trkpt lat="48.4871" lon="-3.07438">
        <ele>217</ele>
        <time>2014-04-27T11:28:33Z</time>
      </trkpt>
      <trkpt lat="48.48709" lon="-3.07439">
        <ele>217</ele>
        <time>2014-04-27T11:28:37Z</time>
      </trkpt>
      <trkpt lat="48.4871" lon="-3.07439">
        <ele>217</ele>
        <time>2014-04-27T11:28:41Z</time>
      </trkpt>
      <trkpt lat="48.48711" lon="-3.07442">
        <ele>217</ele>
        <time>2014-04-27T11:28:43Z</time>
      </trkpt>
      <trkpt lat="48.48713" lon="-3.07442">
        <ele>217</ele>
        <time>2014-04-27T11:28:46Z</time>
      </trkpt>
      <trkpt lat="48.48712" lon="-3.07444">
        <ele>217</ele>
        <time>2014-04-27T11:28:50Z</time>
      </trkpt>
      <trkpt lat="48.48713" lon="-3.07445">
        <ele>217</ele>
        <time>2014-04-27T11:28:51Z</time>
      </trkpt>
      <trkpt lat="48.48715" lon="-3.07446">
        <ele>216</ele>
        <time>2014-04-27T11:28:55Z</time>
      </trkpt>
      <trkpt lat="48.48716" lon="-3.07448">
        <ele>214</ele>
        <time>2014-04-27T11:28:59Z</time>
      </trkpt>
      <trkpt lat="48.48715" lon="-3.0745">
        <ele>213</ele>
        <time>2014-04-27T11:29:01Z</time>
      </trkpt>
      <trkpt lat="48.48715" lon="-3.07448">
        <ele>208</ele>
        <time>2014-04-27T11:29:07Z</time>
      </trkpt>
      <trkpt lat="48.48714" lon="-3.07445">
        <ele>203</ele>
        <time>2014-04-27T11:29:12Z</time>
      </trkpt>
      <trkpt lat="48.48712" lon="-3.07446">
        <ele>203</ele>
        <time>2014-04-27T11:29:13Z</time>
      </trkpt>
      <trkpt lat="48.4871" lon="-3.07449">
        <ele>201</ele>
        <time>2014-04-27T11:29:15Z</time>
      </trkpt>
      <trkpt lat="48.48709" lon="-3.07449">
        <ele>200</ele>
        <time>2014-04-27T11:29:17Z</time>
      </trkpt>
      <trkpt lat="48.48708" lon="-3.0745">
        <ele>200</ele>
        <time>2014-04-27T11:29:22Z</time>
      </trkpt>
      <trkpt lat="48.48707" lon="-3.07448">
        <ele>200</ele>
        <time>2014-04-27T11:29:25Z</time>
      </trkpt>
      <trkpt lat="48.48706" lon="-3.07446">
        <ele>204</ele>
        <time>2014-04-27T11:29:31Z</time>
      </trkpt>
      <trkpt lat="48.48707" lon="-3.07444">
        <ele>204</ele>
        <time>2014-04-27T11:29:33Z</time>
      </trkpt>
      <trkpt lat="48.48706" lon="-3.07446">
        <ele>205</ele>
        <time>2014-04-27T11:29:40Z</time>
      </trkpt>
      <trkpt lat="48.48705" lon="-3.07448">
        <ele>205</ele>
        <time>2014-04-27T11:29:43Z</time>
      </trkpt>
      <trkpt lat="48.48703" lon="-3.07448">
        <ele>205</ele>
        <time>2014-04-27T11:29:48Z</time>
      </trkpt>
      <trkpt lat="48.48702" lon="-3.0745">
        <ele>204</ele>
        <time>2014-04-27T11:29:51Z</time>
      </trkpt>
      <trkpt lat="48.48701" lon="-3.07451">
        <ele>202</ele>
        <time>2014-04-27T11:29:53Z</time>
      </trkpt>
      <trkpt lat="48.48699" lon="-3.07453">
        <ele>201</ele>
        <time>2014-04-27T11:29:55Z</time>
      </trkpt>
      <trkpt lat="48.48698" lon="-3.07453">
        <ele>200</ele>
        <time>2014-04-27T11:29:56Z</time>
      </trkpt>
      <trkpt lat="48.48697" lon="-3.07453">
        <ele>199</ele>
        <time>2014-04-27T11:29:58Z</time>
      </trkpt>
      <trkpt lat="48.48695" lon="-3.07453">
        <ele>199</ele>
        <time>2014-04-27T11:30:00Z</time>
      </trkpt>
      <trkpt lat="48.48695" lon="-3.0745">
        <ele>199</ele>
        <time>2014-04-27T11:30:07Z</time>
      </trkpt>
      <trkpt lat="48.48697" lon="-3.07448">
        <ele>199</ele>
        <time>2014-04-27T11:30:08Z</time>
      </trkpt>
      <trkpt lat="48.487" lon="-3.07447">
        <ele>199</ele>
        <time>2014-04-27T11:30:10Z</time>
      </trkpt>
      <trkpt lat="48.48701" lon="-3.07447">
        <ele>199</ele>
        <time>2014-04-27T11:30:11Z</time>
      </trkpt>
      <trkpt lat="48.48703" lon="-3.07446">
        <ele>199</ele>
        <time>2014-04-27T11:30:12Z</time>
      </trkpt>
      <trkpt lat="48.48704" lon="-3.07444">
        <ele>199</ele>
        <time>2014-04-27T11:30:13Z</time>
      </trkpt>
      <trkpt lat="48.48705" lon="-3.07441">
        <ele>199</ele>
        <time>2014-04-27T11:30:14Z</time>
      </trkpt>
      <trkpt lat="48.48706" lon="-3.07439">
        <ele>199</ele>
        <time>2014-04-27T11:30:16Z</time>
      </trkpt>
      <trkpt lat="48.48706" lon="-3.07437">
        <ele>199</ele>
        <time>2014-04-27T11:30:18Z</time>
      </trkpt>
      <trkpt lat="48.48706" lon="-3.07435">
        <ele>199</ele>
        <time>2014-04-27T11:30:20Z</time>
      </trkpt>
      <trkpt lat="48.48705" lon="-3.07434">
        <ele>199</ele>
        <time>2014-04-27T11:30:24Z</time>
      </trkpt>
      <trkpt lat="48.48704" lon="-3.07433">
        <ele>199</ele>
        <time>2014-04-27T11:30:26Z</time>
      </trkpt>
      <trkpt lat="48.48702" lon="-3.07432">
        <ele>199</ele>
        <time>2014-04-27T11:30:28Z</time>
      </trkpt>
      <trkpt lat="48.48704" lon="-3.0743">
        <ele>200</ele>
        <time>2014-04-27T11:30:34Z</time>
      </trkpt>
      <trkpt lat="48.48705" lon="-3.07429">
        <ele>201</ele>
        <time>2014-04-27T11:30:38Z</time>
      </trkpt>
      <trkpt lat="48.48706" lon="-3.07426">
        <ele>201</ele>
        <time>2014-04-27T11:30:40Z</time>
      </trkpt>
      <trkpt lat="48.48705" lon="-3.07426">
        <ele>201</ele>
        <time>2014-04-27T11:30:43Z</time>
      </trkpt>
      <trkpt lat="48.48703" lon="-3.07425">
        <ele>201</ele>
        <time>2014-04-27T11:30:44Z</time>
      </trkpt>
      <trkpt lat="48.48702" lon="-3.07423">
        <ele>201</ele>
        <time>2014-04-27T11:30:46Z</time>
      </trkpt>
      <trkpt lat="48.48701" lon="-3.07421">
        <ele>201</ele>
        <time>2014-04-27T11:30:48Z</time>
      </trkpt>
      <trkpt lat="48.487" lon="-3.07419">
        <ele>201</ele>
        <time>2014-04-27T11:30:50Z</time>
      </trkpt>
      <trkpt lat="48.48699" lon="-3.07417">
        <ele>201</ele>
        <time>2014-04-27T11:30:52Z</time>
      </trkpt>
      <trkpt lat="48.48697" lon="-3.07417">
        <ele>201</ele>
        <time>2014-04-27T11:30:53Z</time>
      </trkpt>
      <trkpt lat="48.48696" lon="-3.07417">
        <ele>201</ele>
        <time>2014-04-27T11:30:54Z</time>
      </trkpt>
      <trkpt lat="48.48694" lon="-3.07418">
        <ele>201</ele>
        <time>2014-04-27T11:30:55Z</time>
      </trkpt>
      <trkpt lat="48.48693" lon="-3.07418">
        <ele>201</ele>
        <time>2014-04-27T11:30:56Z</time>
      </trkpt>
      <trkpt lat="48.48691" lon="-3.07419">
        <ele>201</ele>
        <time>2014-04-27T11:30:57Z</time>
      </trkpt>
      <trkpt lat="48.48689" lon="-3.07419">
        <ele>200</ele>
        <time>2014-04-27T11:30:59Z</time>
      </trkpt>
      <trkpt lat="48.48689" lon="-3.07414">
        <ele>199</ele>
        <time>2014-04-27T11:31:04Z</time>
      </trkpt>
      <trkpt lat="48.4869" lon="-3.07412">
        <ele>199</ele>
        <time>2014-04-27T11:31:05Z</time>
      </trkpt>
      <trkpt lat="48.48688" lon="-3.0741">
        <ele>199</ele>
        <time>2014-04-27T11:31:07Z</time>
      </trkpt>
      <trkpt lat="48.48688" lon="-3.07408">
        <ele>199</ele>
        <time>2014-04-27T11:31:09Z</time>
      </trkpt>
      <trkpt lat="48.48689" lon="-3.07405">
        <ele>198</ele>
        <time>2014-04-27T11:31:11Z</time>
      </trkpt>
      <trkpt lat="48.48689" lon="-3.07403">
        <ele>197</ele>
        <time>2014-04-27T11:31:13Z</time>
      </trkpt>
      <trkpt lat="48.4869" lon="-3.07401">
        <ele>196</ele>
        <time>2014-04-27T11:31:15Z</time>
      </trkpt>
      <trkpt lat="48.4869" lon="-3.07398">
        <ele>195</ele>
        <time>2014-04-27T11:31:17Z</time>
      </trkpt>
      <trkpt lat="48.4869" lon="-3.07395">
        <ele>194</ele>
        <time>2014-04-27T11:31:19Z</time>
      </trkpt>
      <trkpt lat="48.48689" lon="-3.07394">
        <ele>194</ele>
        <time>2014-04-27T11:31:20Z</time>
      </trkpt>
      <trkpt lat="48.4869" lon="-3.07388">
        <ele>194</ele>
        <time>2014-04-27T11:31:24Z</time>
      </trkpt>
      <trkpt lat="48.4869" lon="-3.07384">
        <ele>194</ele>
        <time>2014-04-27T11:31:25Z</time>
      </trkpt>
      <trkpt lat="48.4869" lon="-3.07382">
        <ele>193</ele>
        <time>2014-04-27T11:31:26Z</time>
      </trkpt>
      <trkpt lat="48.48688" lon="-3.07377">
        <ele>193</ele>
        <time>2014-04-27T11:31:27Z</time>
      </trkpt>
      <trkpt lat="48.48688" lon="-3.07375">
        <ele>193</ele>
        <time>2014-04-27T11:31:28Z</time>
      </trkpt>
      <trkpt lat="48.48688" lon="-3.07373">
        <ele>193</ele>
        <time>2014-04-27T11:31:30Z</time>
      </trkpt>
      <trkpt lat="48.48689" lon="-3.07373">
        <ele>193</ele>
        <time>2014-04-27T11:31:32Z</time>
      </trkpt>
      <trkpt lat="48.48691" lon="-3.0737">
        <ele>193</ele>
        <time>2014-04-27T11:31:34Z</time>
      </trkpt>
      <trkpt lat="48.4869" lon="-3.07368">
        <ele>193</ele>
        <time>2014-04-27T11:31:36Z</time>
      </trkpt>
      <trkpt lat="48.48691" lon="-3.07366">
        <ele>193</ele>
        <time>2014-04-27T11:31:38Z</time>
      </trkpt>
      <trkpt lat="48.48691" lon="-3.07363">
        <ele>193</ele>
        <time>2014-04-27T11:31:40Z</time>
      </trkpt>
      <trkpt lat="48.48692" lon="-3.07362">
        <ele>192</ele>
        <time>2014-04-27T11:31:42Z</time>
      </trkpt>
      <trkpt lat="48.48693" lon="-3.0736">
        <ele>192</ele>
        <time>2014-04-27T11:31:44Z</time>
      </trkpt>
      <trkpt lat="48.48692" lon="-3.07358">
        <ele>192</ele>
        <time>2014-04-27T11:31:45Z</time>
      </trkpt>
      <trkpt lat="48.48692" lon="-3.07356">
        <ele>192</ele>
        <time>2014-04-27T11:31:46Z</time>
      </trkpt>
      <trkpt lat="48.48691" lon="-3.07354">
        <ele>192</ele>
        <time>2014-04-27T11:31:47Z</time>
      </trkpt>
      <trkpt lat="48.48691" lon="-3.07352">
        <ele>192</ele>
        <time>2014-04-27T11:31:48Z</time>
      </trkpt>
      <trkpt lat="48.4869" lon="-3.0735">
        <ele>192</ele>
        <time>2014-04-27T11:31:49Z</time>
      </trkpt>
      <trkpt lat="48.48688" lon="-3.07346">
        <ele>192</ele>
        <time>2014-04-27T11:31:51Z</time>
      </trkpt>
      <trkpt lat="48.48686" lon="-3.07343">
        <ele>192</ele>
        <time>2014-04-27T11:31:53Z</time>
      </trkpt>
      <trkpt lat="48.48685" lon="-3.07342">
        <ele>192</ele>
        <time>2014-04-27T11:31:54Z</time>
      </trkpt>
      <trkpt lat="48.48682" lon="-3.0734">
        <ele>193</ele>
        <time>2014-04-27T11:31:55Z</time>
      </trkpt>
      <trkpt lat="48.4868" lon="-3.07336">
        <ele>194</ele>
        <time>2014-04-27T11:31:57Z</time>
      </trkpt>
      <trkpt lat="48.48678" lon="-3.07333">
        <ele>195</ele>
        <time>2014-04-27T11:31:58Z</time>
      </trkpt>
      <trkpt lat="48.48677" lon="-3.07331">
        <ele>196</ele>
        <time>2014-04-27T11:31:59Z</time>
      </trkpt>
      <trkpt lat="48.48676" lon="-3.07331">
        <ele>196</ele>
        <time>2014-04-27T11:32:00Z</time>
      </trkpt>
      <trkpt lat="48.48674" lon="-3.07329">
        <ele>197</ele>
        <time>2014-04-27T11:32:01Z</time>
      </trkpt>
      <trkpt lat="48.48673" lon="-3.07328">
        <ele>197</ele>
        <time>2014-04-27T11:32:02Z</time>
      </trkpt>
      <trkpt lat="48.48672" lon="-3.07326">
        <ele>197</ele>
        <time>2014-04-27T11:32:03Z</time>
      </trkpt>
      <trkpt lat="48.48671" lon="-3.07324">
        <ele>198</ele>
        <time>2014-04-27T11:32:05Z</time>
      </trkpt>
      <trkpt lat="48.48671" lon="-3.07322">
        <ele>199</ele>
        <time>2014-04-27T11:32:06Z</time>
      </trkpt>
      <trkpt lat="48.48671" lon="-3.0732">
        <ele>199</ele>
        <time>2014-04-27T11:32:07Z</time>
      </trkpt>
      <trkpt lat="48.48671" lon="-3.07317">
        <ele>199</ele>
        <time>2014-04-27T11:32:08Z</time>
      </trkpt>
      <trkpt lat="48.48671" lon="-3.07315">
        <ele>199</ele>
        <time>2014-04-27T11:32:09Z</time>
      </trkpt>
      <trkpt lat="48.48671" lon="-3.07313">
        <ele>200</ele>
        <time>2014-04-27T11:32:10Z</time>
      </trkpt>
      <trkpt lat="48.4867" lon="-3.0731">
        <ele>200</ele>
        <time>2014-04-27T11:32:11Z</time>
      </trkpt>
      <trkpt lat="48.48669" lon="-3.07307">
        <ele>201</ele>
        <time>2014-04-27T11:32:13Z</time>
      </trkpt>
      <trkpt lat="48.48668" lon="-3.07304">
        <ele>201</ele>
        <time>2014-04-27T11:32:15Z</time>
      </trkpt>
      <trkpt lat="48.48668" lon="-3.07302">
        <ele>201</ele>
        <time>2014-04-27T11:32:16Z</time>
      </trkpt>
      <trkpt lat="48.48668" lon="-3.073">
        <ele>201</ele>
        <time>2014-04-27T11:32:17Z</time>
      </trkpt>
      <trkpt lat="48.48667" lon="-3.07298">
        <ele>201</ele>
        <time>2014-04-27T11:32:18Z</time>
      </trkpt>
      <trkpt lat="48.48667" lon="-3.07297">
        <ele>201</ele>
        <time>2014-04-27T11:32:19Z</time>
      </trkpt>
      <trkpt lat="48.48667" lon="-3.07295">
        <ele>202</ele>
        <time>2014-04-27T11:32:21Z</time>
      </trkpt>
      <trkpt lat="48.48667" lon="-3.07293">
        <ele>202</ele>
        <time>2014-04-27T11:32:23Z</time>
      </trkpt>
      <trkpt lat="48.48666" lon="-3.07291">
        <ele>202</ele>
        <time>2014-04-27T11:32:25Z</time>
      </trkpt>
      <trkpt lat="48.48667" lon="-3.07288">
        <ele>202</ele>
        <time>2014-04-27T11:32:28Z</time>
      </trkpt>
      <trkpt lat="48.48667" lon="-3.07286">
        <ele>202</ele>
        <time>2014-04-27T11:32:29Z</time>
      </trkpt>
      <trkpt lat="48.48667" lon="-3.07284">
        <ele>202</ele>
        <time>2014-04-27T11:32:30Z</time>
      </trkpt>
      <trkpt lat="48.48669" lon="-3.07282">
        <ele>202</ele>
        <time>2014-04-27T11:32:32Z</time>
      </trkpt>
      <trkpt lat="48.48671" lon="-3.0728">
        <ele>201</ele>
        <time>2014-04-27T11:32:34Z</time>
      </trkpt>
      <trkpt lat="48.48672" lon="-3.07278">
        <ele>200</ele>
        <time>2014-04-27T11:32:36Z</time>
      </trkpt>
      <trkpt lat="48.48674" lon="-3.07277">
        <ele>199</ele>
        <time>2014-04-27T11:32:38Z</time>
      </trkpt>
      <trkpt lat="48.48675" lon="-3.07275">
        <ele>198</ele>
        <time>2014-04-27T11:32:40Z</time>
      </trkpt>
      <trkpt lat="48.48675" lon="-3.07272">
        <ele>197</ele>
        <time>2014-04-27T11:32:42Z</time>
      </trkpt>
      <trkpt lat="48.48676" lon="-3.0727">
        <ele>196</ele>
        <time>2014-04-27T11:32:44Z</time>
      </trkpt>
      <trkpt lat="48.4868" lon="-3.07266">
        <ele>194</ele>
        <time>2014-04-27T11:32:49Z</time>
      </trkpt>
      <trkpt lat="48.4868" lon="-3.07265">
        <ele>194</ele>
        <time>2014-04-27T11:32:50Z</time>
      </trkpt>
      <trkpt lat="48.48681" lon="-3.07262">
        <ele>193</ele>
        <time>2014-04-27T11:32:52Z</time>
      </trkpt>
      <trkpt lat="48.48681" lon="-3.07258">
        <ele>193</ele>
        <time>2014-04-27T11:32:53Z</time>
      </trkpt>
      <trkpt lat="48.4868" lon="-3.07256">
        <ele>193</ele>
        <time>2014-04-27T11:32:54Z</time>
      </trkpt>
      <trkpt lat="48.48681" lon="-3.07253">
        <ele>189</ele>
        <time>2014-04-27T11:32:59Z</time>
      </trkpt>
      <trkpt lat="48.48682" lon="-3.07251">
        <ele>188</ele>
        <time>2014-04-27T11:33:00Z</time>
      </trkpt>
      <trkpt lat="48.48682" lon="-3.07249">
        <ele>187</ele>
        <time>2014-04-27T11:33:01Z</time>
      </trkpt>
      <trkpt lat="48.48682" lon="-3.07247">
        <ele>187</ele>
        <time>2014-04-27T11:33:02Z</time>
      </trkpt>
      <trkpt lat="48.48683" lon="-3.07245">
        <ele>187</ele>
        <time>2014-04-27T11:33:03Z</time>
      </trkpt>
      <trkpt lat="48.48683" lon="-3.07243">
        <ele>187</ele>
        <time>2014-04-27T11:33:04Z</time>
      </trkpt>
      <trkpt lat="48.48684" lon="-3.07241">
        <ele>187</ele>
        <time>2014-04-27T11:33:07Z</time>
      </trkpt>
      <trkpt lat="48.48686" lon="-3.0724">
        <ele>187</ele>
        <time>2014-04-27T11:33:09Z</time>
      </trkpt>
      <trkpt lat="48.48687" lon="-3.07236">
        <ele>187</ele>
        <time>2014-04-27T11:33:11Z</time>
      </trkpt>
      <trkpt lat="48.48688" lon="-3.07234">
        <ele>187</ele>
        <time>2014-04-27T11:33:12Z</time>
      </trkpt>
      <trkpt lat="48.4869" lon="-3.07232">
        <ele>187</ele>
        <time>2014-04-27T11:33:14Z</time>
      </trkpt>
      <trkpt lat="48.48691" lon="-3.0723">
        <ele>187</ele>
        <time>2014-04-27T11:33:15Z</time>
      </trkpt>
      <trkpt lat="48.48692" lon="-3.07227">
        <ele>187</ele>
        <time>2014-04-27T11:33:17Z</time>
      </trkpt>
      <trkpt lat="48.48694" lon="-3.07224">
        <ele>187</ele>
        <time>2014-04-27T11:33:19Z</time>
      </trkpt>
      <trkpt lat="48.48695" lon="-3.0722">
        <ele>188</ele>
        <time>2014-04-27T11:33:24Z</time>
      </trkpt>
      <trkpt lat="48.48695" lon="-3.07216">
        <ele>188</ele>
        <time>2014-04-27T11:33:25Z</time>
      </trkpt>
      <trkpt lat="48.48696" lon="-3.07216">
        <ele>189</ele>
        <time>2014-04-27T11:33:26Z</time>
      </trkpt>
      <trkpt lat="48.48698" lon="-3.07218">
        <ele>189</ele>
        <time>2014-04-27T11:33:27Z</time>
      </trkpt>
      <trkpt lat="48.48699" lon="-3.07216">
        <ele>189</ele>
        <time>2014-04-27T11:33:29Z</time>
      </trkpt>
      <trkpt lat="48.487" lon="-3.07219">
        <ele>189</ele>
        <time>2014-04-27T11:33:30Z</time>
      </trkpt>
      <trkpt lat="48.487" lon="-3.07221">
        <ele>190</ele>
        <time>2014-04-27T11:33:31Z</time>
      </trkpt>
      <trkpt lat="48.48699" lon="-3.07224">
        <ele>191</ele>
        <time>2014-04-27T11:33:32Z</time>
      </trkpt>
      <trkpt lat="48.48699" lon="-3.07227">
        <ele>192</ele>
        <time>2014-04-27T11:33:33Z</time>
      </trkpt>
      <trkpt lat="48.48697" lon="-3.07229">
        <ele>192</ele>
        <time>2014-04-27T11:33:34Z</time>
      </trkpt>
      <trkpt lat="48.48695" lon="-3.07231">
        <ele>192</ele>
        <time>2014-04-27T11:33:35Z</time>
      </trkpt>
      <trkpt lat="48.48694" lon="-3.07232">
        <ele>192</ele>
        <time>2014-04-27T11:33:36Z</time>
      </trkpt>
      <trkpt lat="48.48693" lon="-3.07234">
        <ele>192</ele>
        <time>2014-04-27T11:33:38Z</time>
      </trkpt>
      <trkpt lat="48.48691" lon="-3.07237">
        <ele>193</ele>
        <time>2014-04-27T11:33:43Z</time>
      </trkpt>
      <trkpt lat="48.4869" lon="-3.07238">
        <ele>194</ele>
        <time>2014-04-27T11:33:45Z</time>
      </trkpt>
      <trkpt lat="48.48692" lon="-3.07237">
        <ele>195</ele>
        <time>2014-04-27T11:33:46Z</time>
      </trkpt>
      <trkpt lat="48.48694" lon="-3.07236">
        <ele>195</ele>
        <time>2014-04-27T11:33:47Z</time>
      </trkpt>
      <trkpt lat="48.48698" lon="-3.07232">
        <ele>196</ele>
        <time>2014-04-27T11:33:51Z</time>
      </trkpt>
      <trkpt lat="48.48703" lon="-3.07226">
        <ele>196</ele>
        <time>2014-04-27T11:33:52Z</time>
      </trkpt>
      <trkpt lat="48.48706" lon="-3.07222">
        <ele>196</ele>
        <time>2014-04-27T11:33:53Z</time>
      </trkpt>
      <trkpt lat="48.48709" lon="-3.07222">
        <ele>196</ele>
        <time>2014-04-27T11:33:54Z</time>
      </trkpt>
      <trkpt lat="48.48709" lon="-3.07218">
        <ele>196</ele>
        <time>2014-04-27T11:33:55Z</time>
      </trkpt>
      <trkpt lat="48.48709" lon="-3.07215">
        <ele>196</ele>
        <time>2014-04-27T11:33:56Z</time>
      </trkpt>
      <trkpt lat="48.48708" lon="-3.07213">
        <ele>196</ele>
        <time>2014-04-27T11:33:57Z</time>
      </trkpt>
      <trkpt lat="48.48709" lon="-3.07211">
        <ele>196</ele>
        <time>2014-04-27T11:33:58Z</time>
      </trkpt>
      <trkpt lat="48.4871" lon="-3.07209">
        <ele>196</ele>
        <time>2014-04-27T11:33:59Z</time>
      </trkpt>
      <trkpt lat="48.48712" lon="-3.0721">
        <ele>196</ele>
        <time>2014-04-27T11:34:01Z</time>
      </trkpt>
      <trkpt lat="48.48714" lon="-3.0721">
        <ele>196</ele>
        <time>2014-04-27T11:34:03Z</time>
      </trkpt>
      <trkpt lat="48.48716" lon="-3.07207">
        <ele>196</ele>
        <time>2014-04-27T11:34:05Z</time>
      </trkpt>
      <trkpt lat="48.48717" lon="-3.07206">
        <ele>196</ele>
        <time>2014-04-27T11:34:07Z</time>
      </trkpt>
      <trkpt lat="48.48718" lon="-3.07203">
        <ele>196</ele>
        <time>2014-04-27T11:34:09Z</time>
      </trkpt>
      <trkpt lat="48.48719" lon="-3.07202">
        <ele>196</ele>
        <time>2014-04-27T11:34:12Z</time>
      </trkpt>
      <trkpt lat="48.48718" lon="-3.07198">
        <ele>196</ele>
        <time>2014-04-27T11:34:15Z</time>
      </trkpt>
      <trkpt lat="48.48718" lon="-3.07195">
        <ele>195</ele>
        <time>2014-04-27T11:34:16Z</time>
      </trkpt>
      <trkpt lat="48.48718" lon="-3.07192">
        <ele>193</ele>
        <time>2014-04-27T11:34:18Z</time>
      </trkpt>
      <trkpt lat="48.48719" lon="-3.0719">
        <ele>190</ele>
        <time>2014-04-27T11:34:21Z</time>
      </trkpt>
      <trkpt lat="48.48719" lon="-3.07185">
        <ele>188</ele>
        <time>2014-04-27T11:34:25Z</time>
      </trkpt>
      <trkpt lat="48.48719" lon="-3.07183">
        <ele>187</ele>
        <time>2014-04-27T11:34:26Z</time>
      </trkpt>
      <trkpt lat="48.48718" lon="-3.07184">
        <ele>186</ele>
        <time>2014-04-27T11:34:27Z</time>
      </trkpt>
      <trkpt lat="48.48717" lon="-3.07181">
        <ele>185</ele>
        <time>2014-04-27T11:34:28Z</time>
      </trkpt>
      <trkpt lat="48.48716" lon="-3.07178">
        <ele>183</ele>
        <time>2014-04-27T11:34:30Z</time>
      </trkpt>
      <trkpt lat="48.48713" lon="-3.07177">
        <ele>180</ele>
        <time>2014-04-27T11:34:33Z</time>
      </trkpt>
      <trkpt lat="48.48711" lon="-3.07176">
        <ele>179</ele>
        <time>2014-04-27T11:34:34Z</time>
      </trkpt>
      <trkpt lat="48.4871" lon="-3.07175">
        <ele>178</ele>
        <time>2014-04-27T11:34:35Z</time>
      </trkpt>
      <trkpt lat="48.48709" lon="-3.07172">
        <ele>176</ele>
        <time>2014-04-27T11:34:37Z</time>
      </trkpt>
      <trkpt lat="48.48709" lon="-3.07169">
        <ele>175</ele>
        <time>2014-04-27T11:34:38Z</time>
      </trkpt>
      <trkpt lat="48.48708" lon="-3.07166">
        <ele>174</ele>
        <time>2014-04-27T11:34:39Z</time>
      </trkpt>
      <trkpt lat="48.48708" lon="-3.07164">
        <ele>173</ele>
        <time>2014-04-27T11:34:40Z</time>
      </trkpt>
      <trkpt lat="48.48707" lon="-3.07162">
        <ele>173</ele>
        <time>2014-04-27T11:34:41Z</time>
      </trkpt>
      <trkpt lat="48.48708" lon="-3.0716">
        <ele>173</ele>
        <time>2014-04-27T11:34:42Z</time>
      </trkpt>
      <trkpt lat="48.48708" lon="-3.07158">
        <ele>173</ele>
        <time>2014-04-27T11:34:43Z</time>
      </trkpt>
      <trkpt lat="48.48708" lon="-3.07155">
        <ele>173</ele>
        <time>2014-04-27T11:34:44Z</time>
      </trkpt>
      <trkpt lat="48.48708" lon="-3.07153">
        <ele>173</ele>
        <time>2014-04-27T11:34:45Z</time>
      </trkpt>
      <trkpt lat="48.48707" lon="-3.07151">
        <ele>173</ele>
        <time>2014-04-27T11:34:46Z</time>
      </trkpt>
      <trkpt lat="48.48707" lon="-3.07149">
        <ele>173</ele>
        <time>2014-04-27T11:34:47Z</time>
      </trkpt>
      <trkpt lat="48.48707" lon="-3.07147">
        <ele>173</ele>
        <time>2014-04-27T11:34:48Z</time>
      </trkpt>
      <trkpt lat="48.48707" lon="-3.07144">
        <ele>174</ele>
        <time>2014-04-27T11:34:50Z</time>
      </trkpt>
      <trkpt lat="48.48708" lon="-3.07141">
        <ele>175</ele>
        <time>2014-04-27T11:34:52Z</time>
      </trkpt>
      <trkpt lat="48.48708" lon="-3.07138">
        <ele>176</ele>
        <time>2014-04-27T11:34:53Z</time>
      </trkpt>
      <trkpt lat="48.48707" lon="-3.07135">
        <ele>177</ele>
        <time>2014-04-27T11:34:55Z</time>
      </trkpt>
      <trkpt lat="48.48707" lon="-3.07133">
        <ele>178</ele>
        <time>2014-04-27T11:34:57Z</time>
      </trkpt>
      <trkpt lat="48.48707" lon="-3.0713">
        <ele>178</ele>
        <time>2014-04-27T11:34:58Z</time>
      </trkpt>
      <trkpt lat="48.48707" lon="-3.07128">
        <ele>179</ele>
        <time>2014-04-27T11:34:59Z</time>
      </trkpt>
      <trkpt lat="48.48707" lon="-3.07126">
        <ele>180</ele>
        <time>2014-04-27T11:35:00Z</time>
      </trkpt>
      <trkpt lat="48.48707" lon="-3.07124">
        <ele>181</ele>
        <time>2014-04-27T11:35:01Z</time>
      </trkpt>
      <trkpt lat="48.48707" lon="-3.07122">
        <ele>182</ele>
        <time>2014-04-27T11:35:02Z</time>
      </trkpt>
      <trkpt lat="48.48706" lon="-3.07117">
        <ele>184</ele>
        <time>2014-04-27T11:35:04Z</time>
      </trkpt>
      <trkpt lat="48.48706" lon="-3.07115">
        <ele>185</ele>
        <time>2014-04-27T11:35:05Z</time>
      </trkpt>
      <trkpt lat="48.48705" lon="-3.07112">
        <ele>186</ele>
        <time>2014-04-27T11:35:06Z</time>
      </trkpt>
      <trkpt lat="48.48704" lon="-3.0711">
        <ele>187</ele>
        <time>2014-04-27T11:35:07Z</time>
      </trkpt>
      <trkpt lat="48.48704" lon="-3.07108">
        <ele>188</ele>
        <time>2014-04-27T11:35:08Z</time>
      </trkpt>
      <trkpt lat="48.48703" lon="-3.07106">
        <ele>189</ele>
        <time>2014-04-27T11:35:09Z</time>
      </trkpt>
      <trkpt lat="48.48702" lon="-3.07103">
        <ele>190</ele>
        <time>2014-04-27T11:35:10Z</time>
      </trkpt>
      <trkpt lat="48.48701" lon="-3.07102">
        <ele>191</ele>
        <time>2014-04-27T11:35:11Z</time>
      </trkpt>
      <trkpt lat="48.487" lon="-3.071">
        <ele>192</ele>
        <time>2014-04-27T11:35:12Z</time>
      </trkpt>
      <trkpt lat="48.48698" lon="-3.07098">
        <ele>194</ele>
        <time>2014-04-27T11:35:14Z</time>
      </trkpt>
      <trkpt lat="48.48697" lon="-3.07097">
        <ele>196</ele>
        <time>2014-04-27T11:35:16Z</time>
      </trkpt>
      <trkpt lat="48.48697" lon="-3.07094">
        <ele>198</ele>
        <time>2014-04-27T11:35:20Z</time>
      </trkpt>
      <trkpt lat="48.48695" lon="-3.07093">
        <ele>198</ele>
        <time>2014-04-27T11:35:23Z</time>
      </trkpt>
      <trkpt lat="48.48694" lon="-3.07091">
        <ele>198</ele>
        <time>2014-04-27T11:35:25Z</time>
      </trkpt>
      <trkpt lat="48.48693" lon="-3.07089">
        <ele>198</ele>
        <time>2014-04-27T11:35:27Z</time>
      </trkpt>
      <trkpt lat="48.48692" lon="-3.07087">
        <ele>197</ele>
        <time>2014-04-27T11:35:29Z</time>
      </trkpt>
      <trkpt lat="48.48691" lon="-3.07084">
        <ele>196</ele>
        <time>2014-04-27T11:35:31Z</time>
      </trkpt>
      <trkpt lat="48.48691" lon="-3.07083">
        <ele>195</ele>
        <time>2014-04-27T11:35:32Z</time>
      </trkpt>
      <trkpt lat="48.4869" lon="-3.07081">
        <ele>195</ele>
        <time>2014-04-27T11:35:33Z</time>
      </trkpt>
      <trkpt lat="48.48689" lon="-3.07079">
        <ele>195</ele>
        <time>2014-04-27T11:35:35Z</time>
      </trkpt>
      <trkpt lat="48.48688" lon="-3.07078">
        <ele>195</ele>
        <time>2014-04-27T11:35:37Z</time>
      </trkpt>
      <trkpt lat="48.48687" lon="-3.07076">
        <ele>195</ele>
        <time>2014-04-27T11:35:39Z</time>
      </trkpt>
      <trkpt lat="48.48689" lon="-3.07072">
        <ele>195</ele>
        <time>2014-04-27T11:35:44Z</time>
      </trkpt>
      <trkpt lat="48.48688" lon="-3.07069">
        <ele>195</ele>
        <time>2014-04-27T11:35:47Z</time>
      </trkpt>
      <trkpt lat="48.48688" lon="-3.07066">
        <ele>195</ele>
        <time>2014-04-27T11:35:48Z</time>
      </trkpt>
      <trkpt lat="48.48689" lon="-3.07063">
        <ele>195</ele>
        <time>2014-04-27T11:35:49Z</time>
      </trkpt>
      <trkpt lat="48.48689" lon="-3.07061">
        <ele>195</ele>
        <time>2014-04-27T11:35:50Z</time>
      </trkpt>
      <trkpt lat="48.48688" lon="-3.0706">
        <ele>196</ele>
        <time>2014-04-27T11:35:50Z</time>
      </trkpt>
      <trkpt lat="48.48686" lon="-3.07057">
        <ele>197</ele>
        <time>2014-04-27T11:35:53Z</time>
      </trkpt>
      <trkpt lat="48.48687" lon="-3.07054">
        <ele>197</ele>
        <time>2014-04-27T11:35:55Z</time>
      </trkpt>
      <trkpt lat="48.48686" lon="-3.07054">
        <ele>198</ele>
        <time>2014-04-27T11:35:56Z</time>
      </trkpt>
      <trkpt lat="48.48684" lon="-3.07053">
        <ele>198</ele>
        <time>2014-04-27T11:35:58Z</time>
      </trkpt>
      <trkpt lat="48.48682" lon="-3.0705">
        <ele>198</ele>
        <time>2014-04-27T11:36:01Z</time>
      </trkpt>
      <trkpt lat="48.4868" lon="-3.07049">
        <ele>198</ele>
        <time>2014-04-27T11:36:02Z</time>
      </trkpt>
      <trkpt lat="48.48679" lon="-3.07048">
        <ele>198</ele>
        <time>2014-04-27T11:36:03Z</time>
      </trkpt>
      <trkpt lat="48.48681" lon="-3.07047">
        <ele>198</ele>
        <time>2014-04-27T11:36:05Z</time>
      </trkpt>
      <trkpt lat="48.48678" lon="-3.07046">
        <ele>198</ele>
        <time>2014-04-27T11:36:07Z</time>
      </trkpt>
      <trkpt lat="48.48677" lon="-3.07043">
        <ele>198</ele>
        <time>2014-04-27T11:36:09Z</time>
      </trkpt>
      <trkpt lat="48.48675" lon="-3.07042">
        <ele>198</ele>
        <time>2014-04-27T11:36:11Z</time>
      </trkpt>
      <trkpt lat="48.48674" lon="-3.07039">
        <ele>197</ele>
        <time>2014-04-27T11:36:13Z</time>
      </trkpt>
      <trkpt lat="48.48669" lon="-3.07034">
        <ele>197</ele>
        <time>2014-04-27T11:36:17Z</time>
      </trkpt>
      <trkpt lat="48.48668" lon="-3.07034">
        <ele>197</ele>
        <time>2014-04-27T11:36:18Z</time>
      </trkpt>
      <trkpt lat="48.48665" lon="-3.07034">
        <ele>197</ele>
        <time>2014-04-27T11:36:19Z</time>
      </trkpt>
      <trkpt lat="48.48661" lon="-3.07037">
        <ele>197</ele>
        <time>2014-04-27T11:36:23Z</time>
      </trkpt>
      <trkpt lat="48.48659" lon="-3.0704">
        <ele>194</ele>
        <time>2014-04-27T11:36:29Z</time>
      </trkpt>
      <trkpt lat="48.48661" lon="-3.07036">
        <ele>194</ele>
        <time>2014-04-27T11:36:29Z</time>
      </trkpt>
      <trkpt lat="48.48663" lon="-3.07035">
        <ele>194</ele>
        <time>2014-04-27T11:36:30Z</time>
      </trkpt>
      <trkpt lat="48.48662" lon="-3.07035">
        <ele>194</ele>
        <time>2014-04-27T11:36:32Z</time>
      </trkpt>
      <trkpt lat="48.48661" lon="-3.07033">
        <ele>194</ele>
        <time>2014-04-27T11:36:34Z</time>
      </trkpt>
      <trkpt lat="48.48659" lon="-3.07032">
        <ele>194</ele>
        <time>2014-04-27T11:36:35Z</time>
      </trkpt>
      <trkpt lat="48.48658" lon="-3.07032">
        <ele>194</ele>
        <time>2014-04-27T11:36:36Z</time>
      </trkpt>
      <trkpt lat="48.48656" lon="-3.07031">
        <ele>194</ele>
        <time>2014-04-27T11:36:37Z</time>
      </trkpt>
      <trkpt lat="48.48657" lon="-3.07027">
        <ele>194</ele>
        <time>2014-04-27T11:36:42Z</time>
      </trkpt>
      <trkpt lat="48.48659" lon="-3.07025">
        <ele>195</ele>
        <time>2014-04-27T11:36:43Z</time>
      </trkpt>
      <trkpt lat="48.48659" lon="-3.07021">
        <ele>196</ele>
        <time>2014-04-27T11:36:48Z</time>
      </trkpt>
      <trkpt lat="48.48657" lon="-3.07019">
        <ele>197</ele>
        <time>2014-04-27T11:36:49Z</time>
      </trkpt>
      <trkpt lat="48.48656" lon="-3.07015">
        <ele>197</ele>
        <time>2014-04-27T11:36:51Z</time>
      </trkpt>
      <trkpt lat="48.48657" lon="-3.07013">
        <ele>197</ele>
        <time>2014-04-27T11:36:53Z</time>
      </trkpt>
      <trkpt lat="48.48656" lon="-3.07012">
        <ele>197</ele>
        <time>2014-04-27T11:36:53Z</time>
      </trkpt>
      <trkpt lat="48.48657" lon="-3.07008">
        <ele>198</ele>
        <time>2014-04-27T11:36:54Z</time>
      </trkpt>
      <trkpt lat="48.48656" lon="-3.07006">
        <ele>199</ele>
        <time>2014-04-27T11:36:55Z</time>
      </trkpt>
      <trkpt lat="48.48656" lon="-3.07003">
        <ele>200</ele>
        <time>2014-04-27T11:36:56Z</time>
      </trkpt>
      <trkpt lat="48.48655" lon="-3.07001">
        <ele>203</ele>
        <time>2014-04-27T11:37:00Z</time>
      </trkpt>
      <trkpt lat="48.48654" lon="-3.06999">
        <ele>204</ele>
        <time>2014-04-27T11:37:02Z</time>
      </trkpt>
      <trkpt lat="48.48652" lon="-3.06995">
        <ele>204</ele>
        <time>2014-04-27T11:37:06Z</time>
      </trkpt>
      <trkpt lat="48.4865" lon="-3.06993">
        <ele>204</ele>
        <time>2014-04-27T11:37:08Z</time>
      </trkpt>
      <trkpt lat="48.48649" lon="-3.06994">
        <ele>204</ele>
        <time>2014-04-27T11:37:08Z</time>
      </trkpt>
      <trkpt lat="48.48648" lon="-3.06994">
        <ele>204</ele>
        <time>2014-04-27T11:37:11Z</time>
      </trkpt>
      <trkpt lat="48.48644" lon="-3.06995">
        <ele>204</ele>
        <time>2014-04-27T11:37:14Z</time>
      </trkpt>
      <trkpt lat="48.48643" lon="-3.06994">
        <ele>204</ele>
        <time>2014-04-27T11:37:16Z</time>
      </trkpt>
      <trkpt lat="48.4864" lon="-3.06994">
        <ele>204</ele>
        <time>2014-04-27T11:37:17Z</time>
      </trkpt>
      <trkpt lat="48.48638" lon="-3.06992">
        <ele>204</ele>
        <time>2014-04-27T11:37:19Z</time>
      </trkpt>
      <trkpt lat="48.48638" lon="-3.06989">
        <ele>204</ele>
        <time>2014-04-27T11:37:21Z</time>
      </trkpt>
      <trkpt lat="48.48638" lon="-3.06987">
        <ele>204</ele>
        <time>2014-04-27T11:37:22Z</time>
      </trkpt>
      <trkpt lat="48.48637" lon="-3.06983">
        <ele>204</ele>
        <time>2014-04-27T11:37:24Z</time>
      </trkpt>
      <trkpt lat="48.48637" lon="-3.06981">
        <ele>204</ele>
        <time>2014-04-27T11:37:26Z</time>
      </trkpt>
      <trkpt lat="48.48636" lon="-3.06982">
        <ele>205</ele>
        <time>2014-04-27T11:37:27Z</time>
      </trkpt>
      <trkpt lat="48.48635" lon="-3.06979">
        <ele>205</ele>
        <time>2014-04-27T11:37:31Z</time>
      </trkpt>
      <trkpt lat="48.48637" lon="-3.0698">
        <ele>205</ele>
        <time>2014-04-27T11:37:39Z</time>
      </trkpt>
      <trkpt lat="48.48637" lon="-3.06982">
        <ele>205</ele>
        <time>2014-04-27T11:37:40Z</time>
      </trkpt>
      <trkpt lat="48.48635" lon="-3.06982">
        <ele>205</ele>
        <time>2014-04-27T11:37:45Z</time>
      </trkpt>
      <trkpt lat="48.48634" lon="-3.06982">
        <ele>206</ele>
        <time>2014-04-27T11:37:46Z</time>
      </trkpt>
      <trkpt lat="48.48632" lon="-3.06984">
        <ele>206</ele>
        <time>2014-04-27T11:37:48Z</time>
      </trkpt>
      <trkpt lat="48.4863" lon="-3.06986">
        <ele>206</ele>
        <time>2014-04-27T11:37:50Z</time>
      </trkpt>
      <trkpt lat="48.48629" lon="-3.06988">
        <ele>206</ele>
        <time>2014-04-27T11:37:50Z</time>
      </trkpt>
      <trkpt lat="48.48627" lon="-3.06989">
        <ele>206</ele>
        <time>2014-04-27T11:37:51Z</time>
      </trkpt>
      <trkpt lat="48.48625" lon="-3.0699">
        <ele>206</ele>
        <time>2014-04-27T11:37:53Z</time>
      </trkpt>
      <trkpt lat="48.48624" lon="-3.06991">
        <ele>206</ele>
        <time>2014-04-27T11:37:56Z</time>
      </trkpt>
      <trkpt lat="48.48622" lon="-3.06992">
        <ele>206</ele>
        <time>2014-04-27T11:37:56Z</time>
      </trkpt>
      <trkpt lat="48.4862" lon="-3.06992">
        <ele>206</ele>
        <time>2014-04-27T11:37:57Z</time>
      </trkpt>
      <trkpt lat="48.48618" lon="-3.06993">
        <ele>205</ele>
        <time>2014-04-27T11:37:58Z</time>
      </trkpt>
      <trkpt lat="48.48616" lon="-3.06993">
        <ele>204</ele>
        <time>2014-04-27T11:37:59Z</time>
      </trkpt>
      <trkpt lat="48.48615" lon="-3.06993">
        <ele>203</ele>
        <time>2014-04-27T11:38:01Z</time>
      </trkpt>
      <trkpt lat="48.48613" lon="-3.06992">
        <ele>201</ele>
        <time>2014-04-27T11:38:04Z</time>
      </trkpt>
      <trkpt lat="48.48612" lon="-3.0699">
        <ele>201</ele>
        <time>2014-04-27T11:38:08Z</time>
      </trkpt>
      <trkpt lat="48.48615" lon="-3.06989">
        <ele>200</ele>
        <time>2014-04-27T11:38:10Z</time>
      </trkpt>
      <trkpt lat="48.48616" lon="-3.0699">
        <ele>200</ele>
        <time>2014-04-27T11:38:11Z</time>
      </trkpt>
      <trkpt lat="48.48617" lon="-3.0699">
        <ele>199</ele>
        <time>2014-04-27T11:38:12Z</time>
      </trkpt>
      <trkpt lat="48.48617" lon="-3.06992">
        <ele>198</ele>
        <time>2014-04-27T11:38:15Z</time>
      </trkpt>
      <trkpt lat="48.48618" lon="-3.06989">
        <ele>196</ele>
        <time>2014-04-27T11:38:18Z</time>
      </trkpt>
      <trkpt lat="48.48619" lon="-3.06987">
        <ele>196</ele>
        <time>2014-04-27T11:38:21Z</time>
      </trkpt>
      <trkpt lat="48.48618" lon="-3.06987">
        <ele>196</ele>
        <time>2014-04-27T11:38:21Z</time>
      </trkpt>
      <trkpt lat="48.48616" lon="-3.06986">
        <ele>196</ele>
        <time>2014-04-27T11:38:23Z</time>
      </trkpt>
      <trkpt lat="48.48618" lon="-3.06984">
        <ele>196</ele>
        <time>2014-04-27T11:38:26Z</time>
      </trkpt>
      <trkpt lat="48.48619" lon="-3.06982">
        <ele>196</ele>
        <time>2014-04-27T11:38:26Z</time>
      </trkpt>
      <trkpt lat="48.48621" lon="-3.0698">
        <ele>196</ele>
        <time>2014-04-27T11:38:27Z</time>
      </trkpt>
      <trkpt lat="48.48624" lon="-3.06977">
        <ele>196</ele>
        <time>2014-04-27T11:38:29Z</time>
      </trkpt>
      <trkpt lat="48.48625" lon="-3.06976">
        <ele>196</ele>
        <time>2014-04-27T11:38:31Z</time>
      </trkpt>
      <trkpt lat="48.48627" lon="-3.06974">
        <ele>196</ele>
        <time>2014-04-27T11:38:32Z</time>
      </trkpt>
      <trkpt lat="48.48629" lon="-3.06974">
        <ele>196</ele>
        <time>2014-04-27T11:38:33Z</time>
      </trkpt>
      <trkpt lat="48.4863" lon="-3.06974">
        <ele>196</ele>
        <time>2014-04-27T11:38:34Z</time>
      </trkpt>
      <trkpt lat="48.48632" lon="-3.06973">
        <ele>196</ele>
        <time>2014-04-27T11:38:36Z</time>
      </trkpt>
      <trkpt lat="48.48636" lon="-3.06971">
        <ele>196</ele>
        <time>2014-04-27T11:38:36Z</time>
      </trkpt>
      <trkpt lat="48.48637" lon="-3.06969">
        <ele>196</ele>
        <time>2014-04-27T11:38:37Z</time>
      </trkpt>
      <trkpt lat="48.4864" lon="-3.06967">
        <ele>197</ele>
        <time>2014-04-27T11:38:38Z</time>
      </trkpt>
      <trkpt lat="48.48642" lon="-3.06966">
        <ele>197</ele>
        <time>2014-04-27T11:38:41Z</time>
      </trkpt>
      <trkpt lat="48.48644" lon="-3.06963">
        <ele>197</ele>
        <time>2014-04-27T11:38:47Z</time>
      </trkpt>
      <trkpt lat="48.48646" lon="-3.06961">
        <ele>197</ele>
        <time>2014-04-27T11:38:48Z</time>
      </trkpt>
      <trkpt lat="48.48647" lon="-3.0696">
        <ele>197</ele>
        <time>2014-04-27T11:38:49Z</time>
      </trkpt>
      <trkpt lat="48.48645" lon="-3.0696">
        <ele>196</ele>
        <time>2014-04-27T11:38:53Z</time>
      </trkpt>
      <trkpt lat="48.48643" lon="-3.06959">
        <ele>195</ele>
        <time>2014-04-27T11:38:53Z</time>
      </trkpt>
      <trkpt lat="48.48647" lon="-3.06957">
        <ele>191</ele>
        <time>2014-04-27T11:38:58Z</time>
      </trkpt>
      <trkpt lat="48.48648" lon="-3.06957">
        <ele>190</ele>
        <time>2014-04-27T11:38:58Z</time>
      </trkpt>
      <trkpt lat="48.4865" lon="-3.06954">
        <ele>189</ele>
        <time>2014-04-27T11:38:59Z</time>
      </trkpt>
      <trkpt lat="48.48651" lon="-3.06951">
        <ele>188</ele>
        <time>2014-04-27T11:39:03Z</time>
      </trkpt>
      <trkpt lat="48.48652" lon="-3.06949">
        <ele>188</ele>
        <time>2014-04-27T11:39:03Z</time>
      </trkpt>
      <trkpt lat="48.48654" lon="-3.06945">
        <ele>188</ele>
        <time>2014-04-27T11:39:06Z</time>
      </trkpt>
      <trkpt lat="48.48655" lon="-3.06943">
        <ele>188</ele>
        <time>2014-04-27T11:39:08Z</time>
      </trkpt>
      <trkpt lat="48.48657" lon="-3.06939">
        <ele>188</ele>
        <time>2014-04-27T11:39:09Z</time>
      </trkpt>
      <trkpt lat="48.48658" lon="-3.06932">
        <ele>188</ele>
        <time>2014-04-27T11:39:10Z</time>
      </trkpt>
      <trkpt lat="48.48659" lon="-3.06929">
        <ele>188</ele>
        <time>2014-04-27T11:39:11Z</time>
      </trkpt>
      <trkpt lat="48.48658" lon="-3.06926">
        <ele>189</ele>
        <time>2014-04-27T11:39:12Z</time>
      </trkpt>
      <trkpt lat="48.48658" lon="-3.06924">
        <ele>190</ele>
        <time>2014-04-27T11:39:14Z</time>
      </trkpt>
      <trkpt lat="48.4866" lon="-3.06921">
        <ele>191</ele>
        <time>2014-04-27T11:39:14Z</time>
      </trkpt>
      <trkpt lat="48.48663" lon="-3.06918">
        <ele>193</ele>
        <time>2014-04-27T11:39:16Z</time>
      </trkpt>
      <trkpt lat="48.48664" lon="-3.06916">
        <ele>195</ele>
        <time>2014-04-27T11:39:19Z</time>
      </trkpt>
      <trkpt lat="48.48664" lon="-3.06914">
        <ele>197</ele>
        <time>2014-04-27T11:39:21Z</time>
      </trkpt>
      <trkpt lat="48.48665" lon="-3.0691">
        <ele>197</ele>
        <time>2014-04-27T11:39:25Z</time>
      </trkpt>
      <trkpt lat="48.48666" lon="-3.06909">
        <ele>197</ele>
        <time>2014-04-27T11:39:25Z</time>
      </trkpt>
      <trkpt lat="48.48667" lon="-3.06904">
        <ele>196</ele>
        <time>2014-04-27T11:39:27Z</time>
      </trkpt>
      <trkpt lat="48.48668" lon="-3.069">
        <ele>196</ele>
        <time>2014-04-27T11:39:31Z</time>
      </trkpt>
      <trkpt lat="48.48669" lon="-3.06897">
        <ele>196</ele>
        <time>2014-04-27T11:39:31Z</time>
      </trkpt>
      <trkpt lat="48.48669" lon="-3.06895">
        <ele>196</ele>
        <time>2014-04-27T11:39:32Z</time>
      </trkpt>
      <trkpt lat="48.48669" lon="-3.06892">
        <ele>196</ele>
        <time>2014-04-27T11:39:33Z</time>
      </trkpt>
      <trkpt lat="48.48668" lon="-3.0689">
        <ele>197</ele>
        <time>2014-04-27T11:39:34Z</time>
      </trkpt>
      <trkpt lat="48.48668" lon="-3.06887">
        <ele>198</ele>
        <time>2014-04-27T11:39:36Z</time>
      </trkpt>
      <trkpt lat="48.4867" lon="-3.06885">
        <ele>201</ele>
        <time>2014-04-27T11:39:38Z</time>
      </trkpt>
      <trkpt lat="48.4867" lon="-3.06883">
        <ele>202</ele>
        <time>2014-04-27T11:39:42Z</time>
      </trkpt>
      <trkpt lat="48.48672" lon="-3.06882">
        <ele>202</ele>
        <time>2014-04-27T11:39:43Z</time>
      </trkpt>
      <trkpt lat="48.48672" lon="-3.0688">
        <ele>202</ele>
        <time>2014-04-27T11:39:47Z</time>
      </trkpt>
      <trkpt lat="48.48671" lon="-3.06877">
        <ele>202</ele>
        <time>2014-04-27T11:39:50Z</time>
      </trkpt>
      <trkpt lat="48.48671" lon="-3.06874">
        <ele>202</ele>
        <time>2014-04-27T11:39:54Z</time>
      </trkpt>
      <trkpt lat="48.48672" lon="-3.06873">
        <ele>201</ele>
        <time>2014-04-27T11:39:55Z</time>
      </trkpt>
      <trkpt lat="48.48674" lon="-3.06872">
        <ele>199</ele>
        <time>2014-04-27T11:39:57Z</time>
      </trkpt>
      <trkpt lat="48.48676" lon="-3.06871">
        <ele>197</ele>
        <time>2014-04-27T11:40:00Z</time>
      </trkpt>
      <trkpt lat="48.48677" lon="-3.06867">
        <ele>196</ele>
        <time>2014-04-27T11:40:02Z</time>
      </trkpt>
      <trkpt lat="48.48677" lon="-3.06864">
        <ele>194</ele>
        <time>2014-04-27T11:40:03Z</time>
      </trkpt>
      <trkpt lat="48.48678" lon="-3.06862">
        <ele>193</ele>
        <time>2014-04-27T11:40:05Z</time>
      </trkpt>
      <trkpt lat="48.48677" lon="-3.06859">
        <ele>192</ele>
        <time>2014-04-27T11:40:05Z</time>
      </trkpt>
      <trkpt lat="48.48677" lon="-3.06857">
        <ele>191</ele>
        <time>2014-04-27T11:40:06Z</time>
      </trkpt>
      <trkpt lat="48.48677" lon="-3.06854">
        <ele>190</ele>
        <time>2014-04-27T11:40:07Z</time>
      </trkpt>
      <trkpt lat="48.48677" lon="-3.06849">
        <ele>189</ele>
        <time>2014-04-27T11:40:08Z</time>
      </trkpt>
      <trkpt lat="48.48677" lon="-3.06848">
        <ele>189</ele>
        <time>2014-04-27T11:40:09Z</time>
      </trkpt>
      <trkpt lat="48.48677" lon="-3.06846">
        <ele>189</ele>
        <time>2014-04-27T11:40:10Z</time>
      </trkpt>
      <trkpt lat="48.48677" lon="-3.06843">
        <ele>189</ele>
        <time>2014-04-27T11:40:11Z</time>
      </trkpt>
      <trkpt lat="48.48677" lon="-3.06841">
        <ele>189</ele>
        <time>2014-04-27T11:40:12Z</time>
      </trkpt>
      <trkpt lat="48.48677" lon="-3.06838">
        <ele>189</ele>
        <time>2014-04-27T11:40:13Z</time>
      </trkpt>
      <trkpt lat="48.48676" lon="-3.06834">
        <ele>189</ele>
        <time>2014-04-27T11:40:16Z</time>
      </trkpt>
      <trkpt lat="48.48677" lon="-3.06832">
        <ele>189</ele>
        <time>2014-04-27T11:40:16Z</time>
      </trkpt>
      <trkpt lat="48.48678" lon="-3.06829">
        <ele>189</ele>
        <time>2014-04-27T11:40:17Z</time>
      </trkpt>
      <trkpt lat="48.48678" lon="-3.06827">
        <ele>189</ele>
        <time>2014-04-27T11:40:18Z</time>
      </trkpt>
      <trkpt lat="48.48679" lon="-3.06824">
        <ele>191</ele>
        <time>2014-04-27T11:40:20Z</time>
      </trkpt>
      <trkpt lat="48.48681" lon="-3.0682">
        <ele>196</ele>
        <time>2014-04-27T11:40:26Z</time>
      </trkpt>
      <trkpt lat="48.48682" lon="-3.06817">
        <ele>196</ele>
        <time>2014-04-27T11:40:27Z</time>
      </trkpt>
      <trkpt lat="48.48682" lon="-3.06815">
        <ele>196</ele>
        <time>2014-04-27T11:40:28Z</time>
      </trkpt>
      <trkpt lat="48.48682" lon="-3.06813">
        <ele>197</ele>
        <time>2014-04-27T11:40:29Z</time>
      </trkpt>
      <trkpt lat="48.4868" lon="-3.06812">
        <ele>198</ele>
        <time>2014-04-27T11:40:36Z</time>
      </trkpt>
      <trkpt lat="48.48678" lon="-3.06812">
        <ele>198</ele>
        <time>2014-04-27T11:40:37Z</time>
      </trkpt>
      <trkpt lat="48.48677" lon="-3.06809">
        <ele>198</ele>
        <time>2014-04-27T11:40:38Z</time>
      </trkpt>
      <trkpt lat="48.48675" lon="-3.06808">
        <ele>198</ele>
        <time>2014-04-27T11:40:39Z</time>
      </trkpt>
      <trkpt lat="48.48674" lon="-3.06809">
        <ele>198</ele>
        <time>2014-04-27T11:40:40Z</time>
      </trkpt>
      <trkpt lat="48.48674" lon="-3.06807">
        <ele>198</ele>
        <time>2014-04-27T11:40:43Z</time>
      </trkpt>
      <trkpt lat="48.48673" lon="-3.06804">
        <ele>198</ele>
        <time>2014-04-27T11:40:44Z</time>
      </trkpt>
      <trkpt lat="48.48671" lon="-3.06802">
        <ele>198</ele>
        <time>2014-04-27T11:40:45Z</time>
      </trkpt>
      <trkpt lat="48.48671" lon="-3.06798">
        <ele>197</ele>
        <time>2014-04-27T11:40:47Z</time>
      </trkpt>
      <trkpt lat="48.48672" lon="-3.06795">
        <ele>197</ele>
        <time>2014-04-27T11:40:49Z</time>
      </trkpt>
      <trkpt lat="48.48673" lon="-3.06793">
        <ele>197</ele>
        <time>2014-04-27T11:40:49Z</time>
      </trkpt>
      <trkpt lat="48.48674" lon="-3.06791">
        <ele>197</ele>
        <time>2014-04-27T11:40:50Z</time>
      </trkpt>
      <trkpt lat="48.48674" lon="-3.06788">
        <ele>197</ele>
        <time>2014-04-27T11:40:52Z</time>
      </trkpt>
      <trkpt lat="48.48673" lon="-3.06786">
        <ele>198</ele>
        <time>2014-04-27T11:40:55Z</time>
      </trkpt>
      <trkpt lat="48.48673" lon="-3.06779">
        <ele>199</ele>
        <time>2014-04-27T11:40:58Z</time>
      </trkpt>
      <trkpt lat="48.48672" lon="-3.06774">
        <ele>200</ele>
        <time>2014-04-27T11:41:00Z</time>
      </trkpt>
      <trkpt lat="48.48671" lon="-3.06772">
        <ele>200</ele>
        <time>2014-04-27T11:41:00Z</time>
      </trkpt>
      <trkpt lat="48.48673" lon="-3.06769">
        <ele>200</ele>
        <time>2014-04-27T11:41:01Z</time>
      </trkpt>
      <trkpt lat="48.48673" lon="-3.06765">
        <ele>201</ele>
        <time>2014-04-27T11:41:02Z</time>
      </trkpt>
      <trkpt lat="48.48672" lon="-3.06763">
        <ele>203</ele>
        <time>2014-04-27T11:41:04Z</time>
      </trkpt>
      <trkpt lat="48.48672" lon="-3.06761">
        <ele>205</ele>
        <time>2014-04-27T11:41:07Z</time>
      </trkpt>
      <trkpt lat="48.48669" lon="-3.06762">
        <ele>205</ele>
        <time>2014-04-27T11:41:09Z</time>
      </trkpt>
      <trkpt lat="48.48668" lon="-3.06763">
        <ele>205</ele>
        <time>2014-04-27T11:41:10Z</time>
      </trkpt>
      <trkpt lat="48.48666" lon="-3.06764">
        <ele>205</ele>
        <time>2014-04-27T11:41:11Z</time>
      </trkpt>
      <trkpt lat="48.48664" lon="-3.06764">
        <ele>205</ele>
        <time>2014-04-27T11:41:12Z</time>
      </trkpt>
      <trkpt lat="48.48663" lon="-3.06764">
        <ele>205</ele>
        <time>2014-04-27T11:41:13Z</time>
      </trkpt>
      <trkpt lat="48.48663" lon="-3.06761">
        <ele>205</ele>
        <time>2014-04-27T11:41:15Z</time>
      </trkpt>
      <trkpt lat="48.48661" lon="-3.06761">
        <ele>205</ele>
        <time>2014-04-27T11:41:16Z</time>
      </trkpt>
      <trkpt lat="48.48661" lon="-3.06752">
        <ele>205</ele>
        <time>2014-04-27T11:41:23Z</time>
      </trkpt>
      <trkpt lat="48.48662" lon="-3.06744">
        <ele>205</ele>
        <time>2014-04-27T11:41:24Z</time>
      </trkpt>
      <trkpt lat="48.48663" lon="-3.06741">
        <ele>205</ele>
        <time>2014-04-27T11:41:25Z</time>
      </trkpt>
      <trkpt lat="48.48663" lon="-3.06739">
        <ele>205</ele>
        <time>2014-04-27T11:41:27Z</time>
      </trkpt>
      <trkpt lat="48.48661" lon="-3.06739">
        <ele>205</ele>
        <time>2014-04-27T11:41:28Z</time>
      </trkpt>
      <trkpt lat="48.48659" lon="-3.06739">
        <ele>205</ele>
        <time>2014-04-27T11:41:29Z</time>
      </trkpt>
      <trkpt lat="48.48658" lon="-3.06737">
        <ele>205</ele>
        <time>2014-04-27T11:41:31Z</time>
      </trkpt>
      <trkpt lat="48.48658" lon="-3.06735">
        <ele>205</ele>
        <time>2014-04-27T11:41:32Z</time>
      </trkpt>
      <trkpt lat="48.48658" lon="-3.06733">
        <ele>204</ele>
        <time>2014-04-27T11:41:33Z</time>
      </trkpt>
      <trkpt lat="48.48659" lon="-3.0673">
        <ele>204</ele>
        <time>2014-04-27T11:41:35Z</time>
      </trkpt>
      <trkpt lat="48.48658" lon="-3.06728">
        <ele>204</ele>
        <time>2014-04-27T11:41:37Z</time>
      </trkpt>
      <trkpt lat="48.48657" lon="-3.06726">
        <ele>204</ele>
        <time>2014-04-27T11:41:38Z</time>
      </trkpt>
      <trkpt lat="48.48656" lon="-3.06724">
        <ele>204</ele>
        <time>2014-04-27T11:41:40Z</time>
      </trkpt>
      <trkpt lat="48.48655" lon="-3.06723">
        <ele>204</ele>
        <time>2014-04-27T11:41:42Z</time>
      </trkpt>
      <trkpt lat="48.48654" lon="-3.06719">
        <ele>204</ele>
        <time>2014-04-27T11:41:45Z</time>
      </trkpt>
      <trkpt lat="48.48652" lon="-3.06716">
        <ele>204</ele>
        <time>2014-04-27T11:41:47Z</time>
      </trkpt>
      <trkpt lat="48.48651" lon="-3.06714">
        <ele>204</ele>
        <time>2014-04-27T11:41:48Z</time>
      </trkpt>
      <trkpt lat="48.4865" lon="-3.06713">
        <ele>204</ele>
        <time>2014-04-27T11:41:50Z</time>
      </trkpt>
      <trkpt lat="48.48648" lon="-3.0671">
        <ele>204</ele>
        <time>2014-04-27T11:41:53Z</time>
      </trkpt>
      <trkpt lat="48.48645" lon="-3.06711">
        <ele>204</ele>
        <time>2014-04-27T11:41:55Z</time>
      </trkpt>
      <trkpt lat="48.48644" lon="-3.06709">
        <ele>204</ele>
        <time>2014-04-27T11:41:56Z</time>
      </trkpt>
      <trkpt lat="48.48642" lon="-3.06709">
        <ele>204</ele>
        <time>2014-04-27T11:41:57Z</time>
      </trkpt>
      <trkpt lat="48.48641" lon="-3.06708">
        <ele>203</ele>
        <time>2014-04-27T11:41:58Z</time>
      </trkpt>
      <trkpt lat="48.4864" lon="-3.06706">
        <ele>202</ele>
        <time>2014-04-27T11:41:59Z</time>
      </trkpt>
      <trkpt lat="48.4864" lon="-3.06704">
        <ele>201</ele>
        <time>2014-04-27T11:42:00Z</time>
      </trkpt>
      <trkpt lat="48.48639" lon="-3.06701">
        <ele>199</ele>
        <time>2014-04-27T11:42:02Z</time>
      </trkpt>
      <trkpt lat="48.4864" lon="-3.067">
        <ele>198</ele>
        <time>2014-04-27T11:42:03Z</time>
      </trkpt>
      <trkpt lat="48.4864" lon="-3.06697">
        <ele>197</ele>
        <time>2014-04-27T11:42:04Z</time>
      </trkpt>
      <trkpt lat="48.48641" lon="-3.06695">
        <ele>197</ele>
        <time>2014-04-27T11:42:05Z</time>
      </trkpt>
      <trkpt lat="48.48642" lon="-3.06692">
        <ele>197</ele>
        <time>2014-04-27T11:42:07Z</time>
      </trkpt>
      <trkpt lat="48.48642" lon="-3.0669">
        <ele>197</ele>
        <time>2014-04-27T11:42:08Z</time>
      </trkpt>
      <trkpt lat="48.48643" lon="-3.06688">
        <ele>197</ele>
        <time>2014-04-27T11:42:09Z</time>
      </trkpt>
      <trkpt lat="48.48643" lon="-3.06686">
        <ele>197</ele>
        <time>2014-04-27T11:42:10Z</time>
      </trkpt>
      <trkpt lat="48.48643" lon="-3.06684">
        <ele>197</ele>
        <time>2014-04-27T11:42:11Z</time>
      </trkpt>
      <trkpt lat="48.48641" lon="-3.06681">
        <ele>198</ele>
        <time>2014-04-27T11:42:13Z</time>
      </trkpt>
      <trkpt lat="48.48641" lon="-3.06679">
        <ele>199</ele>
        <time>2014-04-27T11:42:14Z</time>
      </trkpt>
      <trkpt lat="48.4864" lon="-3.06677">
        <ele>199</ele>
        <time>2014-04-27T11:42:15Z</time>
      </trkpt>
      <trkpt lat="48.4864" lon="-3.06674">
        <ele>200</ele>
        <time>2014-04-27T11:42:16Z</time>
      </trkpt>
      <trkpt lat="48.48638" lon="-3.06671">
        <ele>201</ele>
        <time>2014-04-27T11:42:17Z</time>
      </trkpt>
      <trkpt lat="48.48637" lon="-3.06668">
        <ele>202</ele>
        <time>2014-04-27T11:42:20Z</time>
      </trkpt>
      <trkpt lat="48.48637" lon="-3.06665">
        <ele>203</ele>
        <time>2014-04-27T11:42:21Z</time>
      </trkpt>
      <trkpt lat="48.48636" lon="-3.06662">
        <ele>204</ele>
        <time>2014-04-27T11:42:22Z</time>
      </trkpt>
      <trkpt lat="48.48634" lon="-3.06659">
        <ele>206</ele>
        <time>2014-04-27T11:42:24Z</time>
      </trkpt>
      <trkpt lat="48.48634" lon="-3.06656">
        <ele>207</ele>
        <time>2014-04-27T11:42:25Z</time>
      </trkpt>
      <trkpt lat="48.48632" lon="-3.06655">
        <ele>207</ele>
        <time>2014-04-27T11:42:27Z</time>
      </trkpt>
      <trkpt lat="48.48632" lon="-3.06652">
        <ele>207</ele>
        <time>2014-04-27T11:42:30Z</time>
      </trkpt>
      <trkpt lat="48.48633" lon="-3.0665">
        <ele>207</ele>
        <time>2014-04-27T11:42:31Z</time>
      </trkpt>
      <trkpt lat="48.48633" lon="-3.06648">
        <ele>207</ele>
        <time>2014-04-27T11:42:32Z</time>
      </trkpt>
      <trkpt lat="48.48632" lon="-3.06646">
        <ele>207</ele>
        <time>2014-04-27T11:42:34Z</time>
      </trkpt>
      <trkpt lat="48.48631" lon="-3.06646">
        <ele>207</ele>
        <time>2014-04-27T11:42:35Z</time>
      </trkpt>
      <trkpt lat="48.48629" lon="-3.06644">
        <ele>207</ele>
        <time>2014-04-27T11:42:37Z</time>
      </trkpt>
      <trkpt lat="48.48627" lon="-3.06642">
        <ele>206</ele>
        <time>2014-04-27T11:42:39Z</time>
      </trkpt>
      <trkpt lat="48.48626" lon="-3.06641">
        <ele>204</ele>
        <time>2014-04-27T11:42:41Z</time>
      </trkpt>
      <trkpt lat="48.48626" lon="-3.06638">
        <ele>202</ele>
        <time>2014-04-27T11:42:43Z</time>
      </trkpt>
      <trkpt lat="48.48626" lon="-3.06636">
        <ele>201</ele>
        <time>2014-04-27T11:42:44Z</time>
      </trkpt>
      <trkpt lat="48.48627" lon="-3.06633">
        <ele>200</ele>
        <time>2014-04-27T11:42:45Z</time>
      </trkpt>
      <trkpt lat="48.48627" lon="-3.06631">
        <ele>199</ele>
        <time>2014-04-27T11:42:46Z</time>
      </trkpt>
      <trkpt lat="48.48627" lon="-3.06629">
        <ele>198</ele>
        <time>2014-04-27T11:42:47Z</time>
      </trkpt>
      <trkpt lat="48.48627" lon="-3.06626">
        <ele>198</ele>
        <time>2014-04-27T11:42:48Z</time>
      </trkpt>
      <trkpt lat="48.48627" lon="-3.06623">
        <ele>198</ele>
        <time>2014-04-27T11:42:50Z</time>
      </trkpt>
      <trkpt lat="48.48627" lon="-3.0662">
        <ele>198</ele>
        <time>2014-04-27T11:42:52Z</time>
      </trkpt>
      <trkpt lat="48.48626" lon="-3.06619">
        <ele>198</ele>
        <time>2014-04-27T11:42:54Z</time>
      </trkpt>
      <trkpt lat="48.48624" lon="-3.06617">
        <ele>198</ele>
        <time>2014-04-27T11:42:57Z</time>
      </trkpt>
      <trkpt lat="48.48623" lon="-3.06614">
        <ele>197</ele>
        <time>2014-04-27T11:42:59Z</time>
      </trkpt>
      <trkpt lat="48.48622" lon="-3.06611">
        <ele>195</ele>
        <time>2014-04-27T11:43:02Z</time>
      </trkpt>
      <trkpt lat="48.48622" lon="-3.06608">
        <ele>194</ele>
        <time>2014-04-27T11:43:04Z</time>
      </trkpt>
      <trkpt lat="48.48622" lon="-3.06605">
        <ele>194</ele>
        <time>2014-04-27T11:43:06Z</time>
      </trkpt>
      <trkpt lat="48.48622" lon="-3.06603">
        <ele>194</ele>
        <time>2014-04-27T11:43:07Z</time>
      </trkpt>
      <trkpt lat="48.48622" lon="-3.06601">
        <ele>194</ele>
        <time>2014-04-27T11:43:09Z</time>
      </trkpt>
      <trkpt lat="48.48622" lon="-3.06599">
        <ele>194</ele>
        <time>2014-04-27T11:43:10Z</time>
      </trkpt>
      <trkpt lat="48.48622" lon="-3.06597">
        <ele>194</ele>
        <time>2014-04-27T11:43:11Z</time>
      </trkpt>
      <trkpt lat="48.48622" lon="-3.06594">
        <ele>194</ele>
        <time>2014-04-27T11:43:12Z</time>
      </trkpt>
      <trkpt lat="48.48622" lon="-3.06592">
        <ele>194</ele>
        <time>2014-04-27T11:43:13Z</time>
      </trkpt>
      <trkpt lat="48.48621" lon="-3.0659">
        <ele>194</ele>
        <time>2014-04-27T11:43:14Z</time>
      </trkpt>
      <trkpt lat="48.4862" lon="-3.06588">
        <ele>194</ele>
        <time>2014-04-27T11:43:15Z</time>
      </trkpt>
      <trkpt lat="48.4862" lon="-3.06585">
        <ele>194</ele>
        <time>2014-04-27T11:43:16Z</time>
      </trkpt>
      <trkpt lat="48.48619" lon="-3.06583">
        <ele>194</ele>
        <time>2014-04-27T11:43:17Z</time>
      </trkpt>
      <trkpt lat="48.48619" lon="-3.0658">
        <ele>194</ele>
        <time>2014-04-27T11:43:18Z</time>
      </trkpt>
      <trkpt lat="48.48618" lon="-3.06578">
        <ele>194</ele>
        <time>2014-04-27T11:43:19Z</time>
      </trkpt>
      <trkpt lat="48.48617" lon="-3.06576">
        <ele>194</ele>
        <time>2014-04-27T11:43:20Z</time>
      </trkpt>
      <trkpt lat="48.48615" lon="-3.06575">
        <ele>195</ele>
        <time>2014-04-27T11:43:21Z</time>
      </trkpt>
      <trkpt lat="48.48616" lon="-3.06573">
        <ele>196</ele>
        <time>2014-04-27T11:43:22Z</time>
      </trkpt>
      <trkpt lat="48.48618" lon="-3.06572">
        <ele>197</ele>
        <time>2014-04-27T11:43:23Z</time>
      </trkpt>
      <trkpt lat="48.48617" lon="-3.06568">
        <ele>198</ele>
        <time>2014-04-27T11:43:24Z</time>
      </trkpt>
      <trkpt lat="48.48618" lon="-3.06566">
        <ele>199</ele>
        <time>2014-04-27T11:43:25Z</time>
      </trkpt>
      <trkpt lat="48.48618" lon="-3.06563">
        <ele>200</ele>
        <time>2014-04-27T11:43:26Z</time>
      </trkpt>
      <trkpt lat="48.48616" lon="-3.06559">
        <ele>201</ele>
        <time>2014-04-27T11:43:28Z</time>
      </trkpt>
      <trkpt lat="48.48616" lon="-3.06557">
        <ele>201</ele>
        <time>2014-04-27T11:43:29Z</time>
      </trkpt>
      <trkpt lat="48.48615" lon="-3.06556">
        <ele>201</ele>
        <time>2014-04-27T11:43:31Z</time>
      </trkpt>
      <trkpt lat="48.48614" lon="-3.06556">
        <ele>201</ele>
        <time>2014-04-27T11:43:33Z</time>
      </trkpt>
      <trkpt lat="48.48614" lon="-3.06553">
        <ele>201</ele>
        <time>2014-04-27T11:43:35Z</time>
      </trkpt>
      <trkpt lat="48.48612" lon="-3.06549">
        <ele>201</ele>
        <time>2014-04-27T11:43:37Z</time>
      </trkpt>
      <trkpt lat="48.48612" lon="-3.06547">
        <ele>201</ele>
        <time>2014-04-27T11:43:38Z</time>
      </trkpt>
      <trkpt lat="48.48612" lon="-3.06545">
        <ele>201</ele>
        <time>2014-04-27T11:43:39Z</time>
      </trkpt>
      <trkpt lat="48.48612" lon="-3.06542">
        <ele>200</ele>
        <time>2014-04-27T11:43:41Z</time>
      </trkpt>
      <trkpt lat="48.48612" lon="-3.0654">
        <ele>200</ele>
        <time>2014-04-27T11:43:43Z</time>
      </trkpt>
      <trkpt lat="48.48611" lon="-3.06538">
        <ele>200</ele>
        <time>2014-04-27T11:43:45Z</time>
      </trkpt>
      <trkpt lat="48.4861" lon="-3.06537">
        <ele>199</ele>
        <time>2014-04-27T11:43:48Z</time>
      </trkpt>
      <trkpt lat="48.48608" lon="-3.06527">
        <ele>197</ele>
        <time>2014-04-27T11:43:54Z</time>
      </trkpt>
      <trkpt lat="48.48609" lon="-3.06519">
        <ele>196</ele>
        <time>2014-04-27T11:43:55Z</time>
      </trkpt>
      <trkpt lat="48.4861" lon="-3.06513">
        <ele>195</ele>
        <time>2014-04-27T11:43:56Z</time>
      </trkpt>
      <trkpt lat="48.48609" lon="-3.06511">
        <ele>195</ele>
        <time>2014-04-27T11:43:57Z</time>
      </trkpt>
      <trkpt lat="48.4861" lon="-3.06507">
        <ele>195</ele>
        <time>2014-04-27T11:43:58Z</time>
      </trkpt>
      <trkpt lat="48.4861" lon="-3.06505">
        <ele>195</ele>
        <time>2014-04-27T11:43:59Z</time>
      </trkpt>
      <trkpt lat="48.4861" lon="-3.065">
        <ele>195</ele>
        <time>2014-04-27T11:44:04Z</time>
      </trkpt>
      <trkpt lat="48.48609" lon="-3.06498">
        <ele>195</ele>
        <time>2014-04-27T11:44:05Z</time>
      </trkpt>
      <trkpt lat="48.4861" lon="-3.06496">
        <ele>195</ele>
        <time>2014-04-27T11:44:07Z</time>
      </trkpt>
      <trkpt lat="48.48612" lon="-3.06494">
        <ele>195</ele>
        <time>2014-04-27T11:44:09Z</time>
      </trkpt>
      <trkpt lat="48.48612" lon="-3.06492">
        <ele>195</ele>
        <time>2014-04-27T11:44:10Z</time>
      </trkpt>
      <trkpt lat="48.48611" lon="-3.0649">
        <ele>195</ele>
        <time>2014-04-27T11:44:11Z</time>
      </trkpt>
      <trkpt lat="48.4861" lon="-3.06487">
        <ele>195</ele>
        <time>2014-04-27T11:44:13Z</time>
      </trkpt>
      <trkpt lat="48.4861" lon="-3.06485">
        <ele>195</ele>
        <time>2014-04-27T11:44:14Z</time>
      </trkpt>
      <trkpt lat="48.48604" lon="-3.06481">
        <ele>199</ele>
        <time>2014-04-27T11:44:20Z</time>
      </trkpt>
      <trkpt lat="48.48599" lon="-3.06481">
        <ele>200</ele>
        <time>2014-04-27T11:44:21Z</time>
      </trkpt>
      <trkpt lat="48.48596" lon="-3.06477">
        <ele>200</ele>
        <time>2014-04-27T11:44:22Z</time>
      </trkpt>
      <trkpt lat="48.48594" lon="-3.06473">
        <ele>200</ele>
        <time>2014-04-27T11:44:25Z</time>
      </trkpt>
      <trkpt lat="48.48594" lon="-3.06464">
        <ele>200</ele>
        <time>2014-04-27T11:44:28Z</time>
      </trkpt>
      <trkpt lat="48.48599" lon="-3.06457">
        <ele>200</ele>
        <time>2014-04-27T11:44:29Z</time>
      </trkpt>
      <trkpt lat="48.48599" lon="-3.06453">
        <ele>200</ele>
        <time>2014-04-27T11:44:30Z</time>
      </trkpt>
      <trkpt lat="48.48597" lon="-3.0645">
        <ele>201</ele>
        <time>2014-04-27T11:44:33Z</time>
      </trkpt>
      <trkpt lat="48.48598" lon="-3.06447">
        <ele>201</ele>
        <time>2014-04-27T11:44:34Z</time>
      </trkpt>
      <trkpt lat="48.48595" lon="-3.06445">
        <ele>201</ele>
        <time>2014-04-27T11:44:35Z</time>
      </trkpt>
      <trkpt lat="48.48593" lon="-3.06445">
        <ele>202</ele>
        <time>2014-04-27T11:44:36Z</time>
      </trkpt>
      <trkpt lat="48.48594" lon="-3.06445">
        <ele>202</ele>
        <time>2014-04-27T11:44:37Z</time>
      </trkpt>
      <trkpt lat="48.48594" lon="-3.06442">
        <ele>202</ele>
        <time>2014-04-27T11:44:40Z</time>
      </trkpt>
      <trkpt lat="48.48591" lon="-3.06438">
        <ele>202</ele>
        <time>2014-04-27T11:44:41Z</time>
      </trkpt>
      <trkpt lat="48.48593" lon="-3.06435">
        <ele>202</ele>
        <time>2014-04-27T11:44:42Z</time>
      </trkpt>
      <trkpt lat="48.48595" lon="-3.06432">
        <ele>203</ele>
        <time>2014-04-27T11:44:43Z</time>
      </trkpt>
      <trkpt lat="48.48593" lon="-3.06433">
        <ele>203</ele>
        <time>2014-04-27T11:44:44Z</time>
      </trkpt>
      <trkpt lat="48.48592" lon="-3.06431">
        <ele>204</ele>
        <time>2014-04-27T11:44:46Z</time>
      </trkpt>
      <trkpt lat="48.4859" lon="-3.06432">
        <ele>204</ele>
        <time>2014-04-27T11:44:47Z</time>
      </trkpt>
      <trkpt lat="48.48589" lon="-3.0643">
        <ele>204</ele>
        <time>2014-04-27T11:44:48Z</time>
      </trkpt>
      <trkpt lat="48.48589" lon="-3.06428">
        <ele>204</ele>
        <time>2014-04-27T11:44:49Z</time>
      </trkpt>
      <trkpt lat="48.4859" lon="-3.06425">
        <ele>204</ele>
        <time>2014-04-27T11:44:50Z</time>
      </trkpt>
      <trkpt lat="48.48591" lon="-3.06423">
        <ele>204</ele>
        <time>2014-04-27T11:44:51Z</time>
      </trkpt>
      <trkpt lat="48.48592" lon="-3.06421">
        <ele>204</ele>
        <time>2014-04-27T11:44:52Z</time>
      </trkpt>
      <trkpt lat="48.48594" lon="-3.06418">
        <ele>205</ele>
        <time>2014-04-27T11:44:53Z</time>
      </trkpt>
      <trkpt lat="48.48594" lon="-3.06416">
        <ele>206</ele>
        <time>2014-04-27T11:44:54Z</time>
      </trkpt>
      <trkpt lat="48.48595" lon="-3.06412">
        <ele>206</ele>
        <time>2014-04-27T11:44:56Z</time>
      </trkpt>
      <trkpt lat="48.48595" lon="-3.0641">
        <ele>207</ele>
        <time>2014-04-27T11:44:57Z</time>
      </trkpt>
      <trkpt lat="48.48596" lon="-3.06408">
        <ele>208</ele>
        <time>2014-04-27T11:44:58Z</time>
      </trkpt>
      <trkpt lat="48.48595" lon="-3.06405">
        <ele>208</ele>
        <time>2014-04-27T11:45:01Z</time>
      </trkpt>
      <trkpt lat="48.48594" lon="-3.06403">
        <ele>208</ele>
        <time>2014-04-27T11:45:02Z</time>
      </trkpt>
      <trkpt lat="48.48594" lon="-3.06399">
        <ele>208</ele>
        <time>2014-04-27T11:45:04Z</time>
      </trkpt>
      <trkpt lat="48.48594" lon="-3.06397">
        <ele>210</ele>
        <time>2014-04-27T11:45:06Z</time>
      </trkpt>
      <trkpt lat="48.48594" lon="-3.06395">
        <ele>211</ele>
        <time>2014-04-27T11:45:08Z</time>
      </trkpt>
      <trkpt lat="48.48592" lon="-3.06395">
        <ele>211</ele>
        <time>2014-04-27T11:45:09Z</time>
      </trkpt>
      <trkpt lat="48.48591" lon="-3.06394">
        <ele>211</ele>
        <time>2014-04-27T11:45:10Z</time>
      </trkpt>
      <trkpt lat="48.48591" lon="-3.06392">
        <ele>211</ele>
        <time>2014-04-27T11:45:12Z</time>
      </trkpt>
      <trkpt lat="48.48589" lon="-3.0639">
        <ele>209</ele>
        <time>2014-04-27T11:45:14Z</time>
      </trkpt>
      <trkpt lat="48.48588" lon="-3.06386">
        <ele>209</ele>
        <time>2014-04-27T11:45:15Z</time>
      </trkpt>
      <trkpt lat="48.48588" lon="-3.06384">
        <ele>209</ele>
        <time>2014-04-27T11:45:16Z</time>
      </trkpt>
      <trkpt lat="48.48589" lon="-3.06384">
        <ele>209</ele>
        <time>2014-04-27T11:45:18Z</time>
      </trkpt>
      <trkpt lat="48.4859" lon="-3.06381">
        <ele>209</ele>
        <time>2014-04-27T11:45:21Z</time>
      </trkpt>
      <trkpt lat="48.48591" lon="-3.06378">
        <ele>209</ele>
        <time>2014-04-27T11:45:22Z</time>
      </trkpt>
      <trkpt lat="48.48592" lon="-3.06375">
        <ele>209</ele>
        <time>2014-04-27T11:45:23Z</time>
      </trkpt>
      <trkpt lat="48.48593" lon="-3.06372">
        <ele>209</ele>
        <time>2014-04-27T11:45:24Z</time>
      </trkpt>
      <trkpt lat="48.48592" lon="-3.06369">
        <ele>209</ele>
        <time>2014-04-27T11:45:26Z</time>
      </trkpt>
      <trkpt lat="48.48592" lon="-3.06366">
        <ele>209</ele>
        <time>2014-04-27T11:45:28Z</time>
      </trkpt>
      <trkpt lat="48.4859" lon="-3.06365">
        <ele>209</ele>
        <time>2014-04-27T11:45:29Z</time>
      </trkpt>
      <trkpt lat="48.48588" lon="-3.06365">
        <ele>207</ele>
        <time>2014-04-27T11:45:31Z</time>
      </trkpt>
      <trkpt lat="48.48585" lon="-3.06367">
        <ele>205</ele>
        <time>2014-04-27T11:45:35Z</time>
      </trkpt>
      <trkpt lat="48.48582" lon="-3.06369">
        <ele>205</ele>
        <time>2014-04-27T11:45:37Z</time>
      </trkpt>
      <trkpt lat="48.48584" lon="-3.06367">
        <ele>205</ele>
        <time>2014-04-27T11:45:39Z</time>
      </trkpt>
      <trkpt lat="48.48584" lon="-3.06365">
        <ele>203</ele>
        <time>2014-04-27T11:45:41Z</time>
      </trkpt>
      <trkpt lat="48.48584" lon="-3.06363">
        <ele>202</ele>
        <time>2014-04-27T11:45:43Z</time>
      </trkpt>
      <trkpt lat="48.48584" lon="-3.06361">
        <ele>202</ele>
        <time>2014-04-27T11:45:44Z</time>
      </trkpt>
      <trkpt lat="48.4858" lon="-3.06364">
        <ele>202</ele>
        <time>2014-04-27T11:45:46Z</time>
      </trkpt>
      <trkpt lat="48.48578" lon="-3.06366">
        <ele>202</ele>
        <time>2014-04-27T11:45:47Z</time>
      </trkpt>
      <trkpt lat="48.48579" lon="-3.06366">
        <ele>202</ele>
        <time>2014-04-27T11:45:48Z</time>
      </trkpt>
      <trkpt lat="48.48577" lon="-3.06368">
        <ele>202</ele>
        <time>2014-04-27T11:45:50Z</time>
      </trkpt>
      <trkpt lat="48.48578" lon="-3.06371">
        <ele>202</ele>
        <time>2014-04-27T11:45:58Z</time>
      </trkpt>
      <trkpt lat="48.48577" lon="-3.06373">
        <ele>202</ele>
        <time>2014-04-27T11:45:59Z</time>
      </trkpt>
      <trkpt lat="48.48575" lon="-3.06375">
        <ele>202</ele>
        <time>2014-04-27T11:46:00Z</time>
      </trkpt>
      <trkpt lat="48.48575" lon="-3.06377">
        <ele>200</ele>
        <time>2014-04-27T11:46:03Z</time>
      </trkpt>
      <trkpt lat="48.48574" lon="-3.06378">
        <ele>199</ele>
        <time>2014-04-27T11:46:04Z</time>
      </trkpt>
      <trkpt lat="48.48571" lon="-3.06381">
        <ele>196</ele>
        <time>2014-04-27T11:46:06Z</time>
      </trkpt>
      <trkpt lat="48.48569" lon="-3.06382">
        <ele>192</ele>
        <time>2014-04-27T11:46:08Z</time>
      </trkpt>
      <trkpt lat="48.48567" lon="-3.06385">
        <ele>180</ele>
        <time>2014-04-27T11:46:12Z</time>
      </trkpt>
      <trkpt lat="48.48567" lon="-3.06387">
        <ele>178</ele>
        <time>2014-04-27T11:46:13Z</time>
      </trkpt>
      <trkpt lat="48.48565" lon="-3.06388">
        <ele>176</ele>
        <time>2014-04-27T11:46:14Z</time>
      </trkpt>
      <trkpt lat="48.48564" lon="-3.0639">
        <ele>172</ele>
        <time>2014-04-27T11:46:16Z</time>
      </trkpt>
      <trkpt lat="48.48566" lon="-3.0639">
        <ele>171</ele>
        <time>2014-04-27T11:46:17Z</time>
      </trkpt>
      <trkpt lat="48.48569" lon="-3.0639">
        <ele>170</ele>
        <time>2014-04-27T11:46:18Z</time>
      </trkpt>
      <trkpt lat="48.4857" lon="-3.06389">
        <ele>170</ele>
        <time>2014-04-27T11:46:19Z</time>
      </trkpt>
      <trkpt lat="48.48573" lon="-3.06387">
        <ele>170</ele>
        <time>2014-04-27T11:46:21Z</time>
      </trkpt>
      <trkpt lat="48.4857" lon="-3.06387">
        <ele>174</ele>
        <time>2014-04-27T11:46:25Z</time>
      </trkpt>
      <trkpt lat="48.48573" lon="-3.06386">
        <ele>176</ele>
        <time>2014-04-27T11:46:27Z</time>
      </trkpt>
      <trkpt lat="48.48574" lon="-3.06386">
        <ele>177</ele>
        <time>2014-04-27T11:46:28Z</time>
      </trkpt>
      <trkpt lat="48.48577" lon="-3.06385">
        <ele>179</ele>
        <time>2014-04-27T11:46:29Z</time>
      </trkpt>
      <trkpt lat="48.48579" lon="-3.06385">
        <ele>181</ele>
        <time>2014-04-27T11:46:30Z</time>
      </trkpt>
      <trkpt lat="48.48578" lon="-3.06387">
        <ele>187</ele>
        <time>2014-04-27T11:46:32Z</time>
      </trkpt>
      <trkpt lat="48.48576" lon="-3.06386">
        <ele>196</ele>
        <time>2014-04-27T11:46:36Z</time>
      </trkpt>
      <trkpt lat="48.48577" lon="-3.06384">
        <ele>200</ele>
        <time>2014-04-27T11:46:41Z</time>
      </trkpt>
      <trkpt lat="48.48579" lon="-3.06383">
        <ele>200</ele>
        <time>2014-04-27T11:46:42Z</time>
      </trkpt>
      <trkpt lat="48.48577" lon="-3.06382">
        <ele>201</ele>
        <time>2014-04-27T11:46:44Z</time>
      </trkpt>
      <trkpt lat="48.48577" lon="-3.0638">
        <ele>202</ele>
        <time>2014-04-27T11:46:45Z</time>
      </trkpt>
      <trkpt lat="48.48579" lon="-3.06377">
        <ele>203</ele>
        <time>2014-04-27T11:46:46Z</time>
      </trkpt>
      <trkpt lat="48.48581" lon="-3.06373">
        <ele>203</ele>
        <time>2014-04-27T11:46:49Z</time>
      </trkpt>
      <trkpt lat="48.48582" lon="-3.06372">
        <ele>203</ele>
        <time>2014-04-27T11:46:50Z</time>
      </trkpt>
      <trkpt lat="48.48585" lon="-3.06368">
        <ele>203</ele>
        <time>2014-04-27T11:46:52Z</time>
      </trkpt>
      <trkpt lat="48.48585" lon="-3.06366">
        <ele>203</ele>
        <time>2014-04-27T11:46:53Z</time>
      </trkpt>
      <trkpt lat="48.48587" lon="-3.06362">
        <ele>203</ele>
        <time>2014-04-27T11:46:54Z</time>
      </trkpt>
      <trkpt lat="48.48588" lon="-3.0636">
        <ele>203</ele>
        <time>2014-04-27T11:46:55Z</time>
      </trkpt>
      <trkpt lat="48.48589" lon="-3.06356">
        <ele>203</ele>
        <time>2014-04-27T11:46:56Z</time>
      </trkpt>
      <trkpt lat="48.48588" lon="-3.06354">
        <ele>202</ele>
        <time>2014-04-27T11:46:58Z</time>
      </trkpt>
      <trkpt lat="48.48587" lon="-3.06351">
        <ele>201</ele>
        <time>2014-04-27T11:46:59Z</time>
      </trkpt>
      <trkpt lat="48.48587" lon="-3.0635">
        <ele>200</ele>
        <time>2014-04-27T11:47:00Z</time>
      </trkpt>
      <trkpt lat="48.48589" lon="-3.06348">
        <ele>198</ele>
        <time>2014-04-27T11:47:02Z</time>
      </trkpt>
      <trkpt lat="48.48589" lon="-3.0635">
        <ele>197</ele>
        <time>2014-04-27T11:47:04Z</time>
      </trkpt>
      <trkpt lat="48.48588" lon="-3.06348">
        <ele>194</ele>
        <time>2014-04-27T11:47:08Z</time>
      </trkpt>
      <trkpt lat="48.48589" lon="-3.06344">
        <ele>192</ele>
        <time>2014-04-27T11:47:10Z</time>
      </trkpt>
      <trkpt lat="48.48587" lon="-3.0634">
        <ele>191</ele>
        <time>2014-04-27T11:47:13Z</time>
      </trkpt>
      <trkpt lat="48.48587" lon="-3.06336">
        <ele>190</ele>
        <time>2014-04-27T11:47:14Z</time>
      </trkpt>
      <trkpt lat="48.48589" lon="-3.06331">
        <ele>189</ele>
        <time>2014-04-27T11:47:15Z</time>
      </trkpt>
      <trkpt lat="48.48591" lon="-3.06327">
        <ele>188</ele>
        <time>2014-04-27T11:47:16Z</time>
      </trkpt>
      <trkpt lat="48.48591" lon="-3.06324">
        <ele>187</ele>
        <time>2014-04-27T11:47:22Z</time>
      </trkpt>
      <trkpt lat="48.48591" lon="-3.0632">
        <ele>187</ele>
        <time>2014-04-27T11:47:24Z</time>
      </trkpt>
      <trkpt lat="48.48591" lon="-3.06316">
        <ele>185</ele>
        <time>2014-04-27T11:47:26Z</time>
      </trkpt>
      <trkpt lat="48.48591" lon="-3.06314">
        <ele>184</ele>
        <time>2014-04-27T11:47:27Z</time>
      </trkpt>
      <trkpt lat="48.48591" lon="-3.06312">
        <ele>183</ele>
        <time>2014-04-27T11:47:28Z</time>
      </trkpt>
      <trkpt lat="48.48589" lon="-3.06311">
        <ele>182</ele>
        <time>2014-04-27T11:47:29Z</time>
      </trkpt>
      <trkpt lat="48.48588" lon="-3.06309">
        <ele>181</ele>
        <time>2014-04-27T11:47:30Z</time>
      </trkpt>
      <trkpt lat="48.48587" lon="-3.06306">
        <ele>180</ele>
        <time>2014-04-27T11:47:31Z</time>
      </trkpt>
      <trkpt lat="48.48585" lon="-3.06302">
        <ele>179</ele>
        <time>2014-04-27T11:47:35Z</time>
      </trkpt>
      <trkpt lat="48.48584" lon="-3.06299">
        <ele>177</ele>
        <time>2014-04-27T11:47:37Z</time>
      </trkpt>
      <trkpt lat="48.48584" lon="-3.06295">
        <ele>176</ele>
        <time>2014-04-27T11:47:38Z</time>
      </trkpt>
      <trkpt lat="48.48583" lon="-3.06292">
        <ele>176</ele>
        <time>2014-04-27T11:47:39Z</time>
      </trkpt>
      <trkpt lat="48.48585" lon="-3.06288">
        <ele>176</ele>
        <time>2014-04-27T11:47:40Z</time>
      </trkpt>
      <trkpt lat="48.48583" lon="-3.06286">
        <ele>176</ele>
        <time>2014-04-27T11:47:41Z</time>
      </trkpt>
      <trkpt lat="48.48582" lon="-3.06282">
        <ele>177</ele>
        <time>2014-04-27T11:47:43Z</time>
      </trkpt>
      <trkpt lat="48.48585" lon="-3.0628">
        <ele>179</ele>
        <time>2014-04-27T11:47:45Z</time>
      </trkpt>
      <trkpt lat="48.48585" lon="-3.06277">
        <ele>182</ele>
        <time>2014-04-27T11:47:47Z</time>
      </trkpt>
      <trkpt lat="48.48585" lon="-3.06273">
        <ele>184</ele>
        <time>2014-04-27T11:47:48Z</time>
      </trkpt>
      <trkpt lat="48.48584" lon="-3.06271">
        <ele>188</ele>
        <time>2014-04-27T11:47:50Z</time>
      </trkpt>
      <trkpt lat="48.48584" lon="-3.06268">
        <ele>190</ele>
        <time>2014-04-27T11:47:51Z</time>
      </trkpt>
      <trkpt lat="48.48584" lon="-3.06266">
        <ele>194</ele>
        <time>2014-04-27T11:47:53Z</time>
      </trkpt>
      <trkpt lat="48.48583" lon="-3.06265">
        <ele>196</ele>
        <time>2014-04-27T11:47:54Z</time>
      </trkpt>
      <trkpt lat="48.48581" lon="-3.06263">
        <ele>197</ele>
        <time>2014-04-27T11:47:55Z</time>
      </trkpt>
      <trkpt lat="48.48581" lon="-3.06261">
        <ele>199</ele>
        <time>2014-04-27T11:47:56Z</time>
      </trkpt>
      <trkpt lat="48.48576" lon="-3.06249">
        <ele>215</ele>
        <time>2014-04-27T11:48:04Z</time>
      </trkpt>
      <trkpt lat="48.48574" lon="-3.06247">
        <ele>216</ele>
        <time>2014-04-27T11:48:05Z</time>
      </trkpt>
      <trkpt lat="48.48573" lon="-3.06245">
        <ele>217</ele>
        <time>2014-04-27T11:48:06Z</time>
      </trkpt>
      <trkpt lat="48.48572" lon="-3.06244">
        <ele>218</ele>
        <time>2014-04-27T11:48:07Z</time>
      </trkpt>
      <trkpt lat="48.48572" lon="-3.06242">
        <ele>219</ele>
        <time>2014-04-27T11:48:08Z</time>
      </trkpt>
      <trkpt lat="48.48571" lon="-3.0624">
        <ele>222</ele>
        <time>2014-04-27T11:48:11Z</time>
      </trkpt>
      <trkpt lat="48.48569" lon="-3.06239">
        <ele>223</ele>
        <time>2014-04-27T11:48:12Z</time>
      </trkpt>
      <trkpt lat="48.48568" lon="-3.06237">
        <ele>223</ele>
        <time>2014-04-27T11:48:14Z</time>
      </trkpt>
      <trkpt lat="48.48572" lon="-3.06235">
        <ele>223</ele>
        <time>2014-04-27T11:48:16Z</time>
      </trkpt>
      <trkpt lat="48.48573" lon="-3.06234">
        <ele>223</ele>
        <time>2014-04-27T11:48:18Z</time>
      </trkpt>
      <trkpt lat="48.48573" lon="-3.06231">
        <ele>220</ele>
        <time>2014-04-27T11:48:22Z</time>
      </trkpt>
      <trkpt lat="48.4857" lon="-3.06232">
        <ele>218</ele>
        <time>2014-04-27T11:48:24Z</time>
      </trkpt>
      <trkpt lat="48.48567" lon="-3.0623">
        <ele>217</ele>
        <time>2014-04-27T11:48:27Z</time>
      </trkpt>
      <trkpt lat="48.48563" lon="-3.06229">
        <ele>216</ele>
        <time>2014-04-27T11:48:28Z</time>
      </trkpt>
      <trkpt lat="48.4856" lon="-3.06228">
        <ele>215</ele>
        <time>2014-04-27T11:48:29Z</time>
      </trkpt>
      <trkpt lat="48.48561" lon="-3.06224">
        <ele>214</ele>
        <time>2014-04-27T11:48:30Z</time>
      </trkpt>
      <trkpt lat="48.48561" lon="-3.06223">
        <ele>213</ele>
        <time>2014-04-27T11:48:31Z</time>
      </trkpt>
      <trkpt lat="48.4856" lon="-3.06215">
        <ele>211</ele>
        <time>2014-04-27T11:48:35Z</time>
      </trkpt>
      <trkpt lat="48.48563" lon="-3.06213">
        <ele>210</ele>
        <time>2014-04-27T11:48:36Z</time>
      </trkpt>
      <trkpt lat="48.48565" lon="-3.06212">
        <ele>209</ele>
        <time>2014-04-27T11:48:37Z</time>
      </trkpt>
      <trkpt lat="48.48565" lon="-3.0621">
        <ele>209</ele>
        <time>2014-04-27T11:48:40Z</time>
      </trkpt>
      <trkpt lat="48.48563" lon="-3.0621">
        <ele>208</ele>
        <time>2014-04-27T11:48:43Z</time>
      </trkpt>
      <trkpt lat="48.48561" lon="-3.0621">
        <ele>208</ele>
        <time>2014-04-27T11:48:44Z</time>
      </trkpt>
      <trkpt lat="48.48559" lon="-3.06207">
        <ele>207</ele>
        <time>2014-04-27T11:48:46Z</time>
      </trkpt>
      <trkpt lat="48.48558" lon="-3.06204">
        <ele>207</ele>
        <time>2014-04-27T11:48:47Z</time>
      </trkpt>
      <trkpt lat="48.48559" lon="-3.06202">
        <ele>207</ele>
        <time>2014-04-27T11:48:48Z</time>
      </trkpt>
      <trkpt lat="48.4856" lon="-3.06199">
        <ele>207</ele>
        <time>2014-04-27T11:48:50Z</time>
      </trkpt>
      <trkpt lat="48.4856" lon="-3.06197">
        <ele>206</ele>
        <time>2014-04-27T11:48:51Z</time>
      </trkpt>
      <trkpt lat="48.48558" lon="-3.06196">
        <ele>205</ele>
        <time>2014-04-27T11:48:53Z</time>
      </trkpt>
      <trkpt lat="48.48557" lon="-3.06193">
        <ele>204</ele>
        <time>2014-04-27T11:48:56Z</time>
      </trkpt>
      <trkpt lat="48.48558" lon="-3.06188">
        <ele>204</ele>
        <time>2014-04-27T11:48:57Z</time>
      </trkpt>
      <trkpt lat="48.48558" lon="-3.06185">
        <ele>202</ele>
        <time>2014-04-27T11:48:59Z</time>
      </trkpt>
      <trkpt lat="48.48559" lon="-3.06181">
        <ele>202</ele>
        <time>2014-04-27T11:49:00Z</time>
      </trkpt>
      <trkpt lat="48.48561" lon="-3.06177">
        <ele>202</ele>
        <time>2014-04-27T11:49:01Z</time>
      </trkpt>
      <trkpt lat="48.48562" lon="-3.06175">
        <ele>202</ele>
        <time>2014-04-27T11:49:02Z</time>
      </trkpt>
      <trkpt lat="48.48562" lon="-3.06173">
        <ele>203</ele>
        <time>2014-04-27T11:49:03Z</time>
      </trkpt>
      <trkpt lat="48.48562" lon="-3.06171">
        <ele>204</ele>
        <time>2014-04-27T11:49:04Z</time>
      </trkpt>
      <trkpt lat="48.48563" lon="-3.06169">
        <ele>206</ele>
        <time>2014-04-27T11:49:06Z</time>
      </trkpt>
      <trkpt lat="48.48564" lon="-3.06167">
        <ele>207</ele>
        <time>2014-04-27T11:49:07Z</time>
      </trkpt>
      <trkpt lat="48.48563" lon="-3.06167">
        <ele>208</ele>
        <time>2014-04-27T11:49:08Z</time>
      </trkpt>
      <trkpt lat="48.48561" lon="-3.06166">
        <ele>209</ele>
        <time>2014-04-27T11:49:09Z</time>
      </trkpt>
      <trkpt lat="48.48561" lon="-3.06164">
        <ele>210</ele>
        <time>2014-04-27T11:49:11Z</time>
      </trkpt>
      <trkpt lat="48.48561" lon="-3.06158">
        <ele>214</ele>
        <time>2014-04-27T11:49:18Z</time>
      </trkpt>
      <trkpt lat="48.4856" lon="-3.06154">
        <ele>215</ele>
        <time>2014-04-27T11:49:19Z</time>
      </trkpt>
      <trkpt lat="48.48559" lon="-3.06151">
        <ele>216</ele>
        <time>2014-04-27T11:49:20Z</time>
      </trkpt>
      <trkpt lat="48.4856" lon="-3.06148">
        <ele>217</ele>
        <time>2014-04-27T11:49:21Z</time>
      </trkpt>
      <trkpt lat="48.48561" lon="-3.06146">
        <ele>218</ele>
        <time>2014-04-27T11:49:23Z</time>
      </trkpt>
      <trkpt lat="48.48559" lon="-3.06147">
        <ele>217</ele>
        <time>2014-04-27T11:49:26Z</time>
      </trkpt>
      <trkpt lat="48.48558" lon="-3.06149">
        <ele>216</ele>
        <time>2014-04-27T11:49:27Z</time>
      </trkpt>
      <trkpt lat="48.48555" lon="-3.06149">
        <ele>215</ele>
        <time>2014-04-27T11:49:28Z</time>
      </trkpt>
      <trkpt lat="48.48553" lon="-3.06151">
        <ele>213</ele>
        <time>2014-04-27T11:49:29Z</time>
      </trkpt>
      <trkpt lat="48.48552" lon="-3.06149">
        <ele>209</ele>
        <time>2014-04-27T11:49:31Z</time>
      </trkpt>
      <trkpt lat="48.48552" lon="-3.06146">
        <ele>207</ele>
        <time>2014-04-27T11:49:32Z</time>
      </trkpt>
      <trkpt lat="48.48552" lon="-3.06144">
        <ele>205</ele>
        <time>2014-04-27T11:49:33Z</time>
      </trkpt>
      <trkpt lat="48.4855" lon="-3.06141">
        <ele>202</ele>
        <time>2014-04-27T11:49:35Z</time>
      </trkpt>
      <trkpt lat="48.4855" lon="-3.0614">
        <ele>201</ele>
        <time>2014-04-27T11:49:36Z</time>
      </trkpt>
      <trkpt lat="48.48549" lon="-3.06138">
        <ele>200</ele>
        <time>2014-04-27T11:49:37Z</time>
      </trkpt>
      <trkpt lat="48.4855" lon="-3.06134">
        <ele>199</ele>
        <time>2014-04-27T11:49:38Z</time>
      </trkpt>
      <trkpt lat="48.4855" lon="-3.06132">
        <ele>199</ele>
        <time>2014-04-27T11:49:41Z</time>
      </trkpt>
      <trkpt lat="48.4855" lon="-3.06129">
        <ele>199</ele>
        <time>2014-04-27T11:49:43Z</time>
      </trkpt>
      <trkpt lat="48.4855" lon="-3.06127">
        <ele>199</ele>
        <time>2014-04-27T11:49:44Z</time>
      </trkpt>
      <trkpt lat="48.4855" lon="-3.06124">
        <ele>199</ele>
        <time>2014-04-27T11:49:45Z</time>
      </trkpt>
      <trkpt lat="48.48549" lon="-3.06122">
        <ele>199</ele>
        <time>2014-04-27T11:49:46Z</time>
      </trkpt>
      <trkpt lat="48.48548" lon="-3.0612">
        <ele>199</ele>
        <time>2014-04-27T11:49:47Z</time>
      </trkpt>
      <trkpt lat="48.48548" lon="-3.06118">
        <ele>199</ele>
        <time>2014-04-27T11:49:48Z</time>
      </trkpt>
      <trkpt lat="48.48547" lon="-3.06112">
        <ele>199</ele>
        <time>2014-04-27T11:49:52Z</time>
      </trkpt>
      <trkpt lat="48.48548" lon="-3.06108">
        <ele>199</ele>
        <time>2014-04-27T11:49:53Z</time>
      </trkpt>
      <trkpt lat="48.4855" lon="-3.06104">
        <ele>200</ele>
        <time>2014-04-27T11:49:54Z</time>
      </trkpt>
      <trkpt lat="48.48551" lon="-3.06102">
        <ele>201</ele>
        <time>2014-04-27T11:49:55Z</time>
      </trkpt>
      <trkpt lat="48.48551" lon="-3.06099">
        <ele>202</ele>
        <time>2014-04-27T11:49:56Z</time>
      </trkpt>
      <trkpt lat="48.48551" lon="-3.06097">
        <ele>205</ele>
        <time>2014-04-27T11:49:59Z</time>
      </trkpt>
      <trkpt lat="48.4855" lon="-3.06093">
        <ele>206</ele>
        <time>2014-04-27T11:50:00Z</time>
      </trkpt>
      <trkpt lat="48.4855" lon="-3.06091">
        <ele>207</ele>
        <time>2014-04-27T11:50:01Z</time>
      </trkpt>
      <trkpt lat="48.48549" lon="-3.06084">
        <ele>210</ele>
        <time>2014-04-27T11:50:06Z</time>
      </trkpt>
      <trkpt lat="48.48549" lon="-3.06082">
        <ele>212</ele>
        <time>2014-04-27T11:50:08Z</time>
      </trkpt>
      <trkpt lat="48.48548" lon="-3.06081">
        <ele>212</ele>
        <time>2014-04-27T11:50:10Z</time>
      </trkpt>
      <trkpt lat="48.48546" lon="-3.06079">
        <ele>211</ele>
        <time>2014-04-27T11:50:12Z</time>
      </trkpt>
      <trkpt lat="48.48544" lon="-3.06078">
        <ele>209</ele>
        <time>2014-04-27T11:50:14Z</time>
      </trkpt>
      <trkpt lat="48.48543" lon="-3.06073">
        <ele>207</ele>
        <time>2014-04-27T11:50:17Z</time>
      </trkpt>
      <trkpt lat="48.48539" lon="-3.06062">
        <ele>205</ele>
        <time>2014-04-27T11:50:21Z</time>
      </trkpt>
      <trkpt lat="48.48537" lon="-3.06056">
        <ele>204</ele>
        <time>2014-04-27T11:50:22Z</time>
      </trkpt>
      <trkpt lat="48.48537" lon="-3.06051">
        <ele>202</ele>
        <time>2014-04-27T11:50:25Z</time>
      </trkpt>
      <trkpt lat="48.48536" lon="-3.0605">
        <ele>202</ele>
        <time>2014-04-27T11:50:27Z</time>
      </trkpt>
      <trkpt lat="48.48531" lon="-3.06043">
        <ele>202</ele>
        <time>2014-04-27T11:50:32Z</time>
      </trkpt>
      <trkpt lat="48.48529" lon="-3.06041">
        <ele>202</ele>
        <time>2014-04-27T11:50:33Z</time>
      </trkpt>
      <trkpt lat="48.48528" lon="-3.06036">
        <ele>202</ele>
        <time>2014-04-27T11:50:34Z</time>
      </trkpt>
      <trkpt lat="48.48528" lon="-3.06033">
        <ele>202</ele>
        <time>2014-04-27T11:50:35Z</time>
      </trkpt>
      <trkpt lat="48.48527" lon="-3.0603">
        <ele>203</ele>
        <time>2014-04-27T11:50:36Z</time>
      </trkpt>
      <trkpt lat="48.48525" lon="-3.06027">
        <ele>204</ele>
        <time>2014-04-27T11:50:37Z</time>
      </trkpt>
      <trkpt lat="48.48526" lon="-3.06025">
        <ele>205</ele>
        <time>2014-04-27T11:50:38Z</time>
      </trkpt>
      <trkpt lat="48.48527" lon="-3.06023">
        <ele>208</ele>
        <time>2014-04-27T11:50:41Z</time>
      </trkpt>
      <trkpt lat="48.48526" lon="-3.06022">
        <ele>209</ele>
        <time>2014-04-27T11:50:44Z</time>
      </trkpt>
      <trkpt lat="48.48524" lon="-3.0602">
        <ele>209</ele>
        <time>2014-04-27T11:50:47Z</time>
      </trkpt>
      <trkpt lat="48.48524" lon="-3.06017">
        <ele>209</ele>
        <time>2014-04-27T11:50:49Z</time>
      </trkpt>
      <trkpt lat="48.48524" lon="-3.06014">
        <ele>209</ele>
        <time>2014-04-27T11:50:50Z</time>
      </trkpt>
      <trkpt lat="48.48523" lon="-3.06012">
        <ele>209</ele>
        <time>2014-04-27T11:50:52Z</time>
      </trkpt>
      <trkpt lat="48.48522" lon="-3.0601">
        <ele>206</ele>
        <time>2014-04-27T11:50:56Z</time>
      </trkpt>
      <trkpt lat="48.48521" lon="-3.06008">
        <ele>205</ele>
        <time>2014-04-27T11:50:58Z</time>
      </trkpt>
      <trkpt lat="48.48521" lon="-3.06006">
        <ele>203</ele>
        <time>2014-04-27T11:51:00Z</time>
      </trkpt>
      <trkpt lat="48.4852" lon="-3.06003">
        <ele>201</ele>
        <time>2014-04-27T11:51:02Z</time>
      </trkpt>
      <trkpt lat="48.48521" lon="-3.06001">
        <ele>201</ele>
        <time>2014-04-27T11:51:03Z</time>
      </trkpt>
      <trkpt lat="48.48521" lon="-3.05998">
        <ele>200</ele>
        <time>2014-04-27T11:51:04Z</time>
      </trkpt>
      <trkpt lat="48.48521" lon="-3.05995">
        <ele>200</ele>
        <time>2014-04-27T11:51:06Z</time>
      </trkpt>
      <trkpt lat="48.48522" lon="-3.05993">
        <ele>200</ele>
        <time>2014-04-27T11:51:07Z</time>
      </trkpt>
      <trkpt lat="48.48522" lon="-3.05991">
        <ele>200</ele>
        <time>2014-04-27T11:51:08Z</time>
      </trkpt>
      <trkpt lat="48.48522" lon="-3.05989">
        <ele>200</ele>
        <time>2014-04-27T11:51:09Z</time>
      </trkpt>
      <trkpt lat="48.48521" lon="-3.05986">
        <ele>200</ele>
        <time>2014-04-27T11:51:11Z</time>
      </trkpt>
      <trkpt lat="48.48521" lon="-3.05984">
        <ele>200</ele>
        <time>2014-04-27T11:51:12Z</time>
      </trkpt>
      <trkpt lat="48.48521" lon="-3.0598">
        <ele>200</ele>
        <time>2014-04-27T11:51:15Z</time>
      </trkpt>
      <trkpt lat="48.4852" lon="-3.05979">
        <ele>200</ele>
        <time>2014-04-27T11:51:16Z</time>
      </trkpt>
      <trkpt lat="48.4852" lon="-3.05976">
        <ele>200</ele>
        <time>2014-04-27T11:51:17Z</time>
      </trkpt>
      <trkpt lat="48.48519" lon="-3.05974">
        <ele>200</ele>
        <time>2014-04-27T11:51:19Z</time>
      </trkpt>
      <trkpt lat="48.48518" lon="-3.05971">
        <ele>200</ele>
        <time>2014-04-27T11:51:20Z</time>
      </trkpt>
      <trkpt lat="48.48518" lon="-3.05966">
        <ele>200</ele>
        <time>2014-04-27T11:51:21Z</time>
      </trkpt>
      <trkpt lat="48.48519" lon="-3.05964">
        <ele>200</ele>
        <time>2014-04-27T11:51:22Z</time>
      </trkpt>
      <trkpt lat="48.48518" lon="-3.05961">
        <ele>200</ele>
        <time>2014-04-27T11:51:23Z</time>
      </trkpt>
      <trkpt lat="48.48519" lon="-3.05958">
        <ele>201</ele>
        <time>2014-04-27T11:51:24Z</time>
      </trkpt>
      <trkpt lat="48.48519" lon="-3.05955">
        <ele>202</ele>
        <time>2014-04-27T11:51:25Z</time>
      </trkpt>
      <trkpt lat="48.48518" lon="-3.05951">
        <ele>203</ele>
        <time>2014-04-27T11:51:28Z</time>
      </trkpt>
      <trkpt lat="48.48518" lon="-3.05949">
        <ele>204</ele>
        <time>2014-04-27T11:51:29Z</time>
      </trkpt>
      <trkpt lat="48.48517" lon="-3.05946">
        <ele>205</ele>
        <time>2014-04-27T11:51:30Z</time>
      </trkpt>
      <trkpt lat="48.48516" lon="-3.05943">
        <ele>206</ele>
        <time>2014-04-27T11:51:31Z</time>
      </trkpt>
      <trkpt lat="48.48515" lon="-3.05943">
        <ele>207</ele>
        <time>2014-04-27T11:51:32Z</time>
      </trkpt>
      <trkpt lat="48.48512" lon="-3.0594">
        <ele>209</ele>
        <time>2014-04-27T11:51:34Z</time>
      </trkpt>
      <trkpt lat="48.48511" lon="-3.05938">
        <ele>210</ele>
        <time>2014-04-27T11:51:35Z</time>
      </trkpt>
      <trkpt lat="48.48512" lon="-3.05935">
        <ele>211</ele>
        <time>2014-04-27T11:51:36Z</time>
      </trkpt>
      <trkpt lat="48.48513" lon="-3.05933">
        <ele>212</ele>
        <time>2014-04-27T11:51:37Z</time>
      </trkpt>
      <trkpt lat="48.48513" lon="-3.05931">
        <ele>213</ele>
        <time>2014-04-27T11:51:38Z</time>
      </trkpt>
      <trkpt lat="48.48514" lon="-3.05928">
        <ele>214</ele>
        <time>2014-04-27T11:51:39Z</time>
      </trkpt>
      <trkpt lat="48.48514" lon="-3.0592">
        <ele>215</ele>
        <time>2014-04-27T11:51:45Z</time>
      </trkpt>
      <trkpt lat="48.48516" lon="-3.0592">
        <ele>215</ele>
        <time>2014-04-27T11:51:46Z</time>
      </trkpt>
      <trkpt lat="48.48518" lon="-3.05922">
        <ele>215</ele>
        <time>2014-04-27T11:51:47Z</time>
      </trkpt>
      <trkpt lat="48.48518" lon="-3.05919">
        <ele>215</ele>
        <time>2014-04-27T11:51:49Z</time>
      </trkpt>
      <trkpt lat="48.48519" lon="-3.05916">
        <ele>213</ele>
        <time>2014-04-27T11:51:51Z</time>
      </trkpt>
      <trkpt lat="48.4852" lon="-3.05914">
        <ele>212</ele>
        <time>2014-04-27T11:51:52Z</time>
      </trkpt>
      <trkpt lat="48.48521" lon="-3.05912">
        <ele>211</ele>
        <time>2014-04-27T11:51:53Z</time>
      </trkpt>
      <trkpt lat="48.48523" lon="-3.05911">
        <ele>209</ele>
        <time>2014-04-27T11:51:55Z</time>
      </trkpt>
      <trkpt lat="48.48524" lon="-3.0591">
        <ele>207</ele>
        <time>2014-04-27T11:51:57Z</time>
      </trkpt>
      <trkpt lat="48.48525" lon="-3.05909">
        <ele>205</ele>
        <time>2014-04-27T11:51:59Z</time>
      </trkpt>
      <trkpt lat="48.48528" lon="-3.05908">
        <ele>203</ele>
        <time>2014-04-27T11:52:01Z</time>
      </trkpt>
      <trkpt lat="48.4853" lon="-3.05908">
        <ele>202</ele>
        <time>2014-04-27T11:52:03Z</time>
      </trkpt>
      <trkpt lat="48.48531" lon="-3.05908">
        <ele>201</ele>
        <time>2014-04-27T11:52:04Z</time>
      </trkpt>
      <trkpt lat="48.48532" lon="-3.05909">
        <ele>200</ele>
        <time>2014-04-27T11:52:05Z</time>
      </trkpt>
      <trkpt lat="48.48534" lon="-3.05908">
        <ele>198</ele>
        <time>2014-04-27T11:52:07Z</time>
      </trkpt>
      <trkpt lat="48.48535" lon="-3.05908">
        <ele>197</ele>
        <time>2014-04-27T11:52:08Z</time>
      </trkpt>
      <trkpt lat="48.48536" lon="-3.0591">
        <ele>196</ele>
        <time>2014-04-27T11:52:10Z</time>
      </trkpt>
      <trkpt lat="48.48538" lon="-3.05911">
        <ele>196</ele>
        <time>2014-04-27T11:52:11Z</time>
      </trkpt>
      <trkpt lat="48.48544" lon="-3.05908">
        <ele>195</ele>
        <time>2014-04-27T11:52:18Z</time>
      </trkpt>
      <trkpt lat="48.48547" lon="-3.05907">
        <ele>195</ele>
        <time>2014-04-27T11:52:19Z</time>
      </trkpt>
      <trkpt lat="48.48549" lon="-3.05905">
        <ele>195</ele>
        <time>2014-04-27T11:52:20Z</time>
      </trkpt>
      <trkpt lat="48.48549" lon="-3.05901">
        <ele>195</ele>
        <time>2014-04-27T11:52:23Z</time>
      </trkpt>
      <trkpt lat="48.48549" lon="-3.05899">
        <ele>195</ele>
        <time>2014-04-27T11:52:24Z</time>
      </trkpt>
      <trkpt lat="48.48549" lon="-3.05894">
        <ele>195</ele>
        <time>2014-04-27T11:52:25Z</time>
      </trkpt>
      <trkpt lat="48.48548" lon="-3.05892">
        <ele>195</ele>
        <time>2014-04-27T11:52:26Z</time>
      </trkpt>
      <trkpt lat="48.48548" lon="-3.0589">
        <ele>195</ele>
        <time>2014-04-27T11:52:29Z</time>
      </trkpt>
      <trkpt lat="48.48547" lon="-3.05891">
        <ele>195</ele>
        <time>2014-04-27T11:52:31Z</time>
      </trkpt>
      <trkpt lat="48.48548" lon="-3.05892">
        <ele>195</ele>
        <time>2014-04-27T11:52:32Z</time>
      </trkpt>
      <trkpt lat="48.48549" lon="-3.05895">
        <ele>195</ele>
        <time>2014-04-27T11:52:34Z</time>
      </trkpt>
      <trkpt lat="48.48547" lon="-3.05894">
        <ele>195</ele>
        <time>2014-04-27T11:52:36Z</time>
      </trkpt>
      <trkpt lat="48.48547" lon="-3.05892">
        <ele>195</ele>
        <time>2014-04-27T11:52:37Z</time>
      </trkpt>
      <trkpt lat="48.48547" lon="-3.0589">
        <ele>195</ele>
        <time>2014-04-27T11:52:38Z</time>
      </trkpt>
      <trkpt lat="48.48548" lon="-3.05888">
        <ele>194</ele>
        <time>2014-04-27T11:52:39Z</time>
      </trkpt>
      <trkpt lat="48.48547" lon="-3.05886">
        <ele>193</ele>
        <time>2014-04-27T11:52:40Z</time>
      </trkpt>
      <trkpt lat="48.48548" lon="-3.05884">
        <ele>192</ele>
        <time>2014-04-27T11:52:41Z</time>
      </trkpt>
      <trkpt lat="48.4855" lon="-3.05883">
        <ele>190</ele>
        <time>2014-04-27T11:52:43Z</time>
      </trkpt>
      <trkpt lat="48.48551" lon="-3.05883">
        <ele>189</ele>
        <time>2014-04-27T11:52:44Z</time>
      </trkpt>
      <trkpt lat="48.48552" lon="-3.0588">
        <ele>187</ele>
        <time>2014-04-27T11:52:46Z</time>
      </trkpt>
      <trkpt lat="48.48552" lon="-3.05878">
        <ele>186</ele>
        <time>2014-04-27T11:52:47Z</time>
      </trkpt>
      <trkpt lat="48.48552" lon="-3.05875">
        <ele>185</ele>
        <time>2014-04-27T11:52:48Z</time>
      </trkpt>
      <trkpt lat="48.48551" lon="-3.05872">
        <ele>183</ele>
        <time>2014-04-27T11:52:50Z</time>
      </trkpt>
      <trkpt lat="48.48552" lon="-3.05869">
        <ele>182</ele>
        <time>2014-04-27T11:52:51Z</time>
      </trkpt>
      <trkpt lat="48.48552" lon="-3.05867">
        <ele>182</ele>
        <time>2014-04-27T11:52:52Z</time>
      </trkpt>
      <trkpt lat="48.48553" lon="-3.05864">
        <ele>182</ele>
        <time>2014-04-27T11:52:53Z</time>
      </trkpt>
      <trkpt lat="48.48552" lon="-3.05862">
        <ele>182</ele>
        <time>2014-04-27T11:52:55Z</time>
      </trkpt>
      <trkpt lat="48.48554" lon="-3.0586">
        <ele>182</ele>
        <time>2014-04-27T11:52:56Z</time>
      </trkpt>
      <trkpt lat="48.48554" lon="-3.05858">
        <ele>182</ele>
        <time>2014-04-27T11:52:57Z</time>
      </trkpt>
      <trkpt lat="48.48554" lon="-3.05855">
        <ele>182</ele>
        <time>2014-04-27T11:52:58Z</time>
      </trkpt>
      <trkpt lat="48.48553" lon="-3.05852">
        <ele>184</ele>
        <time>2014-04-27T11:53:00Z</time>
      </trkpt>
      <trkpt lat="48.48553" lon="-3.0585">
        <ele>185</ele>
        <time>2014-04-27T11:53:01Z</time>
      </trkpt>
      <trkpt lat="48.48553" lon="-3.05848">
        <ele>186</ele>
        <time>2014-04-27T11:53:02Z</time>
      </trkpt>
      <trkpt lat="48.48554" lon="-3.05845">
        <ele>187</ele>
        <time>2014-04-27T11:53:03Z</time>
      </trkpt>
      <trkpt lat="48.48555" lon="-3.05841">
        <ele>189</ele>
        <time>2014-04-27T11:53:05Z</time>
      </trkpt>
      <trkpt lat="48.48554" lon="-3.05839">
        <ele>190</ele>
        <time>2014-04-27T11:53:06Z</time>
      </trkpt>
      <trkpt lat="48.48553" lon="-3.05837">
        <ele>191</ele>
        <time>2014-04-27T11:53:07Z</time>
      </trkpt>
      <trkpt lat="48.48554" lon="-3.05835">
        <ele>192</ele>
        <time>2014-04-27T11:53:08Z</time>
      </trkpt>
      <trkpt lat="48.48554" lon="-3.05833">
        <ele>193</ele>
        <time>2014-04-27T11:53:09Z</time>
      </trkpt>
      <trkpt lat="48.48556" lon="-3.0583">
        <ele>195</ele>
        <time>2014-04-27T11:53:10Z</time>
      </trkpt>
      <trkpt lat="48.48556" lon="-3.05829">
        <ele>197</ele>
        <time>2014-04-27T11:53:11Z</time>
      </trkpt>
      <trkpt lat="48.48556" lon="-3.05822">
        <ele>202</ele>
        <time>2014-04-27T11:53:16Z</time>
      </trkpt>
      <trkpt lat="48.48554" lon="-3.05816">
        <ele>203</ele>
        <time>2014-04-27T11:53:19Z</time>
      </trkpt>
      <trkpt lat="48.48554" lon="-3.05813">
        <ele>205</ele>
        <time>2014-04-27T11:53:21Z</time>
      </trkpt>
      <trkpt lat="48.48553" lon="-3.0581">
        <ele>206</ele>
        <time>2014-04-27T11:53:22Z</time>
      </trkpt>
      <trkpt lat="48.48552" lon="-3.05806">
        <ele>206</ele>
        <time>2014-04-27T11:53:24Z</time>
      </trkpt>
      <trkpt lat="48.48552" lon="-3.05804">
        <ele>206</ele>
        <time>2014-04-27T11:53:26Z</time>
      </trkpt>
      <trkpt lat="48.4855" lon="-3.05803">
        <ele>207</ele>
        <time>2014-04-27T11:53:28Z</time>
      </trkpt>
      <trkpt lat="48.4855" lon="-3.058">
        <ele>207</ele>
        <time>2014-04-27T11:53:30Z</time>
      </trkpt>
      <trkpt lat="48.48551" lon="-3.05797">
        <ele>207</ele>
        <time>2014-04-27T11:53:33Z</time>
      </trkpt>
      <trkpt lat="48.48551" lon="-3.05792">
        <ele>207</ele>
        <time>2014-04-27T11:53:34Z</time>
      </trkpt>
      <trkpt lat="48.48549" lon="-3.05791">
        <ele>207</ele>
        <time>2014-04-27T11:53:36Z</time>
      </trkpt>
      <trkpt lat="48.48549" lon="-3.05788">
        <ele>207</ele>
        <time>2014-04-27T11:53:38Z</time>
      </trkpt>
      <trkpt lat="48.48548" lon="-3.05785">
        <ele>207</ele>
        <time>2014-04-27T11:53:39Z</time>
      </trkpt>
      <trkpt lat="48.48549" lon="-3.05782">
        <ele>207</ele>
        <time>2014-04-27T11:53:42Z</time>
      </trkpt>
      <trkpt lat="48.48548" lon="-3.05778">
        <ele>207</ele>
        <time>2014-04-27T11:53:43Z</time>
      </trkpt>
      <trkpt lat="48.48549" lon="-3.05774">
        <ele>207</ele>
        <time>2014-04-27T11:53:44Z</time>
      </trkpt>
      <trkpt lat="48.48549" lon="-3.05772">
        <ele>207</ele>
        <time>2014-04-27T11:53:45Z</time>
      </trkpt>
      <trkpt lat="48.48548" lon="-3.05767">
        <ele>209</ele>
        <time>2014-04-27T11:53:49Z</time>
      </trkpt>
      <trkpt lat="48.48548" lon="-3.05762">
        <ele>210</ele>
        <time>2014-04-27T11:53:52Z</time>
      </trkpt>
      <trkpt lat="48.48549" lon="-3.05758">
        <ele>211</ele>
        <time>2014-04-27T11:53:53Z</time>
      </trkpt>
      <trkpt lat="48.4855" lon="-3.05754">
        <ele>212</ele>
        <time>2014-04-27T11:53:54Z</time>
      </trkpt>
      <trkpt lat="48.48551" lon="-3.05751">
        <ele>213</ele>
        <time>2014-04-27T11:53:57Z</time>
      </trkpt>
      <trkpt lat="48.48551" lon="-3.05749">
        <ele>214</ele>
        <time>2014-04-27T11:53:58Z</time>
      </trkpt>
      <trkpt lat="48.48549" lon="-3.05749">
        <ele>214</ele>
        <time>2014-04-27T11:54:00Z</time>
      </trkpt>
      <trkpt lat="48.48547" lon="-3.0575">
        <ele>214</ele>
        <time>2014-04-27T11:54:01Z</time>
      </trkpt>
      <trkpt lat="48.48545" lon="-3.05751">
        <ele>214</ele>
        <time>2014-04-27T11:54:03Z</time>
      </trkpt>
      <trkpt lat="48.48543" lon="-3.05749">
        <ele>212</ele>
        <time>2014-04-27T11:54:05Z</time>
      </trkpt>
      <trkpt lat="48.48543" lon="-3.05746">
        <ele>204</ele>
        <time>2014-04-27T11:54:09Z</time>
      </trkpt>
      <trkpt lat="48.48543" lon="-3.05744">
        <ele>203</ele>
        <time>2014-04-27T11:54:10Z</time>
      </trkpt>
      <trkpt lat="48.48543" lon="-3.0574">
        <ele>202</ele>
        <time>2014-04-27T11:54:11Z</time>
      </trkpt>
      <trkpt lat="48.48544" lon="-3.05739">
        <ele>201</ele>
        <time>2014-04-27T11:54:12Z</time>
      </trkpt>
      <trkpt lat="48.48543" lon="-3.05737">
        <ele>200</ele>
        <time>2014-04-27T11:54:13Z</time>
      </trkpt>
      <trkpt lat="48.48543" lon="-3.05733">
        <ele>200</ele>
        <time>2014-04-27T11:54:16Z</time>
      </trkpt>
      <trkpt lat="48.48541" lon="-3.05733">
        <ele>200</ele>
        <time>2014-04-27T11:54:17Z</time>
      </trkpt>
      <trkpt lat="48.4854" lon="-3.05731">
        <ele>197</ele>
        <time>2014-04-27T11:54:20Z</time>
      </trkpt>
      <trkpt lat="48.4854" lon="-3.05728">
        <ele>196</ele>
        <time>2014-04-27T11:54:21Z</time>
      </trkpt>
      <trkpt lat="48.4854" lon="-3.05724">
        <ele>195</ele>
        <time>2014-04-27T11:54:22Z</time>
      </trkpt>
      <trkpt lat="48.48539" lon="-3.05721">
        <ele>195</ele>
        <time>2014-04-27T11:54:23Z</time>
      </trkpt>
      <trkpt lat="48.4854" lon="-3.0572">
        <ele>195</ele>
        <time>2014-04-27T11:54:24Z</time>
      </trkpt>
      <trkpt lat="48.48541" lon="-3.05716">
        <ele>196</ele>
        <time>2014-04-27T11:54:26Z</time>
      </trkpt>
      <trkpt lat="48.4854" lon="-3.057">
        <ele>198</ele>
        <time>2014-04-27T11:54:38Z</time>
      </trkpt>
      <trkpt lat="48.4854" lon="-3.05689">
        <ele>198</ele>
        <time>2014-04-27T11:54:51Z</time>
      </trkpt>
      <trkpt lat="48.48541" lon="-3.05687">
        <ele>198</ele>
        <time>2014-04-27T11:54:52Z</time>
      </trkpt>
      <trkpt lat="48.48541" lon="-3.05685">
        <ele>198</ele>
        <time>2014-04-27T11:54:54Z</time>
      </trkpt>
      <trkpt lat="48.48541" lon="-3.05683">
        <ele>198</ele>
        <time>2014-04-27T11:54:55Z</time>
      </trkpt>
      <trkpt lat="48.48541" lon="-3.0568">
        <ele>199</ele>
        <time>2014-04-27T11:54:56Z</time>
      </trkpt>
      <trkpt lat="48.48541" lon="-3.05678">
        <ele>200</ele>
        <time>2014-04-27T11:54:57Z</time>
      </trkpt>
      <trkpt lat="48.4854" lon="-3.05676">
        <ele>201</ele>
        <time>2014-04-27T11:54:58Z</time>
      </trkpt>
      <trkpt lat="48.48547" lon="-3.05658">
        <ele>207</ele>
        <time>2014-04-27T11:55:09Z</time>
      </trkpt>
      <trkpt lat="48.48545" lon="-3.05648">
        <ele>210</ele>
        <time>2014-04-27T11:55:14Z</time>
      </trkpt>
      <trkpt lat="48.48544" lon="-3.05645">
        <ele>210</ele>
        <time>2014-04-27T11:55:16Z</time>
      </trkpt>
      <trkpt lat="48.48545" lon="-3.05643">
        <ele>210</ele>
        <time>2014-04-27T11:55:17Z</time>
      </trkpt>
      <trkpt lat="48.48545" lon="-3.05642">
        <ele>210</ele>
        <time>2014-04-27T11:55:18Z</time>
      </trkpt>
      <trkpt lat="48.48542" lon="-3.05634">
        <ele>205</ele>
        <time>2014-04-27T11:55:28Z</time>
      </trkpt>
      <trkpt lat="48.48543" lon="-3.05632">
        <ele>205</ele>
        <time>2014-04-27T11:55:29Z</time>
      </trkpt>
      <trkpt lat="48.48543" lon="-3.05625">
        <ele>204</ele>
        <time>2014-04-27T11:55:32Z</time>
      </trkpt>
      <trkpt lat="48.48544" lon="-3.05623">
        <ele>204</ele>
        <time>2014-04-27T11:55:33Z</time>
      </trkpt>
      <trkpt lat="48.48546" lon="-3.05614">
        <ele>204</ele>
        <time>2014-04-27T11:55:39Z</time>
      </trkpt>
      <trkpt lat="48.48545" lon="-3.05589">
        <ele>199</ele>
        <time>2014-04-27T11:55:53Z</time>
      </trkpt>
      <trkpt lat="48.48551" lon="-3.05576">
        <ele>202</ele>
        <time>2014-04-27T11:56:00Z</time>
      </trkpt>
      <trkpt lat="48.48554" lon="-3.05572">
        <ele>203</ele>
        <time>2014-04-27T11:56:01Z</time>
      </trkpt>
      <trkpt lat="48.48555" lon="-3.0557">
        <ele>204</ele>
        <time>2014-04-27T11:56:02Z</time>
      </trkpt>
      <trkpt lat="48.48555" lon="-3.05569">
        <ele>205</ele>
        <time>2014-04-27T11:56:03Z</time>
      </trkpt>
      <trkpt lat="48.48555" lon="-3.05565">
        <ele>206</ele>
        <time>2014-04-27T11:56:06Z</time>
      </trkpt>
      <trkpt lat="48.48555" lon="-3.05561">
        <ele>207</ele>
        <time>2014-04-27T11:56:07Z</time>
      </trkpt>
      <trkpt lat="48.48563" lon="-3.0555">
        <ele>216</ele>
        <time>2014-04-27T11:56:17Z</time>
      </trkpt>
      <trkpt lat="48.48563" lon="-3.05549">
        <ele>216</ele>
        <time>2014-04-27T11:56:19Z</time>
      </trkpt>
      <trkpt lat="48.48563" lon="-3.05545">
        <ele>214</ele>
        <time>2014-04-27T11:56:21Z</time>
      </trkpt>
      <trkpt lat="48.48564" lon="-3.05532">
        <ele>214</ele>
        <time>2014-04-27T11:56:29Z</time>
      </trkpt>
      <trkpt lat="48.48564" lon="-3.05523">
        <ele>216</ele>
        <time>2014-04-27T11:56:34Z</time>
      </trkpt>
      <trkpt lat="48.48565" lon="-3.05521">
        <ele>217</ele>
        <time>2014-04-27T11:56:35Z</time>
      </trkpt>
      <trkpt lat="48.48565" lon="-3.05519">
        <ele>218</ele>
        <time>2014-04-27T11:56:36Z</time>
      </trkpt>
      <trkpt lat="48.48562" lon="-3.05517">
        <ele>219</ele>
        <time>2014-04-27T11:56:40Z</time>
      </trkpt>
      <trkpt lat="48.48563" lon="-3.05516">
        <ele>217</ele>
        <time>2014-04-27T11:56:42Z</time>
      </trkpt>
      <trkpt lat="48.48563" lon="-3.05501">
        <ele>209</ele>
        <time>2014-04-27T11:56:50Z</time>
      </trkpt>
      <trkpt lat="48.48563" lon="-3.05498">
        <ele>208</ele>
        <time>2014-04-27T11:56:51Z</time>
      </trkpt>
      <trkpt lat="48.48563" lon="-3.05496">
        <ele>207</ele>
        <time>2014-04-27T11:56:52Z</time>
      </trkpt>
      <trkpt lat="48.48562" lon="-3.05494">
        <ele>206</ele>
        <time>2014-04-27T11:56:53Z</time>
      </trkpt>
      <trkpt lat="48.48561" lon="-3.05491">
        <ele>204</ele>
        <time>2014-04-27T11:56:55Z</time>
      </trkpt>
      <trkpt lat="48.48566" lon="-3.05458">
        <ele>200</ele>
        <time>2014-04-27T11:57:16Z</time>
      </trkpt>
      <trkpt lat="48.48565" lon="-3.05457">
        <ele>200</ele>
        <time>2014-04-27T11:57:17Z</time>
      </trkpt>
      <trkpt lat="48.48566" lon="-3.05454">
        <ele>200</ele>
        <time>2014-04-27T11:57:20Z</time>
      </trkpt>
      <trkpt lat="48.48566" lon="-3.05453">
        <ele>200</ele>
        <time>2014-04-27T11:57:21Z</time>
      </trkpt>
      <trkpt lat="48.48567" lon="-3.0545">
        <ele>200</ele>
        <time>2014-04-27T11:57:22Z</time>
      </trkpt>
      <trkpt lat="48.48567" lon="-3.05448">
        <ele>199</ele>
        <time>2014-04-27T11:57:24Z</time>
      </trkpt>
      <trkpt lat="48.48568" lon="-3.05444">
        <ele>199</ele>
        <time>2014-04-27T11:57:26Z</time>
      </trkpt>
      <trkpt lat="48.48569" lon="-3.05442">
        <ele>199</ele>
        <time>2014-04-27T11:57:27Z</time>
      </trkpt>
      <trkpt lat="48.48569" lon="-3.0544">
        <ele>199</ele>
        <time>2014-04-27T11:57:29Z</time>
      </trkpt>
      <trkpt lat="48.48569" lon="-3.05438">
        <ele>199</ele>
        <time>2014-04-27T11:57:30Z</time>
      </trkpt>
      <trkpt lat="48.48569" lon="-3.05436">
        <ele>199</ele>
        <time>2014-04-27T11:57:31Z</time>
      </trkpt>
      <trkpt lat="48.4857" lon="-3.05432">
        <ele>199</ele>
        <time>2014-04-27T11:57:33Z</time>
      </trkpt>
      <trkpt lat="48.4857" lon="-3.0543">
        <ele>200</ele>
        <time>2014-04-27T11:57:34Z</time>
      </trkpt>
      <trkpt lat="48.48572" lon="-3.05429">
        <ele>200</ele>
        <time>2014-04-27T11:57:35Z</time>
      </trkpt>
      <trkpt lat="48.48572" lon="-3.05426">
        <ele>200</ele>
        <time>2014-04-27T11:57:36Z</time>
      </trkpt>
      <trkpt lat="48.48573" lon="-3.05424">
        <ele>201</ele>
        <time>2014-04-27T11:57:37Z</time>
      </trkpt>
      <trkpt lat="48.48572" lon="-3.05422">
        <ele>201</ele>
        <time>2014-04-27T11:57:38Z</time>
      </trkpt>
      <trkpt lat="48.48572" lon="-3.05419">
        <ele>201</ele>
        <time>2014-04-27T11:57:39Z</time>
      </trkpt>
      <trkpt lat="48.48571" lon="-3.05417">
        <ele>201</ele>
        <time>2014-04-27T11:57:40Z</time>
      </trkpt>
      <trkpt lat="48.48571" lon="-3.05414">
        <ele>201</ele>
        <time>2014-04-27T11:57:41Z</time>
      </trkpt>
      <trkpt lat="48.4857" lon="-3.05412">
        <ele>201</ele>
        <time>2014-04-27T11:57:42Z</time>
      </trkpt>
      <trkpt lat="48.48569" lon="-3.05411">
        <ele>201</ele>
        <time>2014-04-27T11:57:43Z</time>
      </trkpt>
      <trkpt lat="48.48568" lon="-3.05408">
        <ele>201</ele>
        <time>2014-04-27T11:57:44Z</time>
      </trkpt>
      <trkpt lat="48.48566" lon="-3.05405">
        <ele>201</ele>
        <time>2014-04-27T11:57:46Z</time>
      </trkpt>
      <trkpt lat="48.48566" lon="-3.05403">
        <ele>201</ele>
        <time>2014-04-27T11:57:47Z</time>
      </trkpt>
      <trkpt lat="48.48565" lon="-3.05402">
        <ele>201</ele>
        <time>2014-04-27T11:57:49Z</time>
      </trkpt>
      <trkpt lat="48.48567" lon="-3.05401">
        <ele>202</ele>
        <time>2014-04-27T11:57:53Z</time>
      </trkpt>
      <trkpt lat="48.48566" lon="-3.05399">
        <ele>206</ele>
        <time>2014-04-27T11:57:56Z</time>
      </trkpt>
      <trkpt lat="48.48564" lon="-3.05399">
        <ele>210</ele>
        <time>2014-04-27T11:57:58Z</time>
      </trkpt>
      <trkpt lat="48.48563" lon="-3.05399">
        <ele>214</ele>
        <time>2014-04-27T11:58:00Z</time>
      </trkpt>
      <trkpt lat="48.48561" lon="-3.05398">
        <ele>220</ele>
        <time>2014-04-27T11:58:04Z</time>
      </trkpt>
      <trkpt lat="48.48557" lon="-3.05397">
        <ele>221</ele>
        <time>2014-04-27T11:58:05Z</time>
      </trkpt>
      <trkpt lat="48.48555" lon="-3.05395">
        <ele>224</ele>
        <time>2014-04-27T11:58:09Z</time>
      </trkpt>
      <trkpt lat="48.48553" lon="-3.05394">
        <ele>226</ele>
        <time>2014-04-27T11:58:11Z</time>
      </trkpt>
      <trkpt lat="48.48551" lon="-3.05394">
        <ele>229</ele>
        <time>2014-04-27T11:58:14Z</time>
      </trkpt>
      <trkpt lat="48.48549" lon="-3.05394">
        <ele>229</ele>
        <time>2014-04-27T11:58:16Z</time>
      </trkpt>
      <trkpt lat="48.48547" lon="-3.05395">
        <ele>229</ele>
        <time>2014-04-27T11:58:17Z</time>
      </trkpt>
      <trkpt lat="48.48546" lon="-3.05395">
        <ele>229</ele>
        <time>2014-04-27T11:58:18Z</time>
      </trkpt>
      <trkpt lat="48.48544" lon="-3.05395">
        <ele>229</ele>
        <time>2014-04-27T11:58:19Z</time>
      </trkpt>
      <trkpt lat="48.4854" lon="-3.05384">
        <ele>226</ele>
        <time>2014-04-27T11:58:30Z</time>
      </trkpt>
      <trkpt lat="48.4854" lon="-3.05382">
        <ele>225</ele>
        <time>2014-04-27T11:58:31Z</time>
      </trkpt>
      <trkpt lat="48.48541" lon="-3.0538">
        <ele>225</ele>
        <time>2014-04-27T11:58:32Z</time>
      </trkpt>
      <trkpt lat="48.48541" lon="-3.05377">
        <ele>224</ele>
        <time>2014-04-27T11:58:33Z</time>
      </trkpt>
      <trkpt lat="48.48541" lon="-3.05376">
        <ele>223</ele>
        <time>2014-04-27T11:58:34Z</time>
      </trkpt>
      <trkpt lat="48.48542" lon="-3.0537">
        <ele>217</ele>
        <time>2014-04-27T11:58:41Z</time>
      </trkpt>
      <trkpt lat="48.48539" lon="-3.05351">
        <ele>213</ele>
        <time>2014-04-27T11:58:51Z</time>
      </trkpt>
      <trkpt lat="48.48538" lon="-3.05348">
        <ele>212</ele>
        <time>2014-04-27T11:58:52Z</time>
      </trkpt>
      <trkpt lat="48.48539" lon="-3.05346">
        <ele>212</ele>
        <time>2014-04-27T11:58:53Z</time>
      </trkpt>
      <trkpt lat="48.48539" lon="-3.05344">
        <ele>212</ele>
        <time>2014-04-27T11:58:54Z</time>
      </trkpt>
      <trkpt lat="48.48537" lon="-3.0534">
        <ele>212</ele>
        <time>2014-04-27T11:58:58Z</time>
      </trkpt>
      <trkpt lat="48.48534" lon="-3.0534">
        <ele>212</ele>
        <time>2014-04-27T11:59:00Z</time>
      </trkpt>
      <trkpt lat="48.48531" lon="-3.05339">
        <ele>212</ele>
        <time>2014-04-27T11:59:03Z</time>
      </trkpt>
      <trkpt lat="48.48529" lon="-3.05339">
        <ele>212</ele>
        <time>2014-04-27T11:59:05Z</time>
      </trkpt>
      <trkpt lat="48.48527" lon="-3.05337">
        <ele>212</ele>
        <time>2014-04-27T11:59:07Z</time>
      </trkpt>
      <trkpt lat="48.48525" lon="-3.05338">
        <ele>212</ele>
        <time>2014-04-27T11:59:08Z</time>
      </trkpt>
      <trkpt lat="48.48526" lon="-3.05333">
        <ele>212</ele>
        <time>2014-04-27T11:59:10Z</time>
      </trkpt>
      <trkpt lat="48.48528" lon="-3.0533">
        <ele>213</ele>
        <time>2014-04-27T11:59:12Z</time>
      </trkpt>
      <trkpt lat="48.48529" lon="-3.05329">
        <ele>214</ele>
        <time>2014-04-27T11:59:13Z</time>
      </trkpt>
      <trkpt lat="48.4853" lon="-3.05331">
        <ele>215</ele>
        <time>2014-04-27T11:59:14Z</time>
      </trkpt>
      <trkpt lat="48.48533" lon="-3.05329">
        <ele>227</ele>
        <time>2014-04-27T11:59:22Z</time>
      </trkpt>
      <trkpt lat="48.48531" lon="-3.05328">
        <ele>231</ele>
        <time>2014-04-27T11:59:24Z</time>
      </trkpt>
      <trkpt lat="48.48529" lon="-3.05328">
        <ele>233</ele>
        <time>2014-04-27T11:59:25Z</time>
      </trkpt>
      <trkpt lat="48.48531" lon="-3.05327">
        <ele>235</ele>
        <time>2014-04-27T11:59:26Z</time>
      </trkpt>
      <trkpt lat="48.48533" lon="-3.05325">
        <ele>236</ele>
        <time>2014-04-27T11:59:27Z</time>
      </trkpt>
      <trkpt lat="48.48535" lon="-3.05324">
        <ele>237</ele>
        <time>2014-04-27T11:59:28Z</time>
      </trkpt>
      <trkpt lat="48.48536" lon="-3.05325">
        <ele>238</ele>
        <time>2014-04-27T11:59:29Z</time>
      </trkpt>
      <trkpt lat="48.48538" lon="-3.05324">
        <ele>239</ele>
        <time>2014-04-27T11:59:30Z</time>
      </trkpt>
      <trkpt lat="48.48541" lon="-3.05323">
        <ele>241</ele>
        <time>2014-04-27T11:59:31Z</time>
      </trkpt>
      <trkpt lat="48.48545" lon="-3.05321">
        <ele>243</ele>
        <time>2014-04-27T11:59:32Z</time>
      </trkpt>
      <trkpt lat="48.48543" lon="-3.0532">
        <ele>247</ele>
        <time>2014-04-27T11:59:34Z</time>
      </trkpt>
      <trkpt lat="48.48544" lon="-3.05321">
        <ele>251</ele>
        <time>2014-04-27T11:59:36Z</time>
      </trkpt>
      <trkpt lat="48.48543" lon="-3.05324">
        <ele>255</ele>
        <time>2014-04-27T11:59:40Z</time>
      </trkpt>
      <trkpt lat="48.48541" lon="-3.05324">
        <ele>255</ele>
        <time>2014-04-27T11:59:41Z</time>
      </trkpt>
      <trkpt lat="48.48539" lon="-3.05327">
        <ele>254</ele>
        <time>2014-04-27T11:59:43Z</time>
      </trkpt>
      <trkpt lat="48.48539" lon="-3.0533">
        <ele>250</ele>
        <time>2014-04-27T11:59:47Z</time>
      </trkpt>
      <trkpt lat="48.48537" lon="-3.0533">
        <ele>249</ele>
        <time>2014-04-27T11:59:48Z</time>
      </trkpt>
      <trkpt lat="48.48531" lon="-3.05331">
        <ele>245</ele>
        <time>2014-04-27T11:59:53Z</time>
      </trkpt>
      <trkpt lat="48.48522" lon="-3.0532">
        <ele>235</ele>
        <time>2014-04-27T11:59:58Z</time>
      </trkpt>
      <trkpt lat="48.48519" lon="-3.05321">
        <ele>233</ele>
        <time>2014-04-27T11:59:59Z</time>
      </trkpt>
      <trkpt lat="48.48519" lon="-3.05319">
        <ele>231</ele>
        <time>2014-04-27T12:00:00Z</time>
      </trkpt>
      <trkpt lat="48.48517" lon="-3.05319">
        <ele>229</ele>
        <time>2014-04-27T12:00:01Z</time>
      </trkpt>
      <trkpt lat="48.48517" lon="-3.05316">
        <ele>224</ele>
        <time>2014-04-27T12:00:04Z</time>
      </trkpt>
      <trkpt lat="48.48519" lon="-3.05314">
        <ele>222</ele>
        <time>2014-04-27T12:00:07Z</time>
      </trkpt>
      <trkpt lat="48.48512" lon="-3.05297">
        <ele>221</ele>
        <time>2014-04-27T12:00:19Z</time>
      </trkpt>
      <trkpt lat="48.48511" lon="-3.05297">
        <ele>220</ele>
        <time>2014-04-27T12:00:20Z</time>
      </trkpt>
      <trkpt lat="48.4851" lon="-3.05294">
        <ele>219</ele>
        <time>2014-04-27T12:00:21Z</time>
      </trkpt>
      <trkpt lat="48.48509" lon="-3.05293">
        <ele>218</ele>
        <time>2014-04-27T12:00:22Z</time>
      </trkpt>
      <trkpt lat="48.48495" lon="-3.05281">
        <ele>204</ele>
        <time>2014-04-27T12:00:37Z</time>
      </trkpt>
      <trkpt lat="48.48488" lon="-3.05268">
        <ele>209</ele>
        <time>2014-04-27T12:00:52Z</time>
      </trkpt>
      <trkpt lat="48.48486" lon="-3.05268">
        <ele>211</ele>
        <time>2014-04-27T12:00:53Z</time>
      </trkpt>
      <trkpt lat="48.48484" lon="-3.05266">
        <ele>214</ele>
        <time>2014-04-27T12:00:56Z</time>
      </trkpt>
      <trkpt lat="48.48483" lon="-3.05264">
        <ele>215</ele>
        <time>2014-04-27T12:00:57Z</time>
      </trkpt>
      <trkpt lat="48.48483" lon="-3.05262">
        <ele>216</ele>
        <time>2014-04-27T12:00:58Z</time>
      </trkpt>
      <trkpt lat="48.48484" lon="-3.0526">
        <ele>217</ele>
        <time>2014-04-27T12:01:00Z</time>
      </trkpt>
      <trkpt lat="48.48483" lon="-3.05258">
        <ele>217</ele>
        <time>2014-04-27T12:01:02Z</time>
      </trkpt>
      <trkpt lat="48.48482" lon="-3.05254">
        <ele>217</ele>
        <time>2014-04-27T12:01:04Z</time>
      </trkpt>
      <trkpt lat="48.4848" lon="-3.05248">
        <ele>218</ele>
        <time>2014-04-27T12:01:09Z</time>
      </trkpt>
      <trkpt lat="48.48477" lon="-3.05246">
        <ele>218</ele>
        <time>2014-04-27T12:01:10Z</time>
      </trkpt>
      <trkpt lat="48.48476" lon="-3.05244">
        <ele>218</ele>
        <time>2014-04-27T12:01:11Z</time>
      </trkpt>
      <trkpt lat="48.48474" lon="-3.05243">
        <ele>218</ele>
        <time>2014-04-27T12:01:13Z</time>
      </trkpt>
      <trkpt lat="48.48471" lon="-3.05239">
        <ele>218</ele>
        <time>2014-04-27T12:01:17Z</time>
      </trkpt>
      <trkpt lat="48.4847" lon="-3.05237">
        <ele>218</ele>
        <time>2014-04-27T12:01:18Z</time>
      </trkpt>
      <trkpt lat="48.48469" lon="-3.05232">
        <ele>218</ele>
        <time>2014-04-27T12:01:19Z</time>
      </trkpt>
      <trkpt lat="48.48468" lon="-3.0523">
        <ele>218</ele>
        <time>2014-04-27T12:01:21Z</time>
      </trkpt>
      <trkpt lat="48.48469" lon="-3.05227">
        <ele>218</ele>
        <time>2014-04-27T12:01:23Z</time>
      </trkpt>
      <trkpt lat="48.48468" lon="-3.05226">
        <ele>218</ele>
        <time>2014-04-27T12:01:25Z</time>
      </trkpt>
      <trkpt lat="48.48467" lon="-3.05224">
        <ele>218</ele>
        <time>2014-04-27T12:01:28Z</time>
      </trkpt>
      <trkpt lat="48.48467" lon="-3.0522">
        <ele>218</ele>
        <time>2014-04-27T12:01:30Z</time>
      </trkpt>
      <trkpt lat="48.48467" lon="-3.05216">
        <ele>218</ele>
        <time>2014-04-27T12:01:31Z</time>
      </trkpt>
      <trkpt lat="48.48468" lon="-3.05211">
        <ele>218</ele>
        <time>2014-04-27T12:01:32Z</time>
      </trkpt>
      <trkpt lat="48.4847" lon="-3.05209">
        <ele>218</ele>
        <time>2014-04-27T12:01:33Z</time>
      </trkpt>
      <trkpt lat="48.48467" lon="-3.05204">
        <ele>219</ele>
        <time>2014-04-27T12:01:39Z</time>
      </trkpt>
      <trkpt lat="48.48466" lon="-3.05202">
        <ele>220</ele>
        <time>2014-04-27T12:01:40Z</time>
      </trkpt>
      <trkpt lat="48.48465" lon="-3.052">
        <ele>220</ele>
        <time>2014-04-27T12:01:41Z</time>
      </trkpt>
      <trkpt lat="48.48465" lon="-3.05198">
        <ele>221</ele>
        <time>2014-04-27T12:01:42Z</time>
      </trkpt>
      <trkpt lat="48.48465" lon="-3.05196">
        <ele>222</ele>
        <time>2014-04-27T12:01:43Z</time>
      </trkpt>
      <trkpt lat="48.48467" lon="-3.05195">
        <ele>223</ele>
        <time>2014-04-27T12:01:44Z</time>
      </trkpt>
      <trkpt lat="48.48465" lon="-3.05195">
        <ele>224</ele>
        <time>2014-04-27T12:01:45Z</time>
      </trkpt>
      <trkpt lat="48.48462" lon="-3.05194">
        <ele>225</ele>
        <time>2014-04-27T12:01:46Z</time>
      </trkpt>
      <trkpt lat="48.4846" lon="-3.05191">
        <ele>227</ele>
        <time>2014-04-27T12:01:49Z</time>
      </trkpt>
      <trkpt lat="48.48458" lon="-3.05191">
        <ele>228</ele>
        <time>2014-04-27T12:01:51Z</time>
      </trkpt>
      <trkpt lat="48.48455" lon="-3.05191">
        <ele>228</ele>
        <time>2014-04-27T12:01:53Z</time>
      </trkpt>
      <trkpt lat="48.48455" lon="-3.05189">
        <ele>228</ele>
        <time>2014-04-27T12:01:55Z</time>
      </trkpt>
      <trkpt lat="48.48454" lon="-3.05191">
        <ele>228</ele>
        <time>2014-04-27T12:01:58Z</time>
      </trkpt>
      <trkpt lat="48.48454" lon="-3.05194">
        <ele>228</ele>
        <time>2014-04-27T12:02:00Z</time>
      </trkpt>
      <trkpt lat="48.48456" lon="-3.05197">
        <ele>227</ele>
        <time>2014-04-27T12:02:02Z</time>
      </trkpt>
      <trkpt lat="48.48454" lon="-3.05199">
        <ele>226</ele>
        <time>2014-04-27T12:02:03Z</time>
      </trkpt>
      <trkpt lat="48.48451" lon="-3.05203">
        <ele>224</ele>
        <time>2014-04-27T12:02:05Z</time>
      </trkpt>
      <trkpt lat="48.48449" lon="-3.05205">
        <ele>222</ele>
        <time>2014-04-27T12:02:06Z</time>
      </trkpt>
      <trkpt lat="48.48448" lon="-3.05208">
        <ele>221</ele>
        <time>2014-04-27T12:02:07Z</time>
      </trkpt>
      <trkpt lat="48.48448" lon="-3.05206">
        <ele>217</ele>
        <time>2014-04-27T12:02:10Z</time>
      </trkpt>
      <trkpt lat="48.48445" lon="-3.05203">
        <ele>215</ele>
        <time>2014-04-27T12:02:12Z</time>
      </trkpt>
      <trkpt lat="48.48443" lon="-3.05204">
        <ele>215</ele>
        <time>2014-04-27T12:02:13Z</time>
      </trkpt>
      <trkpt lat="48.48442" lon="-3.05203">
        <ele>215</ele>
        <time>2014-04-27T12:02:14Z</time>
      </trkpt>
      <trkpt lat="48.4844" lon="-3.05202">
        <ele>215</ele>
        <time>2014-04-27T12:02:18Z</time>
      </trkpt>
      <trkpt lat="48.48442" lon="-3.05201">
        <ele>214</ele>
        <time>2014-04-27T12:02:21Z</time>
      </trkpt>
      <trkpt lat="48.48442" lon="-3.05203">
        <ele>212</ele>
        <time>2014-04-27T12:02:23Z</time>
      </trkpt>
      <trkpt lat="48.48443" lon="-3.05205">
        <ele>212</ele>
        <time>2014-04-27T12:02:25Z</time>
      </trkpt>
      <trkpt lat="48.48444" lon="-3.05204">
        <ele>212</ele>
        <time>2014-04-27T12:02:26Z</time>
      </trkpt>
      <trkpt lat="48.48445" lon="-3.05202">
        <ele>212</ele>
        <time>2014-04-27T12:02:27Z</time>
      </trkpt>
      <trkpt lat="48.48448" lon="-3.05196">
        <ele>212</ele>
        <time>2014-04-27T12:02:31Z</time>
      </trkpt>
      <trkpt lat="48.48449" lon="-3.05193">
        <ele>212</ele>
        <time>2014-04-27T12:02:32Z</time>
      </trkpt>
      <trkpt lat="48.48449" lon="-3.0519">
        <ele>212</ele>
        <time>2014-04-27T12:02:33Z</time>
      </trkpt>
      <trkpt lat="48.4845" lon="-3.05187">
        <ele>212</ele>
        <time>2014-04-27T12:02:34Z</time>
      </trkpt>
      <trkpt lat="48.48451" lon="-3.05184">
        <ele>212</ele>
        <time>2014-04-27T12:02:35Z</time>
      </trkpt>
      <trkpt lat="48.4845" lon="-3.05181">
        <ele>212</ele>
        <time>2014-04-27T12:02:37Z</time>
      </trkpt>
      <trkpt lat="48.4845" lon="-3.05178">
        <ele>212</ele>
        <time>2014-04-27T12:02:38Z</time>
      </trkpt>
      <trkpt lat="48.48448" lon="-3.05177">
        <ele>213</ele>
        <time>2014-04-27T12:02:39Z</time>
      </trkpt>
      <trkpt lat="48.48448" lon="-3.05175">
        <ele>214</ele>
        <time>2014-04-27T12:02:40Z</time>
      </trkpt>
      <trkpt lat="48.48446" lon="-3.05173">
        <ele>214</ele>
        <time>2014-04-27T12:02:42Z</time>
      </trkpt>
      <trkpt lat="48.48444" lon="-3.05169">
        <ele>214</ele>
        <time>2014-04-27T12:02:46Z</time>
      </trkpt>
      <trkpt lat="48.48445" lon="-3.05169">
        <ele>214</ele>
        <time>2014-04-27T12:02:47Z</time>
      </trkpt>
      <trkpt lat="48.48445" lon="-3.05167">
        <ele>214</ele>
        <time>2014-04-27T12:02:50Z</time>
      </trkpt>
      <trkpt lat="48.48446" lon="-3.05164">
        <ele>214</ele>
        <time>2014-04-27T12:02:52Z</time>
      </trkpt>
      <trkpt lat="48.48446" lon="-3.05161">
        <ele>215</ele>
        <time>2014-04-27T12:02:53Z</time>
      </trkpt>
      <trkpt lat="48.48446" lon="-3.05159">
        <ele>216</ele>
        <time>2014-04-27T12:02:54Z</time>
      </trkpt>
      <trkpt lat="48.48446" lon="-3.05157">
        <ele>217</ele>
        <time>2014-04-27T12:02:55Z</time>
      </trkpt>
      <trkpt lat="48.48446" lon="-3.05154">
        <ele>218</ele>
        <time>2014-04-27T12:02:56Z</time>
      </trkpt>
      <trkpt lat="48.48446" lon="-3.05152">
        <ele>219</ele>
        <time>2014-04-27T12:02:57Z</time>
      </trkpt>
      <trkpt lat="48.48443" lon="-3.05152">
        <ele>221</ele>
        <time>2014-04-27T12:02:59Z</time>
      </trkpt>
      <trkpt lat="48.48441" lon="-3.05149">
        <ele>223</ele>
        <time>2014-04-27T12:03:02Z</time>
      </trkpt>
      <trkpt lat="48.48441" lon="-3.05144">
        <ele>223</ele>
        <time>2014-04-27T12:03:03Z</time>
      </trkpt>
      <trkpt lat="48.4844" lon="-3.05142">
        <ele>223</ele>
        <time>2014-04-27T12:03:04Z</time>
      </trkpt>
      <trkpt lat="48.4844" lon="-3.05139">
        <ele>223</ele>
        <time>2014-04-27T12:03:05Z</time>
      </trkpt>
      <trkpt lat="48.4844" lon="-3.05137">
        <ele>224</ele>
        <time>2014-04-27T12:03:07Z</time>
      </trkpt>
      <trkpt lat="48.48439" lon="-3.05135">
        <ele>224</ele>
        <time>2014-04-27T12:03:11Z</time>
      </trkpt>
      <trkpt lat="48.48439" lon="-3.05131">
        <ele>224</ele>
        <time>2014-04-27T12:03:14Z</time>
      </trkpt>
      <trkpt lat="48.48439" lon="-3.05129">
        <ele>224</ele>
        <time>2014-04-27T12:03:15Z</time>
      </trkpt>
      <trkpt lat="48.48439" lon="-3.05126">
        <ele>224</ele>
        <time>2014-04-27T12:03:17Z</time>
      </trkpt>
      <trkpt lat="48.48439" lon="-3.05123">
        <ele>224</ele>
        <time>2014-04-27T12:03:18Z</time>
      </trkpt>
      <trkpt lat="48.48439" lon="-3.05121">
        <ele>225</ele>
        <time>2014-04-27T12:03:20Z</time>
      </trkpt>
      <trkpt lat="48.48437" lon="-3.05119">
        <ele>226</ele>
        <time>2014-04-27T12:03:22Z</time>
      </trkpt>
      <trkpt lat="48.48437" lon="-3.05116">
        <ele>226</ele>
        <time>2014-04-27T12:03:25Z</time>
      </trkpt>
      <trkpt lat="48.48437" lon="-3.05113">
        <ele>226</ele>
        <time>2014-04-27T12:03:26Z</time>
      </trkpt>
      <trkpt lat="48.48437" lon="-3.05112">
        <ele>226</ele>
        <time>2014-04-27T12:03:27Z</time>
      </trkpt>
      <trkpt lat="48.48435" lon="-3.05113">
        <ele>226</ele>
        <time>2014-04-27T12:03:30Z</time>
      </trkpt>
      <trkpt lat="48.48433" lon="-3.0511">
        <ele>226</ele>
        <time>2014-04-27T12:03:31Z</time>
      </trkpt>
      <trkpt lat="48.48432" lon="-3.05109">
        <ele>226</ele>
        <time>2014-04-27T12:03:32Z</time>
      </trkpt>
      <trkpt lat="48.48432" lon="-3.05106">
        <ele>226</ele>
        <time>2014-04-27T12:03:34Z</time>
      </trkpt>
      <trkpt lat="48.48432" lon="-3.05103">
        <ele>226</ele>
        <time>2014-04-27T12:03:37Z</time>
      </trkpt>
      <trkpt lat="48.48431" lon="-3.05102">
        <ele>227</ele>
        <time>2014-04-27T12:03:38Z</time>
      </trkpt>
      <trkpt lat="48.48432" lon="-3.05098">
        <ele>230</ele>
        <time>2014-04-27T12:03:41Z</time>
      </trkpt>
      <trkpt lat="48.48432" lon="-3.05096">
        <ele>231</ele>
        <time>2014-04-27T12:03:42Z</time>
      </trkpt>
      <trkpt lat="48.4843" lon="-3.05095">
        <ele>234</ele>
        <time>2014-04-27T12:03:45Z</time>
      </trkpt>
      <trkpt lat="48.48428" lon="-3.05096">
        <ele>235</ele>
        <time>2014-04-27T12:03:46Z</time>
      </trkpt>
      <trkpt lat="48.48427" lon="-3.05093">
        <ele>235</ele>
        <time>2014-04-27T12:03:48Z</time>
      </trkpt>
      <trkpt lat="48.48429" lon="-3.05093">
        <ele>235</ele>
        <time>2014-04-27T12:03:51Z</time>
      </trkpt>
      <trkpt lat="48.48427" lon="-3.05094">
        <ele>235</ele>
        <time>2014-04-27T12:03:53Z</time>
      </trkpt>
      <trkpt lat="48.48426" lon="-3.05091">
        <ele>233</ele>
        <time>2014-04-27T12:03:55Z</time>
      </trkpt>
      <trkpt lat="48.48426" lon="-3.05089">
        <ele>231</ele>
        <time>2014-04-27T12:03:57Z</time>
      </trkpt>
      <trkpt lat="48.48426" lon="-3.05086">
        <ele>230</ele>
        <time>2014-04-27T12:03:58Z</time>
      </trkpt>
      <trkpt lat="48.48424" lon="-3.05086">
        <ele>229</ele>
        <time>2014-04-27T12:03:59Z</time>
      </trkpt>
      <trkpt lat="48.48419" lon="-3.05083">
        <ele>227</ele>
        <time>2014-04-27T12:04:03Z</time>
      </trkpt>
      <trkpt lat="48.48418" lon="-3.0508">
        <ele>227</ele>
        <time>2014-04-27T12:04:04Z</time>
      </trkpt>
      <trkpt lat="48.48416" lon="-3.05077">
        <ele>227</ele>
        <time>2014-04-27T12:04:05Z</time>
      </trkpt>
      <trkpt lat="48.48415" lon="-3.05075">
        <ele>227</ele>
        <time>2014-04-27T12:04:06Z</time>
      </trkpt>
      <trkpt lat="48.48415" lon="-3.05074">
        <ele>227</ele>
        <time>2014-04-27T12:04:07Z</time>
      </trkpt>
      <trkpt lat="48.48417" lon="-3.05071">
        <ele>227</ele>
        <time>2014-04-27T12:04:09Z</time>
      </trkpt>
      <trkpt lat="48.48415" lon="-3.05067">
        <ele>227</ele>
        <time>2014-04-27T12:04:11Z</time>
      </trkpt>
      <trkpt lat="48.48413" lon="-3.0506">
        <ele>227</ele>
        <time>2014-04-27T12:04:16Z</time>
      </trkpt>
      <trkpt lat="48.48415" lon="-3.05059">
        <ele>227</ele>
        <time>2014-04-27T12:04:17Z</time>
      </trkpt>
      <trkpt lat="48.48414" lon="-3.05057">
        <ele>227</ele>
        <time>2014-04-27T12:04:18Z</time>
      </trkpt>
      <trkpt lat="48.48411" lon="-3.05053">
        <ele>227</ele>
        <time>2014-04-27T12:04:19Z</time>
      </trkpt>
      <trkpt lat="48.48408" lon="-3.05046">
        <ele>228</ele>
        <time>2014-04-27T12:04:22Z</time>
      </trkpt>
      <trkpt lat="48.48407" lon="-3.0504">
        <ele>228</ele>
        <time>2014-04-27T12:04:28Z</time>
      </trkpt>
      <trkpt lat="48.48407" lon="-3.05038">
        <ele>228</ele>
        <time>2014-04-27T12:04:29Z</time>
      </trkpt>
      <trkpt lat="48.48408" lon="-3.05035">
        <ele>228</ele>
        <time>2014-04-27T12:04:32Z</time>
      </trkpt>
      <trkpt lat="48.48408" lon="-3.05032">
        <ele>228</ele>
        <time>2014-04-27T12:04:34Z</time>
      </trkpt>
      <trkpt lat="48.48407" lon="-3.05029">
        <ele>232</ele>
        <time>2014-04-27T12:04:42Z</time>
      </trkpt>
      <trkpt lat="48.48405" lon="-3.05027">
        <ele>233</ele>
        <time>2014-04-27T12:04:44Z</time>
      </trkpt>
      <trkpt lat="48.48404" lon="-3.05025">
        <ele>233</ele>
        <time>2014-04-27T12:04:45Z</time>
      </trkpt>
      <trkpt lat="48.48402" lon="-3.05024">
        <ele>233</ele>
        <time>2014-04-27T12:04:46Z</time>
      </trkpt>
      <trkpt lat="48.48401" lon="-3.05023">
        <ele>233</ele>
        <time>2014-04-27T12:04:47Z</time>
      </trkpt>
      <trkpt lat="48.484" lon="-3.0502">
        <ele>233</ele>
        <time>2014-04-27T12:04:49Z</time>
      </trkpt>
      <trkpt lat="48.484" lon="-3.05017">
        <ele>232</ele>
        <time>2014-04-27T12:04:50Z</time>
      </trkpt>
      <trkpt lat="48.484" lon="-3.05014">
        <ele>231</ele>
        <time>2014-04-27T12:04:51Z</time>
      </trkpt>
      <trkpt lat="48.484" lon="-3.05012">
        <ele>231</ele>
        <time>2014-04-27T12:04:52Z</time>
      </trkpt>
      <trkpt lat="48.484" lon="-3.05008">
        <ele>231</ele>
        <time>2014-04-27T12:04:55Z</time>
      </trkpt>
      <trkpt lat="48.48401" lon="-3.05007">
        <ele>231</ele>
        <time>2014-04-27T12:04:56Z</time>
      </trkpt>
      <trkpt lat="48.48403" lon="-3.05006">
        <ele>231</ele>
        <time>2014-04-27T12:04:57Z</time>
      </trkpt>
      <trkpt lat="48.48404" lon="-3.05004">
        <ele>231</ele>
        <time>2014-04-27T12:04:58Z</time>
      </trkpt>
      <trkpt lat="48.48404" lon="-3.05001">
        <ele>231</ele>
        <time>2014-04-27T12:05:00Z</time>
      </trkpt>
      <trkpt lat="48.48406" lon="-3.04999">
        <ele>231</ele>
        <time>2014-04-27T12:05:01Z</time>
      </trkpt>
      <trkpt lat="48.48406" lon="-3.04997">
        <ele>232</ele>
        <time>2014-04-27T12:05:02Z</time>
      </trkpt>
      <trkpt lat="48.48405" lon="-3.04991">
        <ele>234</ele>
        <time>2014-04-27T12:05:06Z</time>
      </trkpt>
      <trkpt lat="48.48405" lon="-3.04988">
        <ele>234</ele>
        <time>2014-04-27T12:05:07Z</time>
      </trkpt>
      <trkpt lat="48.48405" lon="-3.04985">
        <ele>236</ele>
        <time>2014-04-27T12:05:09Z</time>
      </trkpt>
      <trkpt lat="48.48404" lon="-3.04983">
        <ele>236</ele>
        <time>2014-04-27T12:05:10Z</time>
      </trkpt>
      <trkpt lat="48.48403" lon="-3.0498">
        <ele>236</ele>
        <time>2014-04-27T12:05:11Z</time>
      </trkpt>
      <trkpt lat="48.48402" lon="-3.04978">
        <ele>236</ele>
        <time>2014-04-27T12:05:12Z</time>
      </trkpt>
      <trkpt lat="48.484" lon="-3.04976">
        <ele>236</ele>
        <time>2014-04-27T12:05:14Z</time>
      </trkpt>
      <trkpt lat="48.48399" lon="-3.04972">
        <ele>236</ele>
        <time>2014-04-27T12:05:15Z</time>
      </trkpt>
      <trkpt lat="48.48398" lon="-3.04971">
        <ele>236</ele>
        <time>2014-04-27T12:05:16Z</time>
      </trkpt>
      <trkpt lat="48.48396" lon="-3.0497">
        <ele>236</ele>
        <time>2014-04-27T12:05:18Z</time>
      </trkpt>
      <trkpt lat="48.48394" lon="-3.04969">
        <ele>234</ele>
        <time>2014-04-27T12:05:21Z</time>
      </trkpt>
      <trkpt lat="48.48393" lon="-3.04968">
        <ele>233</ele>
        <time>2014-04-27T12:05:22Z</time>
      </trkpt>
      <trkpt lat="48.48393" lon="-3.04966">
        <ele>231</ele>
        <time>2014-04-27T12:05:24Z</time>
      </trkpt>
      <trkpt lat="48.48387" lon="-3.04965">
        <ele>227</ele>
        <time>2014-04-27T12:05:28Z</time>
      </trkpt>
      <trkpt lat="48.48385" lon="-3.04965">
        <ele>226</ele>
        <time>2014-04-27T12:05:29Z</time>
      </trkpt>
      <trkpt lat="48.48383" lon="-3.04965">
        <ele>225</ele>
        <time>2014-04-27T12:05:30Z</time>
      </trkpt>
      <trkpt lat="48.48381" lon="-3.04964">
        <ele>224</ele>
        <time>2014-04-27T12:05:31Z</time>
      </trkpt>
      <trkpt lat="48.48379" lon="-3.04962">
        <ele>222</ele>
        <time>2014-04-27T12:05:33Z</time>
      </trkpt>
      <trkpt lat="48.48379" lon="-3.0496">
        <ele>221</ele>
        <time>2014-04-27T12:05:35Z</time>
      </trkpt>
      <trkpt lat="48.48381" lon="-3.04957">
        <ele>221</ele>
        <time>2014-04-27T12:05:36Z</time>
      </trkpt>
      <trkpt lat="48.4838" lon="-3.04954">
        <ele>221</ele>
        <time>2014-04-27T12:05:38Z</time>
      </trkpt>
      <trkpt lat="48.48381" lon="-3.04957">
        <ele>222</ele>
        <time>2014-04-27T12:05:43Z</time>
      </trkpt>
      <trkpt lat="48.48379" lon="-3.04955">
        <ele>222</ele>
        <time>2014-04-27T12:05:46Z</time>
      </trkpt>
      <trkpt lat="48.48377" lon="-3.04955">
        <ele>222</ele>
        <time>2014-04-27T12:05:47Z</time>
      </trkpt>
      <trkpt lat="48.48372" lon="-3.04962">
        <ele>222</ele>
        <time>2014-04-27T12:05:56Z</time>
      </trkpt>
      <trkpt lat="48.48372" lon="-3.04964">
        <ele>222</ele>
        <time>2014-04-27T12:05:58Z</time>
      </trkpt>
      <trkpt lat="48.4837" lon="-3.04968">
        <ele>224</ele>
        <time>2014-04-27T12:06:00Z</time>
      </trkpt>
      <trkpt lat="48.4837" lon="-3.04966">
        <ele>226</ele>
        <time>2014-04-27T12:06:02Z</time>
      </trkpt>
      <trkpt lat="48.48369" lon="-3.04963">
        <ele>227</ele>
        <time>2014-04-27T12:06:03Z</time>
      </trkpt>
      <trkpt lat="48.4837" lon="-3.0496">
        <ele>228</ele>
        <time>2014-04-27T12:06:04Z</time>
      </trkpt>
      <trkpt lat="48.48361" lon="-3.04949">
        <ele>233</ele>
        <time>2014-04-27T12:06:13Z</time>
      </trkpt>
      <trkpt lat="48.48362" lon="-3.0495">
        <ele>233</ele>
        <time>2014-04-27T12:06:14Z</time>
      </trkpt>
      <trkpt lat="48.48361" lon="-3.04948">
        <ele>235</ele>
        <time>2014-04-27T12:06:17Z</time>
      </trkpt>
      <trkpt lat="48.48362" lon="-3.04946">
        <ele>236</ele>
        <time>2014-04-27T12:06:18Z</time>
      </trkpt>
      <trkpt lat="48.48362" lon="-3.04945">
        <ele>239</ele>
        <time>2014-04-27T12:06:22Z</time>
      </trkpt>
      <trkpt lat="48.48363" lon="-3.04943">
        <ele>240</ele>
        <time>2014-04-27T12:06:24Z</time>
      </trkpt>
      <trkpt lat="48.48356" lon="-3.04942">
        <ele>240</ele>
        <time>2014-04-27T12:06:38Z</time>
      </trkpt>
      <trkpt lat="48.48354" lon="-3.04941">
        <ele>239</ele>
        <time>2014-04-27T12:06:39Z</time>
      </trkpt>
      <trkpt lat="48.48361" lon="-3.04944">
        <ele>230</ele>
        <time>2014-04-27T12:07:06Z</time>
      </trkpt>
      <trkpt lat="48.48359" lon="-3.04945">
        <ele>229</ele>
        <time>2014-04-27T12:07:07Z</time>
      </trkpt>
      <trkpt lat="48.48357" lon="-3.04944">
        <ele>225</ele>
        <time>2014-04-27T12:07:11Z</time>
      </trkpt>
      <trkpt lat="48.48355" lon="-3.04945">
        <ele>225</ele>
        <time>2014-04-27T12:07:12Z</time>
      </trkpt>
      <trkpt lat="48.48354" lon="-3.04943">
        <ele>225</ele>
        <time>2014-04-27T12:07:15Z</time>
      </trkpt>
      <trkpt lat="48.48355" lon="-3.04944">
        <ele>225</ele>
        <time>2014-04-27T12:07:19Z</time>
      </trkpt>
      <trkpt lat="48.48358" lon="-3.04947">
        <ele>229</ele>
        <time>2014-04-27T12:07:27Z</time>
      </trkpt>
      <trkpt lat="48.4836" lon="-3.04948">
        <ele>229</ele>
        <time>2014-04-27T12:07:28Z</time>
      </trkpt>
      <trkpt lat="48.48362" lon="-3.04949">
        <ele>229</ele>
        <time>2014-04-27T12:07:29Z</time>
      </trkpt>
      <trkpt lat="48.48364" lon="-3.0495">
        <ele>229</ele>
        <time>2014-04-27T12:07:30Z</time>
      </trkpt>
      <trkpt lat="48.4837" lon="-3.04951">
        <ele>239</ele>
        <time>2014-04-27T12:07:46Z</time>
      </trkpt>
      <trkpt lat="48.48371" lon="-3.04948">
        <ele>239</ele>
        <time>2014-04-27T12:07:47Z</time>
      </trkpt>
      <trkpt lat="48.48373" lon="-3.04945">
        <ele>239</ele>
        <time>2014-04-27T12:07:48Z</time>
      </trkpt>
      <trkpt lat="48.48363" lon="-3.04947">
        <ele>235</ele>
        <time>2014-04-27T12:07:57Z</time>
      </trkpt>
      <trkpt lat="48.48364" lon="-3.04946">
        <ele>235</ele>
        <time>2014-04-27T12:07:58Z</time>
      </trkpt>
      <trkpt lat="48.48358" lon="-3.04941">
        <ele>236</ele>
        <time>2014-04-27T12:08:05Z</time>
      </trkpt>
      <trkpt lat="48.48358" lon="-3.0494">
        <ele>236</ele>
        <time>2014-04-27T12:08:06Z</time>
      </trkpt>
      <trkpt lat="48.48356" lon="-3.04938">
        <ele>236</ele>
        <time>2014-04-27T12:08:07Z</time>
      </trkpt>
      <trkpt lat="48.48355" lon="-3.04937">
        <ele>237</ele>
        <time>2014-04-27T12:08:08Z</time>
      </trkpt>
      <trkpt lat="48.48353" lon="-3.04938">
        <ele>238</ele>
        <time>2014-04-27T12:08:09Z</time>
      </trkpt>
      <trkpt lat="48.48354" lon="-3.04934">
        <ele>238</ele>
        <time>2014-04-27T12:08:17Z</time>
      </trkpt>
      <trkpt lat="48.48356" lon="-3.04932">
        <ele>240</ele>
        <time>2014-04-27T12:08:19Z</time>
      </trkpt>
      <trkpt lat="48.48358" lon="-3.04932">
        <ele>244</ele>
        <time>2014-04-27T12:08:23Z</time>
      </trkpt>
      <trkpt lat="48.48358" lon="-3.0493">
        <ele>247</ele>
        <time>2014-04-27T12:08:25Z</time>
      </trkpt>
      <trkpt lat="48.48358" lon="-3.04928">
        <ele>249</ele>
        <time>2014-04-27T12:08:26Z</time>
      </trkpt>
      <trkpt lat="48.48359" lon="-3.04926">
        <ele>251</ele>
        <time>2014-04-27T12:08:28Z</time>
      </trkpt>
      <trkpt lat="48.48352" lon="-3.04955">
        <ele>251</ele>
        <time>2014-04-27T12:09:02Z</time>
      </trkpt>
      <trkpt lat="48.48351" lon="-3.04954">
        <ele>249</ele>
        <time>2014-04-27T12:09:03Z</time>
      </trkpt>
      <trkpt lat="48.48349" lon="-3.04948">
        <ele>238</ele>
        <time>2014-04-27T12:09:08Z</time>
      </trkpt>
      <trkpt lat="48.48349" lon="-3.04946">
        <ele>236</ele>
        <time>2014-04-27T12:09:09Z</time>
      </trkpt>
      <trkpt lat="48.48348" lon="-3.04944">
        <ele>234</ele>
        <time>2014-04-27T12:09:11Z</time>
      </trkpt>
      <trkpt lat="48.48349" lon="-3.04942">
        <ele>233</ele>
        <time>2014-04-27T12:09:12Z</time>
      </trkpt>
      <trkpt lat="48.4835" lon="-3.04939">
        <ele>232</ele>
        <time>2014-04-27T12:09:13Z</time>
      </trkpt>
      <trkpt lat="48.48347" lon="-3.04937">
        <ele>231</ele>
        <time>2014-04-27T12:09:14Z</time>
      </trkpt>
      <trkpt lat="48.48348" lon="-3.04932">
        <ele>230</ele>
        <time>2014-04-27T12:09:16Z</time>
      </trkpt>
      <trkpt lat="48.48347" lon="-3.04927">
        <ele>230</ele>
        <time>2014-04-27T12:09:18Z</time>
      </trkpt>
      <trkpt lat="48.48345" lon="-3.04924">
        <ele>231</ele>
        <time>2014-04-27T12:09:21Z</time>
      </trkpt>
      <trkpt lat="48.48346" lon="-3.0492">
        <ele>231</ele>
        <time>2014-04-27T12:09:23Z</time>
      </trkpt>
      <trkpt lat="48.48347" lon="-3.04919">
        <ele>231</ele>
        <time>2014-04-27T12:09:24Z</time>
      </trkpt>
      <trkpt lat="48.48348" lon="-3.04915">
        <ele>231</ele>
        <time>2014-04-27T12:09:27Z</time>
      </trkpt>
      <trkpt lat="48.4835" lon="-3.04914">
        <ele>231</ele>
        <time>2014-04-27T12:09:28Z</time>
      </trkpt>
      <trkpt lat="48.48351" lon="-3.04913">
        <ele>231</ele>
        <time>2014-04-27T12:09:29Z</time>
      </trkpt>
      <trkpt lat="48.48353" lon="-3.04911">
        <ele>231</ele>
        <time>2014-04-27T12:09:31Z</time>
      </trkpt>
      <trkpt lat="48.48356" lon="-3.0491">
        <ele>231</ele>
        <time>2014-04-27T12:09:32Z</time>
      </trkpt>
      <trkpt lat="48.48358" lon="-3.04909">
        <ele>232</ele>
        <time>2014-04-27T12:09:33Z</time>
      </trkpt>
      <trkpt lat="48.4836" lon="-3.04907">
        <ele>233</ele>
        <time>2014-04-27T12:09:34Z</time>
      </trkpt>
      <trkpt lat="48.48362" lon="-3.04903">
        <ele>235</ele>
        <time>2014-04-27T12:09:36Z</time>
      </trkpt>
      <trkpt lat="48.48362" lon="-3.04901">
        <ele>236</ele>
        <time>2014-04-27T12:09:37Z</time>
      </trkpt>
      <trkpt lat="48.48362" lon="-3.04899">
        <ele>237</ele>
        <time>2014-04-27T12:09:38Z</time>
      </trkpt>
      <trkpt lat="48.48362" lon="-3.04897">
        <ele>239</ele>
        <time>2014-04-27T12:09:40Z</time>
      </trkpt>
      <trkpt lat="48.48362" lon="-3.04894">
        <ele>240</ele>
        <time>2014-04-27T12:09:42Z</time>
      </trkpt>
      <trkpt lat="48.48361" lon="-3.04892">
        <ele>241</ele>
        <time>2014-04-27T12:09:43Z</time>
      </trkpt>
      <trkpt lat="48.48359" lon="-3.04889">
        <ele>242</ele>
        <time>2014-04-27T12:09:44Z</time>
      </trkpt>
      <trkpt lat="48.48356" lon="-3.04888">
        <ele>243</ele>
        <time>2014-04-27T12:09:45Z</time>
      </trkpt>
      <trkpt lat="48.48354" lon="-3.04886">
        <ele>245</ele>
        <time>2014-04-27T12:09:47Z</time>
      </trkpt>
      <trkpt lat="48.48351" lon="-3.04889">
        <ele>252</ele>
        <time>2014-04-27T12:09:55Z</time>
      </trkpt>
      <trkpt lat="48.4835" lon="-3.04887">
        <ele>254</ele>
        <time>2014-04-27T12:09:57Z</time>
      </trkpt>
      <trkpt lat="48.48349" lon="-3.04886">
        <ele>255</ele>
        <time>2014-04-27T12:09:58Z</time>
      </trkpt>
      <trkpt lat="48.48344" lon="-3.04884">
        <ele>259</ele>
        <time>2014-04-27T12:10:02Z</time>
      </trkpt>
      <trkpt lat="48.48343" lon="-3.04885">
        <ele>259</ele>
        <time>2014-04-27T12:10:03Z</time>
      </trkpt>
      <trkpt lat="48.48341" lon="-3.04885">
        <ele>259</ele>
        <time>2014-04-27T12:10:04Z</time>
      </trkpt>
      <trkpt lat="48.48339" lon="-3.04886">
        <ele>259</ele>
        <time>2014-04-27T12:10:05Z</time>
      </trkpt>
      <trkpt lat="48.48336" lon="-3.04886">
        <ele>259</ele>
        <time>2014-04-27T12:10:06Z</time>
      </trkpt>
      <trkpt lat="48.48333" lon="-3.04886">
        <ele>258</ele>
        <time>2014-04-27T12:10:07Z</time>
      </trkpt>
      <trkpt lat="48.48332" lon="-3.04887">
        <ele>254</ele>
        <time>2014-04-27T12:10:11Z</time>
      </trkpt>
      <trkpt lat="48.4833" lon="-3.04886">
        <ele>252</ele>
        <time>2014-04-27T12:10:13Z</time>
      </trkpt>
      <trkpt lat="48.48327" lon="-3.04884">
        <ele>250</ele>
        <time>2014-04-27T12:10:15Z</time>
      </trkpt>
      <trkpt lat="48.48326" lon="-3.04882">
        <ele>249</ele>
        <time>2014-04-27T12:10:20Z</time>
      </trkpt>
      <trkpt lat="48.48325" lon="-3.04883">
        <ele>249</ele>
        <time>2014-04-27T12:10:21Z</time>
      </trkpt>
      <trkpt lat="48.48326" lon="-3.04882">
        <ele>249</ele>
        <time>2014-04-27T12:10:22Z</time>
      </trkpt>
      <trkpt lat="48.48319" lon="-3.04879">
        <ele>250</ele>
        <time>2014-04-27T12:10:34Z</time>
      </trkpt>
      <trkpt lat="48.48315" lon="-3.04877">
        <ele>249</ele>
        <time>2014-04-27T12:10:38Z</time>
      </trkpt>
      <trkpt lat="48.4831" lon="-3.04874">
        <ele>250</ele>
        <time>2014-04-27T12:10:47Z</time>
      </trkpt>
      <trkpt lat="48.48308" lon="-3.04874">
        <ele>251</ele>
        <time>2014-04-27T12:10:48Z</time>
      </trkpt>
      <trkpt lat="48.48307" lon="-3.04873">
        <ele>252</ele>
        <time>2014-04-27T12:10:49Z</time>
      </trkpt>
      <trkpt lat="48.48307" lon="-3.04871">
        <ele>254</ele>
        <time>2014-04-27T12:10:51Z</time>
      </trkpt>
      <trkpt lat="48.48305" lon="-3.04868">
        <ele>256</ele>
        <time>2014-04-27T12:10:53Z</time>
      </trkpt>
      <trkpt lat="48.48303" lon="-3.04867">
        <ele>257</ele>
        <time>2014-04-27T12:10:54Z</time>
      </trkpt>
      <trkpt lat="48.48298" lon="-3.04867">
        <ele>257</ele>
        <time>2014-04-27T12:10:59Z</time>
      </trkpt>
      <trkpt lat="48.48298" lon="-3.04865">
        <ele>257</ele>
        <time>2014-04-27T12:11:00Z</time>
      </trkpt>
      <trkpt lat="48.4829" lon="-3.04855">
        <ele>256</ele>
        <time>2014-04-27T12:11:09Z</time>
      </trkpt>
      <trkpt lat="48.48289" lon="-3.04855">
        <ele>256</ele>
        <time>2014-04-27T12:11:10Z</time>
      </trkpt>
      <trkpt lat="48.48287" lon="-3.04856">
        <ele>256</ele>
        <time>2014-04-27T12:11:11Z</time>
      </trkpt>
      <trkpt lat="48.48285" lon="-3.04856">
        <ele>255</ele>
        <time>2014-04-27T12:11:12Z</time>
      </trkpt>
      <trkpt lat="48.48286" lon="-3.04855">
        <ele>254</ele>
        <time>2014-04-27T12:11:14Z</time>
      </trkpt>
      <trkpt lat="48.48284" lon="-3.04857">
        <ele>254</ele>
        <time>2014-04-27T12:11:16Z</time>
      </trkpt>
      <trkpt lat="48.48282" lon="-3.04855">
        <ele>252</ele>
        <time>2014-04-27T12:11:18Z</time>
      </trkpt>
      <trkpt lat="48.48282" lon="-3.04852">
        <ele>250</ele>
        <time>2014-04-27T12:11:20Z</time>
      </trkpt>
      <trkpt lat="48.4828" lon="-3.0485">
        <ele>250</ele>
        <time>2014-04-27T12:11:21Z</time>
      </trkpt>
      <trkpt lat="48.48278" lon="-3.04849">
        <ele>249</ele>
        <time>2014-04-27T12:11:23Z</time>
      </trkpt>
      <trkpt lat="48.48276" lon="-3.04849">
        <ele>249</ele>
        <time>2014-04-27T12:11:24Z</time>
      </trkpt>
      <trkpt lat="48.48277" lon="-3.04847">
        <ele>249</ele>
        <time>2014-04-27T12:11:26Z</time>
      </trkpt>
      <trkpt lat="48.48276" lon="-3.04842">
        <ele>249</ele>
        <time>2014-04-27T12:11:32Z</time>
      </trkpt>
      <trkpt lat="48.48277" lon="-3.0484">
        <ele>249</ele>
        <time>2014-04-27T12:11:33Z</time>
      </trkpt>
      <trkpt lat="48.48276" lon="-3.04836">
        <ele>251</ele>
        <time>2014-04-27T12:11:36Z</time>
      </trkpt>
      <trkpt lat="48.48274" lon="-3.04834">
        <ele>251</ele>
        <time>2014-04-27T12:11:38Z</time>
      </trkpt>
      <trkpt lat="48.48274" lon="-3.04832">
        <ele>252</ele>
        <time>2014-04-27T12:11:39Z</time>
      </trkpt>
      <trkpt lat="48.48276" lon="-3.04835">
        <ele>253</ele>
        <time>2014-04-27T12:11:42Z</time>
      </trkpt>
      <trkpt lat="48.48274" lon="-3.04837">
        <ele>253</ele>
        <time>2014-04-27T12:11:46Z</time>
      </trkpt>
      <trkpt lat="48.48272" lon="-3.04837">
        <ele>253</ele>
        <time>2014-04-27T12:11:47Z</time>
      </trkpt>
      <trkpt lat="48.48273" lon="-3.04839">
        <ele>253</ele>
        <time>2014-04-27T12:11:48Z</time>
      </trkpt>
      <trkpt lat="48.48268" lon="-3.04841">
        <ele>253</ele>
        <time>2014-04-27T12:11:53Z</time>
      </trkpt>
      <trkpt lat="48.48266" lon="-3.04841">
        <ele>253</ele>
        <time>2014-04-27T12:11:54Z</time>
      </trkpt>
      <trkpt lat="48.48265" lon="-3.04841">
        <ele>253</ele>
        <time>2014-04-27T12:11:55Z</time>
      </trkpt>
      <trkpt lat="48.48263" lon="-3.0484">
        <ele>252</ele>
        <time>2014-04-27T12:11:56Z</time>
      </trkpt>
      <trkpt lat="48.48261" lon="-3.04842">
        <ele>252</ele>
        <time>2014-04-27T12:11:57Z</time>
      </trkpt>
      <trkpt lat="48.48259" lon="-3.04841">
        <ele>251</ele>
        <time>2014-04-27T12:11:59Z</time>
      </trkpt>
      <trkpt lat="48.4826" lon="-3.04837">
        <ele>250</ele>
        <time>2014-04-27T12:12:01Z</time>
      </trkpt>
      <trkpt lat="48.48258" lon="-3.04835">
        <ele>250</ele>
        <time>2014-04-27T12:12:03Z</time>
      </trkpt>
      <trkpt lat="48.48257" lon="-3.04838">
        <ele>250</ele>
        <time>2014-04-27T12:12:08Z</time>
      </trkpt>
      <trkpt lat="48.48258" lon="-3.04833">
        <ele>251</ele>
        <time>2014-04-27T12:12:10Z</time>
      </trkpt>
      <trkpt lat="48.48259" lon="-3.04832">
        <ele>253</ele>
        <time>2014-04-27T12:12:12Z</time>
      </trkpt>
      <trkpt lat="48.48256" lon="-3.04832">
        <ele>256</ele>
        <time>2014-04-27T12:12:16Z</time>
      </trkpt>
      <trkpt lat="48.48255" lon="-3.04832">
        <ele>257</ele>
        <time>2014-04-27T12:12:17Z</time>
      </trkpt>
      <trkpt lat="48.48251" lon="-3.04834">
        <ele>258</ele>
        <time>2014-04-27T12:12:21Z</time>
      </trkpt>
      <trkpt lat="48.4825" lon="-3.04834">
        <ele>258</ele>
        <time>2014-04-27T12:12:22Z</time>
      </trkpt>
      <trkpt lat="48.48248" lon="-3.04834">
        <ele>258</ele>
        <time>2014-04-27T12:12:24Z</time>
      </trkpt>
      <trkpt lat="48.48245" lon="-3.04835">
        <ele>256</ele>
        <time>2014-04-27T12:12:26Z</time>
      </trkpt>
      <trkpt lat="48.48247" lon="-3.04834">
        <ele>255</ele>
        <time>2014-04-27T12:12:27Z</time>
      </trkpt>
      <trkpt lat="48.48245" lon="-3.04833">
        <ele>254</ele>
        <time>2014-04-27T12:12:28Z</time>
      </trkpt>
      <trkpt lat="48.48242" lon="-3.04833">
        <ele>253</ele>
        <time>2014-04-27T12:12:29Z</time>
      </trkpt>
      <trkpt lat="48.4824" lon="-3.04833">
        <ele>252</ele>
        <time>2014-04-27T12:12:30Z</time>
      </trkpt>
      <trkpt lat="48.48231" lon="-3.04821">
        <ele>251</ele>
        <time>2014-04-27T12:12:41Z</time>
      </trkpt>
      <trkpt lat="48.48231" lon="-3.04819">
        <ele>253</ele>
        <time>2014-04-27T12:12:43Z</time>
      </trkpt>
      <trkpt lat="48.48232" lon="-3.04817">
        <ele>254</ele>
        <time>2014-04-27T12:12:44Z</time>
      </trkpt>
      <trkpt lat="48.48231" lon="-3.04815">
        <ele>255</ele>
        <time>2014-04-27T12:12:45Z</time>
      </trkpt>
      <trkpt lat="48.48232" lon="-3.04812">
        <ele>257</ele>
        <time>2014-04-27T12:12:47Z</time>
      </trkpt>
      <trkpt lat="48.48231" lon="-3.04808">
        <ele>258</ele>
        <time>2014-04-27T12:12:48Z</time>
      </trkpt>
      <trkpt lat="48.48233" lon="-3.04805">
        <ele>260</ele>
        <time>2014-04-27T12:12:50Z</time>
      </trkpt>
      <trkpt lat="48.48234" lon="-3.04806">
        <ele>263</ele>
        <time>2014-04-27T12:12:55Z</time>
      </trkpt>
      <trkpt lat="48.48235" lon="-3.04806">
        <ele>263</ele>
        <time>2014-04-27T12:12:57Z</time>
      </trkpt>
      <trkpt lat="48.48236" lon="-3.04806">
        <ele>263</ele>
        <time>2014-04-27T12:12:58Z</time>
      </trkpt>
      <trkpt lat="48.48237" lon="-3.04805">
        <ele>261</ele>
        <time>2014-04-27T12:13:00Z</time>
      </trkpt>
      <trkpt lat="48.48236" lon="-3.04801">
        <ele>258</ele>
        <time>2014-04-27T12:13:03Z</time>
      </trkpt>
      <trkpt lat="48.48237" lon="-3.048">
        <ele>257</ele>
        <time>2014-04-27T12:13:05Z</time>
      </trkpt>
      <trkpt lat="48.4823" lon="-3.04791">
        <ele>254</ele>
        <time>2014-04-27T12:13:11Z</time>
      </trkpt>
      <trkpt lat="48.48228" lon="-3.0479">
        <ele>253</ele>
        <time>2014-04-27T12:13:12Z</time>
      </trkpt>
      <trkpt lat="48.48226" lon="-3.04788">
        <ele>253</ele>
        <time>2014-04-27T12:13:13Z</time>
      </trkpt>
      <trkpt lat="48.48225" lon="-3.04786">
        <ele>250</ele>
        <time>2014-04-27T12:13:17Z</time>
      </trkpt>
      <trkpt lat="48.48225" lon="-3.04783">
        <ele>249</ele>
        <time>2014-04-27T12:13:18Z</time>
      </trkpt>
      <trkpt lat="48.48225" lon="-3.04782">
        <ele>248</ele>
        <time>2014-04-27T12:13:19Z</time>
      </trkpt>
      <trkpt lat="48.48225" lon="-3.0478">
        <ele>247</ele>
        <time>2014-04-27T12:13:21Z</time>
      </trkpt>
      <trkpt lat="48.48223" lon="-3.04778">
        <ele>245</ele>
        <time>2014-04-27T12:13:23Z</time>
      </trkpt>
      <trkpt lat="48.48222" lon="-3.04777">
        <ele>244</ele>
        <time>2014-04-27T12:13:24Z</time>
      </trkpt>
      <trkpt lat="48.48222" lon="-3.04774">
        <ele>242</ele>
        <time>2014-04-27T12:13:26Z</time>
      </trkpt>
      <trkpt lat="48.48223" lon="-3.04769">
        <ele>240</ele>
        <time>2014-04-27T12:13:28Z</time>
      </trkpt>
      <trkpt lat="48.48221" lon="-3.04767">
        <ele>240</ele>
        <time>2014-04-27T12:13:29Z</time>
      </trkpt>
      <trkpt lat="48.48222" lon="-3.04764">
        <ele>240</ele>
        <time>2014-04-27T12:13:30Z</time>
      </trkpt>
      <trkpt lat="48.48221" lon="-3.04762">
        <ele>240</ele>
        <time>2014-04-27T12:13:32Z</time>
      </trkpt>
      <trkpt lat="48.4822" lon="-3.0476">
        <ele>241</ele>
        <time>2014-04-27T12:13:34Z</time>
      </trkpt>
      <trkpt lat="48.4822" lon="-3.04757">
        <ele>243</ele>
        <time>2014-04-27T12:13:36Z</time>
      </trkpt>
      <trkpt lat="48.4822" lon="-3.04755">
        <ele>244</ele>
        <time>2014-04-27T12:13:37Z</time>
      </trkpt>
      <trkpt lat="48.48219" lon="-3.04752">
        <ele>246</ele>
        <time>2014-04-27T12:13:38Z</time>
      </trkpt>
      <trkpt lat="48.48219" lon="-3.0475">
        <ele>248</ele>
        <time>2014-04-27T12:13:39Z</time>
      </trkpt>
      <trkpt lat="48.48219" lon="-3.04748">
        <ele>250</ele>
        <time>2014-04-27T12:13:40Z</time>
      </trkpt>
      <trkpt lat="48.48218" lon="-3.04745">
        <ele>252</ele>
        <time>2014-04-27T12:13:41Z</time>
      </trkpt>
      <trkpt lat="48.48218" lon="-3.04743">
        <ele>253</ele>
        <time>2014-04-27T12:13:42Z</time>
      </trkpt>
      <trkpt lat="48.48218" lon="-3.04741">
        <ele>254</ele>
        <time>2014-04-27T12:13:43Z</time>
      </trkpt>
      <trkpt lat="48.48221" lon="-3.04738">
        <ele>257</ele>
        <time>2014-04-27T12:13:46Z</time>
      </trkpt>
      <trkpt lat="48.48223" lon="-3.04737">
        <ele>259</ele>
        <time>2014-04-27T12:13:48Z</time>
      </trkpt>
      <trkpt lat="48.48224" lon="-3.04733">
        <ele>261</ele>
        <time>2014-04-27T12:13:49Z</time>
      </trkpt>
      <trkpt lat="48.48225" lon="-3.04732">
        <ele>263</ele>
        <time>2014-04-27T12:13:50Z</time>
      </trkpt>
      <trkpt lat="48.48223" lon="-3.04728">
        <ele>265</ele>
        <time>2014-04-27T12:13:51Z</time>
      </trkpt>
      <trkpt lat="48.48225" lon="-3.04725">
        <ele>267</ele>
        <time>2014-04-27T12:13:52Z</time>
      </trkpt>
      <trkpt lat="48.48226" lon="-3.04722">
        <ele>269</ele>
        <time>2014-04-27T12:13:53Z</time>
      </trkpt>
      <trkpt lat="48.48227" lon="-3.04719">
        <ele>271</ele>
        <time>2014-04-27T12:13:54Z</time>
      </trkpt>
      <trkpt lat="48.48228" lon="-3.04715">
        <ele>273</ele>
        <time>2014-04-27T12:13:55Z</time>
      </trkpt>
      <trkpt lat="48.4823" lon="-3.04712">
        <ele>279</ele>
        <time>2014-04-27T12:13:59Z</time>
      </trkpt>
      <trkpt lat="48.48228" lon="-3.04711">
        <ele>283</ele>
        <time>2014-04-27T12:14:02Z</time>
      </trkpt>
      <trkpt lat="48.48227" lon="-3.04711">
        <ele>285</ele>
        <time>2014-04-27T12:14:04Z</time>
      </trkpt>
      <trkpt lat="48.48226" lon="-3.0471">
        <ele>285</ele>
        <time>2014-04-27T12:14:06Z</time>
      </trkpt>
      <trkpt lat="48.48225" lon="-3.04708">
        <ele>285</ele>
        <time>2014-04-27T12:14:08Z</time>
      </trkpt>
      <trkpt lat="48.48224" lon="-3.04706">
        <ele>284</ele>
        <time>2014-04-27T12:14:13Z</time>
      </trkpt>
      <trkpt lat="48.48222" lon="-3.04705">
        <ele>282</ele>
        <time>2014-04-27T12:14:16Z</time>
      </trkpt>
      <trkpt lat="48.48221" lon="-3.04704">
        <ele>276</ele>
        <time>2014-04-27T12:14:20Z</time>
      </trkpt>
      <trkpt lat="48.4822" lon="-3.047">
        <ele>274</ele>
        <time>2014-04-27T12:14:23Z</time>
      </trkpt>
      <trkpt lat="48.48218" lon="-3.04695">
        <ele>272</ele>
        <time>2014-04-27T12:14:24Z</time>
      </trkpt>
      <trkpt lat="48.48217" lon="-3.04692">
        <ele>271</ele>
        <time>2014-04-27T12:14:25Z</time>
      </trkpt>
      <trkpt lat="48.48215" lon="-3.04689">
        <ele>270</ele>
        <time>2014-04-27T12:14:26Z</time>
      </trkpt>
      <trkpt lat="48.48212" lon="-3.04686">
        <ele>269</ele>
        <time>2014-04-27T12:14:27Z</time>
      </trkpt>
      <trkpt lat="48.4821" lon="-3.04686">
        <ele>268</ele>
        <time>2014-04-27T12:14:28Z</time>
      </trkpt>
      <trkpt lat="48.4821" lon="-3.04682">
        <ele>265</ele>
        <time>2014-04-27T12:14:31Z</time>
      </trkpt>
      <trkpt lat="48.48208" lon="-3.04681">
        <ele>264</ele>
        <time>2014-04-27T12:14:32Z</time>
      </trkpt>
      <trkpt lat="48.48208" lon="-3.04679">
        <ele>263</ele>
        <time>2014-04-27T12:14:33Z</time>
      </trkpt>
      <trkpt lat="48.4821" lon="-3.04679">
        <ele>258</ele>
        <time>2014-04-27T12:14:39Z</time>
      </trkpt>
      <trkpt lat="48.48212" lon="-3.04675">
        <ele>258</ele>
        <time>2014-04-27T12:14:41Z</time>
      </trkpt>
      <trkpt lat="48.48212" lon="-3.04673">
        <ele>258</ele>
        <time>2014-04-27T12:14:42Z</time>
      </trkpt>
      <trkpt lat="48.48211" lon="-3.04671">
        <ele>259</ele>
        <time>2014-04-27T12:14:43Z</time>
      </trkpt>
      <trkpt lat="48.48211" lon="-3.04668">
        <ele>260</ele>
        <time>2014-04-27T12:14:44Z</time>
      </trkpt>
      <trkpt lat="48.48211" lon="-3.04666">
        <ele>261</ele>
        <time>2014-04-27T12:14:45Z</time>
      </trkpt>
      <trkpt lat="48.4821" lon="-3.04665">
        <ele>262</ele>
        <time>2014-04-27T12:14:46Z</time>
      </trkpt>
      <trkpt lat="48.48209" lon="-3.04663">
        <ele>263</ele>
        <time>2014-04-27T12:14:47Z</time>
      </trkpt>
      <trkpt lat="48.48209" lon="-3.04661">
        <ele>263</ele>
        <time>2014-04-27T12:14:48Z</time>
      </trkpt>
      <trkpt lat="48.48208" lon="-3.04659">
        <ele>263</ele>
        <time>2014-04-27T12:14:49Z</time>
      </trkpt>
      <trkpt lat="48.48209" lon="-3.04657">
        <ele>263</ele>
        <time>2014-04-27T12:14:50Z</time>
      </trkpt>
      <trkpt lat="48.48208" lon="-3.04654">
        <ele>265</ele>
        <time>2014-04-27T12:14:52Z</time>
      </trkpt>
      <trkpt lat="48.48207" lon="-3.04653">
        <ele>266</ele>
        <time>2014-04-27T12:14:54Z</time>
      </trkpt>
      <trkpt lat="48.48206" lon="-3.04651">
        <ele>266</ele>
        <time>2014-04-27T12:14:55Z</time>
      </trkpt>
      <trkpt lat="48.48205" lon="-3.04648">
        <ele>266</ele>
        <time>2014-04-27T12:14:57Z</time>
      </trkpt>
      <trkpt lat="48.48204" lon="-3.04647">
        <ele>267</ele>
        <time>2014-04-27T12:14:59Z</time>
      </trkpt>
      <trkpt lat="48.48202" lon="-3.04647">
        <ele>267</ele>
        <time>2014-04-27T12:15:00Z</time>
      </trkpt>
      <trkpt lat="48.482" lon="-3.04646">
        <ele>267</ele>
        <time>2014-04-27T12:15:01Z</time>
      </trkpt>
      <trkpt lat="48.48199" lon="-3.04646">
        <ele>268</ele>
        <time>2014-04-27T12:15:04Z</time>
      </trkpt>
      <trkpt lat="48.48198" lon="-3.04647">
        <ele>268</ele>
        <time>2014-04-27T12:15:05Z</time>
      </trkpt>
      <trkpt lat="48.48189" lon="-3.04645">
        <ele>268</ele>
        <time>2014-04-27T12:15:13Z</time>
      </trkpt>
      <trkpt lat="48.48187" lon="-3.04644">
        <ele>269</ele>
        <time>2014-04-27T12:15:14Z</time>
      </trkpt>
      <trkpt lat="48.48185" lon="-3.04644">
        <ele>269</ele>
        <time>2014-04-27T12:15:15Z</time>
      </trkpt>
      <trkpt lat="48.48184" lon="-3.04646">
        <ele>269</ele>
        <time>2014-04-27T12:15:18Z</time>
      </trkpt>
      <trkpt lat="48.48182" lon="-3.04647">
        <ele>269</ele>
        <time>2014-04-27T12:15:20Z</time>
      </trkpt>
      <trkpt lat="48.4818" lon="-3.04645">
        <ele>269</ele>
        <time>2014-04-27T12:15:22Z</time>
      </trkpt>
      <trkpt lat="48.48179" lon="-3.04644">
        <ele>269</ele>
        <time>2014-04-27T12:15:24Z</time>
      </trkpt>
      <trkpt lat="48.48177" lon="-3.0464">
        <ele>269</ele>
        <time>2014-04-27T12:15:26Z</time>
      </trkpt>
      <trkpt lat="48.48177" lon="-3.04638">
        <ele>269</ele>
        <time>2014-04-27T12:15:27Z</time>
      </trkpt>
      <trkpt lat="48.48176" lon="-3.04638">
        <ele>269</ele>
        <time>2014-04-27T12:15:28Z</time>
      </trkpt>
      <trkpt lat="48.48174" lon="-3.04636">
        <ele>269</ele>
        <time>2014-04-27T12:15:31Z</time>
      </trkpt>
      <trkpt lat="48.48171" lon="-3.04636">
        <ele>269</ele>
        <time>2014-04-27T12:15:32Z</time>
      </trkpt>
      <trkpt lat="48.4817" lon="-3.04637">
        <ele>269</ele>
        <time>2014-04-27T12:15:33Z</time>
      </trkpt>
      <trkpt lat="48.48168" lon="-3.04639">
        <ele>268</ele>
        <time>2014-04-27T12:15:34Z</time>
      </trkpt>
      <trkpt lat="48.48166" lon="-3.04639">
        <ele>266</ele>
        <time>2014-04-27T12:15:36Z</time>
      </trkpt>
      <trkpt lat="48.48166" lon="-3.04636">
        <ele>264</ele>
        <time>2014-04-27T12:15:38Z</time>
      </trkpt>
      <trkpt lat="48.48166" lon="-3.04634">
        <ele>263</ele>
        <time>2014-04-27T12:15:40Z</time>
      </trkpt>
      <trkpt lat="48.48167" lon="-3.04632">
        <ele>263</ele>
        <time>2014-04-27T12:15:42Z</time>
      </trkpt>
      <trkpt lat="48.48162" lon="-3.04635">
        <ele>265</ele>
        <time>2014-04-27T12:15:50Z</time>
      </trkpt>
      <trkpt lat="48.48161" lon="-3.04635">
        <ele>266</ele>
        <time>2014-04-27T12:15:52Z</time>
      </trkpt>
      <trkpt lat="48.48159" lon="-3.04635">
        <ele>267</ele>
        <time>2014-04-27T12:15:53Z</time>
      </trkpt>
      <trkpt lat="48.48158" lon="-3.04635">
        <ele>267</ele>
        <time>2014-04-27T12:15:54Z</time>
      </trkpt>
      <trkpt lat="48.48157" lon="-3.04633">
        <ele>267</ele>
        <time>2014-04-27T12:15:57Z</time>
      </trkpt>
      <trkpt lat="48.48155" lon="-3.04633">
        <ele>267</ele>
        <time>2014-04-27T12:15:59Z</time>
      </trkpt>
      <trkpt lat="48.48143" lon="-3.04636">
        <ele>264</ele>
        <time>2014-04-27T12:16:10Z</time>
      </trkpt>
      <trkpt lat="48.48143" lon="-3.04635">
        <ele>264</ele>
        <time>2014-04-27T12:16:11Z</time>
      </trkpt>
      <trkpt lat="48.4814" lon="-3.04636">
        <ele>264</ele>
        <time>2014-04-27T12:16:16Z</time>
      </trkpt>
      <trkpt lat="48.48138" lon="-3.04635">
        <ele>265</ele>
        <time>2014-04-27T12:16:17Z</time>
      </trkpt>
      <trkpt lat="48.48136" lon="-3.04632">
        <ele>265</ele>
        <time>2014-04-27T12:16:19Z</time>
      </trkpt>
      <trkpt lat="48.48135" lon="-3.04631">
        <ele>265</ele>
        <time>2014-04-27T12:16:23Z</time>
      </trkpt>
      <trkpt lat="48.48133" lon="-3.04629">
        <ele>265</ele>
        <time>2014-04-27T12:16:25Z</time>
      </trkpt>
      <trkpt lat="48.4813" lon="-3.04622">
        <ele>263</ele>
        <time>2014-04-27T12:16:33Z</time>
      </trkpt>
      <trkpt lat="48.48129" lon="-3.04625">
        <ele>264</ele>
        <time>2014-04-27T12:16:37Z</time>
      </trkpt>
      <trkpt lat="48.48131" lon="-3.04624">
        <ele>265</ele>
        <time>2014-04-27T12:16:38Z</time>
      </trkpt>
      <trkpt lat="48.48132" lon="-3.04622">
        <ele>269</ele>
        <time>2014-04-27T12:16:42Z</time>
      </trkpt>
      <trkpt lat="48.48132" lon="-3.0462">
        <ele>272</ele>
        <time>2014-04-27T12:16:45Z</time>
      </trkpt>
      <trkpt lat="48.48129" lon="-3.0462">
        <ele>278</ele>
        <time>2014-04-27T12:16:53Z</time>
      </trkpt>
      <trkpt lat="48.48128" lon="-3.04621">
        <ele>278</ele>
        <time>2014-04-27T12:16:54Z</time>
      </trkpt>
      <trkpt lat="48.48127" lon="-3.04623">
        <ele>278</ele>
        <time>2014-04-27T12:16:56Z</time>
      </trkpt>
      <trkpt lat="48.48126" lon="-3.04625">
        <ele>278</ele>
        <time>2014-04-27T12:16:57Z</time>
      </trkpt>
      <trkpt lat="48.48125" lon="-3.04629">
        <ele>276</ele>
        <time>2014-04-27T12:16:59Z</time>
      </trkpt>
      <trkpt lat="48.48125" lon="-3.04631">
        <ele>275</ele>
        <time>2014-04-27T12:17:00Z</time>
      </trkpt>
      <trkpt lat="48.48123" lon="-3.04633">
        <ele>273</ele>
        <time>2014-04-27T12:17:02Z</time>
      </trkpt>
      <trkpt lat="48.48122" lon="-3.04635">
        <ele>270</ele>
        <time>2014-04-27T12:17:05Z</time>
      </trkpt>
      <trkpt lat="48.48124" lon="-3.04634">
        <ele>268</ele>
        <time>2014-04-27T12:17:07Z</time>
      </trkpt>
      <trkpt lat="48.48123" lon="-3.04635">
        <ele>260</ele>
        <time>2014-04-27T12:17:17Z</time>
      </trkpt>
      <trkpt lat="48.48124" lon="-3.04631">
        <ele>259</ele>
        <time>2014-04-27T12:17:20Z</time>
      </trkpt>
      <trkpt lat="48.48125" lon="-3.0463">
        <ele>259</ele>
        <time>2014-04-27T12:17:22Z</time>
      </trkpt>
      <trkpt lat="48.48126" lon="-3.04629">
        <ele>259</ele>
        <time>2014-04-27T12:17:23Z</time>
      </trkpt>
      <trkpt lat="48.48127" lon="-3.04628">
        <ele>259</ele>
        <time>2014-04-27T12:17:25Z</time>
      </trkpt>
      <trkpt lat="48.48126" lon="-3.04631">
        <ele>259</ele>
        <time>2014-04-27T12:17:30Z</time>
      </trkpt>
      <trkpt lat="48.48124" lon="-3.0463">
        <ele>259</ele>
        <time>2014-04-27T12:17:31Z</time>
      </trkpt>
      <trkpt lat="48.48123" lon="-3.04632">
        <ele>259</ele>
        <time>2014-04-27T12:17:32Z</time>
      </trkpt>
      <trkpt lat="48.48122" lon="-3.04634">
        <ele>259</ele>
        <time>2014-04-27T12:17:33Z</time>
      </trkpt>
      <trkpt lat="48.48123" lon="-3.04636">
        <ele>259</ele>
        <time>2014-04-27T12:17:35Z</time>
      </trkpt>
      <trkpt lat="48.48122" lon="-3.04639">
        <ele>259</ele>
        <time>2014-04-27T12:17:36Z</time>
      </trkpt>
      <trkpt lat="48.48122" lon="-3.04641">
        <ele>259</ele>
        <time>2014-04-27T12:17:38Z</time>
      </trkpt>
      <trkpt lat="48.4812" lon="-3.04643">
        <ele>258</ele>
        <time>2014-04-27T12:17:41Z</time>
      </trkpt>
      <trkpt lat="48.48121" lon="-3.04645">
        <ele>255</ele>
        <time>2014-04-27T12:17:49Z</time>
      </trkpt>
      <trkpt lat="48.48123" lon="-3.04649">
        <ele>255</ele>
        <time>2014-04-27T12:17:51Z</time>
      </trkpt>
      <trkpt lat="48.48124" lon="-3.04651">
        <ele>257</ele>
        <time>2014-04-27T12:17:53Z</time>
      </trkpt>
      <trkpt lat="48.48124" lon="-3.04653">
        <ele>258</ele>
        <time>2014-04-27T12:17:54Z</time>
      </trkpt>
      <trkpt lat="48.48123" lon="-3.04655">
        <ele>260</ele>
        <time>2014-04-27T12:17:56Z</time>
      </trkpt>
      <trkpt lat="48.48121" lon="-3.04658">
        <ele>262</ele>
        <time>2014-04-27T12:17:58Z</time>
      </trkpt>
      <trkpt lat="48.4812" lon="-3.04659">
        <ele>263</ele>
        <time>2014-04-27T12:17:59Z</time>
      </trkpt>
      <trkpt lat="48.48121" lon="-3.04661">
        <ele>267</ele>
        <time>2014-04-27T12:18:04Z</time>
      </trkpt>
      <trkpt lat="48.4812" lon="-3.0466">
        <ele>271</ele>
        <time>2014-04-27T12:18:08Z</time>
      </trkpt>
      <trkpt lat="48.4812" lon="-3.04663">
        <ele>272</ele>
        <time>2014-04-27T12:18:11Z</time>
      </trkpt>
      <trkpt lat="48.4812" lon="-3.04664">
        <ele>272</ele>
        <time>2014-04-27T12:18:12Z</time>
      </trkpt>
      <trkpt lat="48.48117" lon="-3.04669">
        <ele>272</ele>
        <time>2014-04-27T12:18:15Z</time>
      </trkpt>
      <trkpt lat="48.48117" lon="-3.04672">
        <ele>272</ele>
        <time>2014-04-27T12:18:16Z</time>
      </trkpt>
      <trkpt lat="48.48119" lon="-3.04675">
        <ele>272</ele>
        <time>2014-04-27T12:18:17Z</time>
      </trkpt>
      <trkpt lat="48.48121" lon="-3.04676">
        <ele>272</ele>
        <time>2014-04-27T12:18:18Z</time>
      </trkpt>
      <trkpt lat="48.4812" lon="-3.04677">
        <ele>272</ele>
        <time>2014-04-27T12:18:19Z</time>
      </trkpt>
      <trkpt lat="48.48118" lon="-3.0468">
        <ele>272</ele>
        <time>2014-04-27T12:18:20Z</time>
      </trkpt>
      <trkpt lat="48.4812" lon="-3.0468">
        <ele>272</ele>
        <time>2014-04-27T12:18:21Z</time>
      </trkpt>
      <trkpt lat="48.4812" lon="-3.04681">
        <ele>272</ele>
        <time>2014-04-27T12:18:22Z</time>
      </trkpt>
      <trkpt lat="48.48118" lon="-3.04685">
        <ele>272</ele>
        <time>2014-04-27T12:18:24Z</time>
      </trkpt>
      <trkpt lat="48.48117" lon="-3.04685">
        <ele>270</ele>
        <time>2014-04-27T12:18:27Z</time>
      </trkpt>
      <trkpt lat="48.48119" lon="-3.0469">
        <ele>270</ele>
        <time>2014-04-27T12:18:31Z</time>
      </trkpt>
      <trkpt lat="48.4812" lon="-3.04694">
        <ele>269</ele>
        <time>2014-04-27T12:18:32Z</time>
      </trkpt>
      <trkpt lat="48.48122" lon="-3.04697">
        <ele>269</ele>
        <time>2014-04-27T12:18:33Z</time>
      </trkpt>
      <trkpt lat="48.48123" lon="-3.04699">
        <ele>268</ele>
        <time>2014-04-27T12:18:34Z</time>
      </trkpt>
      <trkpt lat="48.48123" lon="-3.04701">
        <ele>268</ele>
        <time>2014-04-27T12:18:35Z</time>
      </trkpt>
      <trkpt lat="48.48122" lon="-3.04703">
        <ele>268</ele>
        <time>2014-04-27T12:18:36Z</time>
      </trkpt>
      <trkpt lat="48.48123" lon="-3.04706">
        <ele>268</ele>
        <time>2014-04-27T12:18:39Z</time>
      </trkpt>
      <trkpt lat="48.48123" lon="-3.04708">
        <ele>269</ele>
        <time>2014-04-27T12:18:40Z</time>
      </trkpt>
      <trkpt lat="48.48123" lon="-3.04711">
        <ele>271</ele>
        <time>2014-04-27T12:18:42Z</time>
      </trkpt>
      <trkpt lat="48.48126" lon="-3.04714">
        <ele>272</ele>
        <time>2014-04-27T12:18:48Z</time>
      </trkpt>
      <trkpt lat="48.48128" lon="-3.04713">
        <ele>272</ele>
        <time>2014-04-27T12:18:51Z</time>
      </trkpt>
      <trkpt lat="48.48129" lon="-3.04713">
        <ele>272</ele>
        <time>2014-04-27T12:18:52Z</time>
      </trkpt>
      <trkpt lat="48.4813" lon="-3.04712">
        <ele>272</ele>
        <time>2014-04-27T12:18:53Z</time>
      </trkpt>
      <trkpt lat="48.48132" lon="-3.04712">
        <ele>272</ele>
        <time>2014-04-27T12:18:54Z</time>
      </trkpt>
      <trkpt lat="48.48133" lon="-3.04714">
        <ele>272</ele>
        <time>2014-04-27T12:18:56Z</time>
      </trkpt>
      <trkpt lat="48.48136" lon="-3.04712">
        <ele>272</ele>
        <time>2014-04-27T12:19:00Z</time>
      </trkpt>
      <trkpt lat="48.48137" lon="-3.04712">
        <ele>272</ele>
        <time>2014-04-27T12:19:01Z</time>
      </trkpt>
      <trkpt lat="48.48138" lon="-3.04714">
        <ele>272</ele>
        <time>2014-04-27T12:19:02Z</time>
      </trkpt>
      <trkpt lat="48.48138" lon="-3.04716">
        <ele>272</ele>
        <time>2014-04-27T12:19:03Z</time>
      </trkpt>
      <trkpt lat="48.48139" lon="-3.04719">
        <ele>272</ele>
        <time>2014-04-27T12:19:05Z</time>
      </trkpt>
      <trkpt lat="48.48138" lon="-3.04719">
        <ele>272</ele>
        <time>2014-04-27T12:19:07Z</time>
      </trkpt>
      <trkpt lat="48.48136" lon="-3.0472">
        <ele>272</ele>
        <time>2014-04-27T12:19:08Z</time>
      </trkpt>
      <trkpt lat="48.48137" lon="-3.04722">
        <ele>272</ele>
        <time>2014-04-27T12:19:11Z</time>
      </trkpt>
      <trkpt lat="48.48139" lon="-3.04722">
        <ele>272</ele>
        <time>2014-04-27T12:19:13Z</time>
      </trkpt>
      <trkpt lat="48.48141" lon="-3.04724">
        <ele>272</ele>
        <time>2014-04-27T12:19:15Z</time>
      </trkpt>
      <trkpt lat="48.48143" lon="-3.04727">
        <ele>272</ele>
        <time>2014-04-27T12:19:16Z</time>
      </trkpt>
      <trkpt lat="48.48146" lon="-3.04729">
        <ele>272</ele>
        <time>2014-04-27T12:19:17Z</time>
      </trkpt>
      <trkpt lat="48.48149" lon="-3.0473">
        <ele>272</ele>
        <time>2014-04-27T12:19:18Z</time>
      </trkpt>
      <trkpt lat="48.48146" lon="-3.04732">
        <ele>271</ele>
        <time>2014-04-27T12:19:21Z</time>
      </trkpt>
      <trkpt lat="48.48145" lon="-3.04733">
        <ele>270</ele>
        <time>2014-04-27T12:19:22Z</time>
      </trkpt>
      <trkpt lat="48.48147" lon="-3.04733">
        <ele>268</ele>
        <time>2014-04-27T12:19:24Z</time>
      </trkpt>
      <trkpt lat="48.48148" lon="-3.04734">
        <ele>267</ele>
        <time>2014-04-27T12:19:25Z</time>
      </trkpt>
      <trkpt lat="48.48151" lon="-3.04739">
        <ele>266</ele>
        <time>2014-04-27T12:19:28Z</time>
      </trkpt>
      <trkpt lat="48.48152" lon="-3.0474">
        <ele>266</ele>
        <time>2014-04-27T12:19:29Z</time>
      </trkpt>
      <trkpt lat="48.48154" lon="-3.04741">
        <ele>266</ele>
        <time>2014-04-27T12:19:30Z</time>
      </trkpt>
      <trkpt lat="48.48155" lon="-3.04743">
        <ele>266</ele>
        <time>2014-04-27T12:19:34Z</time>
      </trkpt>
      <trkpt lat="48.48157" lon="-3.04743">
        <ele>266</ele>
        <time>2014-04-27T12:19:35Z</time>
      </trkpt>
      <trkpt lat="48.48159" lon="-3.04742">
        <ele>266</ele>
        <time>2014-04-27T12:19:37Z</time>
      </trkpt>
      <trkpt lat="48.48161" lon="-3.04741">
        <ele>266</ele>
        <time>2014-04-27T12:19:38Z</time>
      </trkpt>
      <trkpt lat="48.48163" lon="-3.04741">
        <ele>268</ele>
        <time>2014-04-27T12:19:40Z</time>
      </trkpt>
      <trkpt lat="48.48161" lon="-3.04741">
        <ele>271</ele>
        <time>2014-04-27T12:19:43Z</time>
      </trkpt>
      <trkpt lat="48.48162" lon="-3.04738">
        <ele>274</ele>
        <time>2014-04-27T12:19:45Z</time>
      </trkpt>
      <trkpt lat="48.48163" lon="-3.0474">
        <ele>275</ele>
        <time>2014-04-27T12:19:46Z</time>
      </trkpt>
      <trkpt lat="48.48162" lon="-3.04742">
        <ele>278</ele>
        <time>2014-04-27T12:19:49Z</time>
      </trkpt>
      <trkpt lat="48.48164" lon="-3.04743">
        <ele>278</ele>
        <time>2014-04-27T12:19:52Z</time>
      </trkpt>
      <trkpt lat="48.48166" lon="-3.04743">
        <ele>278</ele>
        <time>2014-04-27T12:19:54Z</time>
      </trkpt>
      <trkpt lat="48.48167" lon="-3.04744">
        <ele>278</ele>
        <time>2014-04-27T12:19:55Z</time>
      </trkpt>
      <trkpt lat="48.48165" lon="-3.04748">
        <ele>278</ele>
        <time>2014-04-27T12:19:59Z</time>
      </trkpt>
      <trkpt lat="48.48163" lon="-3.04749">
        <ele>278</ele>
        <time>2014-04-27T12:20:02Z</time>
      </trkpt>
      <trkpt lat="48.48162" lon="-3.04751">
        <ele>278</ele>
        <time>2014-04-27T12:20:03Z</time>
      </trkpt>
      <trkpt lat="48.48161" lon="-3.04749">
        <ele>278</ele>
        <time>2014-04-27T12:20:10Z</time>
      </trkpt>
      <trkpt lat="48.48159" lon="-3.04749">
        <ele>278</ele>
        <time>2014-04-27T12:20:11Z</time>
      </trkpt>
      <trkpt lat="48.48157" lon="-3.04751">
        <ele>278</ele>
        <time>2014-04-27T12:20:12Z</time>
      </trkpt>
      <trkpt lat="48.48156" lon="-3.04752">
        <ele>278</ele>
        <time>2014-04-27T12:20:14Z</time>
      </trkpt>
      <trkpt lat="48.48157" lon="-3.04754">
        <ele>278</ele>
        <time>2014-04-27T12:20:15Z</time>
      </trkpt>
      <trkpt lat="48.48157" lon="-3.04756">
        <ele>278</ele>
        <time>2014-04-27T12:20:16Z</time>
      </trkpt>
      <trkpt lat="48.48155" lon="-3.04757">
        <ele>278</ele>
        <time>2014-04-27T12:20:20Z</time>
      </trkpt>
      <trkpt lat="48.48153" lon="-3.04758">
        <ele>278</ele>
        <time>2014-04-27T12:20:23Z</time>
      </trkpt>
      <trkpt lat="48.48151" lon="-3.04759">
        <ele>277</ele>
        <time>2014-04-27T12:20:24Z</time>
      </trkpt>
      <trkpt lat="48.48149" lon="-3.04759">
        <ele>276</ele>
        <time>2014-04-27T12:20:25Z</time>
      </trkpt>
      <trkpt lat="48.48148" lon="-3.0476">
        <ele>274</ele>
        <time>2014-04-27T12:20:27Z</time>
      </trkpt>
      <trkpt lat="48.48146" lon="-3.04761">
        <ele>272</ele>
        <time>2014-04-27T12:20:30Z</time>
      </trkpt>
      <trkpt lat="48.48144" lon="-3.04761">
        <ele>271</ele>
        <time>2014-04-27T12:20:31Z</time>
      </trkpt>
      <trkpt lat="48.48145" lon="-3.04763">
        <ele>269</ele>
        <time>2014-04-27T12:20:33Z</time>
      </trkpt>
      <trkpt lat="48.48144" lon="-3.04765">
        <ele>268</ele>
        <time>2014-04-27T12:20:35Z</time>
      </trkpt>
      <trkpt lat="48.48145" lon="-3.04768">
        <ele>267</ele>
        <time>2014-04-27T12:20:38Z</time>
      </trkpt>
      <trkpt lat="48.48147" lon="-3.04769">
        <ele>267</ele>
        <time>2014-04-27T12:20:39Z</time>
      </trkpt>
      <trkpt lat="48.48151" lon="-3.04771">
        <ele>267</ele>
        <time>2014-04-27T12:20:40Z</time>
      </trkpt>
      <trkpt lat="48.48152" lon="-3.04772">
        <ele>267</ele>
        <time>2014-04-27T12:20:41Z</time>
      </trkpt>
      <trkpt lat="48.48154" lon="-3.04774">
        <ele>267</ele>
        <time>2014-04-27T12:20:42Z</time>
      </trkpt>
      <trkpt lat="48.48156" lon="-3.04774">
        <ele>267</ele>
        <time>2014-04-27T12:20:43Z</time>
      </trkpt>
      <trkpt lat="48.48157" lon="-3.04775">
        <ele>267</ele>
        <time>2014-04-27T12:20:44Z</time>
      </trkpt>
      <trkpt lat="48.48159" lon="-3.04775">
        <ele>267</ele>
        <time>2014-04-27T12:20:45Z</time>
      </trkpt>
      <trkpt lat="48.4816" lon="-3.04777">
        <ele>267</ele>
        <time>2014-04-27T12:20:46Z</time>
      </trkpt>
      <trkpt lat="48.48162" lon="-3.04777">
        <ele>267</ele>
        <time>2014-04-27T12:20:47Z</time>
      </trkpt>
      <trkpt lat="48.48164" lon="-3.04779">
        <ele>267</ele>
        <time>2014-04-27T12:20:48Z</time>
      </trkpt>
      <trkpt lat="48.48166" lon="-3.04779">
        <ele>267</ele>
        <time>2014-04-27T12:20:49Z</time>
      </trkpt>
      <trkpt lat="48.48167" lon="-3.04781">
        <ele>270</ele>
        <time>2014-04-27T12:20:52Z</time>
      </trkpt>
      <trkpt lat="48.48168" lon="-3.04784">
        <ele>271</ele>
        <time>2014-04-27T12:20:55Z</time>
      </trkpt>
      <trkpt lat="48.48166" lon="-3.04784">
        <ele>271</ele>
        <time>2014-04-27T12:20:56Z</time>
      </trkpt>
      <trkpt lat="48.48165" lon="-3.04785">
        <ele>271</ele>
        <time>2014-04-27T12:20:57Z</time>
      </trkpt>
      <trkpt lat="48.48163" lon="-3.04788">
        <ele>271</ele>
        <time>2014-04-27T12:20:59Z</time>
      </trkpt>
      <trkpt lat="48.48162" lon="-3.0479">
        <ele>271</ele>
        <time>2014-04-27T12:21:01Z</time>
      </trkpt>
      <trkpt lat="48.48163" lon="-3.04792">
        <ele>271</ele>
        <time>2014-04-27T12:21:02Z</time>
      </trkpt>
      <trkpt lat="48.48164" lon="-3.04796">
        <ele>271</ele>
        <time>2014-04-27T12:21:04Z</time>
      </trkpt>
      <trkpt lat="48.48164" lon="-3.04798">
        <ele>271</ele>
        <time>2014-04-27T12:21:05Z</time>
      </trkpt>
      <trkpt lat="48.48164" lon="-3.04801">
        <ele>271</ele>
        <time>2014-04-27T12:21:07Z</time>
      </trkpt>
      <trkpt lat="48.48165" lon="-3.04802">
        <ele>270</ele>
        <time>2014-04-27T12:21:08Z</time>
      </trkpt>
      <trkpt lat="48.48165" lon="-3.04804">
        <ele>270</ele>
        <time>2014-04-27T12:21:09Z</time>
      </trkpt>
      <trkpt lat="48.48166" lon="-3.04806">
        <ele>269</ele>
        <time>2014-04-27T12:21:10Z</time>
      </trkpt>
      <trkpt lat="48.48167" lon="-3.04808">
        <ele>269</ele>
        <time>2014-04-27T12:21:12Z</time>
      </trkpt>
      <trkpt lat="48.48169" lon="-3.04809">
        <ele>269</ele>
        <time>2014-04-27T12:21:13Z</time>
      </trkpt>
      <trkpt lat="48.4817" lon="-3.04811">
        <ele>268</ele>
        <time>2014-04-27T12:21:14Z</time>
      </trkpt>
      <trkpt lat="48.48172" lon="-3.04813">
        <ele>267</ele>
        <time>2014-04-27T12:21:17Z</time>
      </trkpt>
      <trkpt lat="48.48174" lon="-3.04815">
        <ele>267</ele>
        <time>2014-04-27T12:21:20Z</time>
      </trkpt>
      <trkpt lat="48.48174" lon="-3.04813">
        <ele>267</ele>
        <time>2014-04-27T12:21:22Z</time>
      </trkpt>
      <trkpt lat="48.48176" lon="-3.04812">
        <ele>267</ele>
        <time>2014-04-27T12:21:24Z</time>
      </trkpt>
      <trkpt lat="48.48179" lon="-3.04813">
        <ele>265</ele>
        <time>2014-04-27T12:21:27Z</time>
      </trkpt>
      <trkpt lat="48.4818" lon="-3.04815">
        <ele>264</ele>
        <time>2014-04-27T12:21:29Z</time>
      </trkpt>
      <trkpt lat="48.4818" lon="-3.04817">
        <ele>262</ele>
        <time>2014-04-27T12:21:31Z</time>
      </trkpt>
      <trkpt lat="48.48181" lon="-3.04818">
        <ele>261</ele>
        <time>2014-04-27T12:21:32Z</time>
      </trkpt>
      <trkpt lat="48.48181" lon="-3.04821">
        <ele>260</ele>
        <time>2014-04-27T12:21:34Z</time>
      </trkpt>
      <trkpt lat="48.48184" lon="-3.0482">
        <ele>260</ele>
        <time>2014-04-27T12:21:38Z</time>
      </trkpt>
      <trkpt lat="48.48201" lon="-3.04826">
        <ele>261</ele>
        <time>2014-04-27T12:21:56Z</time>
      </trkpt>
      <trkpt lat="48.48199" lon="-3.04828">
        <ele>261</ele>
        <time>2014-04-27T12:21:57Z</time>
      </trkpt>
      <trkpt lat="48.482" lon="-3.0483">
        <ele>261</ele>
        <time>2014-04-27T12:21:58Z</time>
      </trkpt>
      <trkpt lat="48.482" lon="-3.04833">
        <ele>261</ele>
        <time>2014-04-27T12:22:00Z</time>
      </trkpt>
      <trkpt lat="48.48199" lon="-3.04836">
        <ele>261</ele>
        <time>2014-04-27T12:22:02Z</time>
      </trkpt>
      <trkpt lat="48.48199" lon="-3.04839">
        <ele>261</ele>
        <time>2014-04-27T12:22:04Z</time>
      </trkpt>
      <trkpt lat="48.48199" lon="-3.04841">
        <ele>261</ele>
        <time>2014-04-27T12:22:07Z</time>
      </trkpt>
      <trkpt lat="48.48201" lon="-3.04843">
        <ele>261</ele>
        <time>2014-04-27T12:22:08Z</time>
      </trkpt>
      <trkpt lat="48.48202" lon="-3.04846">
        <ele>261</ele>
        <time>2014-04-27T12:22:10Z</time>
      </trkpt>
      <trkpt lat="48.48204" lon="-3.04849">
        <ele>261</ele>
        <time>2014-04-27T12:22:11Z</time>
      </trkpt>
      <trkpt lat="48.48203" lon="-3.04852">
        <ele>261</ele>
        <time>2014-04-27T12:22:13Z</time>
      </trkpt>
      <trkpt lat="48.48202" lon="-3.04855">
        <ele>261</ele>
        <time>2014-04-27T12:22:14Z</time>
      </trkpt>
      <trkpt lat="48.48201" lon="-3.04856">
        <ele>261</ele>
        <time>2014-04-27T12:22:15Z</time>
      </trkpt>
      <trkpt lat="48.48199" lon="-3.0486">
        <ele>261</ele>
        <time>2014-04-27T12:22:17Z</time>
      </trkpt>
      <trkpt lat="48.48196" lon="-3.04864">
        <ele>261</ele>
        <time>2014-04-27T12:22:20Z</time>
      </trkpt>
      <trkpt lat="48.48192" lon="-3.04868">
        <ele>261</ele>
        <time>2014-04-27T12:22:22Z</time>
      </trkpt>
      <trkpt lat="48.48194" lon="-3.04869">
        <ele>261</ele>
        <time>2014-04-27T12:22:23Z</time>
      </trkpt>
      <trkpt lat="48.48192" lon="-3.04872">
        <ele>263</ele>
        <time>2014-04-27T12:22:27Z</time>
      </trkpt>
      <trkpt lat="48.48191" lon="-3.04873">
        <ele>264</ele>
        <time>2014-04-27T12:22:28Z</time>
      </trkpt>
      <trkpt lat="48.48189" lon="-3.04874">
        <ele>265</ele>
        <time>2014-04-27T12:22:29Z</time>
      </trkpt>
      <trkpt lat="48.48189" lon="-3.04878">
        <ele>266</ele>
        <time>2014-04-27T12:22:31Z</time>
      </trkpt>
      <trkpt lat="48.48191" lon="-3.04878">
        <ele>266</ele>
        <time>2014-04-27T12:22:32Z</time>
      </trkpt>
      <trkpt lat="48.48192" lon="-3.0488">
        <ele>266</ele>
        <time>2014-04-27T12:22:33Z</time>
      </trkpt>
      <trkpt lat="48.48194" lon="-3.04882">
        <ele>266</ele>
        <time>2014-04-27T12:22:34Z</time>
      </trkpt>
      <trkpt lat="48.48196" lon="-3.04884">
        <ele>266</ele>
        <time>2014-04-27T12:22:36Z</time>
      </trkpt>
      <trkpt lat="48.48196" lon="-3.04887">
        <ele>266</ele>
        <time>2014-04-27T12:22:38Z</time>
      </trkpt>
      <trkpt lat="48.48197" lon="-3.04889">
        <ele>266</ele>
        <time>2014-04-27T12:22:39Z</time>
      </trkpt>
      <trkpt lat="48.48197" lon="-3.04891">
        <ele>266</ele>
        <time>2014-04-27T12:22:40Z</time>
      </trkpt>
      <trkpt lat="48.48199" lon="-3.04893">
        <ele>266</ele>
        <time>2014-04-27T12:22:41Z</time>
      </trkpt>
      <trkpt lat="48.48201" lon="-3.04895">
        <ele>266</ele>
        <time>2014-04-27T12:22:43Z</time>
      </trkpt>
      <trkpt lat="48.48203" lon="-3.04898">
        <ele>266</ele>
        <time>2014-04-27T12:22:44Z</time>
      </trkpt>
      <trkpt lat="48.48205" lon="-3.04899">
        <ele>266</ele>
        <time>2014-04-27T12:22:45Z</time>
      </trkpt>
      <trkpt lat="48.48207" lon="-3.049">
        <ele>267</ele>
        <time>2014-04-27T12:22:47Z</time>
      </trkpt>
      <trkpt lat="48.48209" lon="-3.04901">
        <ele>267</ele>
        <time>2014-04-27T12:22:48Z</time>
      </trkpt>
      <trkpt lat="48.4821" lon="-3.04901">
        <ele>268</ele>
        <time>2014-04-27T12:22:49Z</time>
      </trkpt>
      <trkpt lat="48.48211" lon="-3.04903">
        <ele>271</ele>
        <time>2014-04-27T12:22:52Z</time>
      </trkpt>
      <trkpt lat="48.48211" lon="-3.04913">
        <ele>271</ele>
        <time>2014-04-27T12:22:59Z</time>
      </trkpt>
      <trkpt lat="48.4821" lon="-3.04914">
        <ele>271</ele>
        <time>2014-04-27T12:23:00Z</time>
      </trkpt>
      <trkpt lat="48.48208" lon="-3.04914">
        <ele>271</ele>
        <time>2014-04-27T12:23:01Z</time>
      </trkpt>
      <trkpt lat="48.48206" lon="-3.04914">
        <ele>270</ele>
        <time>2014-04-27T12:23:03Z</time>
      </trkpt>
      <trkpt lat="48.48206" lon="-3.04916">
        <ele>268</ele>
        <time>2014-04-27T12:23:05Z</time>
      </trkpt>
      <trkpt lat="48.48206" lon="-3.04919">
        <ele>267</ele>
        <time>2014-04-27T12:23:08Z</time>
      </trkpt>
      <trkpt lat="48.48207" lon="-3.04923">
        <ele>267</ele>
        <time>2014-04-27T12:23:09Z</time>
      </trkpt>
      <trkpt lat="48.48207" lon="-3.04926">
        <ele>267</ele>
        <time>2014-04-27T12:23:10Z</time>
      </trkpt>
      <trkpt lat="48.48208" lon="-3.04927">
        <ele>267</ele>
        <time>2014-04-27T12:23:11Z</time>
      </trkpt>
      <trkpt lat="48.48208" lon="-3.04929">
        <ele>267</ele>
        <time>2014-04-27T12:23:12Z</time>
      </trkpt>
      <trkpt lat="48.48207" lon="-3.0493">
        <ele>267</ele>
        <time>2014-04-27T12:23:13Z</time>
      </trkpt>
      <trkpt lat="48.48206" lon="-3.04933">
        <ele>267</ele>
        <time>2014-04-27T12:23:15Z</time>
      </trkpt>
      <trkpt lat="48.48208" lon="-3.04934">
        <ele>268</ele>
        <time>2014-04-27T12:23:16Z</time>
      </trkpt>
      <trkpt lat="48.48209" lon="-3.04934">
        <ele>269</ele>
        <time>2014-04-27T12:23:17Z</time>
      </trkpt>
      <trkpt lat="48.48211" lon="-3.04937">
        <ele>271</ele>
        <time>2014-04-27T12:23:19Z</time>
      </trkpt>
      <trkpt lat="48.48211" lon="-3.04939">
        <ele>272</ele>
        <time>2014-04-27T12:23:21Z</time>
      </trkpt>
      <trkpt lat="48.4821" lon="-3.04941">
        <ele>272</ele>
        <time>2014-04-27T12:23:22Z</time>
      </trkpt>
      <trkpt lat="48.48209" lon="-3.04942">
        <ele>272</ele>
        <time>2014-04-27T12:23:23Z</time>
      </trkpt>
      <trkpt lat="48.4821" lon="-3.04945">
        <ele>272</ele>
        <time>2014-04-27T12:23:26Z</time>
      </trkpt>
      <trkpt lat="48.48211" lon="-3.04947">
        <ele>272</ele>
        <time>2014-04-27T12:23:28Z</time>
      </trkpt>
      <trkpt lat="48.48212" lon="-3.04949">
        <ele>272</ele>
        <time>2014-04-27T12:23:29Z</time>
      </trkpt>
      <trkpt lat="48.48213" lon="-3.0495">
        <ele>272</ele>
        <time>2014-04-27T12:23:31Z</time>
      </trkpt>
      <trkpt lat="48.48212" lon="-3.04951">
        <ele>270</ele>
        <time>2014-04-27T12:23:33Z</time>
      </trkpt>
      <trkpt lat="48.48211" lon="-3.04952">
        <ele>269</ele>
        <time>2014-04-27T12:23:34Z</time>
      </trkpt>
      <trkpt lat="48.48209" lon="-3.04954">
        <ele>268</ele>
        <time>2014-04-27T12:23:35Z</time>
      </trkpt>
      <trkpt lat="48.48209" lon="-3.04957">
        <ele>267</ele>
        <time>2014-04-27T12:23:36Z</time>
      </trkpt>
      <trkpt lat="48.48209" lon="-3.04959">
        <ele>266</ele>
        <time>2014-04-27T12:23:37Z</time>
      </trkpt>
      <trkpt lat="48.48211" lon="-3.0496">
        <ele>264</ele>
        <time>2014-04-27T12:23:39Z</time>
      </trkpt>
      <trkpt lat="48.48212" lon="-3.04962">
        <ele>263</ele>
        <time>2014-04-27T12:23:40Z</time>
      </trkpt>
      <trkpt lat="48.48212" lon="-3.04963">
        <ele>262</ele>
        <time>2014-04-27T12:23:41Z</time>
      </trkpt>
      <trkpt lat="48.4821" lon="-3.04965">
        <ele>261</ele>
        <time>2014-04-27T12:23:42Z</time>
      </trkpt>
      <trkpt lat="48.48209" lon="-3.04965">
        <ele>259</ele>
        <time>2014-04-27T12:23:44Z</time>
      </trkpt>
      <trkpt lat="48.48207" lon="-3.04963">
        <ele>256</ele>
        <time>2014-04-27T12:23:47Z</time>
      </trkpt>
      <trkpt lat="48.48206" lon="-3.04961">
        <ele>255</ele>
        <time>2014-04-27T12:23:48Z</time>
      </trkpt>
      <trkpt lat="48.48204" lon="-3.04961">
        <ele>255</ele>
        <time>2014-04-27T12:23:49Z</time>
      </trkpt>
      <trkpt lat="48.48201" lon="-3.04962">
        <ele>254</ele>
        <time>2014-04-27T12:23:51Z</time>
      </trkpt>
      <trkpt lat="48.48199" lon="-3.04962">
        <ele>253</ele>
        <time>2014-04-27T12:23:53Z</time>
      </trkpt>
      <trkpt lat="48.48198" lon="-3.04959">
        <ele>253</ele>
        <time>2014-04-27T12:23:55Z</time>
      </trkpt>
      <trkpt lat="48.48199" lon="-3.04956">
        <ele>253</ele>
        <time>2014-04-27T12:24:00Z</time>
      </trkpt>
      <trkpt lat="48.48197" lon="-3.04956">
        <ele>253</ele>
        <time>2014-04-27T12:24:03Z</time>
      </trkpt>
      <trkpt lat="48.48196" lon="-3.04955">
        <ele>253</ele>
        <time>2014-04-27T12:24:04Z</time>
      </trkpt>
      <trkpt lat="48.48194" lon="-3.04954">
        <ele>253</ele>
        <time>2014-04-27T12:24:05Z</time>
      </trkpt>
      <trkpt lat="48.48192" lon="-3.04954">
        <ele>254</ele>
        <time>2014-04-27T12:24:09Z</time>
      </trkpt>
      <trkpt lat="48.48189" lon="-3.04955">
        <ele>255</ele>
        <time>2014-04-27T12:24:12Z</time>
      </trkpt>
      <trkpt lat="48.48186" lon="-3.04955">
        <ele>255</ele>
        <time>2014-04-27T12:24:13Z</time>
      </trkpt>
      <trkpt lat="48.48177" lon="-3.04959">
        <ele>256</ele>
        <time>2014-04-27T12:24:21Z</time>
      </trkpt>
      <trkpt lat="48.48176" lon="-3.04964">
        <ele>256</ele>
        <time>2014-04-27T12:24:22Z</time>
      </trkpt>
      <trkpt lat="48.48177" lon="-3.04967">
        <ele>256</ele>
        <time>2014-04-27T12:24:24Z</time>
      </trkpt>
      <trkpt lat="48.48177" lon="-3.04969">
        <ele>256</ele>
        <time>2014-04-27T12:24:25Z</time>
      </trkpt>
      <trkpt lat="48.48179" lon="-3.0497">
        <ele>257</ele>
        <time>2014-04-27T12:24:29Z</time>
      </trkpt>
      <trkpt lat="48.4818" lon="-3.04973">
        <ele>260</ele>
        <time>2014-04-27T12:24:32Z</time>
      </trkpt>
      <trkpt lat="48.4818" lon="-3.04976">
        <ele>260</ele>
        <time>2014-04-27T12:24:34Z</time>
      </trkpt>
      <trkpt lat="48.48179" lon="-3.04978">
        <ele>260</ele>
        <time>2014-04-27T12:24:35Z</time>
      </trkpt>
      <trkpt lat="48.48179" lon="-3.04979">
        <ele>260</ele>
        <time>2014-04-27T12:24:36Z</time>
      </trkpt>
      <trkpt lat="48.48178" lon="-3.04982">
        <ele>260</ele>
        <time>2014-04-27T12:24:39Z</time>
      </trkpt>
      <trkpt lat="48.48179" lon="-3.04984">
        <ele>260</ele>
        <time>2014-04-27T12:24:40Z</time>
      </trkpt>
      <trkpt lat="48.48177" lon="-3.04986">
        <ele>260</ele>
        <time>2014-04-27T12:24:43Z</time>
      </trkpt>
      <trkpt lat="48.48175" lon="-3.04987">
        <ele>260</ele>
        <time>2014-04-27T12:24:44Z</time>
      </trkpt>
      <trkpt lat="48.48173" lon="-3.04987">
        <ele>260</ele>
        <time>2014-04-27T12:24:46Z</time>
      </trkpt>
      <trkpt lat="48.48171" lon="-3.04986">
        <ele>260</ele>
        <time>2014-04-27T12:24:49Z</time>
      </trkpt>
      <trkpt lat="48.48169" lon="-3.04988">
        <ele>260</ele>
        <time>2014-04-27T12:24:51Z</time>
      </trkpt>
      <trkpt lat="48.48168" lon="-3.0499">
        <ele>259</ele>
        <time>2014-04-27T12:24:52Z</time>
      </trkpt>
      <trkpt lat="48.48166" lon="-3.04991">
        <ele>257</ele>
        <time>2014-04-27T12:24:54Z</time>
      </trkpt>
      <trkpt lat="48.48165" lon="-3.04994">
        <ele>257</ele>
        <time>2014-04-27T12:24:57Z</time>
      </trkpt>
      <trkpt lat="48.48165" lon="-3.04998">
        <ele>257</ele>
        <time>2014-04-27T12:24:59Z</time>
      </trkpt>
      <trkpt lat="48.48164" lon="-3.05">
        <ele>257</ele>
        <time>2014-04-27T12:25:00Z</time>
      </trkpt>
      <trkpt lat="48.48163" lon="-3.05002">
        <ele>257</ele>
        <time>2014-04-27T12:25:02Z</time>
      </trkpt>
      <trkpt lat="48.48162" lon="-3.05004">
        <ele>256</ele>
        <time>2014-04-27T12:25:03Z</time>
      </trkpt>
      <trkpt lat="48.48161" lon="-3.05007">
        <ele>256</ele>
        <time>2014-04-27T12:25:04Z</time>
      </trkpt>
      <trkpt lat="48.4816" lon="-3.05009">
        <ele>256</ele>
        <time>2014-04-27T12:25:06Z</time>
      </trkpt>
      <trkpt lat="48.48159" lon="-3.05011">
        <ele>256</ele>
        <time>2014-04-27T12:25:10Z</time>
      </trkpt>
      <trkpt lat="48.48159" lon="-3.05014">
        <ele>255</ele>
        <time>2014-04-27T12:25:12Z</time>
      </trkpt>
      <trkpt lat="48.48159" lon="-3.05016">
        <ele>255</ele>
        <time>2014-04-27T12:25:13Z</time>
      </trkpt>
      <trkpt lat="48.48158" lon="-3.05018">
        <ele>254</ele>
        <time>2014-04-27T12:25:15Z</time>
      </trkpt>
      <trkpt lat="48.48156" lon="-3.0502">
        <ele>253</ele>
        <time>2014-04-27T12:25:18Z</time>
      </trkpt>
      <trkpt lat="48.48155" lon="-3.05021">
        <ele>252</ele>
        <time>2014-04-27T12:25:20Z</time>
      </trkpt>
      <trkpt lat="48.48155" lon="-3.05023">
        <ele>252</ele>
        <time>2014-04-27T12:25:22Z</time>
      </trkpt>
      <trkpt lat="48.48153" lon="-3.05024">
        <ele>252</ele>
        <time>2014-04-27T12:25:23Z</time>
      </trkpt>
      <trkpt lat="48.48151" lon="-3.05025">
        <ele>252</ele>
        <time>2014-04-27T12:25:24Z</time>
      </trkpt>
      <trkpt lat="48.48149" lon="-3.05026">
        <ele>252</ele>
        <time>2014-04-27T12:25:25Z</time>
      </trkpt>
      <trkpt lat="48.48147" lon="-3.05027">
        <ele>252</ele>
        <time>2014-04-27T12:25:26Z</time>
      </trkpt>
      <trkpt lat="48.48146" lon="-3.05028">
        <ele>252</ele>
        <time>2014-04-27T12:25:27Z</time>
      </trkpt>
      <trkpt lat="48.48144" lon="-3.05031">
        <ele>252</ele>
        <time>2014-04-27T12:25:30Z</time>
      </trkpt>
      <trkpt lat="48.48142" lon="-3.05032">
        <ele>252</ele>
        <time>2014-04-27T12:25:31Z</time>
      </trkpt>
      <trkpt lat="48.48141" lon="-3.05035">
        <ele>252</ele>
        <time>2014-04-27T12:25:33Z</time>
      </trkpt>
      <trkpt lat="48.4814" lon="-3.05038">
        <ele>252</ele>
        <time>2014-04-27T12:25:35Z</time>
      </trkpt>
      <trkpt lat="48.48139" lon="-3.0504">
        <ele>252</ele>
        <time>2014-04-27T12:25:37Z</time>
      </trkpt>
      <trkpt lat="48.4814" lon="-3.05043">
        <ele>252</ele>
        <time>2014-04-27T12:25:39Z</time>
      </trkpt>
      <trkpt lat="48.48139" lon="-3.05045">
        <ele>252</ele>
        <time>2014-04-27T12:25:40Z</time>
      </trkpt>
      <trkpt lat="48.48138" lon="-3.05049">
        <ele>252</ele>
        <time>2014-04-27T12:25:42Z</time>
      </trkpt>
      <trkpt lat="48.48139" lon="-3.0505">
        <ele>252</ele>
        <time>2014-04-27T12:25:43Z</time>
      </trkpt>
      <trkpt lat="48.48141" lon="-3.05053">
        <ele>252</ele>
        <time>2014-04-27T12:25:45Z</time>
      </trkpt>
      <trkpt lat="48.48141" lon="-3.05055">
        <ele>252</ele>
        <time>2014-04-27T12:25:46Z</time>
      </trkpt>
      <trkpt lat="48.4814" lon="-3.05058">
        <ele>253</ele>
        <time>2014-04-27T12:25:48Z</time>
      </trkpt>
      <trkpt lat="48.4814" lon="-3.05061">
        <ele>253</ele>
        <time>2014-04-27T12:25:50Z</time>
      </trkpt>
      <trkpt lat="48.4814" lon="-3.05064">
        <ele>253</ele>
        <time>2014-04-27T12:25:52Z</time>
      </trkpt>
      <trkpt lat="48.48141" lon="-3.05067">
        <ele>253</ele>
        <time>2014-04-27T12:25:54Z</time>
      </trkpt>
      <trkpt lat="48.48141" lon="-3.0507">
        <ele>253</ele>
        <time>2014-04-27T12:25:56Z</time>
      </trkpt>
      <trkpt lat="48.48142" lon="-3.05072">
        <ele>253</ele>
        <time>2014-04-27T12:25:58Z</time>
      </trkpt>
      <trkpt lat="48.48142" lon="-3.05074">
        <ele>253</ele>
        <time>2014-04-27T12:26:00Z</time>
      </trkpt>
      <trkpt lat="48.48143" lon="-3.05077">
        <ele>253</ele>
        <time>2014-04-27T12:26:02Z</time>
      </trkpt>
      <trkpt lat="48.48143" lon="-3.0508">
        <ele>253</ele>
        <time>2014-04-27T12:26:04Z</time>
      </trkpt>
      <trkpt lat="48.48143" lon="-3.05081">
        <ele>253</ele>
        <time>2014-04-27T12:26:05Z</time>
      </trkpt>
      <trkpt lat="48.48143" lon="-3.05083">
        <ele>253</ele>
        <time>2014-04-27T12:26:06Z</time>
      </trkpt>
      <trkpt lat="48.48144" lon="-3.05086">
        <ele>253</ele>
        <time>2014-04-27T12:26:08Z</time>
      </trkpt>
      <trkpt lat="48.48145" lon="-3.05088">
        <ele>252</ele>
        <time>2014-04-27T12:26:10Z</time>
      </trkpt>
      <trkpt lat="48.48145" lon="-3.0509">
        <ele>252</ele>
        <time>2014-04-27T12:26:12Z</time>
      </trkpt>
      <trkpt lat="48.48146" lon="-3.05093">
        <ele>251</ele>
        <time>2014-04-27T12:26:14Z</time>
      </trkpt>
      <trkpt lat="48.48147" lon="-3.05096">
        <ele>251</ele>
        <time>2014-04-27T12:26:16Z</time>
      </trkpt>
      <trkpt lat="48.48147" lon="-3.05098">
        <ele>251</ele>
        <time>2014-04-27T12:26:17Z</time>
      </trkpt>
      <trkpt lat="48.48147" lon="-3.051">
        <ele>251</ele>
        <time>2014-04-27T12:26:18Z</time>
      </trkpt>
      <trkpt lat="48.48148" lon="-3.05103">
        <ele>251</ele>
        <time>2014-04-27T12:26:20Z</time>
      </trkpt>
      <trkpt lat="48.48148" lon="-3.05105">
        <ele>251</ele>
        <time>2014-04-27T12:26:21Z</time>
      </trkpt>
      <trkpt lat="48.48148" lon="-3.05107">
        <ele>251</ele>
        <time>2014-04-27T12:26:22Z</time>
      </trkpt>
      <trkpt lat="48.48148" lon="-3.05108">
        <ele>251</ele>
        <time>2014-04-27T12:26:23Z</time>
      </trkpt>
      <trkpt lat="48.48149" lon="-3.0511">
        <ele>251</ele>
        <time>2014-04-27T12:26:24Z</time>
      </trkpt>
      <trkpt lat="48.48149" lon="-3.05112">
        <ele>251</ele>
        <time>2014-04-27T12:26:25Z</time>
      </trkpt>
      <trkpt lat="48.4815" lon="-3.05114">
        <ele>251</ele>
        <time>2014-04-27T12:26:28Z</time>
      </trkpt>
      <trkpt lat="48.4815" lon="-3.05116">
        <ele>251</ele>
        <time>2014-04-27T12:26:29Z</time>
      </trkpt>
      <trkpt lat="48.4815" lon="-3.05117">
        <ele>251</ele>
        <time>2014-04-27T12:26:31Z</time>
      </trkpt>
      <trkpt lat="48.4815" lon="-3.0512">
        <ele>251</ele>
        <time>2014-04-27T12:26:33Z</time>
      </trkpt>
      <trkpt lat="48.4815" lon="-3.05122">
        <ele>251</ele>
        <time>2014-04-27T12:26:35Z</time>
      </trkpt>
      <trkpt lat="48.4815" lon="-3.05124">
        <ele>251</ele>
        <time>2014-04-27T12:26:37Z</time>
      </trkpt>
      <trkpt lat="48.48148" lon="-3.05124">
        <ele>246</ele>
        <time>2014-04-27T12:27:13Z</time>
      </trkpt>
      <trkpt lat="48.48148" lon="-3.05126">
        <ele>246</ele>
        <time>2014-04-27T12:27:42Z</time>
      </trkpt>
      <trkpt lat="48.48148" lon="-3.05128">
        <ele>246</ele>
        <time>2014-04-27T12:27:52Z</time>
      </trkpt>
      <trkpt lat="48.48149" lon="-3.05129">
        <ele>246</ele>
        <time>2014-04-27T12:27:58Z</time>
      </trkpt>
      <trkpt lat="48.48151" lon="-3.05128">
        <ele>246</ele>
        <time>2014-04-27T12:28:01Z</time>
      </trkpt>
      <trkpt lat="48.48152" lon="-3.05127">
        <ele>246</ele>
        <time>2014-04-27T12:28:04Z</time>
      </trkpt>
      <trkpt lat="48.48153" lon="-3.05128">
        <ele>246</ele>
        <time>2014-04-27T12:28:06Z</time>
      </trkpt>
      <trkpt lat="48.48153" lon="-3.0513">
        <ele>247</ele>
        <time>2014-04-27T12:28:09Z</time>
      </trkpt>
      <trkpt lat="48.48152" lon="-3.05129">
        <ele>247</ele>
        <time>2014-04-27T12:28:13Z</time>
      </trkpt>
      <trkpt lat="48.48152" lon="-3.0513">
        <ele>247</ele>
        <time>2014-04-27T12:28:32Z</time>
      </trkpt>
      <trkpt lat="48.48153" lon="-3.05132">
        <ele>247</ele>
        <time>2014-04-27T12:28:35Z</time>
      </trkpt>
      <trkpt lat="48.48152" lon="-3.0513">
        <ele>246</ele>
        <time>2014-04-27T12:28:55Z</time>
      </trkpt>
      <trkpt lat="48.48151" lon="-3.0513">
        <ele>244</ele>
        <time>2014-04-27T12:29:01Z</time>
      </trkpt>
      <trkpt lat="48.4815" lon="-3.0513">
        <ele>243</ele>
        <time>2014-04-27T12:29:10Z</time>
      </trkpt>
      <trkpt lat="48.4815" lon="-3.05132">
        <ele>243</ele>
        <time>2014-04-27T12:29:14Z</time>
      </trkpt>
      <trkpt lat="48.48151" lon="-3.05134">
        <ele>243</ele>
        <time>2014-04-27T12:29:18Z</time>
      </trkpt>
      <trkpt lat="48.4815" lon="-3.05136">
        <ele>243</ele>
        <time>2014-04-27T12:29:27Z</time>
      </trkpt>
      <trkpt lat="48.4815" lon="-3.05137">
        <ele>243</ele>
        <time>2014-04-27T12:29:30Z</time>
      </trkpt>
      <trkpt lat="48.48151" lon="-3.0514">
        <ele>243</ele>
        <time>2014-04-27T12:29:40Z</time>
      </trkpt>
      <trkpt lat="48.48152" lon="-3.0514">
        <ele>243</ele>
        <time>2014-04-27T12:29:45Z</time>
      </trkpt>
      <trkpt lat="48.48151" lon="-3.05138">
        <ele>245</ele>
        <time>2014-04-27T12:30:03Z</time>
      </trkpt>
      <trkpt lat="48.48152" lon="-3.05139">
        <ele>245</ele>
        <time>2014-04-27T12:30:44Z</time>
      </trkpt>
      <trkpt lat="48.48153" lon="-3.0514">
        <ele>245</ele>
        <time>2014-04-27T12:30:49Z</time>
      </trkpt>
      <trkpt lat="48.48152" lon="-3.05139">
        <ele>245</ele>
        <time>2014-04-27T12:31:04Z</time>
      </trkpt>
      <trkpt lat="48.48151" lon="-3.05137">
        <ele>245</ele>
        <time>2014-04-27T12:31:13Z</time>
      </trkpt>
      <trkpt lat="48.48152" lon="-3.05138">
        <ele>245</ele>
        <time>2014-04-27T12:31:31Z</time>
      </trkpt>
      <trkpt lat="48.48152" lon="-3.0514">
        <ele>245</ele>
        <time>2014-04-27T12:31:55Z</time>
      </trkpt>
      <trkpt lat="48.48151" lon="-3.0514">
        <ele>244</ele>
        <time>2014-04-27T12:32:02Z</time>
      </trkpt>
      <trkpt lat="48.48149" lon="-3.0514">
        <ele>244</ele>
        <time>2014-04-27T12:32:08Z</time>
      </trkpt>
      <trkpt lat="48.48149" lon="-3.05142">
        <ele>247</ele>
        <time>2014-04-27T12:32:25Z</time>
      </trkpt>
      <trkpt lat="48.48147" lon="-3.05142">
        <ele>249</ele>
        <time>2014-04-27T12:32:28Z</time>
      </trkpt>
      <trkpt lat="48.48148" lon="-3.0514">
        <ele>249</ele>
        <time>2014-04-27T12:32:32Z</time>
      </trkpt>
      <trkpt lat="48.48149" lon="-3.05138">
        <ele>250</ele>
        <time>2014-04-27T12:32:34Z</time>
      </trkpt>
      <trkpt lat="48.4815" lon="-3.05136">
        <ele>251</ele>
        <time>2014-04-27T12:32:36Z</time>
      </trkpt>
      <trkpt lat="48.48149" lon="-3.05138">
        <ele>251</ele>
        <time>2014-04-27T12:32:51Z</time>
      </trkpt>
      <trkpt lat="48.4815" lon="-3.05137">
        <ele>251</ele>
        <time>2014-04-27T12:32:52Z</time>
      </trkpt>
      <trkpt lat="48.48151" lon="-3.05137">
        <ele>251</ele>
        <time>2014-04-27T12:32:54Z</time>
      </trkpt>
      <trkpt lat="48.48153" lon="-3.05138">
        <ele>251</ele>
        <time>2014-04-27T12:32:58Z</time>
      </trkpt>
      <trkpt lat="48.48151" lon="-3.05137">
        <ele>250</ele>
        <time>2014-04-27T12:33:06Z</time>
      </trkpt>
      <trkpt lat="48.4815" lon="-3.05138">
        <ele>250</ele>
        <time>2014-04-27T12:33:38Z</time>
      </trkpt>
      <trkpt lat="48.48149" lon="-3.05137">
        <ele>250</ele>
        <time>2014-04-27T12:34:04Z</time>
      </trkpt>
      <trkpt lat="48.48147" lon="-3.05136">
        <ele>250</ele>
        <time>2014-04-27T12:34:38Z</time>
      </trkpt>
      <trkpt lat="48.48148" lon="-3.05137">
        <ele>250</ele>
        <time>2014-04-27T12:34:45Z</time>
      </trkpt>
      <trkpt lat="48.4815" lon="-3.05138">
        <ele>250</ele>
        <time>2014-04-27T12:34:58Z</time>
      </trkpt>
      <trkpt lat="48.48151" lon="-3.0514">
        <ele>250</ele>
        <time>2014-04-27T12:35:12Z</time>
      </trkpt>
      <trkpt lat="48.4815" lon="-3.05138">
        <ele>252</ele>
        <time>2014-04-27T12:35:25Z</time>
      </trkpt>
      <trkpt lat="48.48149" lon="-3.05137">
        <ele>254</ele>
        <time>2014-04-27T12:35:39Z</time>
      </trkpt>
      <trkpt lat="48.48148" lon="-3.05138">
        <ele>254</ele>
        <time>2014-04-27T12:35:46Z</time>
      </trkpt>
      <trkpt lat="48.48147" lon="-3.0514">
        <ele>254</ele>
        <time>2014-04-27T12:35:48Z</time>
      </trkpt>
      <trkpt lat="48.48146" lon="-3.05141">
        <ele>254</ele>
        <time>2014-04-27T12:35:49Z</time>
      </trkpt>
      <trkpt lat="48.48145" lon="-3.05141">
        <ele>254</ele>
        <time>2014-04-27T12:35:51Z</time>
      </trkpt>
      <trkpt lat="48.48144" lon="-3.05142">
        <ele>252</ele>
        <time>2014-04-27T12:35:54Z</time>
      </trkpt>
      <trkpt lat="48.48142" lon="-3.05142">
        <ele>251</ele>
        <time>2014-04-27T12:35:56Z</time>
      </trkpt>
      <trkpt lat="48.48142" lon="-3.05144">
        <ele>250</ele>
        <time>2014-04-27T12:35:58Z</time>
      </trkpt>
      <trkpt lat="48.48141" lon="-3.05147">
        <ele>249</ele>
        <time>2014-04-27T12:36:00Z</time>
      </trkpt>
      <trkpt lat="48.48139" lon="-3.05148">
        <ele>249</ele>
        <time>2014-04-27T12:36:03Z</time>
      </trkpt>
      <trkpt lat="48.48138" lon="-3.05149">
        <ele>249</ele>
        <time>2014-04-27T12:36:06Z</time>
      </trkpt>
      <trkpt lat="48.48137" lon="-3.0515">
        <ele>249</ele>
        <time>2014-04-27T12:36:08Z</time>
      </trkpt>
      <trkpt lat="48.48135" lon="-3.05152">
        <ele>249</ele>
        <time>2014-04-27T12:36:10Z</time>
      </trkpt>
      <trkpt lat="48.48133" lon="-3.05153">
        <ele>249</ele>
        <time>2014-04-27T12:36:12Z</time>
      </trkpt>
      <trkpt lat="48.48132" lon="-3.05154">
        <ele>249</ele>
        <time>2014-04-27T12:36:14Z</time>
      </trkpt>
      <trkpt lat="48.4813" lon="-3.05155">
        <ele>248</ele>
        <time>2014-04-27T12:36:16Z</time>
      </trkpt>
      <trkpt lat="48.48129" lon="-3.05156">
        <ele>248</ele>
        <time>2014-04-27T12:36:18Z</time>
      </trkpt>
      <trkpt lat="48.48127" lon="-3.05158">
        <ele>247</ele>
        <time>2014-04-27T12:36:21Z</time>
      </trkpt>
      <trkpt lat="48.48126" lon="-3.05159">
        <ele>247</ele>
        <time>2014-04-27T12:36:23Z</time>
      </trkpt>
      <trkpt lat="48.48125" lon="-3.05159">
        <ele>246</ele>
        <time>2014-04-27T12:36:26Z</time>
      </trkpt>
      <trkpt lat="48.48124" lon="-3.05158">
        <ele>246</ele>
        <time>2014-04-27T12:36:31Z</time>
      </trkpt>
      <trkpt lat="48.48123" lon="-3.05157">
        <ele>246</ele>
        <time>2014-04-27T12:36:33Z</time>
      </trkpt>
      <trkpt lat="48.48121" lon="-3.05157">
        <ele>246</ele>
        <time>2014-04-27T12:36:35Z</time>
      </trkpt>
      <trkpt lat="48.48119" lon="-3.05155">
        <ele>246</ele>
        <time>2014-04-27T12:36:37Z</time>
      </trkpt>
      <trkpt lat="48.48118" lon="-3.05152">
        <ele>246</ele>
        <time>2014-04-27T12:36:40Z</time>
      </trkpt>
      <trkpt lat="48.48119" lon="-3.0515">
        <ele>246</ele>
        <time>2014-04-27T12:36:42Z</time>
      </trkpt>
      <trkpt lat="48.48119" lon="-3.05148">
        <ele>246</ele>
        <time>2014-04-27T12:36:44Z</time>
      </trkpt>
      <trkpt lat="48.48119" lon="-3.05145">
        <ele>246</ele>
        <time>2014-04-27T12:36:46Z</time>
      </trkpt>
      <trkpt lat="48.48118" lon="-3.05142">
        <ele>246</ele>
        <time>2014-04-27T12:36:48Z</time>
      </trkpt>
      <trkpt lat="48.48118" lon="-3.0514">
        <ele>246</ele>
        <time>2014-04-27T12:36:50Z</time>
      </trkpt>
      <trkpt lat="48.48117" lon="-3.05138">
        <ele>246</ele>
        <time>2014-04-27T12:36:51Z</time>
      </trkpt>
      <trkpt lat="48.48117" lon="-3.05135">
        <ele>246</ele>
        <time>2014-04-27T12:36:53Z</time>
      </trkpt>
      <trkpt lat="48.48116" lon="-3.05133">
        <ele>246</ele>
        <time>2014-04-27T12:36:55Z</time>
      </trkpt>
      <trkpt lat="48.48116" lon="-3.05131">
        <ele>246</ele>
        <time>2014-04-27T12:36:57Z</time>
      </trkpt>
      <trkpt lat="48.48114" lon="-3.05128">
        <ele>246</ele>
        <time>2014-04-27T12:36:59Z</time>
      </trkpt>
      <trkpt lat="48.48114" lon="-3.05126">
        <ele>246</ele>
        <time>2014-04-27T12:37:00Z</time>
      </trkpt>
      <trkpt lat="48.48114" lon="-3.05124">
        <ele>246</ele>
        <time>2014-04-27T12:37:02Z</time>
      </trkpt>
      <trkpt lat="48.48113" lon="-3.05121">
        <ele>246</ele>
        <time>2014-04-27T12:37:04Z</time>
      </trkpt>
      <trkpt lat="48.48113" lon="-3.05119">
        <ele>246</ele>
        <time>2014-04-27T12:37:05Z</time>
      </trkpt>
      <trkpt lat="48.48113" lon="-3.05117">
        <ele>246</ele>
        <time>2014-04-27T12:37:06Z</time>
      </trkpt>
      <trkpt lat="48.48113" lon="-3.05114">
        <ele>246</ele>
        <time>2014-04-27T12:37:08Z</time>
      </trkpt>
      <trkpt lat="48.48113" lon="-3.05113">
        <ele>246</ele>
        <time>2014-04-27T12:37:09Z</time>
      </trkpt>
      <trkpt lat="48.48112" lon="-3.05111">
        <ele>246</ele>
        <time>2014-04-27T12:37:10Z</time>
      </trkpt>
      <trkpt lat="48.48112" lon="-3.05109">
        <ele>246</ele>
        <time>2014-04-27T12:37:11Z</time>
      </trkpt>
      <trkpt lat="48.48111" lon="-3.05107">
        <ele>246</ele>
        <time>2014-04-27T12:37:12Z</time>
      </trkpt>
      <trkpt lat="48.48111" lon="-3.05104">
        <ele>246</ele>
        <time>2014-04-27T12:37:14Z</time>
      </trkpt>
      <trkpt lat="48.4811" lon="-3.05101">
        <ele>246</ele>
        <time>2014-04-27T12:37:16Z</time>
      </trkpt>
      <trkpt lat="48.48109" lon="-3.05099">
        <ele>246</ele>
        <time>2014-04-27T12:37:18Z</time>
      </trkpt>
      <trkpt lat="48.48108" lon="-3.05095">
        <ele>246</ele>
        <time>2014-04-27T12:37:20Z</time>
      </trkpt>
      <trkpt lat="48.48107" lon="-3.05094">
        <ele>247</ele>
        <time>2014-04-27T12:37:22Z</time>
      </trkpt>
      <trkpt lat="48.48106" lon="-3.05091">
        <ele>247</ele>
        <time>2014-04-27T12:37:24Z</time>
      </trkpt>
      <trkpt lat="48.48106" lon="-3.05088">
        <ele>247</ele>
        <time>2014-04-27T12:37:26Z</time>
      </trkpt>
      <trkpt lat="48.48106" lon="-3.05085">
        <ele>247</ele>
        <time>2014-04-27T12:37:28Z</time>
      </trkpt>
      <trkpt lat="48.48106" lon="-3.05083">
        <ele>247</ele>
        <time>2014-04-27T12:37:30Z</time>
      </trkpt>
      <trkpt lat="48.48105" lon="-3.05081">
        <ele>247</ele>
        <time>2014-04-27T12:37:31Z</time>
      </trkpt>
      <trkpt lat="48.48105" lon="-3.05078">
        <ele>248</ele>
        <time>2014-04-27T12:37:33Z</time>
      </trkpt>
      <trkpt lat="48.48105" lon="-3.05076">
        <ele>249</ele>
        <time>2014-04-27T12:37:35Z</time>
      </trkpt>
      <trkpt lat="48.48104" lon="-3.05074">
        <ele>250</ele>
        <time>2014-04-27T12:37:37Z</time>
      </trkpt>
      <trkpt lat="48.48101" lon="-3.05074">
        <ele>250</ele>
        <time>2014-04-27T12:37:39Z</time>
      </trkpt>
      <trkpt lat="48.481" lon="-3.05073">
        <ele>250</ele>
        <time>2014-04-27T12:37:41Z</time>
      </trkpt>
      <trkpt lat="48.48099" lon="-3.05074">
        <ele>250</ele>
        <time>2014-04-27T12:37:42Z</time>
      </trkpt>
      <trkpt lat="48.48097" lon="-3.05073">
        <ele>250</ele>
        <time>2014-04-27T12:37:44Z</time>
      </trkpt>
      <trkpt lat="48.48095" lon="-3.05073">
        <ele>250</ele>
        <time>2014-04-27T12:37:46Z</time>
      </trkpt>
      <trkpt lat="48.48094" lon="-3.05074">
        <ele>248</ele>
        <time>2014-04-27T12:37:50Z</time>
      </trkpt>
      <trkpt lat="48.48093" lon="-3.05073">
        <ele>247</ele>
        <time>2014-04-27T12:37:53Z</time>
      </trkpt>
      <trkpt lat="48.48091" lon="-3.05073">
        <ele>247</ele>
        <time>2014-04-27T12:37:55Z</time>
      </trkpt>
      <trkpt lat="48.4809" lon="-3.0507">
        <ele>247</ele>
        <time>2014-04-27T12:38:01Z</time>
      </trkpt>
      <trkpt lat="48.48089" lon="-3.0507">
        <ele>247</ele>
        <time>2014-04-27T12:38:02Z</time>
      </trkpt>
      <trkpt lat="48.48087" lon="-3.05068">
        <ele>247</ele>
        <time>2014-04-27T12:38:03Z</time>
      </trkpt>
      <trkpt lat="48.48085" lon="-3.05067">
        <ele>247</ele>
        <time>2014-04-27T12:38:05Z</time>
      </trkpt>
      <trkpt lat="48.48084" lon="-3.05065">
        <ele>244</ele>
        <time>2014-04-27T12:38:08Z</time>
      </trkpt>
      <trkpt lat="48.48084" lon="-3.05063">
        <ele>244</ele>
        <time>2014-04-27T12:38:10Z</time>
      </trkpt>
      <trkpt lat="48.48084" lon="-3.05061">
        <ele>244</ele>
        <time>2014-04-27T12:38:11Z</time>
      </trkpt>
      <trkpt lat="48.48084" lon="-3.05059">
        <ele>244</ele>
        <time>2014-04-27T12:38:13Z</time>
      </trkpt>
      <trkpt lat="48.48083" lon="-3.05055">
        <ele>244</ele>
        <time>2014-04-27T12:38:15Z</time>
      </trkpt>
      <trkpt lat="48.48082" lon="-3.05053">
        <ele>244</ele>
        <time>2014-04-27T12:38:18Z</time>
      </trkpt>
      <trkpt lat="48.4808" lon="-3.05051">
        <ele>244</ele>
        <time>2014-04-27T12:38:20Z</time>
      </trkpt>
      <trkpt lat="48.4808" lon="-3.05049">
        <ele>244</ele>
        <time>2014-04-27T12:38:22Z</time>
      </trkpt>
      <trkpt lat="48.4808" lon="-3.05047">
        <ele>244</ele>
        <time>2014-04-27T12:38:23Z</time>
      </trkpt>
      <trkpt lat="48.48079" lon="-3.05043">
        <ele>244</ele>
        <time>2014-04-27T12:38:25Z</time>
      </trkpt>
      <trkpt lat="48.48077" lon="-3.05042">
        <ele>244</ele>
        <time>2014-04-27T12:38:26Z</time>
      </trkpt>
      <trkpt lat="48.48076" lon="-3.0504">
        <ele>244</ele>
        <time>2014-04-27T12:38:27Z</time>
      </trkpt>
      <trkpt lat="48.48078" lon="-3.05039">
        <ele>244</ele>
        <time>2014-04-27T12:38:29Z</time>
      </trkpt>
      <trkpt lat="48.48078" lon="-3.05037">
        <ele>244</ele>
        <time>2014-04-27T12:38:31Z</time>
      </trkpt>
      <trkpt lat="48.48077" lon="-3.05033">
        <ele>244</ele>
        <time>2014-04-27T12:38:33Z</time>
      </trkpt>
      <trkpt lat="48.48076" lon="-3.05031">
        <ele>244</ele>
        <time>2014-04-27T12:38:34Z</time>
      </trkpt>
      <trkpt lat="48.48076" lon="-3.05028">
        <ele>245</ele>
        <time>2014-04-27T12:38:35Z</time>
      </trkpt>
      <trkpt lat="48.48076" lon="-3.05026">
        <ele>245</ele>
        <time>2014-04-27T12:38:36Z</time>
      </trkpt>
      <trkpt lat="48.48075" lon="-3.05024">
        <ele>247</ele>
        <time>2014-04-27T12:38:38Z</time>
      </trkpt>
      <trkpt lat="48.48075" lon="-3.05022">
        <ele>249</ele>
        <time>2014-04-27T12:38:40Z</time>
      </trkpt>
      <trkpt lat="48.48074" lon="-3.0502">
        <ele>250</ele>
        <time>2014-04-27T12:38:42Z</time>
      </trkpt>
      <trkpt lat="48.48073" lon="-3.05018">
        <ele>250</ele>
        <time>2014-04-27T12:38:45Z</time>
      </trkpt>
      <trkpt lat="48.48072" lon="-3.05016">
        <ele>250</ele>
        <time>2014-04-27T12:38:48Z</time>
      </trkpt>
      <trkpt lat="48.48071" lon="-3.05014">
        <ele>250</ele>
        <time>2014-04-27T12:38:50Z</time>
      </trkpt>
      <trkpt lat="48.48071" lon="-3.05012">
        <ele>249</ele>
        <time>2014-04-27T12:38:51Z</time>
      </trkpt>
      <trkpt lat="48.4807" lon="-3.05011">
        <ele>248</ele>
        <time>2014-04-27T12:38:53Z</time>
      </trkpt>
      <trkpt lat="48.48069" lon="-3.05008">
        <ele>246</ele>
        <time>2014-04-27T12:38:55Z</time>
      </trkpt>
      <trkpt lat="48.48069" lon="-3.05006">
        <ele>246</ele>
        <time>2014-04-27T12:38:56Z</time>
      </trkpt>
      <trkpt lat="48.48069" lon="-3.05005">
        <ele>246</ele>
        <time>2014-04-27T12:38:57Z</time>
      </trkpt>
      <trkpt lat="48.48068" lon="-3.05002">
        <ele>246</ele>
        <time>2014-04-27T12:38:59Z</time>
      </trkpt>
      <trkpt lat="48.48066" lon="-3.05001">
        <ele>246</ele>
        <time>2014-04-27T12:39:00Z</time>
      </trkpt>
      <trkpt lat="48.48065" lon="-3.04999">
        <ele>246</ele>
        <time>2014-04-27T12:39:02Z</time>
      </trkpt>
      <trkpt lat="48.48065" lon="-3.04996">
        <ele>246</ele>
        <time>2014-04-27T12:39:04Z</time>
      </trkpt>
      <trkpt lat="48.48063" lon="-3.04993">
        <ele>246</ele>
        <time>2014-04-27T12:39:06Z</time>
      </trkpt>
      <trkpt lat="48.48062" lon="-3.04992">
        <ele>246</ele>
        <time>2014-04-27T12:39:08Z</time>
      </trkpt>
      <trkpt lat="48.48062" lon="-3.0499">
        <ele>246</ele>
        <time>2014-04-27T12:39:09Z</time>
      </trkpt>
      <trkpt lat="48.48061" lon="-3.04988">
        <ele>246</ele>
        <time>2014-04-27T12:39:10Z</time>
      </trkpt>
      <trkpt lat="48.48061" lon="-3.04986">
        <ele>246</ele>
        <time>2014-04-27T12:39:12Z</time>
      </trkpt>
      <trkpt lat="48.48061" lon="-3.04983">
        <ele>246</ele>
        <time>2014-04-27T12:39:13Z</time>
      </trkpt>
      <trkpt lat="48.4806" lon="-3.04982">
        <ele>246</ele>
        <time>2014-04-27T12:39:15Z</time>
      </trkpt>
      <trkpt lat="48.48059" lon="-3.0498">
        <ele>246</ele>
        <time>2014-04-27T12:39:17Z</time>
      </trkpt>
      <trkpt lat="48.48059" lon="-3.04976">
        <ele>246</ele>
        <time>2014-04-27T12:39:19Z</time>
      </trkpt>
      <trkpt lat="48.48059" lon="-3.04974">
        <ele>246</ele>
        <time>2014-04-27T12:39:20Z</time>
      </trkpt>
      <trkpt lat="48.48057" lon="-3.04971">
        <ele>246</ele>
        <time>2014-04-27T12:39:22Z</time>
      </trkpt>
      <trkpt lat="48.48056" lon="-3.04969">
        <ele>246</ele>
        <time>2014-04-27T12:39:23Z</time>
      </trkpt>
      <trkpt lat="48.48056" lon="-3.04967">
        <ele>246</ele>
        <time>2014-04-27T12:39:24Z</time>
      </trkpt>
      <trkpt lat="48.48056" lon="-3.04964">
        <ele>246</ele>
        <time>2014-04-27T12:39:26Z</time>
      </trkpt>
      <trkpt lat="48.48054" lon="-3.04964">
        <ele>247</ele>
        <time>2014-04-27T12:39:27Z</time>
      </trkpt>
      <trkpt lat="48.48053" lon="-3.04961">
        <ele>247</ele>
        <time>2014-04-27T12:39:30Z</time>
      </trkpt>
      <trkpt lat="48.48052" lon="-3.04959">
        <ele>247</ele>
        <time>2014-04-27T12:39:32Z</time>
      </trkpt>
      <trkpt lat="48.48052" lon="-3.04956">
        <ele>247</ele>
        <time>2014-04-27T12:39:34Z</time>
      </trkpt>
      <trkpt lat="48.48051" lon="-3.04954">
        <ele>247</ele>
        <time>2014-04-27T12:39:35Z</time>
      </trkpt>
      <trkpt lat="48.4805" lon="-3.04953">
        <ele>248</ele>
        <time>2014-04-27T12:39:36Z</time>
      </trkpt>
      <trkpt lat="48.4805" lon="-3.04951">
        <ele>248</ele>
        <time>2014-04-27T12:39:37Z</time>
      </trkpt>
      <trkpt lat="48.48049" lon="-3.04948">
        <ele>248</ele>
        <time>2014-04-27T12:39:39Z</time>
      </trkpt>
      <trkpt lat="48.48048" lon="-3.04947">
        <ele>248</ele>
        <time>2014-04-27T12:39:40Z</time>
      </trkpt>
      <trkpt lat="48.48046" lon="-3.04943">
        <ele>248</ele>
        <time>2014-04-27T12:39:43Z</time>
      </trkpt>
      <trkpt lat="48.48045" lon="-3.0494">
        <ele>248</ele>
        <time>2014-04-27T12:39:44Z</time>
      </trkpt>
      <trkpt lat="48.48044" lon="-3.04935">
        <ele>248</ele>
        <time>2014-04-27T12:39:46Z</time>
      </trkpt>
      <trkpt lat="48.48043" lon="-3.04933">
        <ele>247</ele>
        <time>2014-04-27T12:39:47Z</time>
      </trkpt>
      <trkpt lat="48.48042" lon="-3.0493">
        <ele>245</ele>
        <time>2014-04-27T12:39:49Z</time>
      </trkpt>
      <trkpt lat="48.48042" lon="-3.04927">
        <ele>244</ele>
        <time>2014-04-27T12:39:51Z</time>
      </trkpt>
      <trkpt lat="48.48043" lon="-3.04925">
        <ele>243</ele>
        <time>2014-04-27T12:39:53Z</time>
      </trkpt>
      <trkpt lat="48.48043" lon="-3.04922">
        <ele>241</ele>
        <time>2014-04-27T12:39:56Z</time>
      </trkpt>
      <trkpt lat="48.48042" lon="-3.0492">
        <ele>241</ele>
        <time>2014-04-27T12:39:57Z</time>
      </trkpt>
      <trkpt lat="48.48041" lon="-3.04918">
        <ele>241</ele>
        <time>2014-04-27T12:39:59Z</time>
      </trkpt>
      <trkpt lat="48.48042" lon="-3.04914">
        <ele>241</ele>
        <time>2014-04-27T12:40:01Z</time>
      </trkpt>
      <trkpt lat="48.48042" lon="-3.04912">
        <ele>240</ele>
        <time>2014-04-27T12:40:03Z</time>
      </trkpt>
      <trkpt lat="48.48041" lon="-3.0491">
        <ele>240</ele>
        <time>2014-04-27T12:40:05Z</time>
      </trkpt>
      <trkpt lat="48.48039" lon="-3.04909">
        <ele>240</ele>
        <time>2014-04-27T12:40:07Z</time>
      </trkpt>
      <trkpt lat="48.48038" lon="-3.04906">
        <ele>240</ele>
        <time>2014-04-27T12:40:09Z</time>
      </trkpt>
      <trkpt lat="48.48036" lon="-3.04903">
        <ele>240</ele>
        <time>2014-04-27T12:40:12Z</time>
      </trkpt>
      <trkpt lat="48.48036" lon="-3.04901">
        <ele>241</ele>
        <time>2014-04-27T12:40:13Z</time>
      </trkpt>
      <trkpt lat="48.48036" lon="-3.04899">
        <ele>242</ele>
        <time>2014-04-27T12:40:14Z</time>
      </trkpt>
      <trkpt lat="48.48034" lon="-3.04896">
        <ele>244</ele>
        <time>2014-04-27T12:40:16Z</time>
      </trkpt>
      <trkpt lat="48.48033" lon="-3.04894">
        <ele>244</ele>
        <time>2014-04-27T12:40:17Z</time>
      </trkpt>
      <trkpt lat="48.48033" lon="-3.04892">
        <ele>244</ele>
        <time>2014-04-27T12:40:18Z</time>
      </trkpt>
      <trkpt lat="48.48033" lon="-3.04889">
        <ele>244</ele>
        <time>2014-04-27T12:40:20Z</time>
      </trkpt>
      <trkpt lat="48.48033" lon="-3.04887">
        <ele>244</ele>
        <time>2014-04-27T12:40:21Z</time>
      </trkpt>
      <trkpt lat="48.48032" lon="-3.04885">
        <ele>244</ele>
        <time>2014-04-27T12:40:23Z</time>
      </trkpt>
      <trkpt lat="48.4803" lon="-3.04883">
        <ele>244</ele>
        <time>2014-04-27T12:40:25Z</time>
      </trkpt>
      <trkpt lat="48.4803" lon="-3.04881">
        <ele>244</ele>
        <time>2014-04-27T12:40:26Z</time>
      </trkpt>
      <trkpt lat="48.48029" lon="-3.04878">
        <ele>244</ele>
        <time>2014-04-27T12:40:27Z</time>
      </trkpt>
      <trkpt lat="48.48029" lon="-3.04876">
        <ele>244</ele>
        <time>2014-04-27T12:40:29Z</time>
      </trkpt>
      <trkpt lat="48.48028" lon="-3.04874">
        <ele>244</ele>
        <time>2014-04-27T12:40:30Z</time>
      </trkpt>
      <trkpt lat="48.48026" lon="-3.04871">
        <ele>244</ele>
        <time>2014-04-27T12:40:32Z</time>
      </trkpt>
      <trkpt lat="48.48027" lon="-3.04869">
        <ele>244</ele>
        <time>2014-04-27T12:40:33Z</time>
      </trkpt>
      <trkpt lat="48.48027" lon="-3.04867">
        <ele>244</ele>
        <time>2014-04-27T12:40:35Z</time>
      </trkpt>
      <trkpt lat="48.48027" lon="-3.04865">
        <ele>244</ele>
        <time>2014-04-27T12:40:36Z</time>
      </trkpt>
      <trkpt lat="48.48027" lon="-3.04861">
        <ele>244</ele>
        <time>2014-04-27T12:40:39Z</time>
      </trkpt>
      <trkpt lat="48.48025" lon="-3.04861">
        <ele>244</ele>
        <time>2014-04-27T12:40:40Z</time>
      </trkpt>
      <trkpt lat="48.48024" lon="-3.0486">
        <ele>244</ele>
        <time>2014-04-27T12:40:41Z</time>
      </trkpt>
      <trkpt lat="48.48023" lon="-3.04858">
        <ele>244</ele>
        <time>2014-04-27T12:40:43Z</time>
      </trkpt>
      <trkpt lat="48.4802" lon="-3.04853">
        <ele>245</ele>
        <time>2014-04-27T12:40:46Z</time>
      </trkpt>
      <trkpt lat="48.48021" lon="-3.04851">
        <ele>245</ele>
        <time>2014-04-27T12:40:47Z</time>
      </trkpt>
      <trkpt lat="48.48019" lon="-3.04849">
        <ele>245</ele>
        <time>2014-04-27T12:40:49Z</time>
      </trkpt>
      <trkpt lat="48.48018" lon="-3.04847">
        <ele>245</ele>
        <time>2014-04-27T12:40:51Z</time>
      </trkpt>
      <trkpt lat="48.48017" lon="-3.04845">
        <ele>245</ele>
        <time>2014-04-27T12:40:54Z</time>
      </trkpt>
      <trkpt lat="48.48018" lon="-3.04843">
        <ele>245</ele>
        <time>2014-04-27T12:40:56Z</time>
      </trkpt>
      <trkpt lat="48.48018" lon="-3.04839">
        <ele>244</ele>
        <time>2014-04-27T12:41:01Z</time>
      </trkpt>
      <trkpt lat="48.48018" lon="-3.04837">
        <ele>244</ele>
        <time>2014-04-27T12:41:02Z</time>
      </trkpt>
      <trkpt lat="48.48017" lon="-3.04835">
        <ele>243</ele>
        <time>2014-04-27T12:41:03Z</time>
      </trkpt>
      <trkpt lat="48.48017" lon="-3.04833">
        <ele>243</ele>
        <time>2014-04-27T12:41:04Z</time>
      </trkpt>
      <trkpt lat="48.48015" lon="-3.04831">
        <ele>242</ele>
        <time>2014-04-27T12:41:07Z</time>
      </trkpt>
      <trkpt lat="48.48014" lon="-3.0483">
        <ele>242</ele>
        <time>2014-04-27T12:41:08Z</time>
      </trkpt>
      <trkpt lat="48.48014" lon="-3.04827">
        <ele>241</ele>
        <time>2014-04-27T12:41:10Z</time>
      </trkpt>
      <trkpt lat="48.48015" lon="-3.04825">
        <ele>241</ele>
        <time>2014-04-27T12:41:11Z</time>
      </trkpt>
      <trkpt lat="48.48014" lon="-3.04823">
        <ele>241</ele>
        <time>2014-04-27T12:41:12Z</time>
      </trkpt>
      <trkpt lat="48.48012" lon="-3.04819">
        <ele>241</ele>
        <time>2014-04-27T12:41:13Z</time>
      </trkpt>
      <trkpt lat="48.4801" lon="-3.04818">
        <ele>241</ele>
        <time>2014-04-27T12:41:15Z</time>
      </trkpt>
      <trkpt lat="48.48007" lon="-3.04814">
        <ele>242</ele>
        <time>2014-04-27T12:41:17Z</time>
      </trkpt>
      <trkpt lat="48.48006" lon="-3.04812">
        <ele>243</ele>
        <time>2014-04-27T12:41:20Z</time>
      </trkpt>
      <trkpt lat="48.48006" lon="-3.04809">
        <ele>244</ele>
        <time>2014-04-27T12:41:22Z</time>
      </trkpt>
      <trkpt lat="48.48006" lon="-3.04808">
        <ele>244</ele>
        <time>2014-04-27T12:41:23Z</time>
      </trkpt>
      <trkpt lat="48.48005" lon="-3.04804">
        <ele>244</ele>
        <time>2014-04-27T12:41:24Z</time>
      </trkpt>
      <trkpt lat="48.48004" lon="-3.04801">
        <ele>244</ele>
        <time>2014-04-27T12:41:26Z</time>
      </trkpt>
      <trkpt lat="48.48005" lon="-3.04799">
        <ele>244</ele>
        <time>2014-04-27T12:41:27Z</time>
      </trkpt>
      <trkpt lat="48.48005" lon="-3.04797">
        <ele>244</ele>
        <time>2014-04-27T12:41:28Z</time>
      </trkpt>
      <trkpt lat="48.48005" lon="-3.04795">
        <ele>245</ele>
        <time>2014-04-27T12:41:30Z</time>
      </trkpt>
      <trkpt lat="48.48006" lon="-3.04792">
        <ele>246</ele>
        <time>2014-04-27T12:41:31Z</time>
      </trkpt>
      <trkpt lat="48.48007" lon="-3.04789">
        <ele>247</ele>
        <time>2014-04-27T12:41:32Z</time>
      </trkpt>
      <trkpt lat="48.48004" lon="-3.04788">
        <ele>249</ele>
        <time>2014-04-27T12:41:34Z</time>
      </trkpt>
      <trkpt lat="48.48005" lon="-3.04785">
        <ele>252</ele>
        <time>2014-04-27T12:41:37Z</time>
      </trkpt>
      <trkpt lat="48.48003" lon="-3.04782">
        <ele>253</ele>
        <time>2014-04-27T12:41:39Z</time>
      </trkpt>
      <trkpt lat="48.48004" lon="-3.0478">
        <ele>253</ele>
        <time>2014-04-27T12:41:40Z</time>
      </trkpt>
      <trkpt lat="48.48004" lon="-3.04777">
        <ele>253</ele>
        <time>2014-04-27T12:41:42Z</time>
      </trkpt>
      <trkpt lat="48.48004" lon="-3.04774">
        <ele>253</ele>
        <time>2014-04-27T12:41:44Z</time>
      </trkpt>
      <trkpt lat="48.48004" lon="-3.04772">
        <ele>253</ele>
        <time>2014-04-27T12:41:45Z</time>
      </trkpt>
      <trkpt lat="48.48004" lon="-3.04769">
        <ele>253</ele>
        <time>2014-04-27T12:41:46Z</time>
      </trkpt>
      <trkpt lat="48.48004" lon="-3.04768">
        <ele>253</ele>
        <time>2014-04-27T12:41:47Z</time>
      </trkpt>
      <trkpt lat="48.48004" lon="-3.04766">
        <ele>253</ele>
        <time>2014-04-27T12:41:48Z</time>
      </trkpt>
      <trkpt lat="48.48004" lon="-3.04764">
        <ele>253</ele>
        <time>2014-04-27T12:41:49Z</time>
      </trkpt>
      <trkpt lat="48.48004" lon="-3.04761">
        <ele>253</ele>
        <time>2014-04-27T12:41:50Z</time>
      </trkpt>
      <trkpt lat="48.48004" lon="-3.0476">
        <ele>253</ele>
        <time>2014-04-27T12:41:51Z</time>
      </trkpt>
      <trkpt lat="48.48004" lon="-3.04757">
        <ele>253</ele>
        <time>2014-04-27T12:41:52Z</time>
      </trkpt>
      <trkpt lat="48.48004" lon="-3.04755">
        <ele>253</ele>
        <time>2014-04-27T12:41:53Z</time>
      </trkpt>
      <trkpt lat="48.48004" lon="-3.04753">
        <ele>253</ele>
        <time>2014-04-27T12:41:54Z</time>
      </trkpt>
      <trkpt lat="48.48003" lon="-3.04751">
        <ele>253</ele>
        <time>2014-04-27T12:41:56Z</time>
      </trkpt>
      <trkpt lat="48.48003" lon="-3.04749">
        <ele>253</ele>
        <time>2014-04-27T12:42:00Z</time>
      </trkpt>
      <trkpt lat="48.48002" lon="-3.04747">
        <ele>253</ele>
        <time>2014-04-27T12:42:01Z</time>
      </trkpt>
      <trkpt lat="48.48001" lon="-3.04745">
        <ele>253</ele>
        <time>2014-04-27T12:42:02Z</time>
      </trkpt>
      <trkpt lat="48.48" lon="-3.04746">
        <ele>253</ele>
        <time>2014-04-27T12:42:03Z</time>
      </trkpt>
      <trkpt lat="48.47999" lon="-3.04744">
        <ele>253</ele>
        <time>2014-04-27T12:42:05Z</time>
      </trkpt>
      <trkpt lat="48.48001" lon="-3.04742">
        <ele>253</ele>
        <time>2014-04-27T12:42:07Z</time>
      </trkpt>
      <trkpt lat="48.48001" lon="-3.0474">
        <ele>253</ele>
        <time>2014-04-27T12:42:08Z</time>
      </trkpt>
      <trkpt lat="48.48" lon="-3.04737">
        <ele>253</ele>
        <time>2014-04-27T12:42:11Z</time>
      </trkpt>
      <trkpt lat="48.47998" lon="-3.04734">
        <ele>253</ele>
        <time>2014-04-27T12:42:12Z</time>
      </trkpt>
      <trkpt lat="48.47995" lon="-3.04733">
        <ele>253</ele>
        <time>2014-04-27T12:42:14Z</time>
      </trkpt>
      <trkpt lat="48.47993" lon="-3.04733">
        <ele>253</ele>
        <time>2014-04-27T12:42:16Z</time>
      </trkpt>
      <trkpt lat="48.47992" lon="-3.04733">
        <ele>253</ele>
        <time>2014-04-27T12:42:17Z</time>
      </trkpt>
      <trkpt lat="48.4799" lon="-3.04734">
        <ele>253</ele>
        <time>2014-04-27T12:42:18Z</time>
      </trkpt>
      <trkpt lat="48.47989" lon="-3.04734">
        <ele>253</ele>
        <time>2014-04-27T12:42:19Z</time>
      </trkpt>
      <trkpt lat="48.47987" lon="-3.04734">
        <ele>253</ele>
        <time>2014-04-27T12:42:20Z</time>
      </trkpt>
      <trkpt lat="48.47985" lon="-3.04737">
        <ele>253</ele>
        <time>2014-04-27T12:42:22Z</time>
      </trkpt>
      <trkpt lat="48.47985" lon="-3.04739">
        <ele>253</ele>
        <time>2014-04-27T12:42:23Z</time>
      </trkpt>
      <trkpt lat="48.47984" lon="-3.04742">
        <ele>253</ele>
        <time>2014-04-27T12:42:25Z</time>
      </trkpt>
      <trkpt lat="48.47981" lon="-3.04744">
        <ele>253</ele>
        <time>2014-04-27T12:42:27Z</time>
      </trkpt>
      <trkpt lat="48.4798" lon="-3.04745">
        <ele>253</ele>
        <time>2014-04-27T12:42:28Z</time>
      </trkpt>
      <trkpt lat="48.47979" lon="-3.04748">
        <ele>253</ele>
        <time>2014-04-27T12:42:30Z</time>
      </trkpt>
      <trkpt lat="48.47977" lon="-3.0475">
        <ele>254</ele>
        <time>2014-04-27T12:42:32Z</time>
      </trkpt>
      <trkpt lat="48.47976" lon="-3.04752">
        <ele>255</ele>
        <time>2014-04-27T12:42:34Z</time>
      </trkpt>
      <trkpt lat="48.47974" lon="-3.04755">
        <ele>257</ele>
        <time>2014-04-27T12:42:36Z</time>
      </trkpt>
      <trkpt lat="48.47973" lon="-3.04757">
        <ele>257</ele>
        <time>2014-04-27T12:42:37Z</time>
      </trkpt>
      <trkpt lat="48.47972" lon="-3.0476">
        <ele>258</ele>
        <time>2014-04-27T12:42:38Z</time>
      </trkpt>
      <trkpt lat="48.47972" lon="-3.04762">
        <ele>259</ele>
        <time>2014-04-27T12:42:39Z</time>
      </trkpt>
      <trkpt lat="48.4797" lon="-3.04764">
        <ele>260</ele>
        <time>2014-04-27T12:42:42Z</time>
      </trkpt>
      <trkpt lat="48.47968" lon="-3.04766">
        <ele>261</ele>
        <time>2014-04-27T12:42:44Z</time>
      </trkpt>
      <trkpt lat="48.47966" lon="-3.04768">
        <ele>263</ele>
        <time>2014-04-27T12:42:47Z</time>
      </trkpt>
      <trkpt lat="48.47964" lon="-3.0477">
        <ele>263</ele>
        <time>2014-04-27T12:42:49Z</time>
      </trkpt>
      <trkpt lat="48.47963" lon="-3.04773">
        <ele>263</ele>
        <time>2014-04-27T12:42:51Z</time>
      </trkpt>
      <trkpt lat="48.47962" lon="-3.04773">
        <ele>263</ele>
        <time>2014-04-27T12:42:52Z</time>
      </trkpt>
      <trkpt lat="48.4796" lon="-3.04774">
        <ele>263</ele>
        <time>2014-04-27T12:42:54Z</time>
      </trkpt>
      <trkpt lat="48.47959" lon="-3.04775">
        <ele>263</ele>
        <time>2014-04-27T12:42:56Z</time>
      </trkpt>
      <trkpt lat="48.47958" lon="-3.04777">
        <ele>263</ele>
        <time>2014-04-27T12:42:58Z</time>
      </trkpt>
      <trkpt lat="48.47957" lon="-3.04778">
        <ele>263</ele>
        <time>2014-04-27T12:43:00Z</time>
      </trkpt>
      <trkpt lat="48.47955" lon="-3.0478">
        <ele>263</ele>
        <time>2014-04-27T12:43:04Z</time>
      </trkpt>
      <trkpt lat="48.47953" lon="-3.04781">
        <ele>262</ele>
        <time>2014-04-27T12:43:08Z</time>
      </trkpt>
      <trkpt lat="48.47952" lon="-3.04781">
        <ele>261</ele>
        <time>2014-04-27T12:43:09Z</time>
      </trkpt>
      <trkpt lat="48.47951" lon="-3.04782">
        <ele>259</ele>
        <time>2014-04-27T12:43:11Z</time>
      </trkpt>
      <trkpt lat="48.47949" lon="-3.04783">
        <ele>257</ele>
        <time>2014-04-27T12:43:13Z</time>
      </trkpt>
      <trkpt lat="48.47947" lon="-3.04783">
        <ele>255</ele>
        <time>2014-04-27T12:43:15Z</time>
      </trkpt>
      <trkpt lat="48.47946" lon="-3.04784">
        <ele>254</ele>
        <time>2014-04-27T12:43:17Z</time>
      </trkpt>
      <trkpt lat="48.47944" lon="-3.04784">
        <ele>254</ele>
        <time>2014-04-27T12:43:19Z</time>
      </trkpt>
      <trkpt lat="48.47943" lon="-3.04783">
        <ele>254</ele>
        <time>2014-04-27T12:43:20Z</time>
      </trkpt>
      <trkpt lat="48.4794" lon="-3.04782">
        <ele>254</ele>
        <time>2014-04-27T12:43:22Z</time>
      </trkpt>
      <trkpt lat="48.47938" lon="-3.04781">
        <ele>254</ele>
        <time>2014-04-27T12:43:24Z</time>
      </trkpt>
      <trkpt lat="48.47937" lon="-3.04782">
        <ele>254</ele>
        <time>2014-04-27T12:43:25Z</time>
      </trkpt>
      <trkpt lat="48.47936" lon="-3.04782">
        <ele>254</ele>
        <time>2014-04-27T12:43:26Z</time>
      </trkpt>
      <trkpt lat="48.47934" lon="-3.04782">
        <ele>254</ele>
        <time>2014-04-27T12:43:28Z</time>
      </trkpt>
      <trkpt lat="48.47933" lon="-3.04783">
        <ele>254</ele>
        <time>2014-04-27T12:43:29Z</time>
      </trkpt>
      <trkpt lat="48.47932" lon="-3.04784">
        <ele>254</ele>
        <time>2014-04-27T12:43:30Z</time>
      </trkpt>
      <trkpt lat="48.4793" lon="-3.04785">
        <ele>254</ele>
        <time>2014-04-27T12:43:32Z</time>
      </trkpt>
      <trkpt lat="48.47929" lon="-3.04787">
        <ele>254</ele>
        <time>2014-04-27T12:43:34Z</time>
      </trkpt>
      <trkpt lat="48.47928" lon="-3.04788">
        <ele>254</ele>
        <time>2014-04-27T12:43:36Z</time>
      </trkpt>
      <trkpt lat="48.47926" lon="-3.04789">
        <ele>254</ele>
        <time>2014-04-27T12:43:39Z</time>
      </trkpt>
      <trkpt lat="48.47925" lon="-3.04789">
        <ele>253</ele>
        <time>2014-04-27T12:43:41Z</time>
      </trkpt>
      <trkpt lat="48.47923" lon="-3.0479">
        <ele>253</ele>
        <time>2014-04-27T12:43:42Z</time>
      </trkpt>
      <trkpt lat="48.4792" lon="-3.04792">
        <ele>252</ele>
        <time>2014-04-27T12:43:46Z</time>
      </trkpt>
      <trkpt lat="48.47918" lon="-3.04792">
        <ele>252</ele>
        <time>2014-04-27T12:43:47Z</time>
      </trkpt>
      <trkpt lat="48.47916" lon="-3.04792">
        <ele>251</ele>
        <time>2014-04-27T12:43:48Z</time>
      </trkpt>
      <trkpt lat="48.47914" lon="-3.04793">
        <ele>251</ele>
        <time>2014-04-27T12:43:49Z</time>
      </trkpt>
      <trkpt lat="48.47913" lon="-3.04794">
        <ele>251</ele>
        <time>2014-04-27T12:43:50Z</time>
      </trkpt>
      <trkpt lat="48.47911" lon="-3.04794">
        <ele>250</ele>
        <time>2014-04-27T12:43:51Z</time>
      </trkpt>
      <trkpt lat="48.4791" lon="-3.04794">
        <ele>249</ele>
        <time>2014-04-27T12:43:53Z</time>
      </trkpt>
      <trkpt lat="48.47909" lon="-3.04796">
        <ele>247</ele>
        <time>2014-04-27T12:43:55Z</time>
      </trkpt>
      <trkpt lat="48.47907" lon="-3.04797">
        <ele>245</ele>
        <time>2014-04-27T12:43:59Z</time>
      </trkpt>
      <trkpt lat="48.47904" lon="-3.04801">
        <ele>245</ele>
        <time>2014-04-27T12:44:01Z</time>
      </trkpt>
      <trkpt lat="48.47903" lon="-3.04803">
        <ele>245</ele>
        <time>2014-04-27T12:44:02Z</time>
      </trkpt>
      <trkpt lat="48.47902" lon="-3.04805">
        <ele>245</ele>
        <time>2014-04-27T12:44:03Z</time>
      </trkpt>
      <trkpt lat="48.479" lon="-3.04807">
        <ele>245</ele>
        <time>2014-04-27T12:44:05Z</time>
      </trkpt>
      <trkpt lat="48.479" lon="-3.04809">
        <ele>245</ele>
        <time>2014-04-27T12:44:08Z</time>
      </trkpt>
      <trkpt lat="48.47898" lon="-3.04808">
        <ele>245</ele>
        <time>2014-04-27T12:44:10Z</time>
      </trkpt>
      <trkpt lat="48.47897" lon="-3.04808">
        <ele>245</ele>
        <time>2014-04-27T12:44:11Z</time>
      </trkpt>
      <trkpt lat="48.47895" lon="-3.0481">
        <ele>245</ele>
        <time>2014-04-27T12:44:13Z</time>
      </trkpt>
      <trkpt lat="48.47893" lon="-3.04814">
        <ele>245</ele>
        <time>2014-04-27T12:44:15Z</time>
      </trkpt>
      <trkpt lat="48.47892" lon="-3.04815">
        <ele>245</ele>
        <time>2014-04-27T12:44:16Z</time>
      </trkpt>
      <trkpt lat="48.47891" lon="-3.04816">
        <ele>245</ele>
        <time>2014-04-27T12:44:17Z</time>
      </trkpt>
      <trkpt lat="48.47889" lon="-3.04817">
        <ele>245</ele>
        <time>2014-04-27T12:44:18Z</time>
      </trkpt>
      <trkpt lat="48.47888" lon="-3.04818">
        <ele>246</ele>
        <time>2014-04-27T12:44:20Z</time>
      </trkpt>
      <trkpt lat="48.47887" lon="-3.04822">
        <ele>248</ele>
        <time>2014-04-27T12:44:22Z</time>
      </trkpt>
      <trkpt lat="48.47883" lon="-3.04822">
        <ele>249</ele>
        <time>2014-04-27T12:44:25Z</time>
      </trkpt>
      <trkpt lat="48.47881" lon="-3.04823">
        <ele>249</ele>
        <time>2014-04-27T12:44:26Z</time>
      </trkpt>
      <trkpt lat="48.4788" lon="-3.04822">
        <ele>249</ele>
        <time>2014-04-27T12:44:27Z</time>
      </trkpt>
      <trkpt lat="48.47878" lon="-3.04824">
        <ele>249</ele>
        <time>2014-04-27T12:44:28Z</time>
      </trkpt>
      <trkpt lat="48.47877" lon="-3.04822">
        <ele>249</ele>
        <time>2014-04-27T12:44:29Z</time>
      </trkpt>
      <trkpt lat="48.47875" lon="-3.04823">
        <ele>249</ele>
        <time>2014-04-27T12:44:30Z</time>
      </trkpt>
      <trkpt lat="48.47874" lon="-3.04823">
        <ele>249</ele>
        <time>2014-04-27T12:44:31Z</time>
      </trkpt>
      <trkpt lat="48.47873" lon="-3.04824">
        <ele>249</ele>
        <time>2014-04-27T12:44:32Z</time>
      </trkpt>
      <trkpt lat="48.47873" lon="-3.04826">
        <ele>249</ele>
        <time>2014-04-27T12:44:34Z</time>
      </trkpt>
      <trkpt lat="48.47871" lon="-3.04828">
        <ele>249</ele>
        <time>2014-04-27T12:44:37Z</time>
      </trkpt>
      <trkpt lat="48.4787" lon="-3.04828">
        <ele>248</ele>
        <time>2014-04-27T12:44:39Z</time>
      </trkpt>
      <trkpt lat="48.47869" lon="-3.04831">
        <ele>246</ele>
        <time>2014-04-27T12:44:41Z</time>
      </trkpt>
      <trkpt lat="48.47867" lon="-3.04832">
        <ele>244</ele>
        <time>2014-04-27T12:44:43Z</time>
      </trkpt>
      <trkpt lat="48.47865" lon="-3.04834">
        <ele>243</ele>
        <time>2014-04-27T12:44:45Z</time>
      </trkpt>
      <trkpt lat="48.47864" lon="-3.04836">
        <ele>243</ele>
        <time>2014-04-27T12:44:46Z</time>
      </trkpt>
      <trkpt lat="48.47864" lon="-3.04838">
        <ele>242</ele>
        <time>2014-04-27T12:44:47Z</time>
      </trkpt>
      <trkpt lat="48.47862" lon="-3.0484">
        <ele>241</ele>
        <time>2014-04-27T12:44:49Z</time>
      </trkpt>
      <trkpt lat="48.4786" lon="-3.0484">
        <ele>241</ele>
        <time>2014-04-27T12:44:50Z</time>
      </trkpt>
      <trkpt lat="48.47859" lon="-3.0484">
        <ele>240</ele>
        <time>2014-04-27T12:44:51Z</time>
      </trkpt>
      <trkpt lat="48.47857" lon="-3.04841">
        <ele>239</ele>
        <time>2014-04-27T12:44:53Z</time>
      </trkpt>
      <trkpt lat="48.47855" lon="-3.04842">
        <ele>239</ele>
        <time>2014-04-27T12:44:55Z</time>
      </trkpt>
      <trkpt lat="48.47854" lon="-3.04844">
        <ele>239</ele>
        <time>2014-04-27T12:44:56Z</time>
      </trkpt>
      <trkpt lat="48.47852" lon="-3.04845">
        <ele>239</ele>
        <time>2014-04-27T12:44:58Z</time>
      </trkpt>
      <trkpt lat="48.4785" lon="-3.04846">
        <ele>239</ele>
        <time>2014-04-27T12:44:59Z</time>
      </trkpt>
      <trkpt lat="48.4785" lon="-3.04848">
        <ele>239</ele>
        <time>2014-04-27T12:45:00Z</time>
      </trkpt>
      <trkpt lat="48.47848" lon="-3.0485">
        <ele>240</ele>
        <time>2014-04-27T12:45:01Z</time>
      </trkpt>
      <trkpt lat="48.47846" lon="-3.04853">
        <ele>242</ele>
        <time>2014-04-27T12:45:03Z</time>
      </trkpt>
      <trkpt lat="48.47844" lon="-3.04856">
        <ele>244</ele>
        <time>2014-04-27T12:45:05Z</time>
      </trkpt>
      <trkpt lat="48.47842" lon="-3.04858">
        <ele>246</ele>
        <time>2014-04-27T12:45:07Z</time>
      </trkpt>
      <trkpt lat="48.47841" lon="-3.04858">
        <ele>247</ele>
        <time>2014-04-27T12:45:08Z</time>
      </trkpt>
      <trkpt lat="48.47839" lon="-3.0486">
        <ele>248</ele>
        <time>2014-04-27T12:45:09Z</time>
      </trkpt>
      <trkpt lat="48.47838" lon="-3.04861">
        <ele>249</ele>
        <time>2014-04-27T12:45:13Z</time>
      </trkpt>
      <trkpt lat="48.47837" lon="-3.04863">
        <ele>249</ele>
        <time>2014-04-27T12:45:15Z</time>
      </trkpt>
      <trkpt lat="48.47835" lon="-3.04865">
        <ele>247</ele>
        <time>2014-04-27T12:45:17Z</time>
      </trkpt>
      <trkpt lat="48.47833" lon="-3.04865">
        <ele>245</ele>
        <time>2014-04-27T12:45:19Z</time>
      </trkpt>
      <trkpt lat="48.47831" lon="-3.04866">
        <ele>243</ele>
        <time>2014-04-27T12:45:21Z</time>
      </trkpt>
      <trkpt lat="48.4783" lon="-3.04867">
        <ele>242</ele>
        <time>2014-04-27T12:45:22Z</time>
      </trkpt>
      <trkpt lat="48.47828" lon="-3.04868">
        <ele>242</ele>
        <time>2014-04-27T12:45:24Z</time>
      </trkpt>
      <trkpt lat="48.47826" lon="-3.04869">
        <ele>242</ele>
        <time>2014-04-27T12:45:26Z</time>
      </trkpt>
      <trkpt lat="48.47825" lon="-3.04871">
        <ele>242</ele>
        <time>2014-04-27T12:45:27Z</time>
      </trkpt>
      <trkpt lat="48.47824" lon="-3.04872">
        <ele>242</ele>
        <time>2014-04-27T12:45:28Z</time>
      </trkpt>
      <trkpt lat="48.47822" lon="-3.04873">
        <ele>242</ele>
        <time>2014-04-27T12:45:29Z</time>
      </trkpt>
      <trkpt lat="48.47821" lon="-3.04874">
        <ele>242</ele>
        <time>2014-04-27T12:45:31Z</time>
      </trkpt>
      <trkpt lat="48.47819" lon="-3.04876">
        <ele>242</ele>
        <time>2014-04-27T12:45:33Z</time>
      </trkpt>
      <trkpt lat="48.47818" lon="-3.04878">
        <ele>242</ele>
        <time>2014-04-27T12:45:34Z</time>
      </trkpt>
      <trkpt lat="48.47816" lon="-3.0488">
        <ele>242</ele>
        <time>2014-04-27T12:45:36Z</time>
      </trkpt>
      <trkpt lat="48.47815" lon="-3.0488">
        <ele>242</ele>
        <time>2014-04-27T12:45:37Z</time>
      </trkpt>
      <trkpt lat="48.47813" lon="-3.0488">
        <ele>242</ele>
        <time>2014-04-27T12:45:38Z</time>
      </trkpt>
      <trkpt lat="48.47812" lon="-3.04883">
        <ele>242</ele>
        <time>2014-04-27T12:45:41Z</time>
      </trkpt>
      <trkpt lat="48.47811" lon="-3.04885">
        <ele>242</ele>
        <time>2014-04-27T12:45:42Z</time>
      </trkpt>
      <trkpt lat="48.4781" lon="-3.04886">
        <ele>242</ele>
        <time>2014-04-27T12:45:43Z</time>
      </trkpt>
      <trkpt lat="48.47808" lon="-3.04888">
        <ele>242</ele>
        <time>2014-04-27T12:45:45Z</time>
      </trkpt>
      <trkpt lat="48.47806" lon="-3.04889">
        <ele>242</ele>
        <time>2014-04-27T12:45:47Z</time>
      </trkpt>
      <trkpt lat="48.47805" lon="-3.04889">
        <ele>242</ele>
        <time>2014-04-27T12:45:49Z</time>
      </trkpt>
      <trkpt lat="48.47803" lon="-3.0489">
        <ele>242</ele>
        <time>2014-04-27T12:45:51Z</time>
      </trkpt>
      <trkpt lat="48.47802" lon="-3.04891">
        <ele>242</ele>
        <time>2014-04-27T12:45:53Z</time>
      </trkpt>
      <trkpt lat="48.47801" lon="-3.04893">
        <ele>242</ele>
        <time>2014-04-27T12:45:55Z</time>
      </trkpt>
      <trkpt lat="48.478" lon="-3.04894">
        <ele>242</ele>
        <time>2014-04-27T12:45:56Z</time>
      </trkpt>
      <trkpt lat="48.47798" lon="-3.04896">
        <ele>242</ele>
        <time>2014-04-27T12:45:57Z</time>
      </trkpt>
      <trkpt lat="48.47796" lon="-3.04898">
        <ele>242</ele>
        <time>2014-04-27T12:45:59Z</time>
      </trkpt>
      <trkpt lat="48.47794" lon="-3.049">
        <ele>242</ele>
        <time>2014-04-27T12:46:00Z</time>
      </trkpt>
      <trkpt lat="48.47793" lon="-3.04901">
        <ele>242</ele>
        <time>2014-04-27T12:46:01Z</time>
      </trkpt>
      <trkpt lat="48.47791" lon="-3.04901">
        <ele>242</ele>
        <time>2014-04-27T12:46:03Z</time>
      </trkpt>
      <trkpt lat="48.47789" lon="-3.04903">
        <ele>242</ele>
        <time>2014-04-27T12:46:05Z</time>
      </trkpt>
      <trkpt lat="48.47787" lon="-3.04904">
        <ele>242</ele>
        <time>2014-04-27T12:46:06Z</time>
      </trkpt>
      <trkpt lat="48.47786" lon="-3.04905">
        <ele>242</ele>
        <time>2014-04-27T12:46:07Z</time>
      </trkpt>
      <trkpt lat="48.47784" lon="-3.04905">
        <ele>242</ele>
        <time>2014-04-27T12:46:09Z</time>
      </trkpt>
      <trkpt lat="48.47783" lon="-3.04906">
        <ele>243</ele>
        <time>2014-04-27T12:46:10Z</time>
      </trkpt>
      <trkpt lat="48.47781" lon="-3.04907">
        <ele>243</ele>
        <time>2014-04-27T12:46:11Z</time>
      </trkpt>
      <trkpt lat="48.47779" lon="-3.04907">
        <ele>243</ele>
        <time>2014-04-27T12:46:12Z</time>
      </trkpt>
      <trkpt lat="48.47778" lon="-3.04909">
        <ele>243</ele>
        <time>2014-04-27T12:46:14Z</time>
      </trkpt>
      <trkpt lat="48.47777" lon="-3.04911">
        <ele>243</ele>
        <time>2014-04-27T12:46:15Z</time>
      </trkpt>
      <trkpt lat="48.47776" lon="-3.04913">
        <ele>243</ele>
        <time>2014-04-27T12:46:17Z</time>
      </trkpt>
      <trkpt lat="48.47774" lon="-3.04913">
        <ele>243</ele>
        <time>2014-04-27T12:46:19Z</time>
      </trkpt>
      <trkpt lat="48.47772" lon="-3.04915">
        <ele>243</ele>
        <time>2014-04-27T12:46:21Z</time>
      </trkpt>
      <trkpt lat="48.4777" lon="-3.04915">
        <ele>243</ele>
        <time>2014-04-27T12:46:22Z</time>
      </trkpt>
      <trkpt lat="48.47769" lon="-3.04917">
        <ele>243</ele>
        <time>2014-04-27T12:46:23Z</time>
      </trkpt>
      <trkpt lat="48.47767" lon="-3.04915">
        <ele>243</ele>
        <time>2014-04-27T12:46:25Z</time>
      </trkpt>
      <trkpt lat="48.47765" lon="-3.04915">
        <ele>243</ele>
        <time>2014-04-27T12:46:26Z</time>
      </trkpt>
      <trkpt lat="48.47763" lon="-3.04917">
        <ele>243</ele>
        <time>2014-04-27T12:46:27Z</time>
      </trkpt>
      <trkpt lat="48.47763" lon="-3.04918">
        <ele>243</ele>
        <time>2014-04-27T12:46:29Z</time>
      </trkpt>
      <trkpt lat="48.47761" lon="-3.04919">
        <ele>243</ele>
        <time>2014-04-27T12:46:31Z</time>
      </trkpt>
      <trkpt lat="48.4776" lon="-3.04921">
        <ele>243</ele>
        <time>2014-04-27T12:46:32Z</time>
      </trkpt>
      <trkpt lat="48.47759" lon="-3.04921">
        <ele>243</ele>
        <time>2014-04-27T12:46:33Z</time>
      </trkpt>
      <trkpt lat="48.47758" lon="-3.04921">
        <ele>243</ele>
        <time>2014-04-27T12:46:35Z</time>
      </trkpt>
      <trkpt lat="48.47757" lon="-3.04922">
        <ele>243</ele>
        <time>2014-04-27T12:46:36Z</time>
      </trkpt>
      <trkpt lat="48.47755" lon="-3.04923">
        <ele>243</ele>
        <time>2014-04-27T12:46:38Z</time>
      </trkpt>
      <trkpt lat="48.47754" lon="-3.04924">
        <ele>243</ele>
        <time>2014-04-27T12:46:39Z</time>
      </trkpt>
      <trkpt lat="48.47752" lon="-3.04925">
        <ele>242</ele>
        <time>2014-04-27T12:46:40Z</time>
      </trkpt>
      <trkpt lat="48.47751" lon="-3.04926">
        <ele>240</ele>
        <time>2014-04-27T12:46:42Z</time>
      </trkpt>
      <trkpt lat="48.47749" lon="-3.04929">
        <ele>239</ele>
        <time>2014-04-27T12:46:45Z</time>
      </trkpt>
      <trkpt lat="48.47746" lon="-3.04928">
        <ele>238</ele>
        <time>2014-04-27T12:46:49Z</time>
      </trkpt>
      <trkpt lat="48.47745" lon="-3.04928">
        <ele>238</ele>
        <time>2014-04-27T12:46:50Z</time>
      </trkpt>
      <trkpt lat="48.47741" lon="-3.04928">
        <ele>237</ele>
        <time>2014-04-27T12:46:51Z</time>
      </trkpt>
      <trkpt lat="48.4774" lon="-3.04929">
        <ele>236</ele>
        <time>2014-04-27T12:46:52Z</time>
      </trkpt>
      <trkpt lat="48.47739" lon="-3.0493">
        <ele>236</ele>
        <time>2014-04-27T12:46:54Z</time>
      </trkpt>
      <trkpt lat="48.47737" lon="-3.04931">
        <ele>235</ele>
        <time>2014-04-27T12:46:55Z</time>
      </trkpt>
      <trkpt lat="48.47736" lon="-3.04933">
        <ele>234</ele>
        <time>2014-04-27T12:46:57Z</time>
      </trkpt>
      <trkpt lat="48.47735" lon="-3.04934">
        <ele>233</ele>
        <time>2014-04-27T12:46:59Z</time>
      </trkpt>
      <trkpt lat="48.47733" lon="-3.04937">
        <ele>231</ele>
        <time>2014-04-27T12:47:01Z</time>
      </trkpt>
      <trkpt lat="48.47732" lon="-3.04938">
        <ele>230</ele>
        <time>2014-04-27T12:47:02Z</time>
      </trkpt>
      <trkpt lat="48.47731" lon="-3.04939">
        <ele>229</ele>
        <time>2014-04-27T12:47:03Z</time>
      </trkpt>
      <trkpt lat="48.4773" lon="-3.04939">
        <ele>227</ele>
        <time>2014-04-27T12:47:05Z</time>
      </trkpt>
      <trkpt lat="48.47727" lon="-3.04943">
        <ele>225</ele>
        <time>2014-04-27T12:47:09Z</time>
      </trkpt>
      <trkpt lat="48.47725" lon="-3.04944">
        <ele>224</ele>
        <time>2014-04-27T12:47:10Z</time>
      </trkpt>
      <trkpt lat="48.47721" lon="-3.04946">
        <ele>223</ele>
        <time>2014-04-27T12:47:13Z</time>
      </trkpt>
      <trkpt lat="48.4772" lon="-3.04948">
        <ele>223</ele>
        <time>2014-04-27T12:47:15Z</time>
      </trkpt>
      <trkpt lat="48.47718" lon="-3.04948">
        <ele>223</ele>
        <time>2014-04-27T12:47:16Z</time>
      </trkpt>
      <trkpt lat="48.47715" lon="-3.04947">
        <ele>223</ele>
        <time>2014-04-27T12:47:17Z</time>
      </trkpt>
      <trkpt lat="48.47713" lon="-3.04948">
        <ele>223</ele>
        <time>2014-04-27T12:47:18Z</time>
      </trkpt>
      <trkpt lat="48.47711" lon="-3.04949">
        <ele>223</ele>
        <time>2014-04-27T12:47:19Z</time>
      </trkpt>
      <trkpt lat="48.47709" lon="-3.0495">
        <ele>223</ele>
        <time>2014-04-27T12:47:22Z</time>
      </trkpt>
      <trkpt lat="48.47707" lon="-3.04952">
        <ele>223</ele>
        <time>2014-04-27T12:47:24Z</time>
      </trkpt>
      <trkpt lat="48.47706" lon="-3.04954">
        <ele>223</ele>
        <time>2014-04-27T12:47:26Z</time>
      </trkpt>
      <trkpt lat="48.47704" lon="-3.04955">
        <ele>223</ele>
        <time>2014-04-27T12:47:27Z</time>
      </trkpt>
      <trkpt lat="48.47703" lon="-3.04956">
        <ele>224</ele>
        <time>2014-04-27T12:47:28Z</time>
      </trkpt>
      <trkpt lat="48.47702" lon="-3.04957">
        <ele>225</ele>
        <time>2014-04-27T12:47:29Z</time>
      </trkpt>
      <trkpt lat="48.47701" lon="-3.04958">
        <ele>226</ele>
        <time>2014-04-27T12:47:30Z</time>
      </trkpt>
      <trkpt lat="48.477" lon="-3.04959">
        <ele>228</ele>
        <time>2014-04-27T12:47:32Z</time>
      </trkpt>
      <trkpt lat="48.47698" lon="-3.04961">
        <ele>229</ele>
        <time>2014-04-27T12:47:33Z</time>
      </trkpt>
      <trkpt lat="48.47697" lon="-3.04963">
        <ele>230</ele>
        <time>2014-04-27T12:47:34Z</time>
      </trkpt>
      <trkpt lat="48.47697" lon="-3.04965">
        <ele>231</ele>
        <time>2014-04-27T12:47:35Z</time>
      </trkpt>
      <trkpt lat="48.47696" lon="-3.04968">
        <ele>233</ele>
        <time>2014-04-27T12:47:37Z</time>
      </trkpt>
      <trkpt lat="48.47694" lon="-3.04967">
        <ele>234</ele>
        <time>2014-04-27T12:47:41Z</time>
      </trkpt>
      <trkpt lat="48.47692" lon="-3.04967">
        <ele>234</ele>
        <time>2014-04-27T12:47:42Z</time>
      </trkpt>
      <trkpt lat="48.4769" lon="-3.04965">
        <ele>234</ele>
        <time>2014-04-27T12:47:45Z</time>
      </trkpt>
      <trkpt lat="48.47689" lon="-3.04967">
        <ele>234</ele>
        <time>2014-04-27T12:47:47Z</time>
      </trkpt>
      <trkpt lat="48.47687" lon="-3.04968">
        <ele>234</ele>
        <time>2014-04-27T12:47:49Z</time>
      </trkpt>
      <trkpt lat="48.47684" lon="-3.0497">
        <ele>234</ele>
        <time>2014-04-27T12:47:51Z</time>
      </trkpt>
      <trkpt lat="48.47683" lon="-3.0497">
        <ele>234</ele>
        <time>2014-04-27T12:47:52Z</time>
      </trkpt>
      <trkpt lat="48.47681" lon="-3.04971">
        <ele>234</ele>
        <time>2014-04-27T12:47:53Z</time>
      </trkpt>
      <trkpt lat="48.4768" lon="-3.04973">
        <ele>234</ele>
        <time>2014-04-27T12:47:54Z</time>
      </trkpt>
      <trkpt lat="48.47678" lon="-3.04974">
        <ele>234</ele>
        <time>2014-04-27T12:47:57Z</time>
      </trkpt>
      <trkpt lat="48.47677" lon="-3.04975">
        <ele>234</ele>
        <time>2014-04-27T12:47:58Z</time>
      </trkpt>
      <trkpt lat="48.47676" lon="-3.04975">
        <ele>234</ele>
        <time>2014-04-27T12:47:59Z</time>
      </trkpt>
      <trkpt lat="48.47674" lon="-3.04976">
        <ele>234</ele>
        <time>2014-04-27T12:48:00Z</time>
      </trkpt>
      <trkpt lat="48.47673" lon="-3.04976">
        <ele>234</ele>
        <time>2014-04-27T12:48:01Z</time>
      </trkpt>
      <trkpt lat="48.47671" lon="-3.04977">
        <ele>234</ele>
        <time>2014-04-27T12:48:02Z</time>
      </trkpt>
      <trkpt lat="48.47671" lon="-3.0498">
        <ele>234</ele>
        <time>2014-04-27T12:48:04Z</time>
      </trkpt>
      <trkpt lat="48.4767" lon="-3.04982">
        <ele>233</ele>
        <time>2014-04-27T12:48:07Z</time>
      </trkpt>
      <trkpt lat="48.47669" lon="-3.04983">
        <ele>232</ele>
        <time>2014-04-27T12:48:08Z</time>
      </trkpt>
      <trkpt lat="48.47668" lon="-3.04984">
        <ele>231</ele>
        <time>2014-04-27T12:48:09Z</time>
      </trkpt>
      <trkpt lat="48.47666" lon="-3.04985">
        <ele>230</ele>
        <time>2014-04-27T12:48:10Z</time>
      </trkpt>
      <trkpt lat="48.47665" lon="-3.04986">
        <ele>228</ele>
        <time>2014-04-27T12:48:12Z</time>
      </trkpt>
      <trkpt lat="48.47663" lon="-3.04987">
        <ele>227</ele>
        <time>2014-04-27T12:48:13Z</time>
      </trkpt>
      <trkpt lat="48.47662" lon="-3.04988">
        <ele>226</ele>
        <time>2014-04-27T12:48:14Z</time>
      </trkpt>
      <trkpt lat="48.4766" lon="-3.04989">
        <ele>226</ele>
        <time>2014-04-27T12:48:16Z</time>
      </trkpt>
      <trkpt lat="48.47659" lon="-3.04991">
        <ele>226</ele>
        <time>2014-04-27T12:48:18Z</time>
      </trkpt>
      <trkpt lat="48.47658" lon="-3.04992">
        <ele>226</ele>
        <time>2014-04-27T12:48:20Z</time>
      </trkpt>
      <trkpt lat="48.47656" lon="-3.04993">
        <ele>227</ele>
        <time>2014-04-27T12:48:21Z</time>
      </trkpt>
      <trkpt lat="48.47654" lon="-3.04994">
        <ele>228</ele>
        <time>2014-04-27T12:48:23Z</time>
      </trkpt>
      <trkpt lat="48.47653" lon="-3.04996">
        <ele>228</ele>
        <time>2014-04-27T12:48:24Z</time>
      </trkpt>
      <trkpt lat="48.47652" lon="-3.04997">
        <ele>229</ele>
        <time>2014-04-27T12:48:25Z</time>
      </trkpt>
      <trkpt lat="48.4765" lon="-3.04999">
        <ele>229</ele>
        <time>2014-04-27T12:48:27Z</time>
      </trkpt>
      <trkpt lat="48.47647" lon="-3.04998">
        <ele>230</ele>
        <time>2014-04-27T12:48:31Z</time>
      </trkpt>
      <trkpt lat="48.47646" lon="-3.04999">
        <ele>231</ele>
        <time>2014-04-27T12:48:32Z</time>
      </trkpt>
      <trkpt lat="48.47645" lon="-3.05">
        <ele>232</ele>
        <time>2014-04-27T12:48:33Z</time>
      </trkpt>
      <trkpt lat="48.47643" lon="-3.05001">
        <ele>233</ele>
        <time>2014-04-27T12:48:34Z</time>
      </trkpt>
      <trkpt lat="48.47641" lon="-3.05001">
        <ele>233</ele>
        <time>2014-04-27T12:48:35Z</time>
      </trkpt>
      <trkpt lat="48.47639" lon="-3.05002">
        <ele>234</ele>
        <time>2014-04-27T12:48:36Z</time>
      </trkpt>
      <trkpt lat="48.47637" lon="-3.05004">
        <ele>234</ele>
        <time>2014-04-27T12:48:39Z</time>
      </trkpt>
      <trkpt lat="48.47636" lon="-3.05006">
        <ele>234</ele>
        <time>2014-04-27T12:48:40Z</time>
      </trkpt>
      <trkpt lat="48.47634" lon="-3.05007">
        <ele>234</ele>
        <time>2014-04-27T12:48:41Z</time>
      </trkpt>
      <trkpt lat="48.47633" lon="-3.0501">
        <ele>234</ele>
        <time>2014-04-27T12:48:43Z</time>
      </trkpt>
      <trkpt lat="48.47632" lon="-3.05011">
        <ele>234</ele>
        <time>2014-04-27T12:48:44Z</time>
      </trkpt>
      <trkpt lat="48.47631" lon="-3.05012">
        <ele>234</ele>
        <time>2014-04-27T12:48:45Z</time>
      </trkpt>
      <trkpt lat="48.47629" lon="-3.05012">
        <ele>234</ele>
        <time>2014-04-27T12:48:46Z</time>
      </trkpt>
      <trkpt lat="48.47627" lon="-3.05014">
        <ele>233</ele>
        <time>2014-04-27T12:48:47Z</time>
      </trkpt>
      <trkpt lat="48.47626" lon="-3.05015">
        <ele>232</ele>
        <time>2014-04-27T12:48:48Z</time>
      </trkpt>
      <trkpt lat="48.47624" lon="-3.05016">
        <ele>231</ele>
        <time>2014-04-27T12:48:49Z</time>
      </trkpt>
      <trkpt lat="48.47623" lon="-3.05017">
        <ele>230</ele>
        <time>2014-04-27T12:48:50Z</time>
      </trkpt>
      <trkpt lat="48.47622" lon="-3.05018">
        <ele>228</ele>
        <time>2014-04-27T12:48:52Z</time>
      </trkpt>
      <trkpt lat="48.4762" lon="-3.05018">
        <ele>228</ele>
        <time>2014-04-27T12:48:54Z</time>
      </trkpt>
      <trkpt lat="48.47619" lon="-3.0502">
        <ele>228</ele>
        <time>2014-04-27T12:48:55Z</time>
      </trkpt>
      <trkpt lat="48.47617" lon="-3.0502">
        <ele>228</ele>
        <time>2014-04-27T12:48:57Z</time>
      </trkpt>
      <trkpt lat="48.47615" lon="-3.05019">
        <ele>228</ele>
        <time>2014-04-27T12:48:59Z</time>
      </trkpt>
      <trkpt lat="48.47613" lon="-3.05018">
        <ele>228</ele>
        <time>2014-04-27T12:49:01Z</time>
      </trkpt>
      <trkpt lat="48.47611" lon="-3.05018">
        <ele>228</ele>
        <time>2014-04-27T12:49:04Z</time>
      </trkpt>
      <trkpt lat="48.47611" lon="-3.05016">
        <ele>228</ele>
        <time>2014-04-27T12:49:09Z</time>
      </trkpt>
      <trkpt lat="48.47612" lon="-3.05016">
        <ele>229</ele>
        <time>2014-04-27T12:49:11Z</time>
      </trkpt>
      <trkpt lat="48.47612" lon="-3.05013">
        <ele>233</ele>
        <time>2014-04-27T12:49:15Z</time>
      </trkpt>
      <trkpt lat="48.47613" lon="-3.05012">
        <ele>234</ele>
        <time>2014-04-27T12:49:16Z</time>
      </trkpt>
      <trkpt lat="48.47613" lon="-3.0501">
        <ele>235</ele>
        <time>2014-04-27T12:49:19Z</time>
      </trkpt>
      <trkpt lat="48.47614" lon="-3.05008">
        <ele>234</ele>
        <time>2014-04-27T12:49:28Z</time>
      </trkpt>
      <trkpt lat="48.47614" lon="-3.0501">
        <ele>233</ele>
        <time>2014-04-27T12:49:31Z</time>
      </trkpt>
      <trkpt lat="48.47613" lon="-3.05008">
        <ele>227</ele>
        <time>2014-04-27T12:49:37Z</time>
      </trkpt>
      <trkpt lat="48.47613" lon="-3.05007">
        <ele>229</ele>
        <time>2014-04-27T12:49:44Z</time>
      </trkpt>
      <trkpt lat="48.47615" lon="-3.05007">
        <ele>229</ele>
        <time>2014-04-27T12:49:50Z</time>
      </trkpt>
      <trkpt lat="48.47616" lon="-3.05007">
        <ele>229</ele>
        <time>2014-04-27T12:49:51Z</time>
      </trkpt>
      <trkpt lat="48.47615" lon="-3.05007">
        <ele>229</ele>
        <time>2014-04-27T12:49:55Z</time>
      </trkpt>
      <trkpt lat="48.47613" lon="-3.05005">
        <ele>229</ele>
        <time>2014-04-27T12:50:00Z</time>
      </trkpt>
      <trkpt lat="48.47611" lon="-3.05004">
        <ele>226</ele>
        <time>2014-04-27T12:50:04Z</time>
      </trkpt>
      <trkpt lat="48.47611" lon="-3.05002">
        <ele>224</ele>
        <time>2014-04-27T12:50:09Z</time>
      </trkpt>
      <trkpt lat="48.4761" lon="-3.05001">
        <ele>224</ele>
        <time>2014-04-27T12:50:10Z</time>
      </trkpt>
      <trkpt lat="48.4761" lon="-3.04998">
        <ele>225</ele>
        <time>2014-04-27T12:50:12Z</time>
      </trkpt>
      <trkpt lat="48.47611" lon="-3.04998">
        <ele>228</ele>
        <time>2014-04-27T12:50:15Z</time>
      </trkpt>
      <trkpt lat="48.47613" lon="-3.04996">
        <ele>228</ele>
        <time>2014-04-27T12:50:18Z</time>
      </trkpt>
      <trkpt lat="48.47613" lon="-3.04994">
        <ele>228</ele>
        <time>2014-04-27T12:50:20Z</time>
      </trkpt>
      <trkpt lat="48.47611" lon="-3.04994">
        <ele>229</ele>
        <time>2014-04-27T12:50:24Z</time>
      </trkpt>
      <trkpt lat="48.47609" lon="-3.04993">
        <ele>229</ele>
        <time>2014-04-27T12:50:25Z</time>
      </trkpt>
      <trkpt lat="48.47609" lon="-3.04991">
        <ele>229</ele>
        <time>2014-04-27T12:50:26Z</time>
      </trkpt>
      <trkpt lat="48.47609" lon="-3.04989">
        <ele>229</ele>
        <time>2014-04-27T12:50:27Z</time>
      </trkpt>
      <trkpt lat="48.47609" lon="-3.04987">
        <ele>229</ele>
        <time>2014-04-27T12:50:30Z</time>
      </trkpt>
      <trkpt lat="48.4761" lon="-3.04984">
        <ele>229</ele>
        <time>2014-04-27T12:50:31Z</time>
      </trkpt>
      <trkpt lat="48.47611" lon="-3.04982">
        <ele>229</ele>
        <time>2014-04-27T12:50:33Z</time>
      </trkpt>
      <trkpt lat="48.47611" lon="-3.0498">
        <ele>229</ele>
        <time>2014-04-27T12:50:35Z</time>
      </trkpt>
      <trkpt lat="48.47613" lon="-3.04976">
        <ele>229</ele>
        <time>2014-04-27T12:50:37Z</time>
      </trkpt>
      <trkpt lat="48.47613" lon="-3.04974">
        <ele>228</ele>
        <time>2014-04-27T12:50:39Z</time>
      </trkpt>
      <trkpt lat="48.47613" lon="-3.04972">
        <ele>227</ele>
        <time>2014-04-27T12:50:41Z</time>
      </trkpt>
      <trkpt lat="48.47614" lon="-3.04969">
        <ele>226</ele>
        <time>2014-04-27T12:50:43Z</time>
      </trkpt>
      <trkpt lat="48.47615" lon="-3.04967">
        <ele>226</ele>
        <time>2014-04-27T12:50:44Z</time>
      </trkpt>
      <trkpt lat="48.47612" lon="-3.04966">
        <ele>225</ele>
        <time>2014-04-27T12:50:47Z</time>
      </trkpt>
      <trkpt lat="48.47611" lon="-3.04966">
        <ele>224</ele>
        <time>2014-04-27T12:50:48Z</time>
      </trkpt>
      <trkpt lat="48.47611" lon="-3.04964">
        <ele>224</ele>
        <time>2014-04-27T12:50:49Z</time>
      </trkpt>
      <trkpt lat="48.47609" lon="-3.04966">
        <ele>224</ele>
        <time>2014-04-27T12:50:51Z</time>
      </trkpt>
      <trkpt lat="48.47608" lon="-3.04967">
        <ele>224</ele>
        <time>2014-04-27T12:50:52Z</time>
      </trkpt>
      <trkpt lat="48.47607" lon="-3.0497">
        <ele>224</ele>
        <time>2014-04-27T12:50:54Z</time>
      </trkpt>
      <trkpt lat="48.47605" lon="-3.04969">
        <ele>226</ele>
        <time>2014-04-27T12:50:58Z</time>
      </trkpt>
      <trkpt lat="48.47604" lon="-3.0497">
        <ele>226</ele>
        <time>2014-04-27T12:51:00Z</time>
      </trkpt>
      <trkpt lat="48.47603" lon="-3.0497">
        <ele>227</ele>
        <time>2014-04-27T12:51:02Z</time>
      </trkpt>
      <trkpt lat="48.47601" lon="-3.0497">
        <ele>227</ele>
        <time>2014-04-27T12:51:04Z</time>
      </trkpt>
      <trkpt lat="48.47599" lon="-3.04971">
        <ele>227</ele>
        <time>2014-04-27T12:51:06Z</time>
      </trkpt>
      <trkpt lat="48.47599" lon="-3.04973">
        <ele>225</ele>
        <time>2014-04-27T12:51:08Z</time>
      </trkpt>
      <trkpt lat="48.47598" lon="-3.04974">
        <ele>223</ele>
        <time>2014-04-27T12:51:11Z</time>
      </trkpt>
      <trkpt lat="48.47599" lon="-3.04976">
        <ele>222</ele>
        <time>2014-04-27T12:51:14Z</time>
      </trkpt>
      <trkpt lat="48.476" lon="-3.04976">
        <ele>222</ele>
        <time>2014-04-27T12:51:18Z</time>
      </trkpt>
      <trkpt lat="48.47601" lon="-3.04974">
        <ele>222</ele>
        <time>2014-04-27T12:51:19Z</time>
      </trkpt>
      <trkpt lat="48.47602" lon="-3.04971">
        <ele>222</ele>
        <time>2014-04-27T12:51:20Z</time>
      </trkpt>
      <trkpt lat="48.47602" lon="-3.04969">
        <ele>222</ele>
        <time>2014-04-27T12:51:21Z</time>
      </trkpt>
      <trkpt lat="48.47602" lon="-3.04967">
        <ele>222</ele>
        <time>2014-04-27T12:51:22Z</time>
      </trkpt>
      <trkpt lat="48.47603" lon="-3.0496">
        <ele>222</ele>
        <time>2014-04-27T12:51:25Z</time>
      </trkpt>
      <trkpt lat="48.47603" lon="-3.04955">
        <ele>222</ele>
        <time>2014-04-27T12:51:26Z</time>
      </trkpt>
      <trkpt lat="48.47604" lon="-3.04952">
        <ele>222</ele>
        <time>2014-04-27T12:51:27Z</time>
      </trkpt>
      <trkpt lat="48.47603" lon="-3.04949">
        <ele>222</ele>
        <time>2014-04-27T12:51:28Z</time>
      </trkpt>
      <trkpt lat="48.47603" lon="-3.04945">
        <ele>222</ele>
        <time>2014-04-27T12:51:29Z</time>
      </trkpt>
      <trkpt lat="48.47603" lon="-3.04941">
        <ele>222</ele>
        <time>2014-04-27T12:51:30Z</time>
      </trkpt>
      <trkpt lat="48.47603" lon="-3.04939">
        <ele>222</ele>
        <time>2014-04-27T12:51:31Z</time>
      </trkpt>
      <trkpt lat="48.47603" lon="-3.04937">
        <ele>222</ele>
        <time>2014-04-27T12:51:32Z</time>
      </trkpt>
      <trkpt lat="48.47602" lon="-3.04937">
        <ele>223</ele>
        <time>2014-04-27T12:51:33Z</time>
      </trkpt>
      <trkpt lat="48.476" lon="-3.04935">
        <ele>227</ele>
        <time>2014-04-27T12:51:37Z</time>
      </trkpt>
      <trkpt lat="48.476" lon="-3.04933">
        <ele>228</ele>
        <time>2014-04-27T12:51:38Z</time>
      </trkpt>
      <trkpt lat="48.47599" lon="-3.04931">
        <ele>228</ele>
        <time>2014-04-27T12:51:39Z</time>
      </trkpt>
      <trkpt lat="48.476" lon="-3.04927">
        <ele>229</ele>
        <time>2014-04-27T12:51:41Z</time>
      </trkpt>
      <trkpt lat="48.476" lon="-3.04925">
        <ele>230</ele>
        <time>2014-04-27T12:51:42Z</time>
      </trkpt>
      <trkpt lat="48.47598" lon="-3.0492">
        <ele>231</ele>
        <time>2014-04-27T12:51:46Z</time>
      </trkpt>
      <trkpt lat="48.47597" lon="-3.04918">
        <ele>231</ele>
        <time>2014-04-27T12:51:47Z</time>
      </trkpt>
      <trkpt lat="48.47597" lon="-3.04915">
        <ele>231</ele>
        <time>2014-04-27T12:51:48Z</time>
      </trkpt>
      <trkpt lat="48.47598" lon="-3.04914">
        <ele>231</ele>
        <time>2014-04-27T12:51:49Z</time>
      </trkpt>
      <trkpt lat="48.47598" lon="-3.04909">
        <ele>231</ele>
        <time>2014-04-27T12:51:50Z</time>
      </trkpt>
      <trkpt lat="48.47598" lon="-3.04906">
        <ele>231</ele>
        <time>2014-04-27T12:51:51Z</time>
      </trkpt>
      <trkpt lat="48.47598" lon="-3.04903">
        <ele>231</ele>
        <time>2014-04-27T12:51:52Z</time>
      </trkpt>
      <trkpt lat="48.47597" lon="-3.049">
        <ele>231</ele>
        <time>2014-04-27T12:51:53Z</time>
      </trkpt>
      <trkpt lat="48.47597" lon="-3.04898">
        <ele>231</ele>
        <time>2014-04-27T12:51:54Z</time>
      </trkpt>
      <trkpt lat="48.47595" lon="-3.04895">
        <ele>231</ele>
        <time>2014-04-27T12:51:55Z</time>
      </trkpt>
      <trkpt lat="48.47595" lon="-3.04893">
        <ele>231</ele>
        <time>2014-04-27T12:51:56Z</time>
      </trkpt>
      <trkpt lat="48.47594" lon="-3.04891">
        <ele>231</ele>
        <time>2014-04-27T12:51:59Z</time>
      </trkpt>
      <trkpt lat="48.47594" lon="-3.04888">
        <ele>231</ele>
        <time>2014-04-27T12:52:00Z</time>
      </trkpt>
      <trkpt lat="48.47593" lon="-3.04886">
        <ele>231</ele>
        <time>2014-04-27T12:52:02Z</time>
      </trkpt>
      <trkpt lat="48.47593" lon="-3.04885">
        <ele>231</ele>
        <time>2014-04-27T12:52:04Z</time>
      </trkpt>
      <trkpt lat="48.47595" lon="-3.04879">
        <ele>231</ele>
        <time>2014-04-27T12:52:07Z</time>
      </trkpt>
      <trkpt lat="48.47595" lon="-3.04877">
        <ele>231</ele>
        <time>2014-04-27T12:52:08Z</time>
      </trkpt>
      <trkpt lat="48.47594" lon="-3.04873">
        <ele>231</ele>
        <time>2014-04-27T12:52:12Z</time>
      </trkpt>
      <trkpt lat="48.47592" lon="-3.0487">
        <ele>230</ele>
        <time>2014-04-27T12:52:13Z</time>
      </trkpt>
      <trkpt lat="48.4759" lon="-3.04869">
        <ele>229</ele>
        <time>2014-04-27T12:52:14Z</time>
      </trkpt>
      <trkpt lat="48.47589" lon="-3.04867">
        <ele>229</ele>
        <time>2014-04-27T12:52:15Z</time>
      </trkpt>
      <trkpt lat="48.47589" lon="-3.04865">
        <ele>229</ele>
        <time>2014-04-27T12:52:16Z</time>
      </trkpt>
      <trkpt lat="48.47587" lon="-3.04864">
        <ele>229</ele>
        <time>2014-04-27T12:52:17Z</time>
      </trkpt>
      <trkpt lat="48.47586" lon="-3.04863">
        <ele>229</ele>
        <time>2014-04-27T12:52:18Z</time>
      </trkpt>
      <trkpt lat="48.47585" lon="-3.04861">
        <ele>229</ele>
        <time>2014-04-27T12:52:20Z</time>
      </trkpt>
      <trkpt lat="48.47584" lon="-3.04859">
        <ele>229</ele>
        <time>2014-04-27T12:52:21Z</time>
      </trkpt>
      <trkpt lat="48.47583" lon="-3.04858">
        <ele>229</ele>
        <time>2014-04-27T12:52:22Z</time>
      </trkpt>
      <trkpt lat="48.47582" lon="-3.04855">
        <ele>229</ele>
        <time>2014-04-27T12:52:23Z</time>
      </trkpt>
      <trkpt lat="48.47581" lon="-3.04852">
        <ele>229</ele>
        <time>2014-04-27T12:52:24Z</time>
      </trkpt>
      <trkpt lat="48.47581" lon="-3.04849">
        <ele>229</ele>
        <time>2014-04-27T12:52:25Z</time>
      </trkpt>
      <trkpt lat="48.47581" lon="-3.04846">
        <ele>230</ele>
        <time>2014-04-27T12:52:26Z</time>
      </trkpt>
      <trkpt lat="48.47581" lon="-3.04844">
        <ele>230</ele>
        <time>2014-04-27T12:52:27Z</time>
      </trkpt>
      <trkpt lat="48.47581" lon="-3.04842">
        <ele>230</ele>
        <time>2014-04-27T12:52:28Z</time>
      </trkpt>
      <trkpt lat="48.47582" lon="-3.04838">
        <ele>230</ele>
        <time>2014-04-27T12:52:31Z</time>
      </trkpt>
      <trkpt lat="48.47582" lon="-3.04836">
        <ele>230</ele>
        <time>2014-04-27T12:52:32Z</time>
      </trkpt>
      <trkpt lat="48.47583" lon="-3.04834">
        <ele>230</ele>
        <time>2014-04-27T12:52:33Z</time>
      </trkpt>
      <trkpt lat="48.47583" lon="-3.04831">
        <ele>230</ele>
        <time>2014-04-27T12:52:35Z</time>
      </trkpt>
      <trkpt lat="48.47582" lon="-3.04827">
        <ele>230</ele>
        <time>2014-04-27T12:52:37Z</time>
      </trkpt>
      <trkpt lat="48.47582" lon="-3.04825">
        <ele>230</ele>
        <time>2014-04-27T12:52:38Z</time>
      </trkpt>
      <trkpt lat="48.47581" lon="-3.04823">
        <ele>230</ele>
        <time>2014-04-27T12:52:39Z</time>
      </trkpt>
      <trkpt lat="48.47582" lon="-3.04819">
        <ele>230</ele>
        <time>2014-04-27T12:52:43Z</time>
      </trkpt>
      <trkpt lat="48.47582" lon="-3.04814">
        <ele>230</ele>
        <time>2014-04-27T12:52:44Z</time>
      </trkpt>
      <trkpt lat="48.47582" lon="-3.04811">
        <ele>230</ele>
        <time>2014-04-27T12:52:45Z</time>
      </trkpt>
      <trkpt lat="48.4758" lon="-3.04809">
        <ele>230</ele>
        <time>2014-04-27T12:52:47Z</time>
      </trkpt>
      <trkpt lat="48.47578" lon="-3.04807">
        <ele>230</ele>
        <time>2014-04-27T12:52:49Z</time>
      </trkpt>
      <trkpt lat="48.47578" lon="-3.04805">
        <ele>230</ele>
        <time>2014-04-27T12:52:50Z</time>
      </trkpt>
      <trkpt lat="48.47578" lon="-3.04802">
        <ele>230</ele>
        <time>2014-04-27T12:52:52Z</time>
      </trkpt>
      <trkpt lat="48.47577" lon="-3.048">
        <ele>230</ele>
        <time>2014-04-27T12:52:54Z</time>
      </trkpt>
      <trkpt lat="48.47577" lon="-3.04797">
        <ele>230</ele>
        <time>2014-04-27T12:52:55Z</time>
      </trkpt>
      <trkpt lat="48.47578" lon="-3.04795">
        <ele>230</ele>
        <time>2014-04-27T12:52:57Z</time>
      </trkpt>
      <trkpt lat="48.47578" lon="-3.04793">
        <ele>230</ele>
        <time>2014-04-27T12:52:59Z</time>
      </trkpt>
      <trkpt lat="48.47577" lon="-3.04789">
        <ele>230</ele>
        <time>2014-04-27T12:53:02Z</time>
      </trkpt>
      <trkpt lat="48.47575" lon="-3.04787">
        <ele>230</ele>
        <time>2014-04-27T12:53:03Z</time>
      </trkpt>
      <trkpt lat="48.47573" lon="-3.04785">
        <ele>230</ele>
        <time>2014-04-27T12:53:05Z</time>
      </trkpt>
      <trkpt lat="48.47572" lon="-3.04782">
        <ele>230</ele>
        <time>2014-04-27T12:53:06Z</time>
      </trkpt>
      <trkpt lat="48.47571" lon="-3.04778">
        <ele>229</ele>
        <time>2014-04-27T12:53:09Z</time>
      </trkpt>
      <trkpt lat="48.4757" lon="-3.04778">
        <ele>229</ele>
        <time>2014-04-27T12:53:10Z</time>
      </trkpt>
      <trkpt lat="48.4757" lon="-3.04775">
        <ele>229</ele>
        <time>2014-04-27T12:53:12Z</time>
      </trkpt>
      <trkpt lat="48.4757" lon="-3.04773">
        <ele>229</ele>
        <time>2014-04-27T12:53:13Z</time>
      </trkpt>
      <trkpt lat="48.47569" lon="-3.0477">
        <ele>229</ele>
        <time>2014-04-27T12:53:14Z</time>
      </trkpt>
      <trkpt lat="48.47569" lon="-3.04768">
        <ele>229</ele>
        <time>2014-04-27T12:53:15Z</time>
      </trkpt>
      <trkpt lat="48.47568" lon="-3.04766">
        <ele>228</ele>
        <time>2014-04-27T12:53:16Z</time>
      </trkpt>
      <trkpt lat="48.47567" lon="-3.04763">
        <ele>228</ele>
        <time>2014-04-27T12:53:17Z</time>
      </trkpt>
      <trkpt lat="48.47566" lon="-3.04758">
        <ele>227</ele>
        <time>2014-04-27T12:53:20Z</time>
      </trkpt>
      <trkpt lat="48.47567" lon="-3.0475">
        <ele>227</ele>
        <time>2014-04-27T12:53:21Z</time>
      </trkpt>
      <trkpt lat="48.47566" lon="-3.04746">
        <ele>227</ele>
        <time>2014-04-27T12:53:22Z</time>
      </trkpt>
      <trkpt lat="48.47563" lon="-3.04742">
        <ele>227</ele>
        <time>2014-04-27T12:53:25Z</time>
      </trkpt>
      <trkpt lat="48.47562" lon="-3.04738">
        <ele>227</ele>
        <time>2014-04-27T12:53:26Z</time>
      </trkpt>
      <trkpt lat="48.47561" lon="-3.04737">
        <ele>227</ele>
        <time>2014-04-27T12:53:27Z</time>
      </trkpt>
      <trkpt lat="48.4756" lon="-3.04736">
        <ele>227</ele>
        <time>2014-04-27T12:53:28Z</time>
      </trkpt>
      <trkpt lat="48.47559" lon="-3.04731">
        <ele>227</ele>
        <time>2014-04-27T12:53:30Z</time>
      </trkpt>
      <trkpt lat="48.47558" lon="-3.04727">
        <ele>227</ele>
        <time>2014-04-27T12:53:32Z</time>
      </trkpt>
      <trkpt lat="48.47559" lon="-3.04724">
        <ele>227</ele>
        <time>2014-04-27T12:53:34Z</time>
      </trkpt>
      <trkpt lat="48.47558" lon="-3.04721">
        <ele>227</ele>
        <time>2014-04-27T12:53:35Z</time>
      </trkpt>
      <trkpt lat="48.47557" lon="-3.04719">
        <ele>227</ele>
        <time>2014-04-27T12:53:37Z</time>
      </trkpt>
      <trkpt lat="48.47557" lon="-3.04717">
        <ele>228</ele>
        <time>2014-04-27T12:53:38Z</time>
      </trkpt>
      <trkpt lat="48.47557" lon="-3.04716">
        <ele>229</ele>
        <time>2014-04-27T12:53:40Z</time>
      </trkpt>
      <trkpt lat="48.47557" lon="-3.04714">
        <ele>229</ele>
        <time>2014-04-27T12:53:41Z</time>
      </trkpt>
      <trkpt lat="48.47558" lon="-3.04711">
        <ele>229</ele>
        <time>2014-04-27T12:53:43Z</time>
      </trkpt>
      <trkpt lat="48.47559" lon="-3.04707">
        <ele>229</ele>
        <time>2014-04-27T12:53:47Z</time>
      </trkpt>
      <trkpt lat="48.4756" lon="-3.04704">
        <ele>229</ele>
        <time>2014-04-27T12:53:48Z</time>
      </trkpt>
      <trkpt lat="48.47559" lon="-3.04701">
        <ele>229</ele>
        <time>2014-04-27T12:53:49Z</time>
      </trkpt>
      <trkpt lat="48.47559" lon="-3.04699">
        <ele>229</ele>
        <time>2014-04-27T12:53:50Z</time>
      </trkpt>
      <trkpt lat="48.47557" lon="-3.04697">
        <ele>229</ele>
        <time>2014-04-27T12:53:52Z</time>
      </trkpt>
      <trkpt lat="48.47556" lon="-3.04695">
        <ele>229</ele>
        <time>2014-04-27T12:53:53Z</time>
      </trkpt>
      <trkpt lat="48.47555" lon="-3.04692">
        <ele>229</ele>
        <time>2014-04-27T12:53:54Z</time>
      </trkpt>
      <trkpt lat="48.47554" lon="-3.0469">
        <ele>229</ele>
        <time>2014-04-27T12:53:55Z</time>
      </trkpt>
      <trkpt lat="48.47553" lon="-3.04687">
        <ele>229</ele>
        <time>2014-04-27T12:53:56Z</time>
      </trkpt>
      <trkpt lat="48.47552" lon="-3.04684">
        <ele>229</ele>
        <time>2014-04-27T12:53:57Z</time>
      </trkpt>
      <trkpt lat="48.47551" lon="-3.04682">
        <ele>229</ele>
        <time>2014-04-27T12:53:58Z</time>
      </trkpt>
      <trkpt lat="48.4755" lon="-3.0468">
        <ele>229</ele>
        <time>2014-04-27T12:53:59Z</time>
      </trkpt>
      <trkpt lat="48.47548" lon="-3.04678">
        <ele>229</ele>
        <time>2014-04-27T12:54:01Z</time>
      </trkpt>
      <trkpt lat="48.47545" lon="-3.04673">
        <ele>229</ele>
        <time>2014-04-27T12:54:05Z</time>
      </trkpt>
      <trkpt lat="48.47545" lon="-3.04669">
        <ele>229</ele>
        <time>2014-04-27T12:54:06Z</time>
      </trkpt>
      <trkpt lat="48.47544" lon="-3.04664">
        <ele>229</ele>
        <time>2014-04-27T12:54:07Z</time>
      </trkpt>
      <trkpt lat="48.47542" lon="-3.04663">
        <ele>229</ele>
        <time>2014-04-27T12:54:08Z</time>
      </trkpt>
      <trkpt lat="48.47541" lon="-3.04658">
        <ele>229</ele>
        <time>2014-04-27T12:54:14Z</time>
      </trkpt>
      <trkpt lat="48.47542" lon="-3.04658">
        <ele>229</ele>
        <time>2014-04-27T12:54:15Z</time>
      </trkpt>
      <trkpt lat="48.47544" lon="-3.04653">
        <ele>230</ele>
        <time>2014-04-27T12:54:16Z</time>
      </trkpt>
      <trkpt lat="48.47545" lon="-3.0465">
        <ele>231</ele>
        <time>2014-04-27T12:54:17Z</time>
      </trkpt>
      <trkpt lat="48.47544" lon="-3.04647">
        <ele>232</ele>
        <time>2014-04-27T12:54:18Z</time>
      </trkpt>
      <trkpt lat="48.47543" lon="-3.04644">
        <ele>233</ele>
        <time>2014-04-27T12:54:19Z</time>
      </trkpt>
      <trkpt lat="48.47543" lon="-3.04641">
        <ele>233</ele>
        <time>2014-04-27T12:54:20Z</time>
      </trkpt>
      <trkpt lat="48.47543" lon="-3.04639">
        <ele>233</ele>
        <time>2014-04-27T12:54:21Z</time>
      </trkpt>
      <trkpt lat="48.47543" lon="-3.04635">
        <ele>233</ele>
        <time>2014-04-27T12:54:23Z</time>
      </trkpt>
      <trkpt lat="48.47543" lon="-3.04633">
        <ele>233</ele>
        <time>2014-04-27T12:54:24Z</time>
      </trkpt>
      <trkpt lat="48.47542" lon="-3.04631">
        <ele>233</ele>
        <time>2014-04-27T12:54:25Z</time>
      </trkpt>
      <trkpt lat="48.47541" lon="-3.04629">
        <ele>233</ele>
        <time>2014-04-27T12:54:27Z</time>
      </trkpt>
      <trkpt lat="48.4754" lon="-3.04627">
        <ele>233</ele>
        <time>2014-04-27T12:54:28Z</time>
      </trkpt>
      <trkpt lat="48.47538" lon="-3.04625">
        <ele>233</ele>
        <time>2014-04-27T12:54:30Z</time>
      </trkpt>
      <trkpt lat="48.47537" lon="-3.04621">
        <ele>233</ele>
        <time>2014-04-27T12:54:32Z</time>
      </trkpt>
      <trkpt lat="48.47536" lon="-3.04619">
        <ele>233</ele>
        <time>2014-04-27T12:54:33Z</time>
      </trkpt>
      <trkpt lat="48.47535" lon="-3.04616">
        <ele>233</ele>
        <time>2014-04-27T12:54:35Z</time>
      </trkpt>
      <trkpt lat="48.47535" lon="-3.04614">
        <ele>233</ele>
        <time>2014-04-27T12:54:37Z</time>
      </trkpt>
      <trkpt lat="48.47535" lon="-3.04611">
        <ele>233</ele>
        <time>2014-04-27T12:54:40Z</time>
      </trkpt>
      <trkpt lat="48.47534" lon="-3.04609">
        <ele>233</ele>
        <time>2014-04-27T12:54:42Z</time>
      </trkpt>
      <trkpt lat="48.47534" lon="-3.04607">
        <ele>233</ele>
        <time>2014-04-27T12:54:43Z</time>
      </trkpt>
      <trkpt lat="48.47535" lon="-3.04604">
        <ele>233</ele>
        <time>2014-04-27T12:54:44Z</time>
      </trkpt>
      <trkpt lat="48.47535" lon="-3.04601">
        <ele>233</ele>
        <time>2014-04-27T12:54:45Z</time>
      </trkpt>
      <trkpt lat="48.47535" lon="-3.04598">
        <ele>233</ele>
        <time>2014-04-27T12:54:47Z</time>
      </trkpt>
      <trkpt lat="48.47536" lon="-3.04594">
        <ele>233</ele>
        <time>2014-04-27T12:54:48Z</time>
      </trkpt>
      <trkpt lat="48.47535" lon="-3.04592">
        <ele>233</ele>
        <time>2014-04-27T12:54:49Z</time>
      </trkpt>
      <trkpt lat="48.47536" lon="-3.0459">
        <ele>233</ele>
        <time>2014-04-27T12:54:50Z</time>
      </trkpt>
      <trkpt lat="48.47535" lon="-3.04588">
        <ele>233</ele>
        <time>2014-04-27T12:54:51Z</time>
      </trkpt>
      <trkpt lat="48.47534" lon="-3.04586">
        <ele>233</ele>
        <time>2014-04-27T12:54:52Z</time>
      </trkpt>
      <trkpt lat="48.47534" lon="-3.04584">
        <ele>233</ele>
        <time>2014-04-27T12:54:53Z</time>
      </trkpt>
      <trkpt lat="48.47534" lon="-3.04582">
        <ele>233</ele>
        <time>2014-04-27T12:54:55Z</time>
      </trkpt>
      <trkpt lat="48.47532" lon="-3.04581">
        <ele>233</ele>
        <time>2014-04-27T12:54:57Z</time>
      </trkpt>
      <trkpt lat="48.47531" lon="-3.0458">
        <ele>233</ele>
        <time>2014-04-27T12:54:58Z</time>
      </trkpt>
      <trkpt lat="48.4753" lon="-3.04579">
        <ele>233</ele>
        <time>2014-04-27T12:54:59Z</time>
      </trkpt>
      <trkpt lat="48.47528" lon="-3.04578">
        <ele>233</ele>
        <time>2014-04-27T12:55:00Z</time>
      </trkpt>
      <trkpt lat="48.47528" lon="-3.04576">
        <ele>233</ele>
        <time>2014-04-27T12:55:01Z</time>
      </trkpt>
      <trkpt lat="48.47527" lon="-3.04574">
        <ele>233</ele>
        <time>2014-04-27T12:55:02Z</time>
      </trkpt>
      <trkpt lat="48.47525" lon="-3.04572">
        <ele>233</ele>
        <time>2014-04-27T12:55:04Z</time>
      </trkpt>
      <trkpt lat="48.47524" lon="-3.04572">
        <ele>233</ele>
        <time>2014-04-27T12:55:05Z</time>
      </trkpt>
      <trkpt lat="48.47524" lon="-3.0457">
        <ele>234</ele>
        <time>2014-04-27T12:55:06Z</time>
      </trkpt>
      <trkpt lat="48.47524" lon="-3.04567">
        <ele>234</ele>
        <time>2014-04-27T12:55:07Z</time>
      </trkpt>
      <trkpt lat="48.47524" lon="-3.04565">
        <ele>234</ele>
        <time>2014-04-27T12:55:08Z</time>
      </trkpt>
      <trkpt lat="48.47524" lon="-3.04563">
        <ele>234</ele>
        <time>2014-04-27T12:55:09Z</time>
      </trkpt>
      <trkpt lat="48.47524" lon="-3.04561">
        <ele>234</ele>
        <time>2014-04-27T12:55:10Z</time>
      </trkpt>
      <trkpt lat="48.47524" lon="-3.04558">
        <ele>234</ele>
        <time>2014-04-27T12:55:11Z</time>
      </trkpt>
      <trkpt lat="48.47523" lon="-3.04556">
        <ele>234</ele>
        <time>2014-04-27T12:55:12Z</time>
      </trkpt>
      <trkpt lat="48.47523" lon="-3.04554">
        <ele>234</ele>
        <time>2014-04-27T12:55:13Z</time>
      </trkpt>
      <trkpt lat="48.47523" lon="-3.04553">
        <ele>234</ele>
        <time>2014-04-27T12:55:14Z</time>
      </trkpt>
      <trkpt lat="48.47522" lon="-3.04549">
        <ele>234</ele>
        <time>2014-04-27T12:55:16Z</time>
      </trkpt>
      <trkpt lat="48.47522" lon="-3.04547">
        <ele>233</ele>
        <time>2014-04-27T12:55:17Z</time>
      </trkpt>
      <trkpt lat="48.47522" lon="-3.04545">
        <ele>233</ele>
        <time>2014-04-27T12:55:18Z</time>
      </trkpt>
      <trkpt lat="48.47522" lon="-3.04542">
        <ele>232</ele>
        <time>2014-04-27T12:55:19Z</time>
      </trkpt>
      <trkpt lat="48.47522" lon="-3.0454">
        <ele>232</ele>
        <time>2014-04-27T12:55:20Z</time>
      </trkpt>
      <trkpt lat="48.47522" lon="-3.04537">
        <ele>232</ele>
        <time>2014-04-27T12:55:22Z</time>
      </trkpt>
      <trkpt lat="48.47521" lon="-3.04535">
        <ele>232</ele>
        <time>2014-04-27T12:55:24Z</time>
      </trkpt>
      <trkpt lat="48.4752" lon="-3.04532">
        <ele>232</ele>
        <time>2014-04-27T12:55:26Z</time>
      </trkpt>
      <trkpt lat="48.47519" lon="-3.0453">
        <ele>232</ele>
        <time>2014-04-27T12:55:27Z</time>
      </trkpt>
      <trkpt lat="48.47519" lon="-3.04528">
        <ele>232</ele>
        <time>2014-04-27T12:55:28Z</time>
      </trkpt>
      <trkpt lat="48.47519" lon="-3.04525">
        <ele>231</ele>
        <time>2014-04-27T12:55:30Z</time>
      </trkpt>
      <trkpt lat="48.47519" lon="-3.04524">
        <ele>231</ele>
        <time>2014-04-27T12:55:31Z</time>
      </trkpt>
      <trkpt lat="48.47519" lon="-3.04521">
        <ele>230</ele>
        <time>2014-04-27T12:55:33Z</time>
      </trkpt>
      <trkpt lat="48.47518" lon="-3.04518">
        <ele>229</ele>
        <time>2014-04-27T12:55:35Z</time>
      </trkpt>
      <trkpt lat="48.47517" lon="-3.04515">
        <ele>229</ele>
        <time>2014-04-27T12:55:36Z</time>
      </trkpt>
      <trkpt lat="48.47516" lon="-3.04512">
        <ele>229</ele>
        <time>2014-04-27T12:55:38Z</time>
      </trkpt>
      <trkpt lat="48.47516" lon="-3.04509">
        <ele>229</ele>
        <time>2014-04-27T12:55:39Z</time>
      </trkpt>
      <trkpt lat="48.47516" lon="-3.04507">
        <ele>229</ele>
        <time>2014-04-27T12:55:40Z</time>
      </trkpt>
      <trkpt lat="48.47516" lon="-3.04505">
        <ele>229</ele>
        <time>2014-04-27T12:55:42Z</time>
      </trkpt>
      <trkpt lat="48.47516" lon="-3.04503">
        <ele>229</ele>
        <time>2014-04-27T12:55:43Z</time>
      </trkpt>
      <trkpt lat="48.47514" lon="-3.04501">
        <ele>229</ele>
        <time>2014-04-27T12:55:45Z</time>
      </trkpt>
      <trkpt lat="48.47513" lon="-3.04498">
        <ele>229</ele>
        <time>2014-04-27T12:55:47Z</time>
      </trkpt>
      <trkpt lat="48.47512" lon="-3.04496">
        <ele>229</ele>
        <time>2014-04-27T12:55:48Z</time>
      </trkpt>
      <trkpt lat="48.47511" lon="-3.04494">
        <ele>229</ele>
        <time>2014-04-27T12:55:49Z</time>
      </trkpt>
      <trkpt lat="48.4751" lon="-3.04493">
        <ele>229</ele>
        <time>2014-04-27T12:55:51Z</time>
      </trkpt>
      <trkpt lat="48.47511" lon="-3.04493">
        <ele>229</ele>
        <time>2014-04-27T12:55:55Z</time>
      </trkpt>
      <trkpt lat="48.47512" lon="-3.04496">
        <ele>229</ele>
        <time>2014-04-27T12:55:56Z</time>
      </trkpt>
      <trkpt lat="48.47513" lon="-3.04498">
        <ele>229</ele>
        <time>2014-04-27T12:55:58Z</time>
      </trkpt>
      <trkpt lat="48.47514" lon="-3.04498">
        <ele>228</ele>
        <time>2014-04-27T12:55:59Z</time>
      </trkpt>
      <trkpt lat="48.47514" lon="-3.04496">
        <ele>227</ele>
        <time>2014-04-27T12:56:00Z</time>
      </trkpt>
      <trkpt lat="48.47514" lon="-3.04493">
        <ele>226</ele>
        <time>2014-04-27T12:56:01Z</time>
      </trkpt>
      <trkpt lat="48.47512" lon="-3.04492">
        <ele>226</ele>
        <time>2014-04-27T12:56:03Z</time>
      </trkpt>
      <trkpt lat="48.47509" lon="-3.04494">
        <ele>225</ele>
        <time>2014-04-27T12:56:05Z</time>
      </trkpt>
      <trkpt lat="48.47507" lon="-3.04495">
        <ele>225</ele>
        <time>2014-04-27T12:56:06Z</time>
      </trkpt>
      <trkpt lat="48.47506" lon="-3.04498">
        <ele>224</ele>
        <time>2014-04-27T12:56:08Z</time>
      </trkpt>
      <trkpt lat="48.47505" lon="-3.045">
        <ele>223</ele>
        <time>2014-04-27T12:56:09Z</time>
      </trkpt>
      <trkpt lat="48.47504" lon="-3.04503">
        <ele>223</ele>
        <time>2014-04-27T12:56:11Z</time>
      </trkpt>
      <trkpt lat="48.47504" lon="-3.04506">
        <ele>223</ele>
        <time>2014-04-27T12:56:13Z</time>
      </trkpt>
      <trkpt lat="48.47504" lon="-3.04508">
        <ele>223</ele>
        <time>2014-04-27T12:56:15Z</time>
      </trkpt>
      <trkpt lat="48.47501" lon="-3.04509">
        <ele>223</ele>
        <time>2014-04-27T12:56:17Z</time>
      </trkpt>
      <trkpt lat="48.47499" lon="-3.0451">
        <ele>223</ele>
        <time>2014-04-27T12:56:18Z</time>
      </trkpt>
      <trkpt lat="48.47498" lon="-3.0451">
        <ele>223</ele>
        <time>2014-04-27T12:56:19Z</time>
      </trkpt>
      <trkpt lat="48.47496" lon="-3.0451">
        <ele>222</ele>
        <time>2014-04-27T12:56:21Z</time>
      </trkpt>
      <trkpt lat="48.47495" lon="-3.04511">
        <ele>220</ele>
        <time>2014-04-27T12:56:23Z</time>
      </trkpt>
      <trkpt lat="48.47493" lon="-3.04512">
        <ele>220</ele>
        <time>2014-04-27T12:56:25Z</time>
      </trkpt>
      <trkpt lat="48.47492" lon="-3.04513">
        <ele>219</ele>
        <time>2014-04-27T12:56:29Z</time>
      </trkpt>
      <trkpt lat="48.47491" lon="-3.04515">
        <ele>219</ele>
        <time>2014-04-27T12:56:31Z</time>
      </trkpt>
      <trkpt lat="48.4749" lon="-3.04516">
        <ele>219</ele>
        <time>2014-04-27T12:56:33Z</time>
      </trkpt>
      <trkpt lat="48.47488" lon="-3.04518">
        <ele>218</ele>
        <time>2014-04-27T12:56:36Z</time>
      </trkpt>
      <trkpt lat="48.47487" lon="-3.0452">
        <ele>216</ele>
        <time>2014-04-27T12:56:39Z</time>
      </trkpt>
      <trkpt lat="48.47486" lon="-3.04523">
        <ele>215</ele>
        <time>2014-04-27T12:56:43Z</time>
      </trkpt>
      <trkpt lat="48.47484" lon="-3.04524">
        <ele>215</ele>
        <time>2014-04-27T12:56:45Z</time>
      </trkpt>
      <trkpt lat="48.47483" lon="-3.04525">
        <ele>215</ele>
        <time>2014-04-27T12:56:46Z</time>
      </trkpt>
      <trkpt lat="48.47481" lon="-3.04526">
        <ele>215</ele>
        <time>2014-04-27T12:56:48Z</time>
      </trkpt>
      <trkpt lat="48.47479" lon="-3.04526">
        <ele>215</ele>
        <time>2014-04-27T12:56:49Z</time>
      </trkpt>
      <trkpt lat="48.47478" lon="-3.04527">
        <ele>215</ele>
        <time>2014-04-27T12:56:50Z</time>
      </trkpt>
      <trkpt lat="48.47476" lon="-3.04528">
        <ele>215</ele>
        <time>2014-04-27T12:56:52Z</time>
      </trkpt>
      <trkpt lat="48.47475" lon="-3.0453">
        <ele>215</ele>
        <time>2014-04-27T12:56:53Z</time>
      </trkpt>
      <trkpt lat="48.47474" lon="-3.04531">
        <ele>215</ele>
        <time>2014-04-27T12:56:54Z</time>
      </trkpt>
      <trkpt lat="48.47472" lon="-3.04533">
        <ele>215</ele>
        <time>2014-04-27T12:56:56Z</time>
      </trkpt>
      <trkpt lat="48.4747" lon="-3.04533">
        <ele>215</ele>
        <time>2014-04-27T12:56:57Z</time>
      </trkpt>
      <trkpt lat="48.47469" lon="-3.04534">
        <ele>215</ele>
        <time>2014-04-27T12:56:59Z</time>
      </trkpt>
      <trkpt lat="48.47468" lon="-3.04535">
        <ele>215</ele>
        <time>2014-04-27T12:57:01Z</time>
      </trkpt>
      <trkpt lat="48.47467" lon="-3.04536">
        <ele>215</ele>
        <time>2014-04-27T12:57:04Z</time>
      </trkpt>
      <trkpt lat="48.47465" lon="-3.04538">
        <ele>216</ele>
        <time>2014-04-27T12:57:07Z</time>
      </trkpt>
      <trkpt lat="48.47464" lon="-3.04539">
        <ele>216</ele>
        <time>2014-04-27T12:57:08Z</time>
      </trkpt>
      <trkpt lat="48.47461" lon="-3.0454">
        <ele>216</ele>
        <time>2014-04-27T12:57:10Z</time>
      </trkpt>
      <trkpt lat="48.4746" lon="-3.04541">
        <ele>216</ele>
        <time>2014-04-27T12:57:12Z</time>
      </trkpt>
      <trkpt lat="48.47458" lon="-3.04542">
        <ele>216</ele>
        <time>2014-04-27T12:57:13Z</time>
      </trkpt>
      <trkpt lat="48.47457" lon="-3.04543">
        <ele>216</ele>
        <time>2014-04-27T12:57:14Z</time>
      </trkpt>
      <trkpt lat="48.47456" lon="-3.04545">
        <ele>216</ele>
        <time>2014-04-27T12:57:16Z</time>
      </trkpt>
      <trkpt lat="48.47455" lon="-3.04545">
        <ele>216</ele>
        <time>2014-04-27T12:57:18Z</time>
      </trkpt>
      <trkpt lat="48.47453" lon="-3.04547">
        <ele>216</ele>
        <time>2014-04-27T12:57:20Z</time>
      </trkpt>
      <trkpt lat="48.47452" lon="-3.04548">
        <ele>216</ele>
        <time>2014-04-27T12:57:22Z</time>
      </trkpt>
      <trkpt lat="48.4745" lon="-3.0455">
        <ele>216</ele>
        <time>2014-04-27T12:57:24Z</time>
      </trkpt>
      <trkpt lat="48.47448" lon="-3.04549">
        <ele>217</ele>
        <time>2014-04-27T12:57:26Z</time>
      </trkpt>
      <trkpt lat="48.47447" lon="-3.04548">
        <ele>217</ele>
        <time>2014-04-27T12:57:27Z</time>
      </trkpt>
      <trkpt lat="48.47446" lon="-3.04547">
        <ele>217</ele>
        <time>2014-04-27T12:57:28Z</time>
      </trkpt>
      <trkpt lat="48.47444" lon="-3.04548">
        <ele>217</ele>
        <time>2014-04-27T12:57:30Z</time>
      </trkpt>
      <trkpt lat="48.47442" lon="-3.04548">
        <ele>217</ele>
        <time>2014-04-27T12:57:32Z</time>
      </trkpt>
      <trkpt lat="48.47441" lon="-3.04548">
        <ele>217</ele>
        <time>2014-04-27T12:57:35Z</time>
      </trkpt>
      <trkpt lat="48.47439" lon="-3.04547">
        <ele>217</ele>
        <time>2014-04-27T12:57:37Z</time>
      </trkpt>
      <trkpt lat="48.47438" lon="-3.04544">
        <ele>217</ele>
        <time>2014-04-27T12:57:39Z</time>
      </trkpt>
      <trkpt lat="48.47435" lon="-3.04544">
        <ele>217</ele>
        <time>2014-04-27T12:57:41Z</time>
      </trkpt>
      <trkpt lat="48.47434" lon="-3.04543">
        <ele>217</ele>
        <time>2014-04-27T12:57:42Z</time>
      </trkpt>
      <trkpt lat="48.47433" lon="-3.04543">
        <ele>217</ele>
        <time>2014-04-27T12:57:43Z</time>
      </trkpt>
      <trkpt lat="48.4743" lon="-3.04544">
        <ele>217</ele>
        <time>2014-04-27T12:57:45Z</time>
      </trkpt>
      <trkpt lat="48.47429" lon="-3.04545">
        <ele>217</ele>
        <time>2014-04-27T12:57:46Z</time>
      </trkpt>
      <trkpt lat="48.47428" lon="-3.04547">
        <ele>217</ele>
        <time>2014-04-27T12:57:47Z</time>
      </trkpt>
      <trkpt lat="48.47426" lon="-3.04549">
        <ele>215</ele>
        <time>2014-04-27T12:57:49Z</time>
      </trkpt>
      <trkpt lat="48.47424" lon="-3.04551">
        <ele>213</ele>
        <time>2014-04-27T12:57:51Z</time>
      </trkpt>
      <trkpt lat="48.47422" lon="-3.04552">
        <ele>213</ele>
        <time>2014-04-27T12:57:52Z</time>
      </trkpt>
      <trkpt lat="48.4742" lon="-3.04554">
        <ele>213</ele>
        <time>2014-04-27T12:57:54Z</time>
      </trkpt>
      <trkpt lat="48.47419" lon="-3.04555">
        <ele>213</ele>
        <time>2014-04-27T12:57:56Z</time>
      </trkpt>
      <trkpt lat="48.47417" lon="-3.04555">
        <ele>213</ele>
        <time>2014-04-27T12:58:00Z</time>
      </trkpt>
      <trkpt lat="48.47415" lon="-3.04554">
        <ele>213</ele>
        <time>2014-04-27T12:58:01Z</time>
      </trkpt>
      <trkpt lat="48.47413" lon="-3.04553">
        <ele>213</ele>
        <time>2014-04-27T12:58:02Z</time>
      </trkpt>
      <trkpt lat="48.4741" lon="-3.04553">
        <ele>213</ele>
        <time>2014-04-27T12:58:05Z</time>
      </trkpt>
      <trkpt lat="48.47409" lon="-3.0455">
        <ele>213</ele>
        <time>2014-04-27T12:58:06Z</time>
      </trkpt>
      <trkpt lat="48.47407" lon="-3.04549">
        <ele>213</ele>
        <time>2014-04-27T12:58:07Z</time>
      </trkpt>
      <trkpt lat="48.47407" lon="-3.04551">
        <ele>213</ele>
        <time>2014-04-27T12:58:09Z</time>
      </trkpt>
      <trkpt lat="48.47405" lon="-3.04553">
        <ele>213</ele>
        <time>2014-04-27T12:58:11Z</time>
      </trkpt>
      <trkpt lat="48.47403" lon="-3.04555">
        <ele>213</ele>
        <time>2014-04-27T12:58:13Z</time>
      </trkpt>
      <trkpt lat="48.47401" lon="-3.04554">
        <ele>212</ele>
        <time>2014-04-27T12:58:15Z</time>
      </trkpt>
      <trkpt lat="48.47399" lon="-3.04556">
        <ele>212</ele>
        <time>2014-04-27T12:58:17Z</time>
      </trkpt>
      <trkpt lat="48.47398" lon="-3.04557">
        <ele>212</ele>
        <time>2014-04-27T12:58:19Z</time>
      </trkpt>
      <trkpt lat="48.47397" lon="-3.04559">
        <ele>211</ele>
        <time>2014-04-27T12:58:21Z</time>
      </trkpt>
      <trkpt lat="48.47396" lon="-3.04558">
        <ele>211</ele>
        <time>2014-04-27T12:58:22Z</time>
      </trkpt>
      <trkpt lat="48.47394" lon="-3.04559">
        <ele>210</ele>
        <time>2014-04-27T12:58:24Z</time>
      </trkpt>
      <trkpt lat="48.47393" lon="-3.0456">
        <ele>210</ele>
        <time>2014-04-27T12:58:25Z</time>
      </trkpt>
      <trkpt lat="48.47391" lon="-3.04561">
        <ele>210</ele>
        <time>2014-04-27T12:58:26Z</time>
      </trkpt>
      <trkpt lat="48.4739" lon="-3.04561">
        <ele>209</ele>
        <time>2014-04-27T12:58:27Z</time>
      </trkpt>
      <trkpt lat="48.47387" lon="-3.04563">
        <ele>209</ele>
        <time>2014-04-27T12:58:29Z</time>
      </trkpt>
      <trkpt lat="48.47386" lon="-3.04564">
        <ele>208</ele>
        <time>2014-04-27T12:58:30Z</time>
      </trkpt>
      <trkpt lat="48.47385" lon="-3.04565">
        <ele>208</ele>
        <time>2014-04-27T12:58:31Z</time>
      </trkpt>
      <trkpt lat="48.47383" lon="-3.04565">
        <ele>207</ele>
        <time>2014-04-27T12:58:33Z</time>
      </trkpt>
      <trkpt lat="48.47381" lon="-3.04565">
        <ele>207</ele>
        <time>2014-04-27T12:58:35Z</time>
      </trkpt>
      <trkpt lat="48.47379" lon="-3.04567">
        <ele>207</ele>
        <time>2014-04-27T12:58:37Z</time>
      </trkpt>
      <trkpt lat="48.47377" lon="-3.04568">
        <ele>207</ele>
        <time>2014-04-27T12:58:39Z</time>
      </trkpt>
      <trkpt lat="48.47376" lon="-3.04569">
        <ele>207</ele>
        <time>2014-04-27T12:58:41Z</time>
      </trkpt>
      <trkpt lat="48.47375" lon="-3.04571">
        <ele>207</ele>
        <time>2014-04-27T12:58:43Z</time>
      </trkpt>
      <trkpt lat="48.47374" lon="-3.04571">
        <ele>207</ele>
        <time>2014-04-27T12:58:44Z</time>
      </trkpt>
      <trkpt lat="48.47372" lon="-3.04571">
        <ele>207</ele>
        <time>2014-04-27T12:58:45Z</time>
      </trkpt>
      <trkpt lat="48.47372" lon="-3.04574">
        <ele>207</ele>
        <time>2014-04-27T12:58:47Z</time>
      </trkpt>
      <trkpt lat="48.47371" lon="-3.04576">
        <ele>207</ele>
        <time>2014-04-27T12:58:49Z</time>
      </trkpt>
      <trkpt lat="48.47369" lon="-3.04577">
        <ele>207</ele>
        <time>2014-04-27T12:58:50Z</time>
      </trkpt>
      <trkpt lat="48.47368" lon="-3.04577">
        <ele>207</ele>
        <time>2014-04-27T12:58:51Z</time>
      </trkpt>
      <trkpt lat="48.47366" lon="-3.04576">
        <ele>207</ele>
        <time>2014-04-27T12:58:52Z</time>
      </trkpt>
      <trkpt lat="48.47364" lon="-3.04576">
        <ele>206</ele>
        <time>2014-04-27T12:58:54Z</time>
      </trkpt>
      <trkpt lat="48.47363" lon="-3.04577">
        <ele>204</ele>
        <time>2014-04-27T12:58:56Z</time>
      </trkpt>
      <trkpt lat="48.47362" lon="-3.04578">
        <ele>204</ele>
        <time>2014-04-27T12:58:57Z</time>
      </trkpt>
      <trkpt lat="48.47361" lon="-3.04578">
        <ele>203</ele>
        <time>2014-04-27T12:58:58Z</time>
      </trkpt>
      <trkpt lat="48.47359" lon="-3.04578">
        <ele>202</ele>
        <time>2014-04-27T12:59:00Z</time>
      </trkpt>
      <trkpt lat="48.47357" lon="-3.04578">
        <ele>201</ele>
        <time>2014-04-27T12:59:02Z</time>
      </trkpt>
      <trkpt lat="48.47356" lon="-3.0458">
        <ele>201</ele>
        <time>2014-04-27T12:59:04Z</time>
      </trkpt>
      <trkpt lat="48.47354" lon="-3.0458">
        <ele>200</ele>
        <time>2014-04-27T12:59:05Z</time>
      </trkpt>
      <trkpt lat="48.47353" lon="-3.04581">
        <ele>200</ele>
        <time>2014-04-27T12:59:06Z</time>
      </trkpt>
      <trkpt lat="48.47352" lon="-3.04582">
        <ele>199</ele>
        <time>2014-04-27T12:59:08Z</time>
      </trkpt>
      <trkpt lat="48.4735" lon="-3.04582">
        <ele>199</ele>
        <time>2014-04-27T12:59:10Z</time>
      </trkpt>
      <trkpt lat="48.47349" lon="-3.04582">
        <ele>199</ele>
        <time>2014-04-27T12:59:12Z</time>
      </trkpt>
      <trkpt lat="48.47345" lon="-3.04584">
        <ele>199</ele>
        <time>2014-04-27T12:59:18Z</time>
      </trkpt>
      <trkpt lat="48.47343" lon="-3.04587">
        <ele>199</ele>
        <time>2014-04-27T12:59:19Z</time>
      </trkpt>
      <trkpt lat="48.47341" lon="-3.04586">
        <ele>199</ele>
        <time>2014-04-27T12:59:22Z</time>
      </trkpt>
      <trkpt lat="48.4734" lon="-3.04586">
        <ele>199</ele>
        <time>2014-04-27T12:59:23Z</time>
      </trkpt>
      <trkpt lat="48.47338" lon="-3.04586">
        <ele>199</ele>
        <time>2014-04-27T12:59:24Z</time>
      </trkpt>
      <trkpt lat="48.47334" lon="-3.04589">
        <ele>199</ele>
        <time>2014-04-27T12:59:29Z</time>
      </trkpt>
      <trkpt lat="48.47332" lon="-3.0459">
        <ele>199</ele>
        <time>2014-04-27T12:59:30Z</time>
      </trkpt>
      <trkpt lat="48.4733" lon="-3.04592">
        <ele>199</ele>
        <time>2014-04-27T12:59:31Z</time>
      </trkpt>
      <trkpt lat="48.47326" lon="-3.04594">
        <ele>199</ele>
        <time>2014-04-27T12:59:33Z</time>
      </trkpt>
      <trkpt lat="48.47325" lon="-3.04593">
        <ele>199</ele>
        <time>2014-04-27T12:59:34Z</time>
      </trkpt>
      <trkpt lat="48.47322" lon="-3.04592">
        <ele>199</ele>
        <time>2014-04-27T12:59:36Z</time>
      </trkpt>
      <trkpt lat="48.47322" lon="-3.04594">
        <ele>201</ele>
        <time>2014-04-27T12:59:38Z</time>
      </trkpt>
      <trkpt lat="48.4732" lon="-3.04594">
        <ele>203</ele>
        <time>2014-04-27T12:59:42Z</time>
      </trkpt>
      <trkpt lat="48.47319" lon="-3.04596">
        <ele>203</ele>
        <time>2014-04-27T12:59:44Z</time>
      </trkpt>
      <trkpt lat="48.47318" lon="-3.04598">
        <ele>203</ele>
        <time>2014-04-27T12:59:46Z</time>
      </trkpt>
      <trkpt lat="48.47316" lon="-3.04599">
        <ele>203</ele>
        <time>2014-04-27T12:59:47Z</time>
      </trkpt>
      <trkpt lat="48.47315" lon="-3.046">
        <ele>203</ele>
        <time>2014-04-27T12:59:48Z</time>
      </trkpt>
      <trkpt lat="48.47314" lon="-3.04601">
        <ele>203</ele>
        <time>2014-04-27T12:59:49Z</time>
      </trkpt>
      <trkpt lat="48.47312" lon="-3.04602">
        <ele>203</ele>
        <time>2014-04-27T12:59:51Z</time>
      </trkpt>
      <trkpt lat="48.47311" lon="-3.04602">
        <ele>203</ele>
        <time>2014-04-27T12:59:52Z</time>
      </trkpt>
      <trkpt lat="48.47309" lon="-3.04602">
        <ele>203</ele>
        <time>2014-04-27T12:59:54Z</time>
      </trkpt>
      <trkpt lat="48.47308" lon="-3.04604">
        <ele>203</ele>
        <time>2014-04-27T12:59:56Z</time>
      </trkpt>
      <trkpt lat="48.47307" lon="-3.04605">
        <ele>203</ele>
        <time>2014-04-27T12:59:58Z</time>
      </trkpt>
      <trkpt lat="48.47305" lon="-3.04606">
        <ele>203</ele>
        <time>2014-04-27T13:00:00Z</time>
      </trkpt>
      <trkpt lat="48.47304" lon="-3.04607">
        <ele>203</ele>
        <time>2014-04-27T13:00:02Z</time>
      </trkpt>
      <trkpt lat="48.47302" lon="-3.04607">
        <ele>203</ele>
        <time>2014-04-27T13:00:03Z</time>
      </trkpt>
      <trkpt lat="48.47301" lon="-3.04608">
        <ele>202</ele>
        <time>2014-04-27T13:00:04Z</time>
      </trkpt>
      <trkpt lat="48.47299" lon="-3.0461">
        <ele>201</ele>
        <time>2014-04-27T13:00:06Z</time>
      </trkpt>
      <trkpt lat="48.47297" lon="-3.04611">
        <ele>201</ele>
        <time>2014-04-27T13:00:07Z</time>
      </trkpt>
      <trkpt lat="48.47296" lon="-3.04612">
        <ele>200</ele>
        <time>2014-04-27T13:00:09Z</time>
      </trkpt>
      <trkpt lat="48.47294" lon="-3.04613">
        <ele>200</ele>
        <time>2014-04-27T13:00:11Z</time>
      </trkpt>
      <trkpt lat="48.47293" lon="-3.04613">
        <ele>200</ele>
        <time>2014-04-27T13:00:12Z</time>
      </trkpt>
      <trkpt lat="48.47291" lon="-3.04614">
        <ele>200</ele>
        <time>2014-04-27T13:00:14Z</time>
      </trkpt>
      <trkpt lat="48.47289" lon="-3.04614">
        <ele>200</ele>
        <time>2014-04-27T13:00:16Z</time>
      </trkpt>
      <trkpt lat="48.47288" lon="-3.04615">
        <ele>200</ele>
        <time>2014-04-27T13:00:17Z</time>
      </trkpt>
      <trkpt lat="48.47286" lon="-3.04616">
        <ele>200</ele>
        <time>2014-04-27T13:00:18Z</time>
      </trkpt>
      <trkpt lat="48.47284" lon="-3.04616">
        <ele>200</ele>
        <time>2014-04-27T13:00:20Z</time>
      </trkpt>
      <trkpt lat="48.47283" lon="-3.04616">
        <ele>200</ele>
        <time>2014-04-27T13:00:21Z</time>
      </trkpt>
      <trkpt lat="48.47281" lon="-3.04616">
        <ele>200</ele>
        <time>2014-04-27T13:00:22Z</time>
      </trkpt>
      <trkpt lat="48.4728" lon="-3.04618">
        <ele>200</ele>
        <time>2014-04-27T13:00:24Z</time>
      </trkpt>
      <trkpt lat="48.4728" lon="-3.04621">
        <ele>200</ele>
        <time>2014-04-27T13:00:25Z</time>
      </trkpt>
      <trkpt lat="48.47279" lon="-3.04622">
        <ele>200</ele>
        <time>2014-04-27T13:00:26Z</time>
      </trkpt>
      <trkpt lat="48.47279" lon="-3.04624">
        <ele>200</ele>
        <time>2014-04-27T13:00:27Z</time>
      </trkpt>
      <trkpt lat="48.47277" lon="-3.04626">
        <ele>200</ele>
        <time>2014-04-27T13:00:28Z</time>
      </trkpt>
      <trkpt lat="48.47277" lon="-3.04628">
        <ele>201</ele>
        <time>2014-04-27T13:00:29Z</time>
      </trkpt>
      <trkpt lat="48.47276" lon="-3.0463">
        <ele>202</ele>
        <time>2014-04-27T13:00:30Z</time>
      </trkpt>
      <trkpt lat="48.47276" lon="-3.04633">
        <ele>203</ele>
        <time>2014-04-27T13:00:32Z</time>
      </trkpt>
      <trkpt lat="48.47277" lon="-3.04637">
        <ele>205</ele>
        <time>2014-04-27T13:00:34Z</time>
      </trkpt>
      <trkpt lat="48.47276" lon="-3.04641">
        <ele>206</ele>
        <time>2014-04-27T13:00:36Z</time>
      </trkpt>
      <trkpt lat="48.47274" lon="-3.04643">
        <ele>207</ele>
        <time>2014-04-27T13:00:37Z</time>
      </trkpt>
      <trkpt lat="48.47273" lon="-3.04645">
        <ele>209</ele>
        <time>2014-04-27T13:00:40Z</time>
      </trkpt>
      <trkpt lat="48.47273" lon="-3.04647">
        <ele>210</ele>
        <time>2014-04-27T13:00:43Z</time>
      </trkpt>
      <trkpt lat="48.47274" lon="-3.04648">
        <ele>211</ele>
        <time>2014-04-27T13:00:46Z</time>
      </trkpt>
      <trkpt lat="48.47273" lon="-3.0465">
        <ele>213</ele>
        <time>2014-04-27T13:00:49Z</time>
      </trkpt>
      <trkpt lat="48.47275" lon="-3.04651">
        <ele>213</ele>
        <time>2014-04-27T13:00:50Z</time>
      </trkpt>
      <trkpt lat="48.47276" lon="-3.04651">
        <ele>213</ele>
        <time>2014-04-27T13:00:51Z</time>
      </trkpt>
      <trkpt lat="48.47276" lon="-3.04653">
        <ele>213</ele>
        <time>2014-04-27T13:00:53Z</time>
      </trkpt>
      <trkpt lat="48.47275" lon="-3.04655">
        <ele>213</ele>
        <time>2014-04-27T13:00:55Z</time>
      </trkpt>
      <trkpt lat="48.47273" lon="-3.04656">
        <ele>213</ele>
        <time>2014-04-27T13:00:58Z</time>
      </trkpt>
      <trkpt lat="48.47271" lon="-3.04657">
        <ele>213</ele>
        <time>2014-04-27T13:01:01Z</time>
      </trkpt>
      <trkpt lat="48.47271" lon="-3.04659">
        <ele>212</ele>
        <time>2014-04-27T13:01:03Z</time>
      </trkpt>
      <trkpt lat="48.47272" lon="-3.04661">
        <ele>212</ele>
        <time>2014-04-27T13:01:04Z</time>
      </trkpt>
      <trkpt lat="48.47272" lon="-3.04663">
        <ele>211</ele>
        <time>2014-04-27T13:01:06Z</time>
      </trkpt>
      <trkpt lat="48.47273" lon="-3.04663">
        <ele>211</ele>
        <time>2014-04-27T13:01:08Z</time>
      </trkpt>
      <trkpt lat="48.47276" lon="-3.04664">
        <ele>211</ele>
        <time>2014-04-27T13:01:12Z</time>
      </trkpt>
      <trkpt lat="48.47277" lon="-3.04665">
        <ele>211</ele>
        <time>2014-04-27T13:01:13Z</time>
      </trkpt>
      <trkpt lat="48.47286" lon="-3.04672">
        <ele>211</ele>
        <time>2014-04-27T13:01:21Z</time>
      </trkpt>
      <trkpt lat="48.47288" lon="-3.04673">
        <ele>211</ele>
        <time>2014-04-27T13:01:22Z</time>
      </trkpt>
      <trkpt lat="48.47293" lon="-3.0468">
        <ele>211</ele>
        <time>2014-04-27T13:01:28Z</time>
      </trkpt>
      <trkpt lat="48.47294" lon="-3.0468">
        <ele>211</ele>
        <time>2014-04-27T13:01:29Z</time>
      </trkpt>
      <trkpt lat="48.47296" lon="-3.04681">
        <ele>211</ele>
        <time>2014-04-27T13:01:30Z</time>
      </trkpt>
      <trkpt lat="48.47298" lon="-3.04682">
        <ele>211</ele>
        <time>2014-04-27T13:01:32Z</time>
      </trkpt>
      <trkpt lat="48.47299" lon="-3.04683">
        <ele>211</ele>
        <time>2014-04-27T13:01:34Z</time>
      </trkpt>
      <trkpt lat="48.473" lon="-3.04685">
        <ele>211</ele>
        <time>2014-04-27T13:01:36Z</time>
      </trkpt>
      <trkpt lat="48.47302" lon="-3.04687">
        <ele>211</ele>
        <time>2014-04-27T13:01:38Z</time>
      </trkpt>
      <trkpt lat="48.47304" lon="-3.04687">
        <ele>211</ele>
        <time>2014-04-27T13:01:39Z</time>
      </trkpt>
      <trkpt lat="48.47305" lon="-3.04687">
        <ele>210</ele>
        <time>2014-04-27T13:01:40Z</time>
      </trkpt>
      <trkpt lat="48.47306" lon="-3.04688">
        <ele>209</ele>
        <time>2014-04-27T13:01:41Z</time>
      </trkpt>
      <trkpt lat="48.47308" lon="-3.04689">
        <ele>209</ele>
        <time>2014-04-27T13:01:42Z</time>
      </trkpt>
      <trkpt lat="48.4731" lon="-3.04691">
        <ele>209</ele>
        <time>2014-04-27T13:01:45Z</time>
      </trkpt>
      <trkpt lat="48.47312" lon="-3.04691">
        <ele>209</ele>
        <time>2014-04-27T13:01:47Z</time>
      </trkpt>
      <trkpt lat="48.47314" lon="-3.04689">
        <ele>211</ele>
        <time>2014-04-27T13:01:50Z</time>
      </trkpt>
      <trkpt lat="48.47316" lon="-3.0469">
        <ele>212</ele>
        <time>2014-04-27T13:01:52Z</time>
      </trkpt>
      <trkpt lat="48.47318" lon="-3.04691">
        <ele>212</ele>
        <time>2014-04-27T13:01:53Z</time>
      </trkpt>
      <trkpt lat="48.47318" lon="-3.04693">
        <ele>213</ele>
        <time>2014-04-27T13:01:54Z</time>
      </trkpt>
      <trkpt lat="48.4732" lon="-3.04695">
        <ele>213</ele>
        <time>2014-04-27T13:01:56Z</time>
      </trkpt>
      <trkpt lat="48.47321" lon="-3.04696">
        <ele>213</ele>
        <time>2014-04-27T13:01:57Z</time>
      </trkpt>
      <trkpt lat="48.47322" lon="-3.04699">
        <ele>213</ele>
        <time>2014-04-27T13:01:58Z</time>
      </trkpt>
      <trkpt lat="48.47323" lon="-3.04702">
        <ele>213</ele>
        <time>2014-04-27T13:02:00Z</time>
      </trkpt>
      <trkpt lat="48.47323" lon="-3.04704">
        <ele>213</ele>
        <time>2014-04-27T13:02:01Z</time>
      </trkpt>
      <trkpt lat="48.47322" lon="-3.04706">
        <ele>213</ele>
        <time>2014-04-27T13:02:03Z</time>
      </trkpt>
      <trkpt lat="48.47322" lon="-3.04709">
        <ele>213</ele>
        <time>2014-04-27T13:02:05Z</time>
      </trkpt>
      <trkpt lat="48.47322" lon="-3.04714">
        <ele>212</ele>
        <time>2014-04-27T13:02:08Z</time>
      </trkpt>
      <trkpt lat="48.47322" lon="-3.04716">
        <ele>210</ele>
        <time>2014-04-27T13:02:10Z</time>
      </trkpt>
      <trkpt lat="48.47321" lon="-3.04723">
        <ele>208</ele>
        <time>2014-04-27T13:02:14Z</time>
      </trkpt>
      <trkpt lat="48.47318" lon="-3.04727">
        <ele>207</ele>
        <time>2014-04-27T13:02:15Z</time>
      </trkpt>
      <trkpt lat="48.47316" lon="-3.04729">
        <ele>206</ele>
        <time>2014-04-27T13:02:16Z</time>
      </trkpt>
      <trkpt lat="48.47315" lon="-3.04731">
        <ele>204</ele>
        <time>2014-04-27T13:02:20Z</time>
      </trkpt>
      <trkpt lat="48.47313" lon="-3.0473">
        <ele>204</ele>
        <time>2014-04-27T13:02:24Z</time>
      </trkpt>
      <trkpt lat="48.4731" lon="-3.04729">
        <ele>204</ele>
        <time>2014-04-27T13:02:25Z</time>
      </trkpt>
      <trkpt lat="48.47308" lon="-3.04728">
        <ele>204</ele>
        <time>2014-04-27T13:02:26Z</time>
      </trkpt>
      <trkpt lat="48.47306" lon="-3.04725">
        <ele>204</ele>
        <time>2014-04-27T13:02:28Z</time>
      </trkpt>
      <trkpt lat="48.47306" lon="-3.04723">
        <ele>204</ele>
        <time>2014-04-27T13:02:29Z</time>
      </trkpt>
      <trkpt lat="48.47305" lon="-3.04722">
        <ele>204</ele>
        <time>2014-04-27T13:02:30Z</time>
      </trkpt>
      <trkpt lat="48.47303" lon="-3.04721">
        <ele>204</ele>
        <time>2014-04-27T13:02:31Z</time>
      </trkpt>
      <trkpt lat="48.47301" lon="-3.04719">
        <ele>204</ele>
        <time>2014-04-27T13:02:33Z</time>
      </trkpt>
      <trkpt lat="48.473" lon="-3.04717">
        <ele>204</ele>
        <time>2014-04-27T13:02:36Z</time>
      </trkpt>
      <trkpt lat="48.47298" lon="-3.04714">
        <ele>204</ele>
        <time>2014-04-27T13:02:37Z</time>
      </trkpt>
      <trkpt lat="48.47295" lon="-3.04712">
        <ele>204</ele>
        <time>2014-04-27T13:02:39Z</time>
      </trkpt>
      <trkpt lat="48.47293" lon="-3.04711">
        <ele>204</ele>
        <time>2014-04-27T13:02:40Z</time>
      </trkpt>
      <trkpt lat="48.47292" lon="-3.04708">
        <ele>204</ele>
        <time>2014-04-27T13:02:42Z</time>
      </trkpt>
      <trkpt lat="48.4729" lon="-3.04706">
        <ele>203</ele>
        <time>2014-04-27T13:02:44Z</time>
      </trkpt>
      <trkpt lat="48.47288" lon="-3.04704">
        <ele>203</ele>
        <time>2014-04-27T13:02:46Z</time>
      </trkpt>
      <trkpt lat="48.47287" lon="-3.04704">
        <ele>203</ele>
        <time>2014-04-27T13:02:48Z</time>
      </trkpt>
      <trkpt lat="48.47285" lon="-3.04704">
        <ele>203</ele>
        <time>2014-04-27T13:02:49Z</time>
      </trkpt>
      <trkpt lat="48.47284" lon="-3.04705">
        <ele>203</ele>
        <time>2014-04-27T13:02:50Z</time>
      </trkpt>
      <trkpt lat="48.47282" lon="-3.04705">
        <ele>202</ele>
        <time>2014-04-27T13:02:52Z</time>
      </trkpt>
      <trkpt lat="48.4728" lon="-3.04704">
        <ele>202</ele>
        <time>2014-04-27T13:02:54Z</time>
      </trkpt>
      <trkpt lat="48.47281" lon="-3.04701">
        <ele>202</ele>
        <time>2014-04-27T13:02:56Z</time>
      </trkpt>
      <trkpt lat="48.47279" lon="-3.047">
        <ele>202</ele>
        <time>2014-04-27T13:02:58Z</time>
      </trkpt>
      <trkpt lat="48.47276" lon="-3.04699">
        <ele>201</ele>
        <time>2014-04-27T13:03:01Z</time>
      </trkpt>
      <trkpt lat="48.47275" lon="-3.04697">
        <ele>201</ele>
        <time>2014-04-27T13:03:02Z</time>
      </trkpt>
      <trkpt lat="48.47274" lon="-3.04696">
        <ele>200</ele>
        <time>2014-04-27T13:03:04Z</time>
      </trkpt>
      <trkpt lat="48.47272" lon="-3.04695">
        <ele>200</ele>
        <time>2014-04-27T13:03:07Z</time>
      </trkpt>
      <trkpt lat="48.47273" lon="-3.04693">
        <ele>200</ele>
        <time>2014-04-27T13:03:08Z</time>
      </trkpt>
      <trkpt lat="48.47272" lon="-3.04691">
        <ele>200</ele>
        <time>2014-04-27T13:03:10Z</time>
      </trkpt>
      <trkpt lat="48.47269" lon="-3.0469">
        <ele>200</ele>
        <time>2014-04-27T13:03:11Z</time>
      </trkpt>
      <trkpt lat="48.47269" lon="-3.04687">
        <ele>200</ele>
        <time>2014-04-27T13:03:12Z</time>
      </trkpt>
      <trkpt lat="48.47268" lon="-3.04686">
        <ele>200</ele>
        <time>2014-04-27T13:03:13Z</time>
      </trkpt>
      <trkpt lat="48.47267" lon="-3.04684">
        <ele>200</ele>
        <time>2014-04-27T13:03:15Z</time>
      </trkpt>
      <trkpt lat="48.47265" lon="-3.04681">
        <ele>200</ele>
        <time>2014-04-27T13:03:17Z</time>
      </trkpt>
      <trkpt lat="48.47263" lon="-3.0468">
        <ele>200</ele>
        <time>2014-04-27T13:03:19Z</time>
      </trkpt>
      <trkpt lat="48.47262" lon="-3.04679">
        <ele>200</ele>
        <time>2014-04-27T13:03:20Z</time>
      </trkpt>
      <trkpt lat="48.47261" lon="-3.04679">
        <ele>200</ele>
        <time>2014-04-27T13:03:21Z</time>
      </trkpt>
      <trkpt lat="48.47258" lon="-3.0468">
        <ele>200</ele>
        <time>2014-04-27T13:03:23Z</time>
      </trkpt>
      <trkpt lat="48.47257" lon="-3.04681">
        <ele>200</ele>
        <time>2014-04-27T13:03:25Z</time>
      </trkpt>
      <trkpt lat="48.47255" lon="-3.04681">
        <ele>200</ele>
        <time>2014-04-27T13:03:27Z</time>
      </trkpt>
      <trkpt lat="48.47254" lon="-3.04681">
        <ele>200</ele>
        <time>2014-04-27T13:03:30Z</time>
      </trkpt>
      <trkpt lat="48.47251" lon="-3.0468">
        <ele>200</ele>
        <time>2014-04-27T13:03:33Z</time>
      </trkpt>
      <trkpt lat="48.47247" lon="-3.04682">
        <ele>200</ele>
        <time>2014-04-27T13:03:34Z</time>
      </trkpt>
      <trkpt lat="48.47244" lon="-3.04679">
        <ele>201</ele>
        <time>2014-04-27T13:03:35Z</time>
      </trkpt>
      <trkpt lat="48.47242" lon="-3.04681">
        <ele>201</ele>
        <time>2014-04-27T13:03:36Z</time>
      </trkpt>
      <trkpt lat="48.47241" lon="-3.04682">
        <ele>202</ele>
        <time>2014-04-27T13:03:37Z</time>
      </trkpt>
      <trkpt lat="48.4724" lon="-3.04684">
        <ele>202</ele>
        <time>2014-04-27T13:03:41Z</time>
      </trkpt>
      <trkpt lat="48.47239" lon="-3.04687">
        <ele>202</ele>
        <time>2014-04-27T13:03:43Z</time>
      </trkpt>
      <trkpt lat="48.47239" lon="-3.04689">
        <ele>202</ele>
        <time>2014-04-27T13:03:44Z</time>
      </trkpt>
      <trkpt lat="48.47238" lon="-3.04691">
        <ele>202</ele>
        <time>2014-04-27T13:03:45Z</time>
      </trkpt>
      <trkpt lat="48.47237" lon="-3.04693">
        <ele>202</ele>
        <time>2014-04-27T13:03:46Z</time>
      </trkpt>
      <trkpt lat="48.47235" lon="-3.04695">
        <ele>202</ele>
        <time>2014-04-27T13:03:47Z</time>
      </trkpt>
      <trkpt lat="48.47233" lon="-3.04697">
        <ele>202</ele>
        <time>2014-04-27T13:03:48Z</time>
      </trkpt>
      <trkpt lat="48.47234" lon="-3.04699">
        <ele>202</ele>
        <time>2014-04-27T13:03:49Z</time>
      </trkpt>
      <trkpt lat="48.47233" lon="-3.04701">
        <ele>202</ele>
        <time>2014-04-27T13:03:51Z</time>
      </trkpt>
      <trkpt lat="48.47231" lon="-3.04702">
        <ele>202</ele>
        <time>2014-04-27T13:03:53Z</time>
      </trkpt>
      <trkpt lat="48.47231" lon="-3.04705">
        <ele>201</ele>
        <time>2014-04-27T13:03:56Z</time>
      </trkpt>
      <trkpt lat="48.47231" lon="-3.04707">
        <ele>201</ele>
        <time>2014-04-27T13:03:57Z</time>
      </trkpt>
      <trkpt lat="48.4723" lon="-3.04709">
        <ele>201</ele>
        <time>2014-04-27T13:04:00Z</time>
      </trkpt>
      <trkpt lat="48.47229" lon="-3.04711">
        <ele>201</ele>
        <time>2014-04-27T13:04:02Z</time>
      </trkpt>
      <trkpt lat="48.47227" lon="-3.04713">
        <ele>201</ele>
        <time>2014-04-27T13:04:04Z</time>
      </trkpt>
      <trkpt lat="48.47226" lon="-3.04715">
        <ele>201</ele>
        <time>2014-04-27T13:04:07Z</time>
      </trkpt>
      <trkpt lat="48.47225" lon="-3.04717">
        <ele>201</ele>
        <time>2014-04-27T13:04:08Z</time>
      </trkpt>
      <trkpt lat="48.47225" lon="-3.04719">
        <ele>202</ele>
        <time>2014-04-27T13:04:12Z</time>
      </trkpt>
      <trkpt lat="48.47223" lon="-3.04723">
        <ele>202</ele>
        <time>2014-04-27T13:04:13Z</time>
      </trkpt>
      <trkpt lat="48.47222" lon="-3.04726">
        <ele>202</ele>
        <time>2014-04-27T13:04:14Z</time>
      </trkpt>
      <trkpt lat="48.47221" lon="-3.04728">
        <ele>203</ele>
        <time>2014-04-27T13:04:15Z</time>
      </trkpt>
      <trkpt lat="48.47219" lon="-3.04731">
        <ele>203</ele>
        <time>2014-04-27T13:04:17Z</time>
      </trkpt>
      <trkpt lat="48.47218" lon="-3.04734">
        <ele>203</ele>
        <time>2014-04-27T13:04:18Z</time>
      </trkpt>
      <trkpt lat="48.47217" lon="-3.04737">
        <ele>204</ele>
        <time>2014-04-27T13:04:19Z</time>
      </trkpt>
      <trkpt lat="48.47216" lon="-3.0474">
        <ele>204</ele>
        <time>2014-04-27T13:04:20Z</time>
      </trkpt>
      <trkpt lat="48.47215" lon="-3.0474">
        <ele>205</ele>
        <time>2014-04-27T13:04:21Z</time>
      </trkpt>
      <trkpt lat="48.47226" lon="-3.0476">
        <ele>210</ele>
        <time>2014-04-27T13:04:37Z</time>
      </trkpt>
      <trkpt lat="48.47228" lon="-3.04762">
        <ele>211</ele>
        <time>2014-04-27T13:04:40Z</time>
      </trkpt>
      <trkpt lat="48.47229" lon="-3.04761">
        <ele>211</ele>
        <time>2014-04-27T13:04:42Z</time>
      </trkpt>
      <trkpt lat="48.47231" lon="-3.04759">
        <ele>211</ele>
        <time>2014-04-27T13:04:44Z</time>
      </trkpt>
      <trkpt lat="48.47233" lon="-3.04759">
        <ele>211</ele>
        <time>2014-04-27T13:04:46Z</time>
      </trkpt>
      <trkpt lat="48.47234" lon="-3.04762">
        <ele>209</ele>
        <time>2014-04-27T13:04:49Z</time>
      </trkpt>
      <trkpt lat="48.47235" lon="-3.0476">
        <ele>207</ele>
        <time>2014-04-27T13:04:52Z</time>
      </trkpt>
      <trkpt lat="48.47236" lon="-3.04761">
        <ele>206</ele>
        <time>2014-04-27T13:04:55Z</time>
      </trkpt>
      <trkpt lat="48.47234" lon="-3.04759">
        <ele>206</ele>
        <time>2014-04-27T13:04:57Z</time>
      </trkpt>
      <trkpt lat="48.47233" lon="-3.04757">
        <ele>206</ele>
        <time>2014-04-27T13:04:58Z</time>
      </trkpt>
      <trkpt lat="48.47231" lon="-3.04757">
        <ele>206</ele>
        <time>2014-04-27T13:05:00Z</time>
      </trkpt>
      <trkpt lat="48.4723" lon="-3.04759">
        <ele>206</ele>
        <time>2014-04-27T13:05:01Z</time>
      </trkpt>
      <trkpt lat="48.47231" lon="-3.04757">
        <ele>206</ele>
        <time>2014-04-27T13:05:07Z</time>
      </trkpt>
      <trkpt lat="48.47232" lon="-3.04755">
        <ele>206</ele>
        <time>2014-04-27T13:05:08Z</time>
      </trkpt>
      <trkpt lat="48.47234" lon="-3.04754">
        <ele>206</ele>
        <time>2014-04-27T13:05:09Z</time>
      </trkpt>
      <trkpt lat="48.47234" lon="-3.04757">
        <ele>206</ele>
        <time>2014-04-27T13:05:12Z</time>
      </trkpt>
      <trkpt lat="48.47232" lon="-3.04758">
        <ele>208</ele>
        <time>2014-04-27T13:05:20Z</time>
      </trkpt>
      <trkpt lat="48.47233" lon="-3.04756">
        <ele>210</ele>
        <time>2014-04-27T13:05:24Z</time>
      </trkpt>
      <trkpt lat="48.4723" lon="-3.04755">
        <ele>213</ele>
        <time>2014-04-27T13:05:32Z</time>
      </trkpt>
      <trkpt lat="48.47228" lon="-3.04755">
        <ele>215</ele>
        <time>2014-04-27T13:05:35Z</time>
      </trkpt>
      <trkpt lat="48.4724" lon="-3.04726">
        <ele>217</ele>
        <time>2014-04-27T13:06:04Z</time>
      </trkpt>
      <trkpt lat="48.47234" lon="-3.04725">
        <ele>212</ele>
        <time>2014-04-27T13:06:12Z</time>
      </trkpt>
      <trkpt lat="48.47233" lon="-3.04729">
        <ele>212</ele>
        <time>2014-04-27T13:06:13Z</time>
      </trkpt>
      <trkpt lat="48.47235" lon="-3.0473">
        <ele>212</ele>
        <time>2014-04-27T13:06:14Z</time>
      </trkpt>
      <trkpt lat="48.47237" lon="-3.04738">
        <ele>214</ele>
        <time>2014-04-27T13:06:17Z</time>
      </trkpt>
      <trkpt lat="48.47235" lon="-3.04743">
        <ele>214</ele>
        <time>2014-04-27T13:06:18Z</time>
      </trkpt>
      <trkpt lat="48.47233" lon="-3.04751">
        <ele>218</ele>
        <time>2014-04-27T13:06:22Z</time>
      </trkpt>
      <trkpt lat="48.47234" lon="-3.04753">
        <ele>220</ele>
        <time>2014-04-27T13:06:24Z</time>
      </trkpt>
      <trkpt lat="48.47237" lon="-3.04755">
        <ele>222</ele>
        <time>2014-04-27T13:06:26Z</time>
      </trkpt>
      <trkpt lat="48.47237" lon="-3.04758">
        <ele>222</ele>
        <time>2014-04-27T13:06:28Z</time>
      </trkpt>
      <trkpt lat="48.47236" lon="-3.04761">
        <ele>222</ele>
        <time>2014-04-27T13:06:30Z</time>
      </trkpt>
      <trkpt lat="48.47238" lon="-3.0476">
        <ele>222</ele>
        <time>2014-04-27T13:06:32Z</time>
      </trkpt>
      <trkpt lat="48.47239" lon="-3.0476">
        <ele>222</ele>
        <time>2014-04-27T13:06:33Z</time>
      </trkpt>
      <trkpt lat="48.47238" lon="-3.0476">
        <ele>215</ele>
        <time>2014-04-27T13:06:42Z</time>
      </trkpt>
      <trkpt lat="48.47239" lon="-3.04762">
        <ele>214</ele>
        <time>2014-04-27T13:06:44Z</time>
      </trkpt>
      <trkpt lat="48.47241" lon="-3.04764">
        <ele>214</ele>
        <time>2014-04-27T13:06:47Z</time>
      </trkpt>
      <trkpt lat="48.47242" lon="-3.04765">
        <ele>214</ele>
        <time>2014-04-27T13:06:48Z</time>
      </trkpt>
      <trkpt lat="48.47243" lon="-3.04765">
        <ele>212</ele>
        <time>2014-04-27T13:06:52Z</time>
      </trkpt>
      <trkpt lat="48.47243" lon="-3.04763">
        <ele>211</ele>
        <time>2014-04-27T13:06:54Z</time>
      </trkpt>
      <trkpt lat="48.47241" lon="-3.04763">
        <ele>211</ele>
        <time>2014-04-27T13:06:56Z</time>
      </trkpt>
      <trkpt lat="48.4724" lon="-3.04762">
        <ele>211</ele>
        <time>2014-04-27T13:06:59Z</time>
      </trkpt>
      <trkpt lat="48.47238" lon="-3.04761">
        <ele>211</ele>
        <time>2014-04-27T13:07:00Z</time>
      </trkpt>
      <trkpt lat="48.47239" lon="-3.0476">
        <ele>211</ele>
        <time>2014-04-27T13:07:04Z</time>
      </trkpt>
      <trkpt lat="48.47238" lon="-3.04757">
        <ele>210</ele>
        <time>2014-04-27T13:07:06Z</time>
      </trkpt>
      <trkpt lat="48.47237" lon="-3.04756">
        <ele>209</ele>
        <time>2014-04-27T13:07:07Z</time>
      </trkpt>
      <trkpt lat="48.47238" lon="-3.04757">
        <ele>204</ele>
        <time>2014-04-27T13:07:12Z</time>
      </trkpt>
      <trkpt lat="48.47238" lon="-3.04759">
        <ele>201</ele>
        <time>2014-04-27T13:07:19Z</time>
      </trkpt>
      <trkpt lat="48.47237" lon="-3.04761">
        <ele>200</ele>
        <time>2014-04-27T13:07:20Z</time>
      </trkpt>
      <trkpt lat="48.47236" lon="-3.04764">
        <ele>200</ele>
        <time>2014-04-27T13:07:21Z</time>
      </trkpt>
      <trkpt lat="48.47236" lon="-3.04767">
        <ele>200</ele>
        <time>2014-04-27T13:07:23Z</time>
      </trkpt>
      <trkpt lat="48.47237" lon="-3.04769">
        <ele>201</ele>
        <time>2014-04-27T13:07:25Z</time>
      </trkpt>
      <trkpt lat="48.47239" lon="-3.04772">
        <ele>203</ele>
        <time>2014-04-27T13:07:27Z</time>
      </trkpt>
      <trkpt lat="48.47238" lon="-3.04774">
        <ele>205</ele>
        <time>2014-04-27T13:07:29Z</time>
      </trkpt>
      <trkpt lat="48.47239" lon="-3.04778">
        <ele>207</ele>
        <time>2014-04-27T13:07:31Z</time>
      </trkpt>
      <trkpt lat="48.47238" lon="-3.04781">
        <ele>208</ele>
        <time>2014-04-27T13:07:34Z</time>
      </trkpt>
      <trkpt lat="48.47239" lon="-3.04779">
        <ele>208</ele>
        <time>2014-04-27T13:07:36Z</time>
      </trkpt>
      <trkpt lat="48.47242" lon="-3.0478">
        <ele>208</ele>
        <time>2014-04-27T13:07:38Z</time>
      </trkpt>
      <trkpt lat="48.47243" lon="-3.04782">
        <ele>208</ele>
        <time>2014-04-27T13:07:40Z</time>
      </trkpt>
      <trkpt lat="48.47245" lon="-3.04784">
        <ele>209</ele>
        <time>2014-04-27T13:07:41Z</time>
      </trkpt>
      <trkpt lat="48.47249" lon="-3.04785">
        <ele>211</ele>
        <time>2014-04-27T13:07:45Z</time>
      </trkpt>
      <trkpt lat="48.47249" lon="-3.04788">
        <ele>212</ele>
        <time>2014-04-27T13:07:46Z</time>
      </trkpt>
      <trkpt lat="48.47249" lon="-3.04791">
        <ele>213</ele>
        <time>2014-04-27T13:07:47Z</time>
      </trkpt>
      <trkpt lat="48.47249" lon="-3.04793">
        <ele>213</ele>
        <time>2014-04-27T13:07:48Z</time>
      </trkpt>
      <trkpt lat="48.47255" lon="-3.04804">
        <ele>212</ele>
        <time>2014-04-27T13:08:01Z</time>
      </trkpt>
      <trkpt lat="48.47268" lon="-3.04832">
        <ele>210</ele>
        <time>2014-04-27T13:08:17Z</time>
      </trkpt>
      <trkpt lat="48.47269" lon="-3.04835">
        <ele>210</ele>
        <time>2014-04-27T13:08:18Z</time>
      </trkpt>
      <trkpt lat="48.4727" lon="-3.04837">
        <ele>210</ele>
        <time>2014-04-27T13:08:19Z</time>
      </trkpt>
      <trkpt lat="48.4727" lon="-3.0484">
        <ele>210</ele>
        <time>2014-04-27T13:08:22Z</time>
      </trkpt>
      <trkpt lat="48.4727" lon="-3.04843">
        <ele>210</ele>
        <time>2014-04-27T13:08:24Z</time>
      </trkpt>
      <trkpt lat="48.4727" lon="-3.04845">
        <ele>210</ele>
        <time>2014-04-27T13:08:25Z</time>
      </trkpt>
      <trkpt lat="48.47272" lon="-3.0485">
        <ele>210</ele>
        <time>2014-04-27T13:08:29Z</time>
      </trkpt>
      <trkpt lat="48.47273" lon="-3.04852">
        <ele>210</ele>
        <time>2014-04-27T13:08:30Z</time>
      </trkpt>
      <trkpt lat="48.47274" lon="-3.04854">
        <ele>210</ele>
        <time>2014-04-27T13:08:31Z</time>
      </trkpt>
      <trkpt lat="48.47275" lon="-3.0486">
        <ele>211</ele>
        <time>2014-04-27T13:08:34Z</time>
      </trkpt>
      <trkpt lat="48.47276" lon="-3.04862">
        <ele>212</ele>
        <time>2014-04-27T13:08:35Z</time>
      </trkpt>
      <trkpt lat="48.47276" lon="-3.04864">
        <ele>212</ele>
        <time>2014-04-27T13:08:36Z</time>
      </trkpt>
      <trkpt lat="48.47277" lon="-3.04866">
        <ele>212</ele>
        <time>2014-04-27T13:08:37Z</time>
      </trkpt>
      <trkpt lat="48.47278" lon="-3.04869">
        <ele>212</ele>
        <time>2014-04-27T13:08:39Z</time>
      </trkpt>
      <trkpt lat="48.47279" lon="-3.04872">
        <ele>212</ele>
        <time>2014-04-27T13:08:42Z</time>
      </trkpt>
      <trkpt lat="48.47279" lon="-3.04874">
        <ele>213</ele>
        <time>2014-04-27T13:08:43Z</time>
      </trkpt>
      <trkpt lat="48.4728" lon="-3.04876">
        <ele>215</ele>
        <time>2014-04-27T13:08:45Z</time>
      </trkpt>
      <trkpt lat="48.47281" lon="-3.04879">
        <ele>215</ele>
        <time>2014-04-27T13:08:47Z</time>
      </trkpt>
      <trkpt lat="48.4728" lon="-3.0488">
        <ele>215</ele>
        <time>2014-04-27T13:08:48Z</time>
      </trkpt>
      <trkpt lat="48.47281" lon="-3.04882">
        <ele>215</ele>
        <time>2014-04-27T13:08:50Z</time>
      </trkpt>
      <trkpt lat="48.47283" lon="-3.04891">
        <ele>215</ele>
        <time>2014-04-27T13:08:54Z</time>
      </trkpt>
      <trkpt lat="48.47283" lon="-3.04893">
        <ele>215</ele>
        <time>2014-04-27T13:08:55Z</time>
      </trkpt>
      <trkpt lat="48.47283" lon="-3.04895">
        <ele>218</ele>
        <time>2014-04-27T13:08:58Z</time>
      </trkpt>
      <trkpt lat="48.47284" lon="-3.04897">
        <ele>218</ele>
        <time>2014-04-27T13:09:00Z</time>
      </trkpt>
      <trkpt lat="48.47285" lon="-3.04898">
        <ele>218</ele>
        <time>2014-04-27T13:09:01Z</time>
      </trkpt>
      <trkpt lat="48.47286" lon="-3.049">
        <ele>218</ele>
        <time>2014-04-27T13:09:04Z</time>
      </trkpt>
      <trkpt lat="48.47286" lon="-3.04902">
        <ele>218</ele>
        <time>2014-04-27T13:09:05Z</time>
      </trkpt>
      <trkpt lat="48.47285" lon="-3.04904">
        <ele>218</ele>
        <time>2014-04-27T13:09:07Z</time>
      </trkpt>
      <trkpt lat="48.47288" lon="-3.04904">
        <ele>218</ele>
        <time>2014-04-27T13:09:10Z</time>
      </trkpt>
      <trkpt lat="48.47292" lon="-3.04912">
        <ele>216</ele>
        <time>2014-04-27T13:09:17Z</time>
      </trkpt>
      <trkpt lat="48.47294" lon="-3.0492">
        <ele>215</ele>
        <time>2014-04-27T13:09:23Z</time>
      </trkpt>
      <trkpt lat="48.47295" lon="-3.04922">
        <ele>215</ele>
        <time>2014-04-27T13:09:24Z</time>
      </trkpt>
      <trkpt lat="48.47294" lon="-3.04925">
        <ele>215</ele>
        <time>2014-04-27T13:09:27Z</time>
      </trkpt>
      <trkpt lat="48.47296" lon="-3.04927">
        <ele>215</ele>
        <time>2014-04-27T13:09:28Z</time>
      </trkpt>
      <trkpt lat="48.473" lon="-3.04929">
        <ele>215</ele>
        <time>2014-04-27T13:09:29Z</time>
      </trkpt>
      <trkpt lat="48.47302" lon="-3.04931">
        <ele>215</ele>
        <time>2014-04-27T13:09:30Z</time>
      </trkpt>
      <trkpt lat="48.47303" lon="-3.04933">
        <ele>215</ele>
        <time>2014-04-27T13:09:31Z</time>
      </trkpt>
      <trkpt lat="48.47304" lon="-3.04933">
        <ele>215</ele>
        <time>2014-04-27T13:09:32Z</time>
      </trkpt>
      <trkpt lat="48.47312" lon="-3.04939">
        <ele>218</ele>
        <time>2014-04-27T13:09:38Z</time>
      </trkpt>
      <trkpt lat="48.47314" lon="-3.04939">
        <ele>219</ele>
        <time>2014-04-27T13:09:39Z</time>
      </trkpt>
      <trkpt lat="48.47315" lon="-3.0494">
        <ele>220</ele>
        <time>2014-04-27T13:09:40Z</time>
      </trkpt>
      <trkpt lat="48.47316" lon="-3.04939">
        <ele>221</ele>
        <time>2014-04-27T13:09:41Z</time>
      </trkpt>
      <trkpt lat="48.47318" lon="-3.0494">
        <ele>223</ele>
        <time>2014-04-27T13:09:43Z</time>
      </trkpt>
      <trkpt lat="48.47319" lon="-3.04941">
        <ele>224</ele>
        <time>2014-04-27T13:09:44Z</time>
      </trkpt>
      <trkpt lat="48.47321" lon="-3.04941">
        <ele>226</ele>
        <time>2014-04-27T13:09:46Z</time>
      </trkpt>
      <trkpt lat="48.47322" lon="-3.04942">
        <ele>226</ele>
        <time>2014-04-27T13:09:47Z</time>
      </trkpt>
      <trkpt lat="48.47325" lon="-3.04946">
        <ele>224</ele>
        <time>2014-04-27T13:09:57Z</time>
      </trkpt>
      <trkpt lat="48.47325" lon="-3.04949">
        <ele>224</ele>
        <time>2014-04-27T13:09:59Z</time>
      </trkpt>
      <trkpt lat="48.47326" lon="-3.0495">
        <ele>223</ele>
        <time>2014-04-27T13:10:01Z</time>
      </trkpt>
      <trkpt lat="48.47329" lon="-3.04952">
        <ele>222</ele>
        <time>2014-04-27T13:10:03Z</time>
      </trkpt>
      <trkpt lat="48.47332" lon="-3.04955">
        <ele>222</ele>
        <time>2014-04-27T13:10:04Z</time>
      </trkpt>
      <trkpt lat="48.47333" lon="-3.04956">
        <ele>222</ele>
        <time>2014-04-27T13:10:05Z</time>
      </trkpt>
      <trkpt lat="48.47335" lon="-3.04959">
        <ele>221</ele>
        <time>2014-04-27T13:10:09Z</time>
      </trkpt>
      <trkpt lat="48.47337" lon="-3.04963">
        <ele>221</ele>
        <time>2014-04-27T13:10:10Z</time>
      </trkpt>
      <trkpt lat="48.4734" lon="-3.04963">
        <ele>221</ele>
        <time>2014-04-27T13:10:11Z</time>
      </trkpt>
      <trkpt lat="48.47341" lon="-3.04966">
        <ele>221</ele>
        <time>2014-04-27T13:10:12Z</time>
      </trkpt>
      <trkpt lat="48.47341" lon="-3.04967">
        <ele>221</ele>
        <time>2014-04-27T13:10:13Z</time>
      </trkpt>
      <trkpt lat="48.47341" lon="-3.04969">
        <ele>221</ele>
        <time>2014-04-27T13:10:16Z</time>
      </trkpt>
      <trkpt lat="48.4734" lon="-3.04971">
        <ele>221</ele>
        <time>2014-04-27T13:10:19Z</time>
      </trkpt>
      <trkpt lat="48.47341" lon="-3.04973">
        <ele>219</ele>
        <time>2014-04-27T13:10:21Z</time>
      </trkpt>
      <trkpt lat="48.47343" lon="-3.04978">
        <ele>218</ele>
        <time>2014-04-27T13:10:25Z</time>
      </trkpt>
      <trkpt lat="48.47345" lon="-3.0498">
        <ele>217</ele>
        <time>2014-04-27T13:10:26Z</time>
      </trkpt>
      <trkpt lat="48.47345" lon="-3.04982">
        <ele>217</ele>
        <time>2014-04-27T13:10:27Z</time>
      </trkpt>
      <trkpt lat="48.47345" lon="-3.04984">
        <ele>217</ele>
        <time>2014-04-27T13:10:29Z</time>
      </trkpt>
      <trkpt lat="48.47346" lon="-3.04985">
        <ele>217</ele>
        <time>2014-04-27T13:10:33Z</time>
      </trkpt>
      <trkpt lat="48.47347" lon="-3.04986">
        <ele>217</ele>
        <time>2014-04-27T13:10:36Z</time>
      </trkpt>
      <trkpt lat="48.47348" lon="-3.04987">
        <ele>217</ele>
        <time>2014-04-27T13:10:40Z</time>
      </trkpt>
      <trkpt lat="48.47348" lon="-3.0499">
        <ele>215</ele>
        <time>2014-04-27T13:10:43Z</time>
      </trkpt>
      <trkpt lat="48.47349" lon="-3.0499">
        <ele>213</ele>
        <time>2014-04-27T13:10:46Z</time>
      </trkpt>
      <trkpt lat="48.47351" lon="-3.04992">
        <ele>212</ele>
        <time>2014-04-27T13:10:48Z</time>
      </trkpt>
      <trkpt lat="48.47352" lon="-3.04992">
        <ele>211</ele>
        <time>2014-04-27T13:10:49Z</time>
      </trkpt>
      <trkpt lat="48.47355" lon="-3.04995">
        <ele>209</ele>
        <time>2014-04-27T13:10:53Z</time>
      </trkpt>
      <trkpt lat="48.47356" lon="-3.04998">
        <ele>207</ele>
        <time>2014-04-27T13:10:58Z</time>
      </trkpt>
      <trkpt lat="48.47358" lon="-3.05001">
        <ele>207</ele>
        <time>2014-04-27T13:10:59Z</time>
      </trkpt>
      <trkpt lat="48.47358" lon="-3.05004">
        <ele>207</ele>
        <time>2014-04-27T13:11:02Z</time>
      </trkpt>
      <trkpt lat="48.47359" lon="-3.05009">
        <ele>207</ele>
        <time>2014-04-27T13:11:03Z</time>
      </trkpt>
      <trkpt lat="48.47359" lon="-3.05011">
        <ele>207</ele>
        <time>2014-04-27T13:11:04Z</time>
      </trkpt>
      <trkpt lat="48.47359" lon="-3.05013">
        <ele>207</ele>
        <time>2014-04-27T13:11:05Z</time>
      </trkpt>
      <trkpt lat="48.47359" lon="-3.05015">
        <ele>207</ele>
        <time>2014-04-27T13:11:06Z</time>
      </trkpt>
      <trkpt lat="48.4736" lon="-3.05018">
        <ele>208</ele>
        <time>2014-04-27T13:11:07Z</time>
      </trkpt>
      <trkpt lat="48.47362" lon="-3.05021">
        <ele>209</ele>
        <time>2014-04-27T13:11:09Z</time>
      </trkpt>
      <trkpt lat="48.47363" lon="-3.05023">
        <ele>211</ele>
        <time>2014-04-27T13:11:11Z</time>
      </trkpt>
      <trkpt lat="48.47364" lon="-3.05024">
        <ele>213</ele>
        <time>2014-04-27T13:11:13Z</time>
      </trkpt>
      <trkpt lat="48.47366" lon="-3.05024">
        <ele>214</ele>
        <time>2014-04-27T13:11:14Z</time>
      </trkpt>
      <trkpt lat="48.47368" lon="-3.05023">
        <ele>215</ele>
        <time>2014-04-27T13:11:16Z</time>
      </trkpt>
      <trkpt lat="48.4737" lon="-3.05025">
        <ele>215</ele>
        <time>2014-04-27T13:11:18Z</time>
      </trkpt>
      <trkpt lat="48.47372" lon="-3.05026">
        <ele>215</ele>
        <time>2014-04-27T13:11:20Z</time>
      </trkpt>
      <trkpt lat="48.47373" lon="-3.05027">
        <ele>215</ele>
        <time>2014-04-27T13:11:21Z</time>
      </trkpt>
      <trkpt lat="48.47374" lon="-3.05028">
        <ele>215</ele>
        <time>2014-04-27T13:11:23Z</time>
      </trkpt>
      <trkpt lat="48.47375" lon="-3.05029">
        <ele>215</ele>
        <time>2014-04-27T13:11:25Z</time>
      </trkpt>
      <trkpt lat="48.47376" lon="-3.05031">
        <ele>215</ele>
        <time>2014-04-27T13:11:27Z</time>
      </trkpt>
      <trkpt lat="48.47376" lon="-3.05032">
        <ele>215</ele>
        <time>2014-04-27T13:11:28Z</time>
      </trkpt>
      <trkpt lat="48.47375" lon="-3.05035">
        <ele>215</ele>
        <time>2014-04-27T13:11:30Z</time>
      </trkpt>
      <trkpt lat="48.47376" lon="-3.05035">
        <ele>215</ele>
        <time>2014-04-27T13:11:33Z</time>
      </trkpt>
      <trkpt lat="48.47378" lon="-3.05034">
        <ele>215</ele>
        <time>2014-04-27T13:11:36Z</time>
      </trkpt>
      <trkpt lat="48.47379" lon="-3.05036">
        <ele>215</ele>
        <time>2014-04-27T13:11:40Z</time>
      </trkpt>
      <trkpt lat="48.4738" lon="-3.05036">
        <ele>215</ele>
        <time>2014-04-27T13:11:43Z</time>
      </trkpt>
      <trkpt lat="48.4738" lon="-3.05038">
        <ele>215</ele>
        <time>2014-04-27T13:11:46Z</time>
      </trkpt>
      <trkpt lat="48.47381" lon="-3.0504">
        <ele>215</ele>
        <time>2014-04-27T13:11:51Z</time>
      </trkpt>
      <trkpt lat="48.47382" lon="-3.0504">
        <ele>215</ele>
        <time>2014-04-27T13:11:53Z</time>
      </trkpt>
      <trkpt lat="48.47383" lon="-3.05041">
        <ele>215</ele>
        <time>2014-04-27T13:11:54Z</time>
      </trkpt>
      <trkpt lat="48.47384" lon="-3.0504">
        <ele>215</ele>
        <time>2014-04-27T13:11:57Z</time>
      </trkpt>
      <trkpt lat="48.47386" lon="-3.05041">
        <ele>215</ele>
        <time>2014-04-27T13:11:59Z</time>
      </trkpt>
      <trkpt lat="48.47387" lon="-3.05042">
        <ele>215</ele>
        <time>2014-04-27T13:12:01Z</time>
      </trkpt>
      <trkpt lat="48.47387" lon="-3.05045">
        <ele>215</ele>
        <time>2014-04-27T13:12:04Z</time>
      </trkpt>
      <trkpt lat="48.47388" lon="-3.05046">
        <ele>215</ele>
        <time>2014-04-27T13:12:06Z</time>
      </trkpt>
      <trkpt lat="48.4739" lon="-3.05047">
        <ele>215</ele>
        <time>2014-04-27T13:12:08Z</time>
      </trkpt>
      <trkpt lat="48.4739" lon="-3.05049">
        <ele>215</ele>
        <time>2014-04-27T13:12:11Z</time>
      </trkpt>
      <trkpt lat="48.4739" lon="-3.05052">
        <ele>215</ele>
        <time>2014-04-27T13:12:12Z</time>
      </trkpt>
      <trkpt lat="48.47393" lon="-3.05052">
        <ele>215</ele>
        <time>2014-04-27T13:12:13Z</time>
      </trkpt>
      <trkpt lat="48.47394" lon="-3.05055">
        <ele>215</ele>
        <time>2014-04-27T13:12:14Z</time>
      </trkpt>
      <trkpt lat="48.47393" lon="-3.05057">
        <ele>215</ele>
        <time>2014-04-27T13:12:15Z</time>
      </trkpt>
      <trkpt lat="48.47397" lon="-3.05061">
        <ele>215</ele>
        <time>2014-04-27T13:12:19Z</time>
      </trkpt>
      <trkpt lat="48.47398" lon="-3.05065">
        <ele>215</ele>
        <time>2014-04-27T13:12:20Z</time>
      </trkpt>
      <trkpt lat="48.47399" lon="-3.05068">
        <ele>215</ele>
        <time>2014-04-27T13:12:21Z</time>
      </trkpt>
      <trkpt lat="48.47401" lon="-3.0507">
        <ele>215</ele>
        <time>2014-04-27T13:12:22Z</time>
      </trkpt>
      <trkpt lat="48.47401" lon="-3.05072">
        <ele>216</ele>
        <time>2014-04-27T13:12:24Z</time>
      </trkpt>
      <trkpt lat="48.47402" lon="-3.05074">
        <ele>216</ele>
        <time>2014-04-27T13:12:26Z</time>
      </trkpt>
      <trkpt lat="48.47402" lon="-3.05077">
        <ele>216</ele>
        <time>2014-04-27T13:12:29Z</time>
      </trkpt>
      <trkpt lat="48.47402" lon="-3.05083">
        <ele>216</ele>
        <time>2014-04-27T13:12:32Z</time>
      </trkpt>
      <trkpt lat="48.47404" lon="-3.05089">
        <ele>216</ele>
        <time>2014-04-27T13:12:33Z</time>
      </trkpt>
      <trkpt lat="48.47405" lon="-3.05091">
        <ele>216</ele>
        <time>2014-04-27T13:12:34Z</time>
      </trkpt>
      <trkpt lat="48.47407" lon="-3.05092">
        <ele>216</ele>
        <time>2014-04-27T13:12:35Z</time>
      </trkpt>
      <trkpt lat="48.47409" lon="-3.05092">
        <ele>216</ele>
        <time>2014-04-27T13:12:37Z</time>
      </trkpt>
      <trkpt lat="48.4741" lon="-3.05094">
        <ele>216</ele>
        <time>2014-04-27T13:12:38Z</time>
      </trkpt>
      <trkpt lat="48.47411" lon="-3.05096">
        <ele>216</ele>
        <time>2014-04-27T13:12:40Z</time>
      </trkpt>
      <trkpt lat="48.47411" lon="-3.05098">
        <ele>215</ele>
        <time>2014-04-27T13:12:44Z</time>
      </trkpt>
      <trkpt lat="48.47412" lon="-3.05099">
        <ele>212</ele>
        <time>2014-04-27T13:12:47Z</time>
      </trkpt>
      <trkpt lat="48.47412" lon="-3.05102">
        <ele>210</ele>
        <time>2014-04-27T13:12:49Z</time>
      </trkpt>
      <trkpt lat="48.47413" lon="-3.05104">
        <ele>209</ele>
        <time>2014-04-27T13:12:52Z</time>
      </trkpt>
      <trkpt lat="48.47413" lon="-3.05106">
        <ele>207</ele>
        <time>2014-04-27T13:12:54Z</time>
      </trkpt>
      <trkpt lat="48.47416" lon="-3.05108">
        <ele>205</ele>
        <time>2014-04-27T13:12:56Z</time>
      </trkpt>
      <trkpt lat="48.47416" lon="-3.05112">
        <ele>204</ele>
        <time>2014-04-27T13:12:57Z</time>
      </trkpt>
      <trkpt lat="48.47417" lon="-3.05113">
        <ele>203</ele>
        <time>2014-04-27T13:12:58Z</time>
      </trkpt>
      <trkpt lat="48.47418" lon="-3.05115">
        <ele>202</ele>
        <time>2014-04-27T13:12:59Z</time>
      </trkpt>
      <trkpt lat="48.47417" lon="-3.05118">
        <ele>202</ele>
        <time>2014-04-27T13:13:01Z</time>
      </trkpt>
      <trkpt lat="48.47419" lon="-3.05121">
        <ele>202</ele>
        <time>2014-04-27T13:13:03Z</time>
      </trkpt>
      <trkpt lat="48.47418" lon="-3.05123">
        <ele>202</ele>
        <time>2014-04-27T13:13:05Z</time>
      </trkpt>
      <trkpt lat="48.47418" lon="-3.05125">
        <ele>202</ele>
        <time>2014-04-27T13:13:06Z</time>
      </trkpt>
      <trkpt lat="48.47418" lon="-3.05127">
        <ele>202</ele>
        <time>2014-04-27T13:13:07Z</time>
      </trkpt>
      <trkpt lat="48.47418" lon="-3.05131">
        <ele>202</ele>
        <time>2014-04-27T13:13:09Z</time>
      </trkpt>
      <trkpt lat="48.47418" lon="-3.05133">
        <ele>202</ele>
        <time>2014-04-27T13:13:10Z</time>
      </trkpt>
      <trkpt lat="48.47417" lon="-3.05136">
        <ele>202</ele>
        <time>2014-04-27T13:13:11Z</time>
      </trkpt>
      <trkpt lat="48.47417" lon="-3.05138">
        <ele>202</ele>
        <time>2014-04-27T13:13:12Z</time>
      </trkpt>
      <trkpt lat="48.47418" lon="-3.05141">
        <ele>202</ele>
        <time>2014-04-27T13:13:13Z</time>
      </trkpt>
      <trkpt lat="48.47419" lon="-3.05144">
        <ele>203</ele>
        <time>2014-04-27T13:13:15Z</time>
      </trkpt>
      <trkpt lat="48.4742" lon="-3.05147">
        <ele>205</ele>
        <time>2014-04-27T13:13:17Z</time>
      </trkpt>
      <trkpt lat="48.47421" lon="-3.0515">
        <ele>207</ele>
        <time>2014-04-27T13:13:19Z</time>
      </trkpt>
      <trkpt lat="48.47421" lon="-3.05156">
        <ele>208</ele>
        <time>2014-04-27T13:13:22Z</time>
      </trkpt>
      <trkpt lat="48.47421" lon="-3.05159">
        <ele>209</ele>
        <time>2014-04-27T13:13:23Z</time>
      </trkpt>
      <trkpt lat="48.47421" lon="-3.05162">
        <ele>209</ele>
        <time>2014-04-27T13:13:24Z</time>
      </trkpt>
      <trkpt lat="48.47421" lon="-3.05167">
        <ele>209</ele>
        <time>2014-04-27T13:13:26Z</time>
      </trkpt>
      <trkpt lat="48.47419" lon="-3.0517">
        <ele>209</ele>
        <time>2014-04-27T13:13:27Z</time>
      </trkpt>
      <trkpt lat="48.47418" lon="-3.05172">
        <ele>209</ele>
        <time>2014-04-27T13:13:28Z</time>
      </trkpt>
      <trkpt lat="48.47418" lon="-3.05175">
        <ele>209</ele>
        <time>2014-04-27T13:13:30Z</time>
      </trkpt>
      <trkpt lat="48.47419" lon="-3.05176">
        <ele>209</ele>
        <time>2014-04-27T13:13:31Z</time>
      </trkpt>
      <trkpt lat="48.4742" lon="-3.05179">
        <ele>209</ele>
        <time>2014-04-27T13:13:33Z</time>
      </trkpt>
      <trkpt lat="48.47421" lon="-3.05181">
        <ele>209</ele>
        <time>2014-04-27T13:13:34Z</time>
      </trkpt>
      <trkpt lat="48.47421" lon="-3.05184">
        <ele>209</ele>
        <time>2014-04-27T13:13:36Z</time>
      </trkpt>
      <trkpt lat="48.47422" lon="-3.05186">
        <ele>209</ele>
        <time>2014-04-27T13:13:39Z</time>
      </trkpt>
      <trkpt lat="48.47422" lon="-3.05188">
        <ele>208</ele>
        <time>2014-04-27T13:13:40Z</time>
      </trkpt>
      <trkpt lat="48.47422" lon="-3.05189">
        <ele>208</ele>
        <time>2014-04-27T13:13:41Z</time>
      </trkpt>
      <trkpt lat="48.47422" lon="-3.05192">
        <ele>208</ele>
        <time>2014-04-27T13:13:42Z</time>
      </trkpt>
      <trkpt lat="48.47423" lon="-3.05194">
        <ele>208</ele>
        <time>2014-04-27T13:13:44Z</time>
      </trkpt>
      <trkpt lat="48.47424" lon="-3.05197">
        <ele>208</ele>
        <time>2014-04-27T13:13:45Z</time>
      </trkpt>
      <trkpt lat="48.47424" lon="-3.05198">
        <ele>208</ele>
        <time>2014-04-27T13:13:46Z</time>
      </trkpt>
      <trkpt lat="48.47425" lon="-3.05199">
        <ele>208</ele>
        <time>2014-04-27T13:13:48Z</time>
      </trkpt>
      <trkpt lat="48.47425" lon="-3.05202">
        <ele>208</ele>
        <time>2014-04-27T13:13:50Z</time>
      </trkpt>
      <trkpt lat="48.47435" lon="-3.05222">
        <ele>216</ele>
        <time>2014-04-27T13:14:07Z</time>
      </trkpt>
      <trkpt lat="48.47436" lon="-3.0523">
        <ele>216</ele>
        <time>2014-04-27T13:14:15Z</time>
      </trkpt>
      <trkpt lat="48.47436" lon="-3.05233">
        <ele>216</ele>
        <time>2014-04-27T13:14:17Z</time>
      </trkpt>
      <trkpt lat="48.47436" lon="-3.05234">
        <ele>216</ele>
        <time>2014-04-27T13:14:18Z</time>
      </trkpt>
      <trkpt lat="48.47436" lon="-3.05237">
        <ele>216</ele>
        <time>2014-04-27T13:14:19Z</time>
      </trkpt>
      <trkpt lat="48.47436" lon="-3.05239">
        <ele>216</ele>
        <time>2014-04-27T13:14:20Z</time>
      </trkpt>
      <trkpt lat="48.47435" lon="-3.05241">
        <ele>216</ele>
        <time>2014-04-27T13:14:21Z</time>
      </trkpt>
      <trkpt lat="48.47435" lon="-3.05243">
        <ele>216</ele>
        <time>2014-04-27T13:14:22Z</time>
      </trkpt>
      <trkpt lat="48.47435" lon="-3.05246">
        <ele>216</ele>
        <time>2014-04-27T13:14:24Z</time>
      </trkpt>
      <trkpt lat="48.47435" lon="-3.05248">
        <ele>216</ele>
        <time>2014-04-27T13:14:25Z</time>
      </trkpt>
      <trkpt lat="48.47436" lon="-3.0525">
        <ele>216</ele>
        <time>2014-04-27T13:14:26Z</time>
      </trkpt>
      <trkpt lat="48.47436" lon="-3.05252">
        <ele>216</ele>
        <time>2014-04-27T13:14:27Z</time>
      </trkpt>
      <trkpt lat="48.47437" lon="-3.05254">
        <ele>216</ele>
        <time>2014-04-27T13:14:28Z</time>
      </trkpt>
      <trkpt lat="48.47437" lon="-3.05257">
        <ele>216</ele>
        <time>2014-04-27T13:14:30Z</time>
      </trkpt>
      <trkpt lat="48.47439" lon="-3.05259">
        <ele>216</ele>
        <time>2014-04-27T13:14:31Z</time>
      </trkpt>
      <trkpt lat="48.47439" lon="-3.05261">
        <ele>216</ele>
        <time>2014-04-27T13:14:32Z</time>
      </trkpt>
      <trkpt lat="48.47439" lon="-3.05263">
        <ele>216</ele>
        <time>2014-04-27T13:14:33Z</time>
      </trkpt>
      <trkpt lat="48.47439" lon="-3.05266">
        <ele>216</ele>
        <time>2014-04-27T13:14:34Z</time>
      </trkpt>
      <trkpt lat="48.4744" lon="-3.05268">
        <ele>216</ele>
        <time>2014-04-27T13:14:35Z</time>
      </trkpt>
      <trkpt lat="48.47442" lon="-3.05269">
        <ele>216</ele>
        <time>2014-04-27T13:14:37Z</time>
      </trkpt>
      <trkpt lat="48.47443" lon="-3.05271">
        <ele>216</ele>
        <time>2014-04-27T13:14:39Z</time>
      </trkpt>
      <trkpt lat="48.47445" lon="-3.05273">
        <ele>216</ele>
        <time>2014-04-27T13:14:41Z</time>
      </trkpt>
      <trkpt lat="48.47447" lon="-3.05273">
        <ele>216</ele>
        <time>2014-04-27T13:14:42Z</time>
      </trkpt>
      <trkpt lat="48.47448" lon="-3.05274">
        <ele>216</ele>
        <time>2014-04-27T13:14:43Z</time>
      </trkpt>
      <trkpt lat="48.47448" lon="-3.05276">
        <ele>215</ele>
        <time>2014-04-27T13:14:44Z</time>
      </trkpt>
      <trkpt lat="48.47448" lon="-3.05278">
        <ele>214</ele>
        <time>2014-04-27T13:14:46Z</time>
      </trkpt>
      <trkpt lat="48.47448" lon="-3.05281">
        <ele>213</ele>
        <time>2014-04-27T13:14:47Z</time>
      </trkpt>
      <trkpt lat="48.47448" lon="-3.05283">
        <ele>212</ele>
        <time>2014-04-27T13:14:48Z</time>
      </trkpt>
      <trkpt lat="48.47448" lon="-3.05285">
        <ele>212</ele>
        <time>2014-04-27T13:14:49Z</time>
      </trkpt>
      <trkpt lat="48.47448" lon="-3.05287">
        <ele>212</ele>
        <time>2014-04-27T13:14:51Z</time>
      </trkpt>
      <trkpt lat="48.47448" lon="-3.0529">
        <ele>212</ele>
        <time>2014-04-27T13:14:52Z</time>
      </trkpt>
      <trkpt lat="48.47448" lon="-3.05292">
        <ele>212</ele>
        <time>2014-04-27T13:14:53Z</time>
      </trkpt>
      <trkpt lat="48.47449" lon="-3.05295">
        <ele>212</ele>
        <time>2014-04-27T13:14:55Z</time>
      </trkpt>
      <trkpt lat="48.47449" lon="-3.05298">
        <ele>212</ele>
        <time>2014-04-27T13:14:57Z</time>
      </trkpt>
      <trkpt lat="48.4745" lon="-3.053">
        <ele>212</ele>
        <time>2014-04-27T13:14:59Z</time>
      </trkpt>
      <trkpt lat="48.47451" lon="-3.05301">
        <ele>212</ele>
        <time>2014-04-27T13:15:00Z</time>
      </trkpt>
      <trkpt lat="48.47452" lon="-3.05303">
        <ele>212</ele>
        <time>2014-04-27T13:15:02Z</time>
      </trkpt>
      <trkpt lat="48.47452" lon="-3.05306">
        <ele>212</ele>
        <time>2014-04-27T13:15:04Z</time>
      </trkpt>
      <trkpt lat="48.47453" lon="-3.05309">
        <ele>212</ele>
        <time>2014-04-27T13:15:07Z</time>
      </trkpt>
      <trkpt lat="48.47452" lon="-3.05311">
        <ele>212</ele>
        <time>2014-04-27T13:15:08Z</time>
      </trkpt>
      <trkpt lat="48.47453" lon="-3.05312">
        <ele>212</ele>
        <time>2014-04-27T13:15:09Z</time>
      </trkpt>
      <trkpt lat="48.47453" lon="-3.05314">
        <ele>211</ele>
        <time>2014-04-27T13:15:11Z</time>
      </trkpt>
      <trkpt lat="48.47453" lon="-3.05316">
        <ele>211</ele>
        <time>2014-04-27T13:15:12Z</time>
      </trkpt>
      <trkpt lat="48.47454" lon="-3.0532">
        <ele>210</ele>
        <time>2014-04-27T13:15:14Z</time>
      </trkpt>
      <trkpt lat="48.47455" lon="-3.05324">
        <ele>210</ele>
        <time>2014-04-27T13:15:18Z</time>
      </trkpt>
      <trkpt lat="48.47458" lon="-3.05327">
        <ele>210</ele>
        <time>2014-04-27T13:15:19Z</time>
      </trkpt>
      <trkpt lat="48.47459" lon="-3.05329">
        <ele>210</ele>
        <time>2014-04-27T13:15:20Z</time>
      </trkpt>
      <trkpt lat="48.4746" lon="-3.05333">
        <ele>210</ele>
        <time>2014-04-27T13:15:23Z</time>
      </trkpt>
      <trkpt lat="48.47458" lon="-3.05337">
        <ele>210</ele>
        <time>2014-04-27T13:15:24Z</time>
      </trkpt>
      <trkpt lat="48.47458" lon="-3.05341">
        <ele>210</ele>
        <time>2014-04-27T13:15:27Z</time>
      </trkpt>
      <trkpt lat="48.47459" lon="-3.05347">
        <ele>210</ele>
        <time>2014-04-27T13:15:28Z</time>
      </trkpt>
      <trkpt lat="48.4746" lon="-3.05351">
        <ele>210</ele>
        <time>2014-04-27T13:15:29Z</time>
      </trkpt>
      <trkpt lat="48.47461" lon="-3.05352">
        <ele>210</ele>
        <time>2014-04-27T13:15:30Z</time>
      </trkpt>
      <trkpt lat="48.47463" lon="-3.05353">
        <ele>211</ele>
        <time>2014-04-27T13:15:31Z</time>
      </trkpt>
      <trkpt lat="48.47462" lon="-3.05355">
        <ele>212</ele>
        <time>2014-04-27T13:15:32Z</time>
      </trkpt>
      <trkpt lat="48.47463" lon="-3.05357">
        <ele>213</ele>
        <time>2014-04-27T13:15:33Z</time>
      </trkpt>
      <trkpt lat="48.47465" lon="-3.0536">
        <ele>214</ele>
        <time>2014-04-27T13:15:36Z</time>
      </trkpt>
      <trkpt lat="48.47465" lon="-3.05362">
        <ele>215</ele>
        <time>2014-04-27T13:15:37Z</time>
      </trkpt>
      <trkpt lat="48.47467" lon="-3.05362">
        <ele>217</ele>
        <time>2014-04-27T13:15:39Z</time>
      </trkpt>
      <trkpt lat="48.47465" lon="-3.05366">
        <ele>218</ele>
        <time>2014-04-27T13:15:43Z</time>
      </trkpt>
      <trkpt lat="48.47465" lon="-3.05369">
        <ele>218</ele>
        <time>2014-04-27T13:15:44Z</time>
      </trkpt>
      <trkpt lat="48.47466" lon="-3.05371">
        <ele>218</ele>
        <time>2014-04-27T13:15:46Z</time>
      </trkpt>
      <trkpt lat="48.47465" lon="-3.05373">
        <ele>218</ele>
        <time>2014-04-27T13:15:47Z</time>
      </trkpt>
      <trkpt lat="48.47467" lon="-3.05376">
        <ele>218</ele>
        <time>2014-04-27T13:15:51Z</time>
      </trkpt>
      <trkpt lat="48.47468" lon="-3.05379">
        <ele>218</ele>
        <time>2014-04-27T13:15:52Z</time>
      </trkpt>
      <trkpt lat="48.4747" lon="-3.05381">
        <ele>218</ele>
        <time>2014-04-27T13:15:53Z</time>
      </trkpt>
      <trkpt lat="48.47471" lon="-3.05385">
        <ele>218</ele>
        <time>2014-04-27T13:15:54Z</time>
      </trkpt>
      <trkpt lat="48.47472" lon="-3.05387">
        <ele>218</ele>
        <time>2014-04-27T13:15:56Z</time>
      </trkpt>
      <trkpt lat="48.47474" lon="-3.05387">
        <ele>217</ele>
        <time>2014-04-27T13:15:57Z</time>
      </trkpt>
      <trkpt lat="48.47473" lon="-3.05391">
        <ele>215</ele>
        <time>2014-04-27T13:15:59Z</time>
      </trkpt>
      <trkpt lat="48.47474" lon="-3.05393">
        <ele>212</ele>
        <time>2014-04-27T13:16:02Z</time>
      </trkpt>
      <trkpt lat="48.47475" lon="-3.05397">
        <ele>210</ele>
        <time>2014-04-27T13:16:04Z</time>
      </trkpt>
      <trkpt lat="48.47477" lon="-3.05398">
        <ele>208</ele>
        <time>2014-04-27T13:16:06Z</time>
      </trkpt>
      <trkpt lat="48.47478" lon="-3.054">
        <ele>207</ele>
        <time>2014-04-27T13:16:07Z</time>
      </trkpt>
      <trkpt lat="48.47478" lon="-3.05403">
        <ele>206</ele>
        <time>2014-04-27T13:16:08Z</time>
      </trkpt>
      <trkpt lat="48.4748" lon="-3.05405">
        <ele>205</ele>
        <time>2014-04-27T13:16:09Z</time>
      </trkpt>
      <trkpt lat="48.47481" lon="-3.05406">
        <ele>205</ele>
        <time>2014-04-27T13:16:10Z</time>
      </trkpt>
      <trkpt lat="48.47482" lon="-3.05408">
        <ele>205</ele>
        <time>2014-04-27T13:16:13Z</time>
      </trkpt>
      <trkpt lat="48.47481" lon="-3.0541">
        <ele>205</ele>
        <time>2014-04-27T13:16:15Z</time>
      </trkpt>
      <trkpt lat="48.4748" lon="-3.05413">
        <ele>205</ele>
        <time>2014-04-27T13:16:18Z</time>
      </trkpt>
      <trkpt lat="48.4748" lon="-3.05417">
        <ele>205</ele>
        <time>2014-04-27T13:16:20Z</time>
      </trkpt>
      <trkpt lat="48.47481" lon="-3.05419">
        <ele>205</ele>
        <time>2014-04-27T13:16:21Z</time>
      </trkpt>
      <trkpt lat="48.47481" lon="-3.05423">
        <ele>205</ele>
        <time>2014-04-27T13:16:22Z</time>
      </trkpt>
      <trkpt lat="48.47481" lon="-3.05426">
        <ele>205</ele>
        <time>2014-04-27T13:16:24Z</time>
      </trkpt>
      <trkpt lat="48.4748" lon="-3.05428">
        <ele>205</ele>
        <time>2014-04-27T13:16:25Z</time>
      </trkpt>
      <trkpt lat="48.47481" lon="-3.0543">
        <ele>205</ele>
        <time>2014-04-27T13:16:27Z</time>
      </trkpt>
      <trkpt lat="48.4748" lon="-3.05432">
        <ele>205</ele>
        <time>2014-04-27T13:16:29Z</time>
      </trkpt>
      <trkpt lat="48.47479" lon="-3.05434">
        <ele>205</ele>
        <time>2014-04-27T13:16:30Z</time>
      </trkpt>
      <trkpt lat="48.4748" lon="-3.05436">
        <ele>205</ele>
        <time>2014-04-27T13:16:32Z</time>
      </trkpt>
      <trkpt lat="48.4748" lon="-3.05438">
        <ele>204</ele>
        <time>2014-04-27T13:16:34Z</time>
      </trkpt>
      <trkpt lat="48.47481" lon="-3.05441">
        <ele>204</ele>
        <time>2014-04-27T13:16:35Z</time>
      </trkpt>
      <trkpt lat="48.47481" lon="-3.05443">
        <ele>204</ele>
        <time>2014-04-27T13:16:36Z</time>
      </trkpt>
      <trkpt lat="48.47481" lon="-3.05446">
        <ele>204</ele>
        <time>2014-04-27T13:16:37Z</time>
      </trkpt>
      <trkpt lat="48.47482" lon="-3.05448">
        <ele>204</ele>
        <time>2014-04-27T13:16:38Z</time>
      </trkpt>
      <trkpt lat="48.47482" lon="-3.05451">
        <ele>204</ele>
        <time>2014-04-27T13:16:39Z</time>
      </trkpt>
      <trkpt lat="48.47482" lon="-3.05456">
        <ele>204</ele>
        <time>2014-04-27T13:16:41Z</time>
      </trkpt>
      <trkpt lat="48.47482" lon="-3.05458">
        <ele>204</ele>
        <time>2014-04-27T13:16:42Z</time>
      </trkpt>
      <trkpt lat="48.47483" lon="-3.0546">
        <ele>204</ele>
        <time>2014-04-27T13:16:43Z</time>
      </trkpt>
      <trkpt lat="48.47482" lon="-3.05463">
        <ele>205</ele>
        <time>2014-04-27T13:16:45Z</time>
      </trkpt>
      <trkpt lat="48.47483" lon="-3.05467">
        <ele>205</ele>
        <time>2014-04-27T13:16:47Z</time>
      </trkpt>
      <trkpt lat="48.47483" lon="-3.05469">
        <ele>205</ele>
        <time>2014-04-27T13:16:49Z</time>
      </trkpt>
      <trkpt lat="48.47483" lon="-3.05471">
        <ele>205</ele>
        <time>2014-04-27T13:16:50Z</time>
      </trkpt>
      <trkpt lat="48.47483" lon="-3.05473">
        <ele>205</ele>
        <time>2014-04-27T13:16:51Z</time>
      </trkpt>
      <trkpt lat="48.47482" lon="-3.05475">
        <ele>205</ele>
        <time>2014-04-27T13:16:52Z</time>
      </trkpt>
      <trkpt lat="48.47482" lon="-3.05479">
        <ele>205</ele>
        <time>2014-04-27T13:16:54Z</time>
      </trkpt>
      <trkpt lat="48.47482" lon="-3.05481">
        <ele>205</ele>
        <time>2014-04-27T13:16:55Z</time>
      </trkpt>
      <trkpt lat="48.47484" lon="-3.05483">
        <ele>205</ele>
        <time>2014-04-27T13:16:57Z</time>
      </trkpt>
      <trkpt lat="48.47484" lon="-3.05486">
        <ele>205</ele>
        <time>2014-04-27T13:16:59Z</time>
      </trkpt>
      <trkpt lat="48.47485" lon="-3.05491">
        <ele>205</ele>
        <time>2014-04-27T13:17:01Z</time>
      </trkpt>
      <trkpt lat="48.47486" lon="-3.05494">
        <ele>205</ele>
        <time>2014-04-27T13:17:04Z</time>
      </trkpt>
      <trkpt lat="48.47487" lon="-3.05498">
        <ele>205</ele>
        <time>2014-04-27T13:17:05Z</time>
      </trkpt>
      <trkpt lat="48.47487" lon="-3.055">
        <ele>205</ele>
        <time>2014-04-27T13:17:06Z</time>
      </trkpt>
      <trkpt lat="48.47485" lon="-3.05507">
        <ele>205</ele>
        <time>2014-04-27T13:17:07Z</time>
      </trkpt>
      <trkpt lat="48.47487" lon="-3.05509">
        <ele>205</ele>
        <time>2014-04-27T13:17:09Z</time>
      </trkpt>
      <trkpt lat="48.47488" lon="-3.05512">
        <ele>205</ele>
        <time>2014-04-27T13:17:11Z</time>
      </trkpt>
      <trkpt lat="48.4749" lon="-3.05513">
        <ele>205</ele>
        <time>2014-04-27T13:17:13Z</time>
      </trkpt>
      <trkpt lat="48.47489" lon="-3.05515">
        <ele>205</ele>
        <time>2014-04-27T13:17:14Z</time>
      </trkpt>
      <trkpt lat="48.4749" lon="-3.05517">
        <ele>205</ele>
        <time>2014-04-27T13:17:16Z</time>
      </trkpt>
      <trkpt lat="48.47488" lon="-3.05523">
        <ele>205</ele>
        <time>2014-04-27T13:17:19Z</time>
      </trkpt>
      <trkpt lat="48.47487" lon="-3.05528">
        <ele>205</ele>
        <time>2014-04-27T13:17:20Z</time>
      </trkpt>
      <trkpt lat="48.47488" lon="-3.05532">
        <ele>206</ele>
        <time>2014-04-27T13:17:21Z</time>
      </trkpt>
      <trkpt lat="48.47489" lon="-3.05534">
        <ele>206</ele>
        <time>2014-04-27T13:17:22Z</time>
      </trkpt>
      <trkpt lat="48.47488" lon="-3.05538">
        <ele>206</ele>
        <time>2014-04-27T13:17:24Z</time>
      </trkpt>
      <trkpt lat="48.47489" lon="-3.05539">
        <ele>206</ele>
        <time>2014-04-27T13:17:25Z</time>
      </trkpt>
      <trkpt lat="48.4749" lon="-3.05541">
        <ele>206</ele>
        <time>2014-04-27T13:17:28Z</time>
      </trkpt>
      <trkpt lat="48.4749" lon="-3.05543">
        <ele>206</ele>
        <time>2014-04-27T13:17:29Z</time>
      </trkpt>
      <trkpt lat="48.47492" lon="-3.05544">
        <ele>206</ele>
        <time>2014-04-27T13:17:32Z</time>
      </trkpt>
      <trkpt lat="48.47493" lon="-3.05544">
        <ele>206</ele>
        <time>2014-04-27T13:17:33Z</time>
      </trkpt>
      <trkpt lat="48.47493" lon="-3.05547">
        <ele>206</ele>
        <time>2014-04-27T13:17:35Z</time>
      </trkpt>
      <trkpt lat="48.47492" lon="-3.05549">
        <ele>206</ele>
        <time>2014-04-27T13:17:36Z</time>
      </trkpt>
      <trkpt lat="48.47492" lon="-3.05551">
        <ele>206</ele>
        <time>2014-04-27T13:17:38Z</time>
      </trkpt>
      <trkpt lat="48.47492" lon="-3.05555">
        <ele>206</ele>
        <time>2014-04-27T13:17:40Z</time>
      </trkpt>
      <trkpt lat="48.47492" lon="-3.05557">
        <ele>206</ele>
        <time>2014-04-27T13:17:42Z</time>
      </trkpt>
      <trkpt lat="48.47492" lon="-3.05559">
        <ele>205</ele>
        <time>2014-04-27T13:17:43Z</time>
      </trkpt>
      <trkpt lat="48.47493" lon="-3.05561">
        <ele>203</ele>
        <time>2014-04-27T13:17:45Z</time>
      </trkpt>
      <trkpt lat="48.47494" lon="-3.05563">
        <ele>202</ele>
        <time>2014-04-27T13:17:47Z</time>
      </trkpt>
      <trkpt lat="48.47493" lon="-3.05566">
        <ele>200</ele>
        <time>2014-04-27T13:17:49Z</time>
      </trkpt>
      <trkpt lat="48.47493" lon="-3.05568">
        <ele>199</ele>
        <time>2014-04-27T13:17:50Z</time>
      </trkpt>
      <trkpt lat="48.47493" lon="-3.05571">
        <ele>197</ele>
        <time>2014-04-27T13:17:52Z</time>
      </trkpt>
      <trkpt lat="48.47493" lon="-3.05573">
        <ele>196</ele>
        <time>2014-04-27T13:17:54Z</time>
      </trkpt>
      <trkpt lat="48.47493" lon="-3.05577">
        <ele>195</ele>
        <time>2014-04-27T13:17:56Z</time>
      </trkpt>
      <trkpt lat="48.47492" lon="-3.05579">
        <ele>195</ele>
        <time>2014-04-27T13:17:57Z</time>
      </trkpt>
      <trkpt lat="48.47492" lon="-3.05581">
        <ele>195</ele>
        <time>2014-04-27T13:17:58Z</time>
      </trkpt>
      <trkpt lat="48.47491" lon="-3.05583">
        <ele>195</ele>
        <time>2014-04-27T13:18:00Z</time>
      </trkpt>
      <trkpt lat="48.47493" lon="-3.05583">
        <ele>195</ele>
        <time>2014-04-27T13:18:02Z</time>
      </trkpt>
      <trkpt lat="48.47493" lon="-3.05585">
        <ele>195</ele>
        <time>2014-04-27T13:18:03Z</time>
      </trkpt>
      <trkpt lat="48.47495" lon="-3.05588">
        <ele>195</ele>
        <time>2014-04-27T13:18:05Z</time>
      </trkpt>
      <trkpt lat="48.47494" lon="-3.0559">
        <ele>194</ele>
        <time>2014-04-27T13:18:07Z</time>
      </trkpt>
      <trkpt lat="48.47493" lon="-3.05592">
        <ele>194</ele>
        <time>2014-04-27T13:18:09Z</time>
      </trkpt>
      <trkpt lat="48.47493" lon="-3.05596">
        <ele>194</ele>
        <time>2014-04-27T13:18:12Z</time>
      </trkpt>
      <trkpt lat="48.47492" lon="-3.05599">
        <ele>194</ele>
        <time>2014-04-27T13:18:15Z</time>
      </trkpt>
      <trkpt lat="48.4749" lon="-3.05603">
        <ele>196</ele>
        <time>2014-04-27T13:18:17Z</time>
      </trkpt>
      <trkpt lat="48.4749" lon="-3.05605">
        <ele>198</ele>
        <time>2014-04-27T13:18:19Z</time>
      </trkpt>
      <trkpt lat="48.47489" lon="-3.05608">
        <ele>199</ele>
        <time>2014-04-27T13:18:21Z</time>
      </trkpt>
      <trkpt lat="48.47489" lon="-3.0561">
        <ele>200</ele>
        <time>2014-04-27T13:18:23Z</time>
      </trkpt>
      <trkpt lat="48.4749" lon="-3.05611">
        <ele>200</ele>
        <time>2014-04-27T13:18:25Z</time>
      </trkpt>
      <trkpt lat="48.47491" lon="-3.05614">
        <ele>201</ele>
        <time>2014-04-27T13:18:27Z</time>
      </trkpt>
      <trkpt lat="48.47492" lon="-3.05614">
        <ele>201</ele>
        <time>2014-04-27T13:18:29Z</time>
      </trkpt>
      <trkpt lat="48.47492" lon="-3.05616">
        <ele>201</ele>
        <time>2014-04-27T13:18:32Z</time>
      </trkpt>
      <trkpt lat="48.47494" lon="-3.05615">
        <ele>201</ele>
        <time>2014-04-27T13:18:34Z</time>
      </trkpt>
      <trkpt lat="48.47496" lon="-3.05615">
        <ele>201</ele>
        <time>2014-04-27T13:18:36Z</time>
      </trkpt>
      <trkpt lat="48.47497" lon="-3.05616">
        <ele>201</ele>
        <time>2014-04-27T13:18:37Z</time>
      </trkpt>
      <trkpt lat="48.47498" lon="-3.05617">
        <ele>202</ele>
        <time>2014-04-27T13:18:38Z</time>
      </trkpt>
      <trkpt lat="48.475" lon="-3.05617">
        <ele>203</ele>
        <time>2014-04-27T13:18:39Z</time>
      </trkpt>
      <trkpt lat="48.47501" lon="-3.05617">
        <ele>204</ele>
        <time>2014-04-27T13:18:40Z</time>
      </trkpt>
      <trkpt lat="48.47503" lon="-3.05616">
        <ele>205</ele>
        <time>2014-04-27T13:18:41Z</time>
      </trkpt>
      <trkpt lat="48.47504" lon="-3.05618">
        <ele>206</ele>
        <time>2014-04-27T13:18:43Z</time>
      </trkpt>
      <trkpt lat="48.47506" lon="-3.05619">
        <ele>207</ele>
        <time>2014-04-27T13:18:44Z</time>
      </trkpt>
      <trkpt lat="48.47506" lon="-3.05621">
        <ele>208</ele>
        <time>2014-04-27T13:18:45Z</time>
      </trkpt>
      <trkpt lat="48.47507" lon="-3.05622">
        <ele>210</ele>
        <time>2014-04-27T13:18:47Z</time>
      </trkpt>
      <trkpt lat="48.47509" lon="-3.05623">
        <ele>212</ele>
        <time>2014-04-27T13:18:49Z</time>
      </trkpt>
      <trkpt lat="48.4751" lon="-3.05622">
        <ele>213</ele>
        <time>2014-04-27T13:18:51Z</time>
      </trkpt>
      <trkpt lat="48.47512" lon="-3.05621">
        <ele>213</ele>
        <time>2014-04-27T13:18:53Z</time>
      </trkpt>
      <trkpt lat="48.47513" lon="-3.0562">
        <ele>213</ele>
        <time>2014-04-27T13:18:55Z</time>
      </trkpt>
      <trkpt lat="48.47514" lon="-3.05618">
        <ele>213</ele>
        <time>2014-04-27T13:18:56Z</time>
      </trkpt>
      <trkpt lat="48.47515" lon="-3.05618">
        <ele>213</ele>
        <time>2014-04-27T13:18:57Z</time>
      </trkpt>
      <trkpt lat="48.47519" lon="-3.05615">
        <ele>213</ele>
        <time>2014-04-27T13:19:01Z</time>
      </trkpt>
      <trkpt lat="48.47521" lon="-3.05618">
        <ele>212</ele>
        <time>2014-04-27T13:19:02Z</time>
      </trkpt>
      <trkpt lat="48.47523" lon="-3.05619">
        <ele>212</ele>
        <time>2014-04-27T13:19:03Z</time>
      </trkpt>
      <trkpt lat="48.47525" lon="-3.05621">
        <ele>212</ele>
        <time>2014-04-27T13:19:04Z</time>
      </trkpt>
      <trkpt lat="48.47527" lon="-3.05624">
        <ele>212</ele>
        <time>2014-04-27T13:19:06Z</time>
      </trkpt>
      <trkpt lat="48.47527" lon="-3.05627">
        <ele>212</ele>
        <time>2014-04-27T13:19:07Z</time>
      </trkpt>
      <trkpt lat="48.47527" lon="-3.0563">
        <ele>212</ele>
        <time>2014-04-27T13:19:09Z</time>
      </trkpt>
      <trkpt lat="48.47529" lon="-3.05632">
        <ele>212</ele>
        <time>2014-04-27T13:19:10Z</time>
      </trkpt>
      <trkpt lat="48.47531" lon="-3.05635">
        <ele>212</ele>
        <time>2014-04-27T13:19:13Z</time>
      </trkpt>
      <trkpt lat="48.47532" lon="-3.05636">
        <ele>212</ele>
        <time>2014-04-27T13:19:14Z</time>
      </trkpt>
      <trkpt lat="48.47534" lon="-3.05636">
        <ele>212</ele>
        <time>2014-04-27T13:19:15Z</time>
      </trkpt>
      <trkpt lat="48.47535" lon="-3.05638">
        <ele>212</ele>
        <time>2014-04-27T13:19:17Z</time>
      </trkpt>
      <trkpt lat="48.47536" lon="-3.05639">
        <ele>212</ele>
        <time>2014-04-27T13:19:19Z</time>
      </trkpt>
      <trkpt lat="48.47537" lon="-3.05639">
        <ele>212</ele>
        <time>2014-04-27T13:19:20Z</time>
      </trkpt>
      <trkpt lat="48.47538" lon="-3.05641">
        <ele>212</ele>
        <time>2014-04-27T13:19:23Z</time>
      </trkpt>
      <trkpt lat="48.4754" lon="-3.05641">
        <ele>212</ele>
        <time>2014-04-27T13:19:25Z</time>
      </trkpt>
      <trkpt lat="48.47542" lon="-3.05643">
        <ele>212</ele>
        <time>2014-04-27T13:19:27Z</time>
      </trkpt>
      <trkpt lat="48.47543" lon="-3.05645">
        <ele>212</ele>
        <time>2014-04-27T13:19:30Z</time>
      </trkpt>
      <trkpt lat="48.47545" lon="-3.05647">
        <ele>212</ele>
        <time>2014-04-27T13:19:32Z</time>
      </trkpt>
      <trkpt lat="48.47546" lon="-3.05647">
        <ele>212</ele>
        <time>2014-04-27T13:19:34Z</time>
      </trkpt>
      <trkpt lat="48.47544" lon="-3.05649">
        <ele>210</ele>
        <time>2014-04-27T13:19:37Z</time>
      </trkpt>
      <trkpt lat="48.47543" lon="-3.05651">
        <ele>204</ele>
        <time>2014-04-27T13:19:43Z</time>
      </trkpt>
      <trkpt lat="48.47543" lon="-3.05653">
        <ele>202</ele>
        <time>2014-04-27T13:19:46Z</time>
      </trkpt>
      <trkpt lat="48.47543" lon="-3.05655">
        <ele>201</ele>
        <time>2014-04-27T13:19:47Z</time>
      </trkpt>
      <trkpt lat="48.47541" lon="-3.05658">
        <ele>200</ele>
        <time>2014-04-27T13:19:49Z</time>
      </trkpt>
      <trkpt lat="48.4754" lon="-3.05661">
        <ele>199</ele>
        <time>2014-04-27T13:19:50Z</time>
      </trkpt>
      <trkpt lat="48.47539" lon="-3.05662">
        <ele>199</ele>
        <time>2014-04-27T13:19:51Z</time>
      </trkpt>
      <trkpt lat="48.47539" lon="-3.05664">
        <ele>199</ele>
        <time>2014-04-27T13:19:52Z</time>
      </trkpt>
      <trkpt lat="48.47539" lon="-3.05666">
        <ele>199</ele>
        <time>2014-04-27T13:19:53Z</time>
      </trkpt>
      <trkpt lat="48.47539" lon="-3.05669">
        <ele>199</ele>
        <time>2014-04-27T13:19:55Z</time>
      </trkpt>
      <trkpt lat="48.47538" lon="-3.05671">
        <ele>199</ele>
        <time>2014-04-27T13:19:56Z</time>
      </trkpt>
      <trkpt lat="48.47537" lon="-3.05675">
        <ele>199</ele>
        <time>2014-04-27T13:19:58Z</time>
      </trkpt>
      <trkpt lat="48.47537" lon="-3.05677">
        <ele>199</ele>
        <time>2014-04-27T13:20:00Z</time>
      </trkpt>
      <trkpt lat="48.47538" lon="-3.05679">
        <ele>199</ele>
        <time>2014-04-27T13:20:02Z</time>
      </trkpt>
      <trkpt lat="48.47537" lon="-3.05681">
        <ele>199</ele>
        <time>2014-04-27T13:20:04Z</time>
      </trkpt>
      <trkpt lat="48.47537" lon="-3.05684">
        <ele>199</ele>
        <time>2014-04-27T13:20:06Z</time>
      </trkpt>
      <trkpt lat="48.47536" lon="-3.05689">
        <ele>199</ele>
        <time>2014-04-27T13:20:09Z</time>
      </trkpt>
      <trkpt lat="48.47536" lon="-3.05692">
        <ele>199</ele>
        <time>2014-04-27T13:20:10Z</time>
      </trkpt>
      <trkpt lat="48.47534" lon="-3.05696">
        <ele>199</ele>
        <time>2014-04-27T13:20:11Z</time>
      </trkpt>
      <trkpt lat="48.47534" lon="-3.05698">
        <ele>199</ele>
        <time>2014-04-27T13:20:12Z</time>
      </trkpt>
      <trkpt lat="48.47533" lon="-3.057">
        <ele>199</ele>
        <time>2014-04-27T13:20:13Z</time>
      </trkpt>
      <trkpt lat="48.47532" lon="-3.05701">
        <ele>199</ele>
        <time>2014-04-27T13:20:14Z</time>
      </trkpt>
      <trkpt lat="48.47531" lon="-3.05703">
        <ele>199</ele>
        <time>2014-04-27T13:20:16Z</time>
      </trkpt>
      <trkpt lat="48.4753" lon="-3.05705">
        <ele>198</ele>
        <time>2014-04-27T13:20:19Z</time>
      </trkpt>
      <trkpt lat="48.47529" lon="-3.05708">
        <ele>198</ele>
        <time>2014-04-27T13:20:21Z</time>
      </trkpt>
      <trkpt lat="48.4753" lon="-3.0571">
        <ele>198</ele>
        <time>2014-04-27T13:20:23Z</time>
      </trkpt>
      <trkpt lat="48.47529" lon="-3.05711">
        <ele>198</ele>
        <time>2014-04-27T13:20:25Z</time>
      </trkpt>
      <trkpt lat="48.47527" lon="-3.05713">
        <ele>198</ele>
        <time>2014-04-27T13:20:28Z</time>
      </trkpt>
      <trkpt lat="48.47526" lon="-3.05716">
        <ele>198</ele>
        <time>2014-04-27T13:20:30Z</time>
      </trkpt>
      <trkpt lat="48.47525" lon="-3.05718">
        <ele>198</ele>
        <time>2014-04-27T13:20:31Z</time>
      </trkpt>
      <trkpt lat="48.47525" lon="-3.0572">
        <ele>198</ele>
        <time>2014-04-27T13:20:32Z</time>
      </trkpt>
      <trkpt lat="48.47524" lon="-3.05722">
        <ele>198</ele>
        <time>2014-04-27T13:20:33Z</time>
      </trkpt>
      <trkpt lat="48.47523" lon="-3.05724">
        <ele>198</ele>
        <time>2014-04-27T13:20:34Z</time>
      </trkpt>
      <trkpt lat="48.47523" lon="-3.05726">
        <ele>198</ele>
        <time>2014-04-27T13:20:36Z</time>
      </trkpt>
      <trkpt lat="48.47522" lon="-3.05728">
        <ele>198</ele>
        <time>2014-04-27T13:20:38Z</time>
      </trkpt>
      <trkpt lat="48.4752" lon="-3.05731">
        <ele>198</ele>
        <time>2014-04-27T13:20:40Z</time>
      </trkpt>
      <trkpt lat="48.4752" lon="-3.05733">
        <ele>196</ele>
        <time>2014-04-27T13:20:42Z</time>
      </trkpt>
      <trkpt lat="48.47519" lon="-3.05735">
        <ele>196</ele>
        <time>2014-04-27T13:20:43Z</time>
      </trkpt>
      <trkpt lat="48.47519" lon="-3.05737">
        <ele>196</ele>
        <time>2014-04-27T13:20:44Z</time>
      </trkpt>
      <trkpt lat="48.47518" lon="-3.05739">
        <ele>196</ele>
        <time>2014-04-27T13:20:45Z</time>
      </trkpt>
      <trkpt lat="48.47519" lon="-3.05741">
        <ele>195</ele>
        <time>2014-04-27T13:20:46Z</time>
      </trkpt>
      <trkpt lat="48.47519" lon="-3.05743">
        <ele>195</ele>
        <time>2014-04-27T13:20:47Z</time>
      </trkpt>
      <trkpt lat="48.47518" lon="-3.05746">
        <ele>195</ele>
        <time>2014-04-27T13:20:50Z</time>
      </trkpt>
      <trkpt lat="48.47517" lon="-3.05748">
        <ele>195</ele>
        <time>2014-04-27T13:20:52Z</time>
      </trkpt>
      <trkpt lat="48.47515" lon="-3.05751">
        <ele>195</ele>
        <time>2014-04-27T13:20:54Z</time>
      </trkpt>
      <trkpt lat="48.47515" lon="-3.05752">
        <ele>195</ele>
        <time>2014-04-27T13:20:55Z</time>
      </trkpt>
      <trkpt lat="48.47513" lon="-3.05755">
        <ele>195</ele>
        <time>2014-04-27T13:20:57Z</time>
      </trkpt>
      <trkpt lat="48.47513" lon="-3.05757">
        <ele>194</ele>
        <time>2014-04-27T13:20:58Z</time>
      </trkpt>
      <trkpt lat="48.47511" lon="-3.05759">
        <ele>194</ele>
        <time>2014-04-27T13:21:01Z</time>
      </trkpt>
      <trkpt lat="48.4751" lon="-3.0576">
        <ele>194</ele>
        <time>2014-04-27T13:21:02Z</time>
      </trkpt>
      <trkpt lat="48.47509" lon="-3.05763">
        <ele>194</ele>
        <time>2014-04-27T13:21:03Z</time>
      </trkpt>
      <trkpt lat="48.47507" lon="-3.05765">
        <ele>194</ele>
        <time>2014-04-27T13:21:04Z</time>
      </trkpt>
      <trkpt lat="48.47506" lon="-3.05767">
        <ele>194</ele>
        <time>2014-04-27T13:21:06Z</time>
      </trkpt>
      <trkpt lat="48.47505" lon="-3.05769">
        <ele>194</ele>
        <time>2014-04-27T13:21:08Z</time>
      </trkpt>
      <trkpt lat="48.47504" lon="-3.05772">
        <ele>194</ele>
        <time>2014-04-27T13:21:11Z</time>
      </trkpt>
      <trkpt lat="48.47503" lon="-3.05773">
        <ele>194</ele>
        <time>2014-04-27T13:21:12Z</time>
      </trkpt>
      <trkpt lat="48.47502" lon="-3.05775">
        <ele>194</ele>
        <time>2014-04-27T13:21:13Z</time>
      </trkpt>
      <trkpt lat="48.47499" lon="-3.05777">
        <ele>194</ele>
        <time>2014-04-27T13:21:15Z</time>
      </trkpt>
      <trkpt lat="48.47497" lon="-3.05779">
        <ele>194</ele>
        <time>2014-04-27T13:21:17Z</time>
      </trkpt>
      <trkpt lat="48.47496" lon="-3.05781">
        <ele>194</ele>
        <time>2014-04-27T13:21:19Z</time>
      </trkpt>
      <trkpt lat="48.47495" lon="-3.05782">
        <ele>194</ele>
        <time>2014-04-27T13:21:20Z</time>
      </trkpt>
      <trkpt lat="48.47494" lon="-3.05785">
        <ele>194</ele>
        <time>2014-04-27T13:21:22Z</time>
      </trkpt>
      <trkpt lat="48.47494" lon="-3.05787">
        <ele>194</ele>
        <time>2014-04-27T13:21:24Z</time>
      </trkpt>
      <trkpt lat="48.47493" lon="-3.05789">
        <ele>194</ele>
        <time>2014-04-27T13:21:25Z</time>
      </trkpt>
      <trkpt lat="48.47492" lon="-3.05792">
        <ele>195</ele>
        <time>2014-04-27T13:21:27Z</time>
      </trkpt>
      <trkpt lat="48.4749" lon="-3.05795">
        <ele>195</ele>
        <time>2014-04-27T13:21:30Z</time>
      </trkpt>
      <trkpt lat="48.47489" lon="-3.05797">
        <ele>195</ele>
        <time>2014-04-27T13:21:31Z</time>
      </trkpt>
      <trkpt lat="48.47488" lon="-3.058">
        <ele>195</ele>
        <time>2014-04-27T13:21:32Z</time>
      </trkpt>
      <trkpt lat="48.47487" lon="-3.05802">
        <ele>195</ele>
        <time>2014-04-27T13:21:33Z</time>
      </trkpt>
      <trkpt lat="48.47487" lon="-3.05804">
        <ele>195</ele>
        <time>2014-04-27T13:21:35Z</time>
      </trkpt>
      <trkpt lat="48.47487" lon="-3.05807">
        <ele>195</ele>
        <time>2014-04-27T13:21:37Z</time>
      </trkpt>
      <trkpt lat="48.47486" lon="-3.05809">
        <ele>195</ele>
        <time>2014-04-27T13:21:39Z</time>
      </trkpt>
      <trkpt lat="48.47484" lon="-3.05813">
        <ele>195</ele>
        <time>2014-04-27T13:21:41Z</time>
      </trkpt>
      <trkpt lat="48.47483" lon="-3.05816">
        <ele>195</ele>
        <time>2014-04-27T13:21:43Z</time>
      </trkpt>
      <trkpt lat="48.47483" lon="-3.05818">
        <ele>195</ele>
        <time>2014-04-27T13:21:45Z</time>
      </trkpt>
      <trkpt lat="48.47482" lon="-3.0582">
        <ele>195</ele>
        <time>2014-04-27T13:21:47Z</time>
      </trkpt>
      <trkpt lat="48.47481" lon="-3.05822">
        <ele>195</ele>
        <time>2014-04-27T13:21:48Z</time>
      </trkpt>
      <trkpt lat="48.47479" lon="-3.05826">
        <ele>195</ele>
        <time>2014-04-27T13:21:50Z</time>
      </trkpt>
      <trkpt lat="48.47478" lon="-3.05829">
        <ele>194</ele>
        <time>2014-04-27T13:21:52Z</time>
      </trkpt>
      <trkpt lat="48.47477" lon="-3.05831">
        <ele>194</ele>
        <time>2014-04-27T13:21:54Z</time>
      </trkpt>
      <trkpt lat="48.47478" lon="-3.05834">
        <ele>194</ele>
        <time>2014-04-27T13:21:57Z</time>
      </trkpt>
      <trkpt lat="48.47478" lon="-3.05836">
        <ele>194</ele>
        <time>2014-04-27T13:21:59Z</time>
      </trkpt>
      <trkpt lat="48.47479" lon="-3.0584">
        <ele>194</ele>
        <time>2014-04-27T13:22:02Z</time>
      </trkpt>
      <trkpt lat="48.47481" lon="-3.05841">
        <ele>194</ele>
        <time>2014-04-27T13:22:06Z</time>
      </trkpt>
      <trkpt lat="48.4748" lon="-3.05843">
        <ele>194</ele>
        <time>2014-04-27T13:22:11Z</time>
      </trkpt>
      <trkpt lat="48.47478" lon="-3.05846">
        <ele>194</ele>
        <time>2014-04-27T13:22:12Z</time>
      </trkpt>
      <trkpt lat="48.47477" lon="-3.05848">
        <ele>194</ele>
        <time>2014-04-27T13:22:13Z</time>
      </trkpt>
      <trkpt lat="48.47475" lon="-3.0585">
        <ele>194</ele>
        <time>2014-04-27T13:22:14Z</time>
      </trkpt>
      <trkpt lat="48.47475" lon="-3.05852">
        <ele>194</ele>
        <time>2014-04-27T13:22:15Z</time>
      </trkpt>
      <trkpt lat="48.47475" lon="-3.05855">
        <ele>194</ele>
        <time>2014-04-27T13:22:17Z</time>
      </trkpt>
      <trkpt lat="48.47474" lon="-3.05856">
        <ele>194</ele>
        <time>2014-04-27T13:22:18Z</time>
      </trkpt>
      <trkpt lat="48.47471" lon="-3.0586">
        <ele>194</ele>
        <time>2014-04-27T13:22:21Z</time>
      </trkpt>
      <trkpt lat="48.4747" lon="-3.05862">
        <ele>194</ele>
        <time>2014-04-27T13:22:22Z</time>
      </trkpt>
      <trkpt lat="48.4747" lon="-3.05864">
        <ele>194</ele>
        <time>2014-04-27T13:22:23Z</time>
      </trkpt>
      <trkpt lat="48.47469" lon="-3.05865">
        <ele>194</ele>
        <time>2014-04-27T13:22:24Z</time>
      </trkpt>
      <trkpt lat="48.47469" lon="-3.05867">
        <ele>194</ele>
        <time>2014-04-27T13:22:25Z</time>
      </trkpt>
      <trkpt lat="48.47468" lon="-3.05869">
        <ele>194</ele>
        <time>2014-04-27T13:22:26Z</time>
      </trkpt>
      <trkpt lat="48.47467" lon="-3.05872">
        <ele>194</ele>
        <time>2014-04-27T13:22:29Z</time>
      </trkpt>
      <trkpt lat="48.47467" lon="-3.05874">
        <ele>194</ele>
        <time>2014-04-27T13:22:31Z</time>
      </trkpt>
      <trkpt lat="48.47465" lon="-3.05877">
        <ele>194</ele>
        <time>2014-04-27T13:22:33Z</time>
      </trkpt>
      <trkpt lat="48.47464" lon="-3.05879">
        <ele>194</ele>
        <time>2014-04-27T13:22:34Z</time>
      </trkpt>
      <trkpt lat="48.47463" lon="-3.05881">
        <ele>194</ele>
        <time>2014-04-27T13:22:35Z</time>
      </trkpt>
      <trkpt lat="48.47462" lon="-3.05884">
        <ele>194</ele>
        <time>2014-04-27T13:22:37Z</time>
      </trkpt>
      <trkpt lat="48.47461" lon="-3.05887">
        <ele>194</ele>
        <time>2014-04-27T13:22:39Z</time>
      </trkpt>
      <trkpt lat="48.4746" lon="-3.0589">
        <ele>193</ele>
        <time>2014-04-27T13:22:41Z</time>
      </trkpt>
      <trkpt lat="48.47459" lon="-3.05892">
        <ele>193</ele>
        <time>2014-04-27T13:22:43Z</time>
      </trkpt>
      <trkpt lat="48.47458" lon="-3.05894">
        <ele>192</ele>
        <time>2014-04-27T13:22:44Z</time>
      </trkpt>
      <trkpt lat="48.47457" lon="-3.05896">
        <ele>191</ele>
        <time>2014-04-27T13:22:45Z</time>
      </trkpt>
      <trkpt lat="48.47456" lon="-3.05898">
        <ele>191</ele>
        <time>2014-04-27T13:22:46Z</time>
      </trkpt>
      <trkpt lat="48.47455" lon="-3.059">
        <ele>190</ele>
        <time>2014-04-27T13:22:47Z</time>
      </trkpt>
      <trkpt lat="48.47454" lon="-3.05902">
        <ele>190</ele>
        <time>2014-04-27T13:22:49Z</time>
      </trkpt>
      <trkpt lat="48.47454" lon="-3.05904">
        <ele>190</ele>
        <time>2014-04-27T13:22:50Z</time>
      </trkpt>
      <trkpt lat="48.47453" lon="-3.05907">
        <ele>190</ele>
        <time>2014-04-27T13:22:52Z</time>
      </trkpt>
      <trkpt lat="48.47452" lon="-3.05909">
        <ele>190</ele>
        <time>2014-04-27T13:22:53Z</time>
      </trkpt>
      <trkpt lat="48.47452" lon="-3.05912">
        <ele>190</ele>
        <time>2014-04-27T13:22:56Z</time>
      </trkpt>
      <trkpt lat="48.4745" lon="-3.05915">
        <ele>190</ele>
        <time>2014-04-27T13:22:57Z</time>
      </trkpt>
      <trkpt lat="48.47449" lon="-3.05917">
        <ele>190</ele>
        <time>2014-04-27T13:22:58Z</time>
      </trkpt>
      <trkpt lat="48.4745" lon="-3.05921">
        <ele>190</ele>
        <time>2014-04-27T13:23:01Z</time>
      </trkpt>
      <trkpt lat="48.47448" lon="-3.05924">
        <ele>190</ele>
        <time>2014-04-27T13:23:02Z</time>
      </trkpt>
      <trkpt lat="48.47448" lon="-3.05926">
        <ele>189</ele>
        <time>2014-04-27T13:23:03Z</time>
      </trkpt>
      <trkpt lat="48.47448" lon="-3.05929">
        <ele>189</ele>
        <time>2014-04-27T13:23:05Z</time>
      </trkpt>
      <trkpt lat="48.47447" lon="-3.05932">
        <ele>189</ele>
        <time>2014-04-27T13:23:09Z</time>
      </trkpt>
      <trkpt lat="48.47445" lon="-3.05934">
        <ele>189</ele>
        <time>2014-04-27T13:23:10Z</time>
      </trkpt>
      <trkpt lat="48.47445" lon="-3.05936">
        <ele>189</ele>
        <time>2014-04-27T13:23:11Z</time>
      </trkpt>
      <trkpt lat="48.47443" lon="-3.05941">
        <ele>188</ele>
        <time>2014-04-27T13:23:13Z</time>
      </trkpt>
      <trkpt lat="48.47443" lon="-3.05943">
        <ele>188</ele>
        <time>2014-04-27T13:23:14Z</time>
      </trkpt>
      <trkpt lat="48.47443" lon="-3.05945">
        <ele>188</ele>
        <time>2014-04-27T13:23:15Z</time>
      </trkpt>
      <trkpt lat="48.47442" lon="-3.05946">
        <ele>188</ele>
        <time>2014-04-27T13:23:18Z</time>
      </trkpt>
      <trkpt lat="48.4744" lon="-3.05948">
        <ele>188</ele>
        <time>2014-04-27T13:23:19Z</time>
      </trkpt>
      <trkpt lat="48.47441" lon="-3.0595">
        <ele>188</ele>
        <time>2014-04-27T13:23:20Z</time>
      </trkpt>
      <trkpt lat="48.47443" lon="-3.05951">
        <ele>190</ele>
        <time>2014-04-27T13:23:23Z</time>
      </trkpt>
      <trkpt lat="48.47443" lon="-3.05954">
        <ele>197</ele>
        <time>2014-04-27T13:23:30Z</time>
      </trkpt>
      <trkpt lat="48.47445" lon="-3.05955">
        <ele>200</ele>
        <time>2014-04-27T13:23:34Z</time>
      </trkpt>
      <trkpt lat="48.47447" lon="-3.05955">
        <ele>202</ele>
        <time>2014-04-27T13:23:38Z</time>
      </trkpt>
      <trkpt lat="48.4745" lon="-3.05955">
        <ele>202</ele>
        <time>2014-04-27T13:23:39Z</time>
      </trkpt>
      <trkpt lat="48.47453" lon="-3.05956">
        <ele>203</ele>
        <time>2014-04-27T13:23:41Z</time>
      </trkpt>
      <trkpt lat="48.47454" lon="-3.05957">
        <ele>203</ele>
        <time>2014-04-27T13:23:43Z</time>
      </trkpt>
      <trkpt lat="48.47456" lon="-3.05957">
        <ele>203</ele>
        <time>2014-04-27T13:23:44Z</time>
      </trkpt>
      <trkpt lat="48.47457" lon="-3.05958">
        <ele>203</ele>
        <time>2014-04-27T13:23:46Z</time>
      </trkpt>
      <trkpt lat="48.47459" lon="-3.05958">
        <ele>203</ele>
        <time>2014-04-27T13:23:49Z</time>
      </trkpt>
      <trkpt lat="48.47461" lon="-3.05958">
        <ele>203</ele>
        <time>2014-04-27T13:23:50Z</time>
      </trkpt>
      <trkpt lat="48.47462" lon="-3.05958">
        <ele>203</ele>
        <time>2014-04-27T13:23:51Z</time>
      </trkpt>
      <trkpt lat="48.47463" lon="-3.05958">
        <ele>203</ele>
        <time>2014-04-27T13:23:52Z</time>
      </trkpt>
      <trkpt lat="48.47464" lon="-3.05957">
        <ele>203</ele>
        <time>2014-04-27T13:23:53Z</time>
      </trkpt>
      <trkpt lat="48.47466" lon="-3.05957">
        <ele>203</ele>
        <time>2014-04-27T13:23:54Z</time>
      </trkpt>
      <trkpt lat="48.47467" lon="-3.05957">
        <ele>203</ele>
        <time>2014-04-27T13:23:55Z</time>
      </trkpt>
      <trkpt lat="48.47469" lon="-3.05957">
        <ele>203</ele>
        <time>2014-04-27T13:23:56Z</time>
      </trkpt>
      <trkpt lat="48.4747" lon="-3.05957">
        <ele>203</ele>
        <time>2014-04-27T13:23:57Z</time>
      </trkpt>
      <trkpt lat="48.47472" lon="-3.05958">
        <ele>203</ele>
        <time>2014-04-27T13:24:01Z</time>
      </trkpt>
      <trkpt lat="48.47474" lon="-3.05959">
        <ele>202</ele>
        <time>2014-04-27T13:24:03Z</time>
      </trkpt>
      <trkpt lat="48.47475" lon="-3.0596">
        <ele>200</ele>
        <time>2014-04-27T13:24:06Z</time>
      </trkpt>
      <trkpt lat="48.47475" lon="-3.05961">
        <ele>199</ele>
        <time>2014-04-27T13:24:07Z</time>
      </trkpt>
      <trkpt lat="48.47477" lon="-3.05963">
        <ele>198</ele>
        <time>2014-04-27T13:24:09Z</time>
      </trkpt>
      <trkpt lat="48.47479" lon="-3.05963">
        <ele>197</ele>
        <time>2014-04-27T13:24:11Z</time>
      </trkpt>
      <trkpt lat="48.4748" lon="-3.05963">
        <ele>197</ele>
        <time>2014-04-27T13:24:13Z</time>
      </trkpt>
      <trkpt lat="48.47481" lon="-3.05965">
        <ele>196</ele>
        <time>2014-04-27T13:24:21Z</time>
      </trkpt>
      <trkpt lat="48.47482" lon="-3.05965">
        <ele>195</ele>
        <time>2014-04-27T13:24:24Z</time>
      </trkpt>
      <trkpt lat="48.47484" lon="-3.05965">
        <ele>193</ele>
        <time>2014-04-27T13:24:26Z</time>
      </trkpt>
      <trkpt lat="48.47486" lon="-3.05969">
        <ele>191</ele>
        <time>2014-04-27T13:24:30Z</time>
      </trkpt>
      <trkpt lat="48.47487" lon="-3.05971">
        <ele>191</ele>
        <time>2014-04-27T13:24:31Z</time>
      </trkpt>
      <trkpt lat="48.47489" lon="-3.05972">
        <ele>191</ele>
        <time>2014-04-27T13:24:33Z</time>
      </trkpt>
      <trkpt lat="48.4749" lon="-3.05972">
        <ele>191</ele>
        <time>2014-04-27T13:24:34Z</time>
      </trkpt>
      <trkpt lat="48.47492" lon="-3.05973">
        <ele>191</ele>
        <time>2014-04-27T13:24:35Z</time>
      </trkpt>
      <trkpt lat="48.47494" lon="-3.05974">
        <ele>191</ele>
        <time>2014-04-27T13:24:36Z</time>
      </trkpt>
      <trkpt lat="48.47495" lon="-3.05975">
        <ele>190</ele>
        <time>2014-04-27T13:24:39Z</time>
      </trkpt>
      <trkpt lat="48.47497" lon="-3.05977">
        <ele>190</ele>
        <time>2014-04-27T13:24:41Z</time>
      </trkpt>
      <trkpt lat="48.47497" lon="-3.05978">
        <ele>190</ele>
        <time>2014-04-27T13:24:42Z</time>
      </trkpt>
      <trkpt lat="48.47496" lon="-3.05979">
        <ele>190</ele>
        <time>2014-04-27T13:24:44Z</time>
      </trkpt>
      <trkpt lat="48.47497" lon="-3.05982">
        <ele>190</ele>
        <time>2014-04-27T13:24:46Z</time>
      </trkpt>
      <trkpt lat="48.475" lon="-3.05982">
        <ele>190</ele>
        <time>2014-04-27T13:24:52Z</time>
      </trkpt>
      <trkpt lat="48.47501" lon="-3.05986">
        <ele>190</ele>
        <time>2014-04-27T13:24:54Z</time>
      </trkpt>
      <trkpt lat="48.47502" lon="-3.05988">
        <ele>190</ele>
        <time>2014-04-27T13:24:55Z</time>
      </trkpt>
      <trkpt lat="48.47503" lon="-3.0599">
        <ele>190</ele>
        <time>2014-04-27T13:24:56Z</time>
      </trkpt>
      <trkpt lat="48.47505" lon="-3.05993">
        <ele>190</ele>
        <time>2014-04-27T13:24:57Z</time>
      </trkpt>
      <trkpt lat="48.47509" lon="-3.05999">
        <ele>190</ele>
        <time>2014-04-27T13:25:02Z</time>
      </trkpt>
      <trkpt lat="48.47512" lon="-3.06002">
        <ele>190</ele>
        <time>2014-04-27T13:25:03Z</time>
      </trkpt>
      <trkpt lat="48.47513" lon="-3.06005">
        <ele>190</ele>
        <time>2014-04-27T13:25:04Z</time>
      </trkpt>
      <trkpt lat="48.47513" lon="-3.0601">
        <ele>190</ele>
        <time>2014-04-27T13:25:05Z</time>
      </trkpt>
      <trkpt lat="48.47514" lon="-3.06012">
        <ele>190</ele>
        <time>2014-04-27T13:25:06Z</time>
      </trkpt>
      <trkpt lat="48.47514" lon="-3.06016">
        <ele>190</ele>
        <time>2014-04-27T13:25:07Z</time>
      </trkpt>
      <trkpt lat="48.47515" lon="-3.06018">
        <ele>191</ele>
        <time>2014-04-27T13:25:08Z</time>
      </trkpt>
      <trkpt lat="48.47514" lon="-3.0602">
        <ele>192</ele>
        <time>2014-04-27T13:25:09Z</time>
      </trkpt>
      <trkpt lat="48.47515" lon="-3.06022">
        <ele>193</ele>
        <time>2014-04-27T13:25:10Z</time>
      </trkpt>
      <trkpt lat="48.47515" lon="-3.06026">
        <ele>194</ele>
        <time>2014-04-27T13:25:12Z</time>
      </trkpt>
      <trkpt lat="48.47515" lon="-3.06028">
        <ele>194</ele>
        <time>2014-04-27T13:25:13Z</time>
      </trkpt>
      <trkpt lat="48.47516" lon="-3.0603">
        <ele>194</ele>
        <time>2014-04-27T13:25:14Z</time>
      </trkpt>
      <trkpt lat="48.47518" lon="-3.06032">
        <ele>195</ele>
        <time>2014-04-27T13:25:16Z</time>
      </trkpt>
      <trkpt lat="48.47519" lon="-3.06034">
        <ele>195</ele>
        <time>2014-04-27T13:25:18Z</time>
      </trkpt>
      <trkpt lat="48.47521" lon="-3.06034">
        <ele>195</ele>
        <time>2014-04-27T13:25:19Z</time>
      </trkpt>
      <trkpt lat="48.47522" lon="-3.06036">
        <ele>195</ele>
        <time>2014-04-27T13:25:20Z</time>
      </trkpt>
      <trkpt lat="48.47523" lon="-3.0604">
        <ele>197</ele>
        <time>2014-04-27T13:25:23Z</time>
      </trkpt>
      <trkpt lat="48.47522" lon="-3.06043">
        <ele>197</ele>
        <time>2014-04-27T13:25:26Z</time>
      </trkpt>
      <trkpt lat="48.47523" lon="-3.06044">
        <ele>197</ele>
        <time>2014-04-27T13:25:28Z</time>
      </trkpt>
      <trkpt lat="48.4752" lon="-3.06048">
        <ele>197</ele>
        <time>2014-04-27T13:25:32Z</time>
      </trkpt>
      <trkpt lat="48.4752" lon="-3.06052">
        <ele>196</ele>
        <time>2014-04-27T13:25:34Z</time>
      </trkpt>
      <trkpt lat="48.47521" lon="-3.06056">
        <ele>195</ele>
        <time>2014-04-27T13:25:39Z</time>
      </trkpt>
      <trkpt lat="48.47521" lon="-3.06058">
        <ele>195</ele>
        <time>2014-04-27T13:25:41Z</time>
      </trkpt>
      <trkpt lat="48.47523" lon="-3.06061">
        <ele>195</ele>
        <time>2014-04-27T13:25:44Z</time>
      </trkpt>
      <trkpt lat="48.47523" lon="-3.06065">
        <ele>195</ele>
        <time>2014-04-27T13:25:45Z</time>
      </trkpt>
      <trkpt lat="48.47524" lon="-3.06067">
        <ele>195</ele>
        <time>2014-04-27T13:25:46Z</time>
      </trkpt>
      <trkpt lat="48.47523" lon="-3.06069">
        <ele>195</ele>
        <time>2014-04-27T13:25:47Z</time>
      </trkpt>
      <trkpt lat="48.47524" lon="-3.06072">
        <ele>195</ele>
        <time>2014-04-27T13:25:50Z</time>
      </trkpt>
      <trkpt lat="48.47525" lon="-3.06076">
        <ele>195</ele>
        <time>2014-04-27T13:25:51Z</time>
      </trkpt>
      <trkpt lat="48.47526" lon="-3.06078">
        <ele>196</ele>
        <time>2014-04-27T13:25:52Z</time>
      </trkpt>
      <trkpt lat="48.47526" lon="-3.06081">
        <ele>197</ele>
        <time>2014-04-27T13:25:53Z</time>
      </trkpt>
      <trkpt lat="48.47526" lon="-3.06083">
        <ele>198</ele>
        <time>2014-04-27T13:25:54Z</time>
      </trkpt>
      <trkpt lat="48.47527" lon="-3.06086">
        <ele>200</ele>
        <time>2014-04-27T13:25:56Z</time>
      </trkpt>
      <trkpt lat="48.47532" lon="-3.06095">
        <ele>204</ele>
        <time>2014-04-27T13:26:04Z</time>
      </trkpt>
      <trkpt lat="48.47531" lon="-3.06096">
        <ele>204</ele>
        <time>2014-04-27T13:26:09Z</time>
      </trkpt>
      <trkpt lat="48.47529" lon="-3.06094">
        <ele>204</ele>
        <time>2014-04-27T13:26:14Z</time>
      </trkpt>
      <trkpt lat="48.4753" lon="-3.06096">
        <ele>203</ele>
        <time>2014-04-27T13:26:15Z</time>
      </trkpt>
      <trkpt lat="48.47532" lon="-3.06098">
        <ele>201</ele>
        <time>2014-04-27T13:26:17Z</time>
      </trkpt>
      <trkpt lat="48.47533" lon="-3.061">
        <ele>200</ele>
        <time>2014-04-27T13:26:21Z</time>
      </trkpt>
      <trkpt lat="48.47534" lon="-3.06102">
        <ele>198</ele>
        <time>2014-04-27T13:26:26Z</time>
      </trkpt>
      <trkpt lat="48.47535" lon="-3.06101">
        <ele>198</ele>
        <time>2014-04-27T13:26:28Z</time>
      </trkpt>
      <trkpt lat="48.47537" lon="-3.06104">
        <ele>197</ele>
        <time>2014-04-27T13:26:32Z</time>
      </trkpt>
      <trkpt lat="48.47539" lon="-3.06106">
        <ele>197</ele>
        <time>2014-04-27T13:26:38Z</time>
      </trkpt>
      <trkpt lat="48.47539" lon="-3.06108">
        <ele>197</ele>
        <time>2014-04-27T13:26:41Z</time>
      </trkpt>
      <trkpt lat="48.4754" lon="-3.06111">
        <ele>196</ele>
        <time>2014-04-27T13:26:43Z</time>
      </trkpt>
      <trkpt lat="48.4754" lon="-3.06113">
        <ele>196</ele>
        <time>2014-04-27T13:26:45Z</time>
      </trkpt>
      <trkpt lat="48.47541" lon="-3.06115">
        <ele>196</ele>
        <time>2014-04-27T13:26:46Z</time>
      </trkpt>
      <trkpt lat="48.47542" lon="-3.06117">
        <ele>196</ele>
        <time>2014-04-27T13:26:47Z</time>
      </trkpt>
      <trkpt lat="48.47543" lon="-3.06119">
        <ele>196</ele>
        <time>2014-04-27T13:26:48Z</time>
      </trkpt>
      <trkpt lat="48.47544" lon="-3.06122">
        <ele>196</ele>
        <time>2014-04-27T13:26:49Z</time>
      </trkpt>
      <trkpt lat="48.47546" lon="-3.06126">
        <ele>196</ele>
        <time>2014-04-27T13:26:53Z</time>
      </trkpt>
      <trkpt lat="48.47546" lon="-3.0613">
        <ele>196</ele>
        <time>2014-04-27T13:26:54Z</time>
      </trkpt>
      <trkpt lat="48.47551" lon="-3.06135">
        <ele>196</ele>
        <time>2014-04-27T13:26:56Z</time>
      </trkpt>
      <trkpt lat="48.47552" lon="-3.06137">
        <ele>196</ele>
        <time>2014-04-27T13:26:58Z</time>
      </trkpt>
      <trkpt lat="48.47555" lon="-3.06139">
        <ele>196</ele>
        <time>2014-04-27T13:27:00Z</time>
      </trkpt>
      <trkpt lat="48.47556" lon="-3.06142">
        <ele>196</ele>
        <time>2014-04-27T13:27:01Z</time>
      </trkpt>
      <trkpt lat="48.47557" lon="-3.06144">
        <ele>196</ele>
        <time>2014-04-27T13:27:02Z</time>
      </trkpt>
      <trkpt lat="48.47559" lon="-3.06145">
        <ele>197</ele>
        <time>2014-04-27T13:27:03Z</time>
      </trkpt>
      <trkpt lat="48.4756" lon="-3.06148">
        <ele>198</ele>
        <time>2014-04-27T13:27:05Z</time>
      </trkpt>
      <trkpt lat="48.47563" lon="-3.0615">
        <ele>198</ele>
        <time>2014-04-27T13:27:07Z</time>
      </trkpt>
      <trkpt lat="48.47565" lon="-3.06152">
        <ele>199</ele>
        <time>2014-04-27T13:27:08Z</time>
      </trkpt>
      <trkpt lat="48.47568" lon="-3.06152">
        <ele>200</ele>
        <time>2014-04-27T13:27:10Z</time>
      </trkpt>
      <trkpt lat="48.47569" lon="-3.06154">
        <ele>202</ele>
        <time>2014-04-27T13:27:13Z</time>
      </trkpt>
      <trkpt lat="48.47572" lon="-3.06156">
        <ele>202</ele>
        <time>2014-04-27T13:27:16Z</time>
      </trkpt>
      <trkpt lat="48.47576" lon="-3.06158">
        <ele>202</ele>
        <time>2014-04-27T13:27:21Z</time>
      </trkpt>
      <trkpt lat="48.47578" lon="-3.0616">
        <ele>202</ele>
        <time>2014-04-27T13:27:23Z</time>
      </trkpt>
      <trkpt lat="48.47579" lon="-3.06162">
        <ele>202</ele>
        <time>2014-04-27T13:27:26Z</time>
      </trkpt>
      <trkpt lat="48.4758" lon="-3.06163">
        <ele>198</ele>
        <time>2014-04-27T13:27:30Z</time>
      </trkpt>
      <trkpt lat="48.47582" lon="-3.06164">
        <ele>196</ele>
        <time>2014-04-27T13:27:32Z</time>
      </trkpt>
      <trkpt lat="48.47585" lon="-3.0617">
        <ele>195</ele>
        <time>2014-04-27T13:27:37Z</time>
      </trkpt>
      <trkpt lat="48.47588" lon="-3.06173">
        <ele>195</ele>
        <time>2014-04-27T13:27:39Z</time>
      </trkpt>
      <trkpt lat="48.47589" lon="-3.06174">
        <ele>195</ele>
        <time>2014-04-27T13:27:40Z</time>
      </trkpt>
      <trkpt lat="48.4759" lon="-3.06176">
        <ele>195</ele>
        <time>2014-04-27T13:27:41Z</time>
      </trkpt>
      <trkpt lat="48.47589" lon="-3.06179">
        <ele>196</ele>
        <time>2014-04-27T13:27:43Z</time>
      </trkpt>
      <trkpt lat="48.4759" lon="-3.0618">
        <ele>196</ele>
        <time>2014-04-27T13:27:44Z</time>
      </trkpt>
      <trkpt lat="48.47592" lon="-3.06182">
        <ele>197</ele>
        <time>2014-04-27T13:27:46Z</time>
      </trkpt>
      <trkpt lat="48.47594" lon="-3.06187">
        <ele>197</ele>
        <time>2014-04-27T13:27:49Z</time>
      </trkpt>
      <trkpt lat="48.47595" lon="-3.0619">
        <ele>198</ele>
        <time>2014-04-27T13:27:51Z</time>
      </trkpt>
      <trkpt lat="48.47596" lon="-3.06193">
        <ele>198</ele>
        <time>2014-04-27T13:27:52Z</time>
      </trkpt>
      <trkpt lat="48.47596" lon="-3.06195">
        <ele>199</ele>
        <time>2014-04-27T13:27:53Z</time>
      </trkpt>
      <trkpt lat="48.47597" lon="-3.06197">
        <ele>199</ele>
        <time>2014-04-27T13:27:55Z</time>
      </trkpt>
      <trkpt lat="48.47598" lon="-3.06199">
        <ele>199</ele>
        <time>2014-04-27T13:27:56Z</time>
      </trkpt>
      <trkpt lat="48.47597" lon="-3.06202">
        <ele>199</ele>
        <time>2014-04-27T13:27:58Z</time>
      </trkpt>
      <trkpt lat="48.47599" lon="-3.06204">
        <ele>199</ele>
        <time>2014-04-27T13:28:01Z</time>
      </trkpt>
      <trkpt lat="48.476" lon="-3.06205">
        <ele>199</ele>
        <time>2014-04-27T13:28:02Z</time>
      </trkpt>
      <trkpt lat="48.47603" lon="-3.06207">
        <ele>199</ele>
        <time>2014-04-27T13:28:04Z</time>
      </trkpt>
      <trkpt lat="48.47605" lon="-3.06208">
        <ele>199</ele>
        <time>2014-04-27T13:28:05Z</time>
      </trkpt>
      <trkpt lat="48.47606" lon="-3.0621">
        <ele>200</ele>
        <time>2014-04-27T13:28:06Z</time>
      </trkpt>
      <trkpt lat="48.47606" lon="-3.06214">
        <ele>200</ele>
        <time>2014-04-27T13:28:07Z</time>
      </trkpt>
      <trkpt lat="48.47607" lon="-3.06216">
        <ele>201</ele>
        <time>2014-04-27T13:28:08Z</time>
      </trkpt>
      <trkpt lat="48.47608" lon="-3.06219">
        <ele>201</ele>
        <time>2014-04-27T13:28:09Z</time>
      </trkpt>
      <trkpt lat="48.47607" lon="-3.06222">
        <ele>202</ele>
        <time>2014-04-27T13:28:10Z</time>
      </trkpt>
      <trkpt lat="48.47607" lon="-3.06224">
        <ele>202</ele>
        <time>2014-04-27T13:28:12Z</time>
      </trkpt>
      <trkpt lat="48.47608" lon="-3.06226">
        <ele>202</ele>
        <time>2014-04-27T13:28:16Z</time>
      </trkpt>
      <trkpt lat="48.47609" lon="-3.06229">
        <ele>202</ele>
        <time>2014-04-27T13:28:18Z</time>
      </trkpt>
      <trkpt lat="48.47608" lon="-3.06232">
        <ele>202</ele>
        <time>2014-04-27T13:28:20Z</time>
      </trkpt>
      <trkpt lat="48.47609" lon="-3.06234">
        <ele>201</ele>
        <time>2014-04-27T13:28:22Z</time>
      </trkpt>
      <trkpt lat="48.47609" lon="-3.06235">
        <ele>201</ele>
        <time>2014-04-27T13:28:25Z</time>
      </trkpt>
      <trkpt lat="48.47608" lon="-3.06236">
        <ele>199</ele>
        <time>2014-04-27T13:28:27Z</time>
      </trkpt>
      <trkpt lat="48.47607" lon="-3.0624">
        <ele>196</ele>
        <time>2014-04-27T13:28:31Z</time>
      </trkpt>
      <trkpt lat="48.47608" lon="-3.06243">
        <ele>194</ele>
        <time>2014-04-27T13:28:33Z</time>
      </trkpt>
      <trkpt lat="48.47601" lon="-3.06253">
        <ele>189</ele>
        <time>2014-04-27T13:28:41Z</time>
      </trkpt>
      <trkpt lat="48.47599" lon="-3.06254">
        <ele>189</ele>
        <time>2014-04-27T13:28:43Z</time>
      </trkpt>
      <trkpt lat="48.47598" lon="-3.06256">
        <ele>188</ele>
        <time>2014-04-27T13:28:46Z</time>
      </trkpt>
      <trkpt lat="48.47598" lon="-3.0626">
        <ele>188</ele>
        <time>2014-04-27T13:28:48Z</time>
      </trkpt>
      <trkpt lat="48.47599" lon="-3.06263">
        <ele>188</ele>
        <time>2014-04-27T13:28:49Z</time>
      </trkpt>
      <trkpt lat="48.47601" lon="-3.06266">
        <ele>188</ele>
        <time>2014-04-27T13:28:50Z</time>
      </trkpt>
      <trkpt lat="48.47603" lon="-3.06275">
        <ele>189</ele>
        <time>2014-04-27T13:28:53Z</time>
      </trkpt>
      <trkpt lat="48.47604" lon="-3.06278">
        <ele>190</ele>
        <time>2014-04-27T13:28:54Z</time>
      </trkpt>
      <trkpt lat="48.47603" lon="-3.06281">
        <ele>191</ele>
        <time>2014-04-27T13:28:55Z</time>
      </trkpt>
      <trkpt lat="48.47602" lon="-3.06284">
        <ele>192</ele>
        <time>2014-04-27T13:28:56Z</time>
      </trkpt>
      <trkpt lat="48.47603" lon="-3.06285">
        <ele>193</ele>
        <time>2014-04-27T13:28:57Z</time>
      </trkpt>
      <trkpt lat="48.47603" lon="-3.06289">
        <ele>194</ele>
        <time>2014-04-27T13:28:58Z</time>
      </trkpt>
      <trkpt lat="48.47603" lon="-3.06295">
        <ele>195</ele>
        <time>2014-04-27T13:29:01Z</time>
      </trkpt>
      <trkpt lat="48.47602" lon="-3.06296">
        <ele>196</ele>
        <time>2014-04-27T13:29:02Z</time>
      </trkpt>
      <trkpt lat="48.47602" lon="-3.06298">
        <ele>198</ele>
        <time>2014-04-27T13:29:04Z</time>
      </trkpt>
      <trkpt lat="48.47601" lon="-3.06303">
        <ele>198</ele>
        <time>2014-04-27T13:29:08Z</time>
      </trkpt>
      <trkpt lat="48.47599" lon="-3.06307">
        <ele>198</ele>
        <time>2014-04-27T13:29:09Z</time>
      </trkpt>
      <trkpt lat="48.47597" lon="-3.06311">
        <ele>198</ele>
        <time>2014-04-27T13:29:10Z</time>
      </trkpt>
      <trkpt lat="48.47599" lon="-3.06314">
        <ele>198</ele>
        <time>2014-04-27T13:29:11Z</time>
      </trkpt>
      <trkpt lat="48.476" lon="-3.06317">
        <ele>198</ele>
        <time>2014-04-27T13:29:12Z</time>
      </trkpt>
      <trkpt lat="48.47602" lon="-3.06319">
        <ele>198</ele>
        <time>2014-04-27T13:29:13Z</time>
      </trkpt>
      <trkpt lat="48.47603" lon="-3.06321">
        <ele>198</ele>
        <time>2014-04-27T13:29:15Z</time>
      </trkpt>
      <trkpt lat="48.47603" lon="-3.06323">
        <ele>198</ele>
        <time>2014-04-27T13:29:16Z</time>
      </trkpt>
      <trkpt lat="48.47605" lon="-3.06324">
        <ele>198</ele>
        <time>2014-04-27T13:29:18Z</time>
      </trkpt>
      <trkpt lat="48.47606" lon="-3.06327">
        <ele>198</ele>
        <time>2014-04-27T13:29:20Z</time>
      </trkpt>
      <trkpt lat="48.47605" lon="-3.06331">
        <ele>199</ele>
        <time>2014-04-27T13:29:23Z</time>
      </trkpt>
      <trkpt lat="48.47605" lon="-3.06335">
        <ele>200</ele>
        <time>2014-04-27T13:29:25Z</time>
      </trkpt>
      <trkpt lat="48.47605" lon="-3.06338">
        <ele>201</ele>
        <time>2014-04-27T13:29:27Z</time>
      </trkpt>
      <trkpt lat="48.47606" lon="-3.06339">
        <ele>201</ele>
        <time>2014-04-27T13:29:28Z</time>
      </trkpt>
      <trkpt lat="48.47607" lon="-3.06341">
        <ele>201</ele>
        <time>2014-04-27T13:29:30Z</time>
      </trkpt>
      <trkpt lat="48.47608" lon="-3.06342">
        <ele>201</ele>
        <time>2014-04-27T13:29:33Z</time>
      </trkpt>
      <trkpt lat="48.4761" lon="-3.06344">
        <ele>201</ele>
        <time>2014-04-27T13:29:35Z</time>
      </trkpt>
      <trkpt lat="48.47613" lon="-3.06346">
        <ele>201</ele>
        <time>2014-04-27T13:29:37Z</time>
      </trkpt>
      <trkpt lat="48.47615" lon="-3.06347">
        <ele>201</ele>
        <time>2014-04-27T13:29:38Z</time>
      </trkpt>
      <trkpt lat="48.47622" lon="-3.06346">
        <ele>203</ele>
        <time>2014-04-27T13:29:44Z</time>
      </trkpt>
      <trkpt lat="48.47624" lon="-3.06348">
        <ele>203</ele>
        <time>2014-04-27T13:29:47Z</time>
      </trkpt>
      <trkpt lat="48.47624" lon="-3.0635">
        <ele>203</ele>
        <time>2014-04-27T13:29:49Z</time>
      </trkpt>
      <trkpt lat="48.47625" lon="-3.06351">
        <ele>203</ele>
        <time>2014-04-27T13:29:50Z</time>
      </trkpt>
      <trkpt lat="48.47626" lon="-3.06353">
        <ele>203</ele>
        <time>2014-04-27T13:29:51Z</time>
      </trkpt>
      <trkpt lat="48.47629" lon="-3.06356">
        <ele>203</ele>
        <time>2014-04-27T13:29:54Z</time>
      </trkpt>
      <trkpt lat="48.4763" lon="-3.06356">
        <ele>203</ele>
        <time>2014-04-27T13:29:56Z</time>
      </trkpt>
      <trkpt lat="48.47631" lon="-3.06356">
        <ele>203</ele>
        <time>2014-04-27T13:29:58Z</time>
      </trkpt>
      <trkpt lat="48.47633" lon="-3.06356">
        <ele>203</ele>
        <time>2014-04-27T13:30:00Z</time>
      </trkpt>
      <trkpt lat="48.47635" lon="-3.06355">
        <ele>203</ele>
        <time>2014-04-27T13:30:02Z</time>
      </trkpt>
      <trkpt lat="48.47636" lon="-3.06356">
        <ele>203</ele>
        <time>2014-04-27T13:30:04Z</time>
      </trkpt>
      <trkpt lat="48.47637" lon="-3.06356">
        <ele>203</ele>
        <time>2014-04-27T13:30:05Z</time>
      </trkpt>
      <trkpt lat="48.47639" lon="-3.06356">
        <ele>203</ele>
        <time>2014-04-27T13:30:07Z</time>
      </trkpt>
      <trkpt lat="48.47642" lon="-3.06358">
        <ele>203</ele>
        <time>2014-04-27T13:30:11Z</time>
      </trkpt>
      <trkpt lat="48.47644" lon="-3.06359">
        <ele>203</ele>
        <time>2014-04-27T13:30:13Z</time>
      </trkpt>
      <trkpt lat="48.47646" lon="-3.06359">
        <ele>204</ele>
        <time>2014-04-27T13:30:14Z</time>
      </trkpt>
      <trkpt lat="48.47648" lon="-3.0636">
        <ele>206</ele>
        <time>2014-04-27T13:30:18Z</time>
      </trkpt>
      <trkpt lat="48.47649" lon="-3.0636">
        <ele>207</ele>
        <time>2014-04-27T13:30:22Z</time>
      </trkpt>
      <trkpt lat="48.47649" lon="-3.06362">
        <ele>207</ele>
        <time>2014-04-27T13:30:23Z</time>
      </trkpt>
      <trkpt lat="48.4765" lon="-3.06365">
        <ele>207</ele>
        <time>2014-04-27T13:30:25Z</time>
      </trkpt>
      <trkpt lat="48.47651" lon="-3.06365">
        <ele>206</ele>
        <time>2014-04-27T13:30:30Z</time>
      </trkpt>
      <trkpt lat="48.47653" lon="-3.06365">
        <ele>204</ele>
        <time>2014-04-27T13:30:32Z</time>
      </trkpt>
      <trkpt lat="48.47655" lon="-3.06364">
        <ele>204</ele>
        <time>2014-04-27T13:30:34Z</time>
      </trkpt>
      <trkpt lat="48.47656" lon="-3.06363">
        <ele>203</ele>
        <time>2014-04-27T13:30:36Z</time>
      </trkpt>
      <trkpt lat="48.47658" lon="-3.06363">
        <ele>203</ele>
        <time>2014-04-27T13:30:38Z</time>
      </trkpt>
      <trkpt lat="48.4766" lon="-3.06363">
        <ele>203</ele>
        <time>2014-04-27T13:30:39Z</time>
      </trkpt>
      <trkpt lat="48.47662" lon="-3.06364">
        <ele>203</ele>
        <time>2014-04-27T13:30:42Z</time>
      </trkpt>
      <trkpt lat="48.47663" lon="-3.06364">
        <ele>203</ele>
        <time>2014-04-27T13:30:44Z</time>
      </trkpt>
      <trkpt lat="48.47664" lon="-3.06367">
        <ele>201</ele>
        <time>2014-04-27T13:30:46Z</time>
      </trkpt>
      <trkpt lat="48.47665" lon="-3.06368">
        <ele>200</ele>
        <time>2014-04-27T13:30:47Z</time>
      </trkpt>
      <trkpt lat="48.47667" lon="-3.0637">
        <ele>200</ele>
        <time>2014-04-27T13:30:48Z</time>
      </trkpt>
      <trkpt lat="48.47668" lon="-3.06371">
        <ele>200</ele>
        <time>2014-04-27T13:30:50Z</time>
      </trkpt>
      <trkpt lat="48.47669" lon="-3.06373">
        <ele>200</ele>
        <time>2014-04-27T13:30:52Z</time>
      </trkpt>
      <trkpt lat="48.4767" lon="-3.06374">
        <ele>200</ele>
        <time>2014-04-27T13:30:53Z</time>
      </trkpt>
      <trkpt lat="48.47672" lon="-3.06376">
        <ele>200</ele>
        <time>2014-04-27T13:30:55Z</time>
      </trkpt>
      <trkpt lat="48.47673" lon="-3.06378">
        <ele>200</ele>
        <time>2014-04-27T13:30:57Z</time>
      </trkpt>
      <trkpt lat="48.47675" lon="-3.06381">
        <ele>200</ele>
        <time>2014-04-27T13:30:59Z</time>
      </trkpt>
      <trkpt lat="48.47676" lon="-3.06382">
        <ele>200</ele>
        <time>2014-04-27T13:31:01Z</time>
      </trkpt>
      <trkpt lat="48.47677" lon="-3.06384">
        <ele>199</ele>
        <time>2014-04-27T13:31:03Z</time>
      </trkpt>
      <trkpt lat="48.47679" lon="-3.06386">
        <ele>198</ele>
        <time>2014-04-27T13:31:05Z</time>
      </trkpt>
      <trkpt lat="48.47681" lon="-3.06388">
        <ele>198</ele>
        <time>2014-04-27T13:31:07Z</time>
      </trkpt>
      <trkpt lat="48.47683" lon="-3.06391">
        <ele>198</ele>
        <time>2014-04-27T13:31:09Z</time>
      </trkpt>
      <trkpt lat="48.47684" lon="-3.06393">
        <ele>198</ele>
        <time>2014-04-27T13:31:11Z</time>
      </trkpt>
      <trkpt lat="48.47686" lon="-3.06395">
        <ele>197</ele>
        <time>2014-04-27T13:31:13Z</time>
      </trkpt>
      <trkpt lat="48.47687" lon="-3.06395">
        <ele>197</ele>
        <time>2014-04-27T13:31:14Z</time>
      </trkpt>
      <trkpt lat="48.47688" lon="-3.06397">
        <ele>197</ele>
        <time>2014-04-27T13:31:16Z</time>
      </trkpt>
      <trkpt lat="48.47689" lon="-3.064">
        <ele>197</ele>
        <time>2014-04-27T13:31:18Z</time>
      </trkpt>
      <trkpt lat="48.47691" lon="-3.06402">
        <ele>197</ele>
        <time>2014-04-27T13:31:20Z</time>
      </trkpt>
      <trkpt lat="48.47693" lon="-3.06404">
        <ele>197</ele>
        <time>2014-04-27T13:31:22Z</time>
      </trkpt>
      <trkpt lat="48.47694" lon="-3.06406">
        <ele>197</ele>
        <time>2014-04-27T13:31:24Z</time>
      </trkpt>
      <trkpt lat="48.47695" lon="-3.06408">
        <ele>197</ele>
        <time>2014-04-27T13:31:26Z</time>
      </trkpt>
      <trkpt lat="48.47697" lon="-3.06411">
        <ele>197</ele>
        <time>2014-04-27T13:31:28Z</time>
      </trkpt>
      <trkpt lat="48.47698" lon="-3.06413">
        <ele>197</ele>
        <time>2014-04-27T13:31:30Z</time>
      </trkpt>
      <trkpt lat="48.47699" lon="-3.06416">
        <ele>197</ele>
        <time>2014-04-27T13:31:32Z</time>
      </trkpt>
      <trkpt lat="48.47701" lon="-3.06419">
        <ele>197</ele>
        <time>2014-04-27T13:31:34Z</time>
      </trkpt>
      <trkpt lat="48.47702" lon="-3.06421">
        <ele>197</ele>
        <time>2014-04-27T13:31:36Z</time>
      </trkpt>
      <trkpt lat="48.47703" lon="-3.06424">
        <ele>197</ele>
        <time>2014-04-27T13:31:38Z</time>
      </trkpt>
      <trkpt lat="48.47704" lon="-3.06427">
        <ele>197</ele>
        <time>2014-04-27T13:31:40Z</time>
      </trkpt>
      <trkpt lat="48.47706" lon="-3.0643">
        <ele>197</ele>
        <time>2014-04-27T13:31:42Z</time>
      </trkpt>
      <trkpt lat="48.47707" lon="-3.06433">
        <ele>197</ele>
        <time>2014-04-27T13:31:44Z</time>
      </trkpt>
      <trkpt lat="48.47708" lon="-3.06435">
        <ele>197</ele>
        <time>2014-04-27T13:31:45Z</time>
      </trkpt>
      <trkpt lat="48.47708" lon="-3.06436">
        <ele>197</ele>
        <time>2014-04-27T13:31:46Z</time>
      </trkpt>
      <trkpt lat="48.47709" lon="-3.06438">
        <ele>197</ele>
        <time>2014-04-27T13:31:47Z</time>
      </trkpt>
      <trkpt lat="48.4771" lon="-3.06441">
        <ele>197</ele>
        <time>2014-04-27T13:31:49Z</time>
      </trkpt>
      <trkpt lat="48.4771" lon="-3.06443">
        <ele>197</ele>
        <time>2014-04-27T13:31:50Z</time>
      </trkpt>
      <trkpt lat="48.4771" lon="-3.06445">
        <ele>197</ele>
        <time>2014-04-27T13:31:51Z</time>
      </trkpt>
      <trkpt lat="48.47711" lon="-3.06446">
        <ele>197</ele>
        <time>2014-04-27T13:31:52Z</time>
      </trkpt>
      <trkpt lat="48.47712" lon="-3.06449">
        <ele>197</ele>
        <time>2014-04-27T13:31:54Z</time>
      </trkpt>
      <trkpt lat="48.47712" lon="-3.06451">
        <ele>197</ele>
        <time>2014-04-27T13:31:55Z</time>
      </trkpt>
      <trkpt lat="48.47713" lon="-3.06453">
        <ele>197</ele>
        <time>2014-04-27T13:31:57Z</time>
      </trkpt>
      <trkpt lat="48.47714" lon="-3.06455">
        <ele>197</ele>
        <time>2014-04-27T13:31:58Z</time>
      </trkpt>
      <trkpt lat="48.47714" lon="-3.06457">
        <ele>197</ele>
        <time>2014-04-27T13:31:59Z</time>
      </trkpt>
      <trkpt lat="48.47715" lon="-3.0646">
        <ele>197</ele>
        <time>2014-04-27T13:32:01Z</time>
      </trkpt>
      <trkpt lat="48.47716" lon="-3.06463">
        <ele>197</ele>
        <time>2014-04-27T13:32:02Z</time>
      </trkpt>
      <trkpt lat="48.47716" lon="-3.06464">
        <ele>197</ele>
        <time>2014-04-27T13:32:03Z</time>
      </trkpt>
      <trkpt lat="48.47717" lon="-3.06468">
        <ele>197</ele>
        <time>2014-04-27T13:32:05Z</time>
      </trkpt>
      <trkpt lat="48.47718" lon="-3.0647">
        <ele>197</ele>
        <time>2014-04-27T13:32:07Z</time>
      </trkpt>
      <trkpt lat="48.47719" lon="-3.06472">
        <ele>197</ele>
        <time>2014-04-27T13:32:08Z</time>
      </trkpt>
      <trkpt lat="48.47719" lon="-3.06473">
        <ele>197</ele>
        <time>2014-04-27T13:32:09Z</time>
      </trkpt>
      <trkpt lat="48.4772" lon="-3.06475">
        <ele>197</ele>
        <time>2014-04-27T13:32:11Z</time>
      </trkpt>
      <trkpt lat="48.47722" lon="-3.06476">
        <ele>197</ele>
        <time>2014-04-27T13:32:13Z</time>
      </trkpt>
      <trkpt lat="48.47723" lon="-3.06477">
        <ele>197</ele>
        <time>2014-04-27T13:32:15Z</time>
      </trkpt>
      <trkpt lat="48.47727" lon="-3.06478">
        <ele>197</ele>
        <time>2014-04-27T13:32:17Z</time>
      </trkpt>
      <trkpt lat="48.47729" lon="-3.06478">
        <ele>197</ele>
        <time>2014-04-27T13:32:18Z</time>
      </trkpt>
      <trkpt lat="48.4773" lon="-3.06478">
        <ele>197</ele>
        <time>2014-04-27T13:32:19Z</time>
      </trkpt>
      <trkpt lat="48.47732" lon="-3.06478">
        <ele>197</ele>
        <time>2014-04-27T13:32:21Z</time>
      </trkpt>
      <trkpt lat="48.47734" lon="-3.06476">
        <ele>197</ele>
        <time>2014-04-27T13:32:23Z</time>
      </trkpt>
      <trkpt lat="48.47735" lon="-3.06474">
        <ele>197</ele>
        <time>2014-04-27T13:32:25Z</time>
      </trkpt>
      <trkpt lat="48.47736" lon="-3.06474">
        <ele>197</ele>
        <time>2014-04-27T13:32:26Z</time>
      </trkpt>
      <trkpt lat="48.47737" lon="-3.06473">
        <ele>197</ele>
        <time>2014-04-27T13:32:28Z</time>
      </trkpt>
      <trkpt lat="48.47738" lon="-3.06472">
        <ele>197</ele>
        <time>2014-04-27T13:32:29Z</time>
      </trkpt>
      <trkpt lat="48.4774" lon="-3.06471">
        <ele>197</ele>
        <time>2014-04-27T13:32:30Z</time>
      </trkpt>
      <trkpt lat="48.47741" lon="-3.06469">
        <ele>198</ele>
        <time>2014-04-27T13:32:32Z</time>
      </trkpt>
      <trkpt lat="48.47742" lon="-3.06467">
        <ele>198</ele>
        <time>2014-04-27T13:32:34Z</time>
      </trkpt>
      <trkpt lat="48.47743" lon="-3.06464">
        <ele>198</ele>
        <time>2014-04-27T13:32:36Z</time>
      </trkpt>
      <trkpt lat="48.47744" lon="-3.06462">
        <ele>198</ele>
        <time>2014-04-27T13:32:38Z</time>
      </trkpt>
      <trkpt lat="48.47746" lon="-3.0646">
        <ele>198</ele>
        <time>2014-04-27T13:32:40Z</time>
      </trkpt>
      <trkpt lat="48.47747" lon="-3.06458">
        <ele>198</ele>
        <time>2014-04-27T13:32:41Z</time>
      </trkpt>
      <trkpt lat="48.47749" lon="-3.06456">
        <ele>198</ele>
        <time>2014-04-27T13:32:43Z</time>
      </trkpt>
      <trkpt lat="48.4775" lon="-3.06455">
        <ele>199</ele>
        <time>2014-04-27T13:32:45Z</time>
      </trkpt>
      <trkpt lat="48.47751" lon="-3.06452">
        <ele>199</ele>
        <time>2014-04-27T13:32:47Z</time>
      </trkpt>
      <trkpt lat="48.47753" lon="-3.0645">
        <ele>199</ele>
        <time>2014-04-27T13:32:49Z</time>
      </trkpt>
      <trkpt lat="48.47754" lon="-3.06448">
        <ele>199</ele>
        <time>2014-04-27T13:32:51Z</time>
      </trkpt>
      <trkpt lat="48.47755" lon="-3.06446">
        <ele>199</ele>
        <time>2014-04-27T13:32:53Z</time>
      </trkpt>
      <trkpt lat="48.47756" lon="-3.06444">
        <ele>199</ele>
        <time>2014-04-27T13:32:55Z</time>
      </trkpt>
      <trkpt lat="48.47758" lon="-3.06442">
        <ele>199</ele>
        <time>2014-04-27T13:32:57Z</time>
      </trkpt>
      <trkpt lat="48.4776" lon="-3.06442">
        <ele>199</ele>
        <time>2014-04-27T13:32:58Z</time>
      </trkpt>
      <trkpt lat="48.47761" lon="-3.0644">
        <ele>199</ele>
        <time>2014-04-27T13:33:00Z</time>
      </trkpt>
      <trkpt lat="48.47762" lon="-3.06437">
        <ele>199</ele>
        <time>2014-04-27T13:33:02Z</time>
      </trkpt>
      <trkpt lat="48.47763" lon="-3.06435">
        <ele>199</ele>
        <time>2014-04-27T13:33:03Z</time>
      </trkpt>
      <trkpt lat="48.47764" lon="-3.06433">
        <ele>199</ele>
        <time>2014-04-27T13:33:05Z</time>
      </trkpt>
      <trkpt lat="48.47766" lon="-3.06429">
        <ele>199</ele>
        <time>2014-04-27T13:33:08Z</time>
      </trkpt>
      <trkpt lat="48.47767" lon="-3.06428">
        <ele>199</ele>
        <time>2014-04-27T13:33:10Z</time>
      </trkpt>
      <trkpt lat="48.47768" lon="-3.06428">
        <ele>198</ele>
        <time>2014-04-27T13:33:11Z</time>
      </trkpt>
      <trkpt lat="48.47769" lon="-3.06429">
        <ele>197</ele>
        <time>2014-04-27T13:33:13Z</time>
      </trkpt>
      <trkpt lat="48.4777" lon="-3.0643">
        <ele>196</ele>
        <time>2014-04-27T13:33:15Z</time>
      </trkpt>
      <trkpt lat="48.47772" lon="-3.06432">
        <ele>195</ele>
        <time>2014-04-27T13:33:16Z</time>
      </trkpt>
      <trkpt lat="48.47772" lon="-3.06434">
        <ele>195</ele>
        <time>2014-04-27T13:33:17Z</time>
      </trkpt>
      <trkpt lat="48.47772" lon="-3.06436">
        <ele>195</ele>
        <time>2014-04-27T13:33:18Z</time>
      </trkpt>
      <trkpt lat="48.47772" lon="-3.06438">
        <ele>195</ele>
        <time>2014-04-27T13:33:19Z</time>
      </trkpt>
      <trkpt lat="48.47773" lon="-3.06441">
        <ele>195</ele>
        <time>2014-04-27T13:33:21Z</time>
      </trkpt>
      <trkpt lat="48.47774" lon="-3.06443">
        <ele>195</ele>
        <time>2014-04-27T13:33:22Z</time>
      </trkpt>
      <trkpt lat="48.47775" lon="-3.06445">
        <ele>195</ele>
        <time>2014-04-27T13:33:24Z</time>
      </trkpt>
      <trkpt lat="48.47776" lon="-3.06448">
        <ele>195</ele>
        <time>2014-04-27T13:33:26Z</time>
      </trkpt>
      <trkpt lat="48.47777" lon="-3.06451">
        <ele>195</ele>
        <time>2014-04-27T13:33:28Z</time>
      </trkpt>
      <trkpt lat="48.47778" lon="-3.06454">
        <ele>194</ele>
        <time>2014-04-27T13:33:30Z</time>
      </trkpt>
      <trkpt lat="48.47779" lon="-3.06456">
        <ele>194</ele>
        <time>2014-04-27T13:33:31Z</time>
      </trkpt>
      <trkpt lat="48.47779" lon="-3.06457">
        <ele>194</ele>
        <time>2014-04-27T13:33:32Z</time>
      </trkpt>
      <trkpt lat="48.4778" lon="-3.06459">
        <ele>194</ele>
        <time>2014-04-27T13:33:33Z</time>
      </trkpt>
      <trkpt lat="48.4778" lon="-3.06461">
        <ele>194</ele>
        <time>2014-04-27T13:33:34Z</time>
      </trkpt>
      <trkpt lat="48.47782" lon="-3.06463">
        <ele>194</ele>
        <time>2014-04-27T13:33:35Z</time>
      </trkpt>
      <trkpt lat="48.47783" lon="-3.06465">
        <ele>194</ele>
        <time>2014-04-27T13:33:36Z</time>
      </trkpt>
      <trkpt lat="48.47784" lon="-3.06467">
        <ele>194</ele>
        <time>2014-04-27T13:33:37Z</time>
      </trkpt>
      <trkpt lat="48.47786" lon="-3.0647">
        <ele>194</ele>
        <time>2014-04-27T13:33:39Z</time>
      </trkpt>
      <trkpt lat="48.47786" lon="-3.06471">
        <ele>194</ele>
        <time>2014-04-27T13:33:40Z</time>
      </trkpt>
      <trkpt lat="48.47787" lon="-3.06474">
        <ele>194</ele>
        <time>2014-04-27T13:33:42Z</time>
      </trkpt>
      <trkpt lat="48.47788" lon="-3.06477">
        <ele>194</ele>
        <time>2014-04-27T13:33:44Z</time>
      </trkpt>
      <trkpt lat="48.4779" lon="-3.06479">
        <ele>194</ele>
        <time>2014-04-27T13:33:46Z</time>
      </trkpt>
      <trkpt lat="48.47791" lon="-3.06482">
        <ele>194</ele>
        <time>2014-04-27T13:33:48Z</time>
      </trkpt>
      <trkpt lat="48.47793" lon="-3.06484">
        <ele>194</ele>
        <time>2014-04-27T13:33:50Z</time>
      </trkpt>
      <trkpt lat="48.47795" lon="-3.06486">
        <ele>194</ele>
        <time>2014-04-27T13:33:52Z</time>
      </trkpt>
      <trkpt lat="48.47796" lon="-3.06488">
        <ele>194</ele>
        <time>2014-04-27T13:33:54Z</time>
      </trkpt>
      <trkpt lat="48.47798" lon="-3.0649">
        <ele>194</ele>
        <time>2014-04-27T13:33:56Z</time>
      </trkpt>
      <trkpt lat="48.478" lon="-3.06492">
        <ele>194</ele>
        <time>2014-04-27T13:33:58Z</time>
      </trkpt>
      <trkpt lat="48.47801" lon="-3.06494">
        <ele>194</ele>
        <time>2014-04-27T13:34:00Z</time>
      </trkpt>
      <trkpt lat="48.47803" lon="-3.06497">
        <ele>194</ele>
        <time>2014-04-27T13:34:02Z</time>
      </trkpt>
      <trkpt lat="48.47804" lon="-3.06498">
        <ele>194</ele>
        <time>2014-04-27T13:34:03Z</time>
      </trkpt>
      <trkpt lat="48.47806" lon="-3.06499">
        <ele>193</ele>
        <time>2014-04-27T13:34:05Z</time>
      </trkpt>
      <trkpt lat="48.47808" lon="-3.06501">
        <ele>193</ele>
        <time>2014-04-27T13:34:07Z</time>
      </trkpt>
      <trkpt lat="48.4781" lon="-3.06503">
        <ele>192</ele>
        <time>2014-04-27T13:34:09Z</time>
      </trkpt>
      <trkpt lat="48.47812" lon="-3.06505">
        <ele>192</ele>
        <time>2014-04-27T13:34:10Z</time>
      </trkpt>
      <trkpt lat="48.47814" lon="-3.06507">
        <ele>192</ele>
        <time>2014-04-27T13:34:12Z</time>
      </trkpt>
      <trkpt lat="48.47815" lon="-3.06508">
        <ele>192</ele>
        <time>2014-04-27T13:34:14Z</time>
      </trkpt>
      <trkpt lat="48.47817" lon="-3.0651">
        <ele>192</ele>
        <time>2014-04-27T13:34:16Z</time>
      </trkpt>
      <trkpt lat="48.47818" lon="-3.0651">
        <ele>192</ele>
        <time>2014-04-27T13:34:17Z</time>
      </trkpt>
      <trkpt lat="48.4782" lon="-3.06512">
        <ele>192</ele>
        <time>2014-04-27T13:34:19Z</time>
      </trkpt>
      <trkpt lat="48.47822" lon="-3.06514">
        <ele>192</ele>
        <time>2014-04-27T13:34:21Z</time>
      </trkpt>
      <trkpt lat="48.47824" lon="-3.06515">
        <ele>191</ele>
        <time>2014-04-27T13:34:23Z</time>
      </trkpt>
      <trkpt lat="48.47826" lon="-3.06516">
        <ele>191</ele>
        <time>2014-04-27T13:34:25Z</time>
      </trkpt>
      <trkpt lat="48.47828" lon="-3.06517">
        <ele>191</ele>
        <time>2014-04-27T13:34:27Z</time>
      </trkpt>
      <trkpt lat="48.47829" lon="-3.06518">
        <ele>191</ele>
        <time>2014-04-27T13:34:28Z</time>
      </trkpt>
      <trkpt lat="48.47831" lon="-3.06518">
        <ele>191</ele>
        <time>2014-04-27T13:34:29Z</time>
      </trkpt>
      <trkpt lat="48.47833" lon="-3.06519">
        <ele>191</ele>
        <time>2014-04-27T13:34:31Z</time>
      </trkpt>
      <trkpt lat="48.47834" lon="-3.0652">
        <ele>191</ele>
        <time>2014-04-27T13:34:32Z</time>
      </trkpt>
      <trkpt lat="48.47835" lon="-3.0652">
        <ele>191</ele>
        <time>2014-04-27T13:34:33Z</time>
      </trkpt>
      <trkpt lat="48.47836" lon="-3.06521">
        <ele>191</ele>
        <time>2014-04-27T13:34:34Z</time>
      </trkpt>
      <trkpt lat="48.47838" lon="-3.06521">
        <ele>191</ele>
        <time>2014-04-27T13:34:36Z</time>
      </trkpt>
      <trkpt lat="48.47839" lon="-3.06522">
        <ele>191</ele>
        <time>2014-04-27T13:34:37Z</time>
      </trkpt>
      <trkpt lat="48.47841" lon="-3.06523">
        <ele>191</ele>
        <time>2014-04-27T13:34:39Z</time>
      </trkpt>
      <trkpt lat="48.47844" lon="-3.06524">
        <ele>191</ele>
        <time>2014-04-27T13:34:41Z</time>
      </trkpt>
      <trkpt lat="48.47846" lon="-3.06525">
        <ele>191</ele>
        <time>2014-04-27T13:34:43Z</time>
      </trkpt>
      <trkpt lat="48.47847" lon="-3.06525">
        <ele>191</ele>
        <time>2014-04-27T13:34:44Z</time>
      </trkpt>
      <trkpt lat="48.47849" lon="-3.06526">
        <ele>191</ele>
        <time>2014-04-27T13:34:46Z</time>
      </trkpt>
      <trkpt lat="48.47851" lon="-3.06527">
        <ele>191</ele>
        <time>2014-04-27T13:34:48Z</time>
      </trkpt>
      <trkpt lat="48.47853" lon="-3.06528">
        <ele>191</ele>
        <time>2014-04-27T13:34:50Z</time>
      </trkpt>
      <trkpt lat="48.47855" lon="-3.06529">
        <ele>191</ele>
        <time>2014-04-27T13:34:52Z</time>
      </trkpt>
      <trkpt lat="48.47856" lon="-3.0653">
        <ele>191</ele>
        <time>2014-04-27T13:34:53Z</time>
      </trkpt>
      <trkpt lat="48.47857" lon="-3.06531">
        <ele>191</ele>
        <time>2014-04-27T13:34:54Z</time>
      </trkpt>
      <trkpt lat="48.47859" lon="-3.06533">
        <ele>191</ele>
        <time>2014-04-27T13:34:56Z</time>
      </trkpt>
      <trkpt lat="48.47861" lon="-3.06535">
        <ele>191</ele>
        <time>2014-04-27T13:34:58Z</time>
      </trkpt>
      <trkpt lat="48.47863" lon="-3.06537">
        <ele>191</ele>
        <time>2014-04-27T13:35:00Z</time>
      </trkpt>
      <trkpt lat="48.47865" lon="-3.0654">
        <ele>191</ele>
        <time>2014-04-27T13:35:02Z</time>
      </trkpt>
      <trkpt lat="48.47867" lon="-3.06542">
        <ele>190</ele>
        <time>2014-04-27T13:35:04Z</time>
      </trkpt>
      <trkpt lat="48.47868" lon="-3.06544">
        <ele>190</ele>
        <time>2014-04-27T13:35:06Z</time>
      </trkpt>
      <trkpt lat="48.4787" lon="-3.06547">
        <ele>190</ele>
        <time>2014-04-27T13:35:08Z</time>
      </trkpt>
      <trkpt lat="48.47871" lon="-3.0655">
        <ele>189</ele>
        <time>2014-04-27T13:35:10Z</time>
      </trkpt>
      <trkpt lat="48.47872" lon="-3.06553">
        <ele>189</ele>
        <time>2014-04-27T13:35:12Z</time>
      </trkpt>
      <trkpt lat="48.47873" lon="-3.06554">
        <ele>189</ele>
        <time>2014-04-27T13:35:13Z</time>
      </trkpt>
      <trkpt lat="48.47874" lon="-3.06556">
        <ele>189</ele>
        <time>2014-04-27T13:35:14Z</time>
      </trkpt>
      <trkpt lat="48.47875" lon="-3.06558">
        <ele>189</ele>
        <time>2014-04-27T13:35:16Z</time>
      </trkpt>
      <trkpt lat="48.47877" lon="-3.0656">
        <ele>189</ele>
        <time>2014-04-27T13:35:18Z</time>
      </trkpt>
      <trkpt lat="48.47878" lon="-3.06563">
        <ele>188</ele>
        <time>2014-04-27T13:35:20Z</time>
      </trkpt>
      <trkpt lat="48.47879" lon="-3.06566">
        <ele>188</ele>
        <time>2014-04-27T13:35:22Z</time>
      </trkpt>
      <trkpt lat="48.4788" lon="-3.06568">
        <ele>188</ele>
        <time>2014-04-27T13:35:23Z</time>
      </trkpt>
      <trkpt lat="48.47881" lon="-3.06571">
        <ele>188</ele>
        <time>2014-04-27T13:35:25Z</time>
      </trkpt>
      <trkpt lat="48.47883" lon="-3.06574">
        <ele>188</ele>
        <time>2014-04-27T13:35:27Z</time>
      </trkpt>
      <trkpt lat="48.47884" lon="-3.06576">
        <ele>188</ele>
        <time>2014-04-27T13:35:29Z</time>
      </trkpt>
      <trkpt lat="48.47886" lon="-3.06578">
        <ele>188</ele>
        <time>2014-04-27T13:35:31Z</time>
      </trkpt>
      <trkpt lat="48.47887" lon="-3.06581">
        <ele>188</ele>
        <time>2014-04-27T13:35:33Z</time>
      </trkpt>
      <trkpt lat="48.47888" lon="-3.06583">
        <ele>188</ele>
        <time>2014-04-27T13:35:34Z</time>
      </trkpt>
      <trkpt lat="48.47889" lon="-3.06585">
        <ele>188</ele>
        <time>2014-04-27T13:35:35Z</time>
      </trkpt>
      <trkpt lat="48.47889" lon="-3.06586">
        <ele>188</ele>
        <time>2014-04-27T13:35:36Z</time>
      </trkpt>
      <trkpt lat="48.4789" lon="-3.06588">
        <ele>188</ele>
        <time>2014-04-27T13:35:37Z</time>
      </trkpt>
      <trkpt lat="48.4789" lon="-3.0659">
        <ele>188</ele>
        <time>2014-04-27T13:35:38Z</time>
      </trkpt>
      <trkpt lat="48.47891" lon="-3.06591">
        <ele>188</ele>
        <time>2014-04-27T13:35:39Z</time>
      </trkpt>
      <trkpt lat="48.47891" lon="-3.06593">
        <ele>188</ele>
        <time>2014-04-27T13:35:40Z</time>
      </trkpt>
      <trkpt lat="48.47892" lon="-3.06596">
        <ele>188</ele>
        <time>2014-04-27T13:35:42Z</time>
      </trkpt>
      <trkpt lat="48.47892" lon="-3.06598">
        <ele>188</ele>
        <time>2014-04-27T13:35:43Z</time>
      </trkpt>
      <trkpt lat="48.47893" lon="-3.06599">
        <ele>188</ele>
        <time>2014-04-27T13:35:44Z</time>
      </trkpt>
      <trkpt lat="48.47893" lon="-3.06601">
        <ele>188</ele>
        <time>2014-04-27T13:35:45Z</time>
      </trkpt>
      <trkpt lat="48.47894" lon="-3.06603">
        <ele>188</ele>
        <time>2014-04-27T13:35:46Z</time>
      </trkpt>
      <trkpt lat="48.47894" lon="-3.06605">
        <ele>187</ele>
        <time>2014-04-27T13:35:47Z</time>
      </trkpt>
      <trkpt lat="48.47894" lon="-3.06607">
        <ele>187</ele>
        <time>2014-04-27T13:35:49Z</time>
      </trkpt>
      <trkpt lat="48.47895" lon="-3.0661">
        <ele>187</ele>
        <time>2014-04-27T13:35:51Z</time>
      </trkpt>
      <trkpt lat="48.47895" lon="-3.06612">
        <ele>187</ele>
        <time>2014-04-27T13:35:52Z</time>
      </trkpt>
      <trkpt lat="48.47896" lon="-3.06615">
        <ele>187</ele>
        <time>2014-04-27T13:35:54Z</time>
      </trkpt>
      <trkpt lat="48.47896" lon="-3.06618">
        <ele>187</ele>
        <time>2014-04-27T13:35:56Z</time>
      </trkpt>
      <trkpt lat="48.47896" lon="-3.06619">
        <ele>187</ele>
        <time>2014-04-27T13:35:58Z</time>
      </trkpt>
      <trkpt lat="48.47897" lon="-3.06623">
        <ele>186</ele>
        <time>2014-04-27T13:36:00Z</time>
      </trkpt>
      <trkpt lat="48.47896" lon="-3.06626">
        <ele>186</ele>
        <time>2014-04-27T13:36:02Z</time>
      </trkpt>
      <trkpt lat="48.47896" lon="-3.06627">
        <ele>186</ele>
        <time>2014-04-27T13:36:03Z</time>
      </trkpt>
      <trkpt lat="48.47896" lon="-3.06629">
        <ele>185</ele>
        <time>2014-04-27T13:36:04Z</time>
      </trkpt>
      <trkpt lat="48.47896" lon="-3.06631">
        <ele>185</ele>
        <time>2014-04-27T13:36:05Z</time>
      </trkpt>
      <trkpt lat="48.47896" lon="-3.06633">
        <ele>184</ele>
        <time>2014-04-27T13:36:06Z</time>
      </trkpt>
      <trkpt lat="48.47896" lon="-3.06637">
        <ele>184</ele>
        <time>2014-04-27T13:36:07Z</time>
      </trkpt>
      <trkpt lat="48.47895" lon="-3.0664">
        <ele>184</ele>
        <time>2014-04-27T13:36:08Z</time>
      </trkpt>
      <trkpt lat="48.47894" lon="-3.06641">
        <ele>184</ele>
        <time>2014-04-27T13:36:09Z</time>
      </trkpt>
      <trkpt lat="48.47894" lon="-3.06643">
        <ele>184</ele>
        <time>2014-04-27T13:36:10Z</time>
      </trkpt>
      <trkpt lat="48.47893" lon="-3.06645">
        <ele>184</ele>
        <time>2014-04-27T13:36:11Z</time>
      </trkpt>
      <trkpt lat="48.47892" lon="-3.06647">
        <ele>184</ele>
        <time>2014-04-27T13:36:13Z</time>
      </trkpt>
      <trkpt lat="48.4789" lon="-3.06649">
        <ele>184</ele>
        <time>2014-04-27T13:36:15Z</time>
      </trkpt>
      <trkpt lat="48.47888" lon="-3.0665">
        <ele>184</ele>
        <time>2014-04-27T13:36:17Z</time>
      </trkpt>
      <trkpt lat="48.47887" lon="-3.06652">
        <ele>184</ele>
        <time>2014-04-27T13:36:19Z</time>
      </trkpt>
      <trkpt lat="48.47885" lon="-3.06654">
        <ele>184</ele>
        <time>2014-04-27T13:36:21Z</time>
      </trkpt>
      <trkpt lat="48.47884" lon="-3.06656">
        <ele>184</ele>
        <time>2014-04-27T13:36:23Z</time>
      </trkpt>
      <trkpt lat="48.47883" lon="-3.06658">
        <ele>184</ele>
        <time>2014-04-27T13:36:25Z</time>
      </trkpt>
      <trkpt lat="48.47882" lon="-3.0666">
        <ele>184</ele>
        <time>2014-04-27T13:36:26Z</time>
      </trkpt>
      <trkpt lat="48.4788" lon="-3.06662">
        <ele>184</ele>
        <time>2014-04-27T13:36:27Z</time>
      </trkpt>
      <trkpt lat="48.47879" lon="-3.06665">
        <ele>184</ele>
        <time>2014-04-27T13:36:28Z</time>
      </trkpt>
      <trkpt lat="48.47878" lon="-3.06667">
        <ele>184</ele>
        <time>2014-04-27T13:36:29Z</time>
      </trkpt>
      <trkpt lat="48.47877" lon="-3.06669">
        <ele>185</ele>
        <time>2014-04-27T13:36:30Z</time>
      </trkpt>
      <trkpt lat="48.47877" lon="-3.0667">
        <ele>186</ele>
        <time>2014-04-27T13:36:31Z</time>
      </trkpt>
      <trkpt lat="48.47877" lon="-3.06672">
        <ele>187</ele>
        <time>2014-04-27T13:36:32Z</time>
      </trkpt>
      <trkpt lat="48.47875" lon="-3.06674">
        <ele>188</ele>
        <time>2014-04-27T13:36:33Z</time>
      </trkpt>
      <trkpt lat="48.47874" lon="-3.06677">
        <ele>189</ele>
        <time>2014-04-27T13:36:35Z</time>
      </trkpt>
      <trkpt lat="48.47874" lon="-3.06679">
        <ele>189</ele>
        <time>2014-04-27T13:36:37Z</time>
      </trkpt>
      <trkpt lat="48.47873" lon="-3.06681">
        <ele>189</ele>
        <time>2014-04-27T13:36:39Z</time>
      </trkpt>
      <trkpt lat="48.47872" lon="-3.06684">
        <ele>189</ele>
        <time>2014-04-27T13:36:41Z</time>
      </trkpt>
      <trkpt lat="48.47872" lon="-3.06687">
        <ele>189</ele>
        <time>2014-04-27T13:36:43Z</time>
      </trkpt>
      <trkpt lat="48.47871" lon="-3.06692">
        <ele>189</ele>
        <time>2014-04-27T13:36:46Z</time>
      </trkpt>
      <trkpt lat="48.47871" lon="-3.06695">
        <ele>189</ele>
        <time>2014-04-27T13:36:47Z</time>
      </trkpt>
      <trkpt lat="48.4787" lon="-3.06696">
        <ele>189</ele>
        <time>2014-04-27T13:36:48Z</time>
      </trkpt>
      <trkpt lat="48.4787" lon="-3.06699">
        <ele>189</ele>
        <time>2014-04-27T13:36:49Z</time>
      </trkpt>
      <trkpt lat="48.4787" lon="-3.06701">
        <ele>189</ele>
        <time>2014-04-27T13:36:51Z</time>
      </trkpt>
      <trkpt lat="48.47871" lon="-3.06704">
        <ele>189</ele>
        <time>2014-04-27T13:36:53Z</time>
      </trkpt>
      <trkpt lat="48.47871" lon="-3.06707">
        <ele>189</ele>
        <time>2014-04-27T13:36:55Z</time>
      </trkpt>
      <trkpt lat="48.47871" lon="-3.06709">
        <ele>189</ele>
        <time>2014-04-27T13:36:56Z</time>
      </trkpt>
      <trkpt lat="48.47872" lon="-3.06711">
        <ele>189</ele>
        <time>2014-04-27T13:36:57Z</time>
      </trkpt>
      <trkpt lat="48.47872" lon="-3.06713">
        <ele>189</ele>
        <time>2014-04-27T13:36:59Z</time>
      </trkpt>
      <trkpt lat="48.47872" lon="-3.06715">
        <ele>189</ele>
        <time>2014-04-27T13:37:00Z</time>
      </trkpt>
      <trkpt lat="48.47872" lon="-3.06717">
        <ele>189</ele>
        <time>2014-04-27T13:37:01Z</time>
      </trkpt>
      <trkpt lat="48.47872" lon="-3.06719">
        <ele>189</ele>
        <time>2014-04-27T13:37:02Z</time>
      </trkpt>
      <trkpt lat="48.47872" lon="-3.06722">
        <ele>189</ele>
        <time>2014-04-27T13:37:04Z</time>
      </trkpt>
      <trkpt lat="48.47873" lon="-3.06725">
        <ele>189</ele>
        <time>2014-04-27T13:37:06Z</time>
      </trkpt>
      <trkpt lat="48.47872" lon="-3.06728">
        <ele>188</ele>
        <time>2014-04-27T13:37:07Z</time>
      </trkpt>
      <trkpt lat="48.47873" lon="-3.0673">
        <ele>188</ele>
        <time>2014-04-27T13:37:08Z</time>
      </trkpt>
      <trkpt lat="48.47873" lon="-3.06733">
        <ele>187</ele>
        <time>2014-04-27T13:37:10Z</time>
      </trkpt>
      <trkpt lat="48.47873" lon="-3.06734">
        <ele>187</ele>
        <time>2014-04-27T13:37:11Z</time>
      </trkpt>
      <trkpt lat="48.47873" lon="-3.06736">
        <ele>187</ele>
        <time>2014-04-27T13:37:12Z</time>
      </trkpt>
      <trkpt lat="48.47872" lon="-3.06738">
        <ele>185</ele>
        <time>2014-04-27T13:37:14Z</time>
      </trkpt>
      <trkpt lat="48.47872" lon="-3.0674">
        <ele>184</ele>
        <time>2014-04-27T13:37:15Z</time>
      </trkpt>
      <trkpt lat="48.47873" lon="-3.06742">
        <ele>184</ele>
        <time>2014-04-27T13:37:16Z</time>
      </trkpt>
      <trkpt lat="48.47874" lon="-3.06744">
        <ele>184</ele>
        <time>2014-04-27T13:37:17Z</time>
      </trkpt>
      <trkpt lat="48.47875" lon="-3.06745">
        <ele>184</ele>
        <time>2014-04-27T13:37:19Z</time>
      </trkpt>
      <trkpt lat="48.47876" lon="-3.06747">
        <ele>184</ele>
        <time>2014-04-27T13:37:21Z</time>
      </trkpt>
      <trkpt lat="48.47876" lon="-3.06749">
        <ele>184</ele>
        <time>2014-04-27T13:37:22Z</time>
      </trkpt>
      <trkpt lat="48.47876" lon="-3.06751">
        <ele>184</ele>
        <time>2014-04-27T13:37:23Z</time>
      </trkpt>
      <trkpt lat="48.47876" lon="-3.06753">
        <ele>183</ele>
        <time>2014-04-27T13:37:24Z</time>
      </trkpt>
      <trkpt lat="48.47876" lon="-3.06755">
        <ele>183</ele>
        <time>2014-04-27T13:37:25Z</time>
      </trkpt>
      <trkpt lat="48.47875" lon="-3.06759">
        <ele>182</ele>
        <time>2014-04-27T13:37:27Z</time>
      </trkpt>
      <trkpt lat="48.47875" lon="-3.06763">
        <ele>182</ele>
        <time>2014-04-27T13:37:28Z</time>
      </trkpt>
      <trkpt lat="48.47875" lon="-3.06765">
        <ele>182</ele>
        <time>2014-04-27T13:37:29Z</time>
      </trkpt>
      <trkpt lat="48.47875" lon="-3.06767">
        <ele>182</ele>
        <time>2014-04-27T13:37:30Z</time>
      </trkpt>
      <trkpt lat="48.47875" lon="-3.06769">
        <ele>182</ele>
        <time>2014-04-27T13:37:31Z</time>
      </trkpt>
      <trkpt lat="48.47874" lon="-3.06771">
        <ele>182</ele>
        <time>2014-04-27T13:37:32Z</time>
      </trkpt>
      <trkpt lat="48.47874" lon="-3.06773">
        <ele>182</ele>
        <time>2014-04-27T13:37:33Z</time>
      </trkpt>
      <trkpt lat="48.47874" lon="-3.06775">
        <ele>182</ele>
        <time>2014-04-27T13:37:34Z</time>
      </trkpt>
      <trkpt lat="48.47874" lon="-3.06778">
        <ele>183</ele>
        <time>2014-04-27T13:37:35Z</time>
      </trkpt>
      <trkpt lat="48.47874" lon="-3.06781">
        <ele>184</ele>
        <time>2014-04-27T13:37:36Z</time>
      </trkpt>
      <trkpt lat="48.47873" lon="-3.06784">
        <ele>185</ele>
        <time>2014-04-27T13:37:37Z</time>
      </trkpt>
      <trkpt lat="48.47873" lon="-3.06787">
        <ele>186</ele>
        <time>2014-04-27T13:37:38Z</time>
      </trkpt>
      <trkpt lat="48.47873" lon="-3.0679">
        <ele>188</ele>
        <time>2014-04-27T13:37:40Z</time>
      </trkpt>
      <trkpt lat="48.47874" lon="-3.06793">
        <ele>188</ele>
        <time>2014-04-27T13:37:42Z</time>
      </trkpt>
      <trkpt lat="48.47874" lon="-3.06794">
        <ele>188</ele>
        <time>2014-04-27T13:37:43Z</time>
      </trkpt>
      <trkpt lat="48.47874" lon="-3.06797">
        <ele>188</ele>
        <time>2014-04-27T13:37:44Z</time>
      </trkpt>
      <trkpt lat="48.47873" lon="-3.06798">
        <ele>188</ele>
        <time>2014-04-27T13:37:45Z</time>
      </trkpt>
      <trkpt lat="48.47873" lon="-3.06802">
        <ele>188</ele>
        <time>2014-04-27T13:37:47Z</time>
      </trkpt>
      <trkpt lat="48.47874" lon="-3.06804">
        <ele>188</ele>
        <time>2014-04-27T13:37:48Z</time>
      </trkpt>
      <trkpt lat="48.47874" lon="-3.06807">
        <ele>188</ele>
        <time>2014-04-27T13:37:50Z</time>
      </trkpt>
      <trkpt lat="48.47874" lon="-3.0681">
        <ele>188</ele>
        <time>2014-04-27T13:37:51Z</time>
      </trkpt>
      <trkpt lat="48.47874" lon="-3.06814">
        <ele>188</ele>
        <time>2014-04-27T13:37:52Z</time>
      </trkpt>
      <trkpt lat="48.47874" lon="-3.06816">
        <ele>188</ele>
        <time>2014-04-27T13:37:53Z</time>
      </trkpt>
      <trkpt lat="48.47874" lon="-3.06818">
        <ele>189</ele>
        <time>2014-04-27T13:37:54Z</time>
      </trkpt>
      <trkpt lat="48.47874" lon="-3.0682">
        <ele>189</ele>
        <time>2014-04-27T13:37:55Z</time>
      </trkpt>
      <trkpt lat="48.47876" lon="-3.06824">
        <ele>190</ele>
        <time>2014-04-27T13:37:57Z</time>
      </trkpt>
      <trkpt lat="48.47877" lon="-3.06826">
        <ele>191</ele>
        <time>2014-04-27T13:37:59Z</time>
      </trkpt>
      <trkpt lat="48.47878" lon="-3.06829">
        <ele>192</ele>
        <time>2014-04-27T13:38:02Z</time>
      </trkpt>
      <trkpt lat="48.47878" lon="-3.06832">
        <ele>192</ele>
        <time>2014-04-27T13:38:03Z</time>
      </trkpt>
      <trkpt lat="48.47879" lon="-3.06835">
        <ele>192</ele>
        <time>2014-04-27T13:38:05Z</time>
      </trkpt>
      <trkpt lat="48.47878" lon="-3.06838">
        <ele>192</ele>
        <time>2014-04-27T13:38:06Z</time>
      </trkpt>
      <trkpt lat="48.47879" lon="-3.06839">
        <ele>192</ele>
        <time>2014-04-27T13:38:07Z</time>
      </trkpt>
      <trkpt lat="48.47879" lon="-3.06842">
        <ele>192</ele>
        <time>2014-04-27T13:38:08Z</time>
      </trkpt>
      <trkpt lat="48.47878" lon="-3.06845">
        <ele>192</ele>
        <time>2014-04-27T13:38:09Z</time>
      </trkpt>
      <trkpt lat="48.47879" lon="-3.06849">
        <ele>192</ele>
        <time>2014-04-27T13:38:11Z</time>
      </trkpt>
      <trkpt lat="48.47879" lon="-3.06852">
        <ele>192</ele>
        <time>2014-04-27T13:38:13Z</time>
      </trkpt>
      <trkpt lat="48.47878" lon="-3.06854">
        <ele>192</ele>
        <time>2014-04-27T13:38:15Z</time>
      </trkpt>
      <trkpt lat="48.47879" lon="-3.06856">
        <ele>192</ele>
        <time>2014-04-27T13:38:17Z</time>
      </trkpt>
      <trkpt lat="48.47879" lon="-3.06858">
        <ele>191</ele>
        <time>2014-04-27T13:38:18Z</time>
      </trkpt>
      <trkpt lat="48.4788" lon="-3.06861">
        <ele>190</ele>
        <time>2014-04-27T13:38:20Z</time>
      </trkpt>
      <trkpt lat="48.47879" lon="-3.06863">
        <ele>189</ele>
        <time>2014-04-27T13:38:21Z</time>
      </trkpt>
      <trkpt lat="48.4788" lon="-3.06865">
        <ele>189</ele>
        <time>2014-04-27T13:38:22Z</time>
      </trkpt>
      <trkpt lat="48.4788" lon="-3.06866">
        <ele>188</ele>
        <time>2014-04-27T13:38:23Z</time>
      </trkpt>
      <trkpt lat="48.4788" lon="-3.06869">
        <ele>188</ele>
        <time>2014-04-27T13:38:24Z</time>
      </trkpt>
      <trkpt lat="48.47881" lon="-3.06872">
        <ele>188</ele>
        <time>2014-04-27T13:38:27Z</time>
      </trkpt>
      <trkpt lat="48.47883" lon="-3.06873">
        <ele>188</ele>
        <time>2014-04-27T13:38:28Z</time>
      </trkpt>
      <trkpt lat="48.47883" lon="-3.06875">
        <ele>188</ele>
        <time>2014-04-27T13:38:30Z</time>
      </trkpt>
      <trkpt lat="48.47883" lon="-3.06878">
        <ele>187</ele>
        <time>2014-04-27T13:38:31Z</time>
      </trkpt>
      <trkpt lat="48.47883" lon="-3.0688">
        <ele>187</ele>
        <time>2014-04-27T13:38:32Z</time>
      </trkpt>
      <trkpt lat="48.47882" lon="-3.06883">
        <ele>187</ele>
        <time>2014-04-27T13:38:33Z</time>
      </trkpt>
      <trkpt lat="48.47882" lon="-3.06884">
        <ele>187</ele>
        <time>2014-04-27T13:38:34Z</time>
      </trkpt>
      <trkpt lat="48.47882" lon="-3.06887">
        <ele>187</ele>
        <time>2014-04-27T13:38:35Z</time>
      </trkpt>
      <trkpt lat="48.47882" lon="-3.06889">
        <ele>186</ele>
        <time>2014-04-27T13:38:36Z</time>
      </trkpt>
      <trkpt lat="48.47883" lon="-3.0689">
        <ele>186</ele>
        <time>2014-04-27T13:38:38Z</time>
      </trkpt>
      <trkpt lat="48.47885" lon="-3.06891">
        <ele>185</ele>
        <time>2014-04-27T13:38:39Z</time>
      </trkpt>
      <trkpt lat="48.47885" lon="-3.06894">
        <ele>185</ele>
        <time>2014-04-27T13:38:43Z</time>
      </trkpt>
      <trkpt lat="48.47885" lon="-3.06896">
        <ele>185</ele>
        <time>2014-04-27T13:38:44Z</time>
      </trkpt>
      <trkpt lat="48.47884" lon="-3.06899">
        <ele>185</ele>
        <time>2014-04-27T13:38:45Z</time>
      </trkpt>
      <trkpt lat="48.47883" lon="-3.06901">
        <ele>185</ele>
        <time>2014-04-27T13:38:46Z</time>
      </trkpt>
      <trkpt lat="48.47883" lon="-3.06902">
        <ele>185</ele>
        <time>2014-04-27T13:38:47Z</time>
      </trkpt>
      <trkpt lat="48.47885" lon="-3.06905">
        <ele>185</ele>
        <time>2014-04-27T13:38:49Z</time>
      </trkpt>
      <trkpt lat="48.47887" lon="-3.06906">
        <ele>185</ele>
        <time>2014-04-27T13:38:51Z</time>
      </trkpt>
      <trkpt lat="48.47888" lon="-3.06907">
        <ele>185</ele>
        <time>2014-04-27T13:38:53Z</time>
      </trkpt>
      <trkpt lat="48.4789" lon="-3.06908">
        <ele>185</ele>
        <time>2014-04-27T13:38:55Z</time>
      </trkpt>
      <trkpt lat="48.47891" lon="-3.06907">
        <ele>185</ele>
        <time>2014-04-27T13:38:57Z</time>
      </trkpt>
      <trkpt lat="48.47893" lon="-3.06905">
        <ele>185</ele>
        <time>2014-04-27T13:38:59Z</time>
      </trkpt>
      <trkpt lat="48.47895" lon="-3.06905">
        <ele>185</ele>
        <time>2014-04-27T13:39:00Z</time>
      </trkpt>
      <trkpt lat="48.47896" lon="-3.06903">
        <ele>185</ele>
        <time>2014-04-27T13:39:02Z</time>
      </trkpt>
      <trkpt lat="48.47898" lon="-3.06903">
        <ele>185</ele>
        <time>2014-04-27T13:39:04Z</time>
      </trkpt>
      <trkpt lat="48.479" lon="-3.06902">
        <ele>184</ele>
        <time>2014-04-27T13:39:08Z</time>
      </trkpt>
      <trkpt lat="48.47902" lon="-3.06901">
        <ele>183</ele>
        <time>2014-04-27T13:39:10Z</time>
      </trkpt>
      <trkpt lat="48.47903" lon="-3.06899">
        <ele>182</ele>
        <time>2014-04-27T13:39:12Z</time>
      </trkpt>
      <trkpt lat="48.47904" lon="-3.06899">
        <ele>182</ele>
        <time>2014-04-27T13:39:14Z</time>
      </trkpt>
      <trkpt lat="48.47906" lon="-3.06899">
        <ele>181</ele>
        <time>2014-04-27T13:39:15Z</time>
      </trkpt>
      <trkpt lat="48.47907" lon="-3.06899">
        <ele>181</ele>
        <time>2014-04-27T13:39:16Z</time>
      </trkpt>
      <trkpt lat="48.47909" lon="-3.06898">
        <ele>180</ele>
        <time>2014-04-27T13:39:18Z</time>
      </trkpt>
      <trkpt lat="48.47911" lon="-3.06898">
        <ele>180</ele>
        <time>2014-04-27T13:39:19Z</time>
      </trkpt>
      <trkpt lat="48.47914" lon="-3.06899">
        <ele>180</ele>
        <time>2014-04-27T13:39:20Z</time>
      </trkpt>
      <trkpt lat="48.47916" lon="-3.06899">
        <ele>180</ele>
        <time>2014-04-27T13:39:21Z</time>
      </trkpt>
      <trkpt lat="48.47917" lon="-3.06898">
        <ele>180</ele>
        <time>2014-04-27T13:39:22Z</time>
      </trkpt>
      <trkpt lat="48.47919" lon="-3.06898">
        <ele>180</ele>
        <time>2014-04-27T13:39:23Z</time>
      </trkpt>
      <trkpt lat="48.4792" lon="-3.06898">
        <ele>180</ele>
        <time>2014-04-27T13:39:25Z</time>
      </trkpt>
      <trkpt lat="48.47923" lon="-3.06898">
        <ele>180</ele>
        <time>2014-04-27T13:39:27Z</time>
      </trkpt>
      <trkpt lat="48.47925" lon="-3.06899">
        <ele>180</ele>
        <time>2014-04-27T13:39:28Z</time>
      </trkpt>
      <trkpt lat="48.47926" lon="-3.06899">
        <ele>180</ele>
        <time>2014-04-27T13:39:29Z</time>
      </trkpt>
      <trkpt lat="48.4793" lon="-3.06899">
        <ele>180</ele>
        <time>2014-04-27T13:39:31Z</time>
      </trkpt>
      <trkpt lat="48.47931" lon="-3.069">
        <ele>180</ele>
        <time>2014-04-27T13:39:32Z</time>
      </trkpt>
      <trkpt lat="48.47933" lon="-3.069">
        <ele>181</ele>
        <time>2014-04-27T13:39:33Z</time>
      </trkpt>
      <trkpt lat="48.47934" lon="-3.069">
        <ele>181</ele>
        <time>2014-04-27T13:39:34Z</time>
      </trkpt>
      <trkpt lat="48.47935" lon="-3.06901">
        <ele>181</ele>
        <time>2014-04-27T13:39:35Z</time>
      </trkpt>
      <trkpt lat="48.47937" lon="-3.06901">
        <ele>181</ele>
        <time>2014-04-27T13:39:36Z</time>
      </trkpt>
      <trkpt lat="48.47939" lon="-3.06901">
        <ele>181</ele>
        <time>2014-04-27T13:39:38Z</time>
      </trkpt>
      <trkpt lat="48.47941" lon="-3.069">
        <ele>182</ele>
        <time>2014-04-27T13:39:39Z</time>
      </trkpt>
      <trkpt lat="48.47942" lon="-3.069">
        <ele>183</ele>
        <time>2014-04-27T13:39:40Z</time>
      </trkpt>
      <trkpt lat="48.47949" lon="-3.06898">
        <ele>187</ele>
        <time>2014-04-27T13:39:46Z</time>
      </trkpt>
      <trkpt lat="48.4795" lon="-3.06897">
        <ele>187</ele>
        <time>2014-04-27T13:39:47Z</time>
      </trkpt>
      <trkpt lat="48.47952" lon="-3.06897">
        <ele>187</ele>
        <time>2014-04-27T13:39:48Z</time>
      </trkpt>
      <trkpt lat="48.47954" lon="-3.06898">
        <ele>187</ele>
        <time>2014-04-27T13:39:49Z</time>
      </trkpt>
      <trkpt lat="48.47955" lon="-3.06898">
        <ele>187</ele>
        <time>2014-04-27T13:39:50Z</time>
      </trkpt>
      <trkpt lat="48.47956" lon="-3.06898">
        <ele>188</ele>
        <time>2014-04-27T13:39:57Z</time>
      </trkpt>
      <trkpt lat="48.47957" lon="-3.06898">
        <ele>188</ele>
        <time>2014-04-27T13:39:58Z</time>
      </trkpt>
      <trkpt lat="48.47959" lon="-3.06899">
        <ele>189</ele>
        <time>2014-04-27T13:39:59Z</time>
      </trkpt>
      <trkpt lat="48.47961" lon="-3.06902">
        <ele>191</ele>
        <time>2014-04-27T13:40:02Z</time>
      </trkpt>
      <trkpt lat="48.47962" lon="-3.06904">
        <ele>192</ele>
        <time>2014-04-27T13:40:03Z</time>
      </trkpt>
      <trkpt lat="48.47962" lon="-3.06905">
        <ele>193</ele>
        <time>2014-04-27T13:40:04Z</time>
      </trkpt>
      <trkpt lat="48.47963" lon="-3.06908">
        <ele>193</ele>
        <time>2014-04-27T13:40:05Z</time>
      </trkpt>
      <trkpt lat="48.47964" lon="-3.0691">
        <ele>194</ele>
        <time>2014-04-27T13:40:06Z</time>
      </trkpt>
      <trkpt lat="48.47964" lon="-3.06912">
        <ele>194</ele>
        <time>2014-04-27T13:40:07Z</time>
      </trkpt>
      <trkpt lat="48.47963" lon="-3.06915">
        <ele>195</ele>
        <time>2014-04-27T13:40:08Z</time>
      </trkpt>
      <trkpt lat="48.47964" lon="-3.06916">
        <ele>196</ele>
        <time>2014-04-27T13:40:10Z</time>
      </trkpt>
      <trkpt lat="48.47964" lon="-3.06918">
        <ele>196</ele>
        <time>2014-04-27T13:40:12Z</time>
      </trkpt>
      <trkpt lat="48.47963" lon="-3.06921">
        <ele>196</ele>
        <time>2014-04-27T13:40:13Z</time>
      </trkpt>
      <trkpt lat="48.47963" lon="-3.06923">
        <ele>196</ele>
        <time>2014-04-27T13:40:14Z</time>
      </trkpt>
      <trkpt lat="48.47964" lon="-3.06925">
        <ele>196</ele>
        <time>2014-04-27T13:40:15Z</time>
      </trkpt>
      <trkpt lat="48.47965" lon="-3.06927">
        <ele>196</ele>
        <time>2014-04-27T13:40:17Z</time>
      </trkpt>
      <trkpt lat="48.47966" lon="-3.0693">
        <ele>197</ele>
        <time>2014-04-27T13:40:18Z</time>
      </trkpt>
      <trkpt lat="48.47966" lon="-3.06932">
        <ele>197</ele>
        <time>2014-04-27T13:40:20Z</time>
      </trkpt>
      <trkpt lat="48.47966" lon="-3.06935">
        <ele>196</ele>
        <time>2014-04-27T13:40:25Z</time>
      </trkpt>
      <trkpt lat="48.47966" lon="-3.06937">
        <ele>193</ele>
        <time>2014-04-27T13:40:28Z</time>
      </trkpt>
      <trkpt lat="48.47967" lon="-3.06938">
        <ele>192</ele>
        <time>2014-04-27T13:40:29Z</time>
      </trkpt>
      <trkpt lat="48.47968" lon="-3.06941">
        <ele>190</ele>
        <time>2014-04-27T13:40:31Z</time>
      </trkpt>
      <trkpt lat="48.47968" lon="-3.06945">
        <ele>190</ele>
        <time>2014-04-27T13:40:33Z</time>
      </trkpt>
      <trkpt lat="48.47968" lon="-3.06947">
        <ele>190</ele>
        <time>2014-04-27T13:40:34Z</time>
      </trkpt>
      <trkpt lat="48.47968" lon="-3.0695">
        <ele>190</ele>
        <time>2014-04-27T13:40:35Z</time>
      </trkpt>
      <trkpt lat="48.47968" lon="-3.06953">
        <ele>189</ele>
        <time>2014-04-27T13:40:36Z</time>
      </trkpt>
      <trkpt lat="48.47968" lon="-3.06955">
        <ele>189</ele>
        <time>2014-04-27T13:40:37Z</time>
      </trkpt>
      <trkpt lat="48.47968" lon="-3.06957">
        <ele>188</ele>
        <time>2014-04-27T13:40:38Z</time>
      </trkpt>
      <trkpt lat="48.47968" lon="-3.0696">
        <ele>187</ele>
        <time>2014-04-27T13:40:40Z</time>
      </trkpt>
      <trkpt lat="48.47968" lon="-3.06962">
        <ele>187</ele>
        <time>2014-04-27T13:40:41Z</time>
      </trkpt>
      <trkpt lat="48.47968" lon="-3.06965">
        <ele>186</ele>
        <time>2014-04-27T13:40:43Z</time>
      </trkpt>
      <trkpt lat="48.47968" lon="-3.06967">
        <ele>186</ele>
        <time>2014-04-27T13:40:45Z</time>
      </trkpt>
      <trkpt lat="48.4797" lon="-3.06967">
        <ele>185</ele>
        <time>2014-04-27T13:40:47Z</time>
      </trkpt>
      <trkpt lat="48.4797" lon="-3.06969">
        <ele>185</ele>
        <time>2014-04-27T13:40:48Z</time>
      </trkpt>
      <trkpt lat="48.4797" lon="-3.06971">
        <ele>184</ele>
        <time>2014-04-27T13:40:50Z</time>
      </trkpt>
      <trkpt lat="48.47971" lon="-3.06973">
        <ele>184</ele>
        <time>2014-04-27T13:40:51Z</time>
      </trkpt>
      <trkpt lat="48.47972" lon="-3.06977">
        <ele>184</ele>
        <time>2014-04-27T13:40:53Z</time>
      </trkpt>
      <trkpt lat="48.47972" lon="-3.0698">
        <ele>183</ele>
        <time>2014-04-27T13:40:54Z</time>
      </trkpt>
      <trkpt lat="48.47973" lon="-3.06982">
        <ele>182</ele>
        <time>2014-04-27T13:40:55Z</time>
      </trkpt>
      <trkpt lat="48.47973" lon="-3.06985">
        <ele>180</ele>
        <time>2014-04-27T13:40:58Z</time>
      </trkpt>
      <trkpt lat="48.47974" lon="-3.06988">
        <ele>180</ele>
        <time>2014-04-27T13:41:00Z</time>
      </trkpt>
      <trkpt lat="48.47973" lon="-3.06991">
        <ele>180</ele>
        <time>2014-04-27T13:41:01Z</time>
      </trkpt>
      <trkpt lat="48.47973" lon="-3.06993">
        <ele>180</ele>
        <time>2014-04-27T13:41:02Z</time>
      </trkpt>
      <trkpt lat="48.47973" lon="-3.06996">
        <ele>180</ele>
        <time>2014-04-27T13:41:03Z</time>
      </trkpt>
      <trkpt lat="48.47974" lon="-3.06998">
        <ele>180</ele>
        <time>2014-04-27T13:41:04Z</time>
      </trkpt>
      <trkpt lat="48.47974" lon="-3.07001">
        <ele>180</ele>
        <time>2014-04-27T13:41:05Z</time>
      </trkpt>
      <trkpt lat="48.47973" lon="-3.07004">
        <ele>180</ele>
        <time>2014-04-27T13:41:07Z</time>
      </trkpt>
      <trkpt lat="48.47972" lon="-3.07007">
        <ele>180</ele>
        <time>2014-04-27T13:41:09Z</time>
      </trkpt>
      <trkpt lat="48.47971" lon="-3.0701">
        <ele>181</ele>
        <time>2014-04-27T13:41:10Z</time>
      </trkpt>
      <trkpt lat="48.4797" lon="-3.07013">
        <ele>181</ele>
        <time>2014-04-27T13:41:11Z</time>
      </trkpt>
      <trkpt lat="48.47972" lon="-3.07017">
        <ele>182</ele>
        <time>2014-04-27T13:41:13Z</time>
      </trkpt>
      <trkpt lat="48.47972" lon="-3.07019">
        <ele>182</ele>
        <time>2014-04-27T13:41:14Z</time>
      </trkpt>
      <trkpt lat="48.47974" lon="-3.07021">
        <ele>183</ele>
        <time>2014-04-27T13:41:15Z</time>
      </trkpt>
      <trkpt lat="48.47974" lon="-3.07022">
        <ele>183</ele>
        <time>2014-04-27T13:41:16Z</time>
      </trkpt>
      <trkpt lat="48.47976" lon="-3.07025">
        <ele>183</ele>
        <time>2014-04-27T13:41:17Z</time>
      </trkpt>
      <trkpt lat="48.47977" lon="-3.07028">
        <ele>183</ele>
        <time>2014-04-27T13:41:18Z</time>
      </trkpt>
      <trkpt lat="48.47977" lon="-3.07029">
        <ele>183</ele>
        <time>2014-04-27T13:41:20Z</time>
      </trkpt>
      <trkpt lat="48.47977" lon="-3.07032">
        <ele>183</ele>
        <time>2014-04-27T13:41:22Z</time>
      </trkpt>
      <trkpt lat="48.47979" lon="-3.07035">
        <ele>183</ele>
        <time>2014-04-27T13:41:25Z</time>
      </trkpt>
      <trkpt lat="48.47979" lon="-3.07038">
        <ele>181</ele>
        <time>2014-04-27T13:41:27Z</time>
      </trkpt>
      <trkpt lat="48.47979" lon="-3.07041">
        <ele>180</ele>
        <time>2014-04-27T13:41:28Z</time>
      </trkpt>
      <trkpt lat="48.47979" lon="-3.07043">
        <ele>179</ele>
        <time>2014-04-27T13:41:29Z</time>
      </trkpt>
      <trkpt lat="48.47979" lon="-3.07045">
        <ele>179</ele>
        <time>2014-04-27T13:41:30Z</time>
      </trkpt>
      <trkpt lat="48.4798" lon="-3.07047">
        <ele>179</ele>
        <time>2014-04-27T13:41:31Z</time>
      </trkpt>
      <trkpt lat="48.4798" lon="-3.0705">
        <ele>179</ele>
        <time>2014-04-27T13:41:33Z</time>
      </trkpt>
      <trkpt lat="48.47982" lon="-3.07052">
        <ele>179</ele>
        <time>2014-04-27T13:41:36Z</time>
      </trkpt>
      <trkpt lat="48.47982" lon="-3.07054">
        <ele>179</ele>
        <time>2014-04-27T13:41:37Z</time>
      </trkpt>
      <trkpt lat="48.47983" lon="-3.07057">
        <ele>179</ele>
        <time>2014-04-27T13:41:39Z</time>
      </trkpt>
      <trkpt lat="48.47983" lon="-3.0706">
        <ele>179</ele>
        <time>2014-04-27T13:41:41Z</time>
      </trkpt>
      <trkpt lat="48.47982" lon="-3.07061">
        <ele>179</ele>
        <time>2014-04-27T13:41:42Z</time>
      </trkpt>
      <trkpt lat="48.47982" lon="-3.07064">
        <ele>178</ele>
        <time>2014-04-27T13:41:43Z</time>
      </trkpt>
      <trkpt lat="48.47982" lon="-3.07067">
        <ele>178</ele>
        <time>2014-04-27T13:41:44Z</time>
      </trkpt>
      <trkpt lat="48.47982" lon="-3.0707">
        <ele>178</ele>
        <time>2014-04-27T13:41:45Z</time>
      </trkpt>
      <trkpt lat="48.47983" lon="-3.07072">
        <ele>178</ele>
        <time>2014-04-27T13:41:46Z</time>
      </trkpt>
      <trkpt lat="48.47983" lon="-3.07075">
        <ele>178</ele>
        <time>2014-04-27T13:41:47Z</time>
      </trkpt>
      <trkpt lat="48.47983" lon="-3.07078">
        <ele>178</ele>
        <time>2014-04-27T13:41:48Z</time>
      </trkpt>
      <trkpt lat="48.47983" lon="-3.07081">
        <ele>178</ele>
        <time>2014-04-27T13:41:49Z</time>
      </trkpt>
      <trkpt lat="48.47983" lon="-3.07084">
        <ele>179</ele>
        <time>2014-04-27T13:41:50Z</time>
      </trkpt>
      <trkpt lat="48.47983" lon="-3.07086">
        <ele>180</ele>
        <time>2014-04-27T13:41:51Z</time>
      </trkpt>
      <trkpt lat="48.47985" lon="-3.07085">
        <ele>181</ele>
        <time>2014-04-27T13:41:53Z</time>
      </trkpt>
      <trkpt lat="48.47986" lon="-3.07085">
        <ele>181</ele>
        <time>2014-04-27T13:41:54Z</time>
      </trkpt>
      <trkpt lat="48.47988" lon="-3.07087">
        <ele>181</ele>
        <time>2014-04-27T13:41:56Z</time>
      </trkpt>
      <trkpt lat="48.47989" lon="-3.07089">
        <ele>181</ele>
        <time>2014-04-27T13:41:58Z</time>
      </trkpt>
      <trkpt lat="48.47989" lon="-3.07092">
        <ele>181</ele>
        <time>2014-04-27T13:42:00Z</time>
      </trkpt>
      <trkpt lat="48.47988" lon="-3.07094">
        <ele>180</ele>
        <time>2014-04-27T13:42:02Z</time>
      </trkpt>
      <trkpt lat="48.47988" lon="-3.07096">
        <ele>179</ele>
        <time>2014-04-27T13:42:04Z</time>
      </trkpt>
      <trkpt lat="48.47988" lon="-3.07098">
        <ele>177</ele>
        <time>2014-04-27T13:42:06Z</time>
      </trkpt>
      <trkpt lat="48.47988" lon="-3.071">
        <ele>176</ele>
        <time>2014-04-27T13:42:08Z</time>
      </trkpt>
      <trkpt lat="48.47988" lon="-3.07103">
        <ele>174</ele>
        <time>2014-04-27T13:42:10Z</time>
      </trkpt>
      <trkpt lat="48.47989" lon="-3.07105">
        <ele>173</ele>
        <time>2014-04-27T13:42:12Z</time>
      </trkpt>
      <trkpt lat="48.47989" lon="-3.07107">
        <ele>173</ele>
        <time>2014-04-27T13:42:13Z</time>
      </trkpt>
      <trkpt lat="48.47989" lon="-3.07108">
        <ele>172</ele>
        <time>2014-04-27T13:42:14Z</time>
      </trkpt>
      <trkpt lat="48.47989" lon="-3.07111">
        <ele>172</ele>
        <time>2014-04-27T13:42:15Z</time>
      </trkpt>
      <trkpt lat="48.47989" lon="-3.07112">
        <ele>172</ele>
        <time>2014-04-27T13:42:16Z</time>
      </trkpt>
      <trkpt lat="48.47989" lon="-3.07115">
        <ele>171</ele>
        <time>2014-04-27T13:42:18Z</time>
      </trkpt>
      <trkpt lat="48.47989" lon="-3.07118">
        <ele>170</ele>
        <time>2014-04-27T13:42:20Z</time>
      </trkpt>
      <trkpt lat="48.47989" lon="-3.07119">
        <ele>169</ele>
        <time>2014-04-27T13:42:21Z</time>
      </trkpt>
      <trkpt lat="48.47989" lon="-3.07121">
        <ele>168</ele>
        <time>2014-04-27T13:42:22Z</time>
      </trkpt>
      <trkpt lat="48.47989" lon="-3.07124">
        <ele>167</ele>
        <time>2014-04-27T13:42:24Z</time>
      </trkpt>
      <trkpt lat="48.47988" lon="-3.07127">
        <ele>165</ele>
        <time>2014-04-27T13:42:26Z</time>
      </trkpt>
      <trkpt lat="48.47988" lon="-3.0713">
        <ele>165</ele>
        <time>2014-04-27T13:42:27Z</time>
      </trkpt>
      <trkpt lat="48.47988" lon="-3.07133">
        <ele>164</ele>
        <time>2014-04-27T13:42:28Z</time>
      </trkpt>
      <trkpt lat="48.47987" lon="-3.07135">
        <ele>164</ele>
        <time>2014-04-27T13:42:29Z</time>
      </trkpt>
      <trkpt lat="48.47988" lon="-3.07138">
        <ele>164</ele>
        <time>2014-04-27T13:42:31Z</time>
      </trkpt>
      <trkpt lat="48.47988" lon="-3.07143">
        <ele>164</ele>
        <time>2014-04-27T13:42:33Z</time>
      </trkpt>
      <trkpt lat="48.47988" lon="-3.07146">
        <ele>164</ele>
        <time>2014-04-27T13:42:35Z</time>
      </trkpt>
      <trkpt lat="48.47986" lon="-3.07151">
        <ele>164</ele>
        <time>2014-04-27T13:42:37Z</time>
      </trkpt>
      <trkpt lat="48.47985" lon="-3.07154">
        <ele>164</ele>
        <time>2014-04-27T13:42:38Z</time>
      </trkpt>
      <trkpt lat="48.47984" lon="-3.07156">
        <ele>164</ele>
        <time>2014-04-27T13:42:39Z</time>
      </trkpt>
      <trkpt lat="48.47984" lon="-3.07159">
        <ele>164</ele>
        <time>2014-04-27T13:42:40Z</time>
      </trkpt>
      <trkpt lat="48.47984" lon="-3.07161">
        <ele>165</ele>
        <time>2014-04-27T13:42:41Z</time>
      </trkpt>
      <trkpt lat="48.47984" lon="-3.07164">
        <ele>165</ele>
        <time>2014-04-27T13:42:42Z</time>
      </trkpt>
      <trkpt lat="48.47984" lon="-3.07167">
        <ele>166</ele>
        <time>2014-04-27T13:42:43Z</time>
      </trkpt>
      <trkpt lat="48.47984" lon="-3.0717">
        <ele>166</ele>
        <time>2014-04-27T13:42:44Z</time>
      </trkpt>
      <trkpt lat="48.47984" lon="-3.07172">
        <ele>166</ele>
        <time>2014-04-27T13:42:45Z</time>
      </trkpt>
      <trkpt lat="48.47984" lon="-3.07175">
        <ele>166</ele>
        <time>2014-04-27T13:42:46Z</time>
      </trkpt>
      <trkpt lat="48.47984" lon="-3.07177">
        <ele>167</ele>
        <time>2014-04-27T13:42:47Z</time>
      </trkpt>
      <trkpt lat="48.47984" lon="-3.07179">
        <ele>167</ele>
        <time>2014-04-27T13:42:48Z</time>
      </trkpt>
      <trkpt lat="48.47984" lon="-3.07181">
        <ele>167</ele>
        <time>2014-04-27T13:42:49Z</time>
      </trkpt>
      <trkpt lat="48.47984" lon="-3.07183">
        <ele>167</ele>
        <time>2014-04-27T13:42:50Z</time>
      </trkpt>
      <trkpt lat="48.47984" lon="-3.07186">
        <ele>167</ele>
        <time>2014-04-27T13:42:51Z</time>
      </trkpt>
      <trkpt lat="48.47984" lon="-3.07188">
        <ele>167</ele>
        <time>2014-04-27T13:42:52Z</time>
      </trkpt>
      <trkpt lat="48.47984" lon="-3.07191">
        <ele>168</ele>
        <time>2014-04-27T13:42:54Z</time>
      </trkpt>
      <trkpt lat="48.47985" lon="-3.07193">
        <ele>169</ele>
        <time>2014-04-27T13:42:55Z</time>
      </trkpt>
      <trkpt lat="48.47985" lon="-3.07196">
        <ele>170</ele>
        <time>2014-04-27T13:42:57Z</time>
      </trkpt>
      <trkpt lat="48.47986" lon="-3.072">
        <ele>170</ele>
        <time>2014-04-27T13:42:59Z</time>
      </trkpt>
      <trkpt lat="48.47986" lon="-3.07202">
        <ele>171</ele>
        <time>2014-04-27T13:43:00Z</time>
      </trkpt>
      <trkpt lat="48.47987" lon="-3.07205">
        <ele>171</ele>
        <time>2014-04-27T13:43:01Z</time>
      </trkpt>
      <trkpt lat="48.47987" lon="-3.07207">
        <ele>171</ele>
        <time>2014-04-27T13:43:02Z</time>
      </trkpt>
      <trkpt lat="48.47987" lon="-3.07211">
        <ele>172</ele>
        <time>2014-04-27T13:43:04Z</time>
      </trkpt>
      <trkpt lat="48.47989" lon="-3.07213">
        <ele>172</ele>
        <time>2014-04-27T13:43:06Z</time>
      </trkpt>
      <trkpt lat="48.4799" lon="-3.07215">
        <ele>172</ele>
        <time>2014-04-27T13:43:08Z</time>
      </trkpt>
      <trkpt lat="48.47991" lon="-3.07217">
        <ele>172</ele>
        <time>2014-04-27T13:43:12Z</time>
      </trkpt>
      <trkpt lat="48.47992" lon="-3.0722">
        <ele>172</ele>
        <time>2014-04-27T13:43:15Z</time>
      </trkpt>
      <trkpt lat="48.47996" lon="-3.07224">
        <ele>172</ele>
        <time>2014-04-27T13:43:16Z</time>
      </trkpt>
      <trkpt lat="48.47997" lon="-3.07225">
        <ele>172</ele>
        <time>2014-04-27T13:43:17Z</time>
      </trkpt>
      <trkpt lat="48.47998" lon="-3.07225">
        <ele>172</ele>
        <time>2014-04-27T13:43:18Z</time>
      </trkpt>
      <trkpt lat="48.48" lon="-3.07225">
        <ele>172</ele>
        <time>2014-04-27T13:43:19Z</time>
      </trkpt>
      <trkpt lat="48.48001" lon="-3.07226">
        <ele>172</ele>
        <time>2014-04-27T13:43:23Z</time>
      </trkpt>
      <trkpt lat="48.48002" lon="-3.07228">
        <ele>172</ele>
        <time>2014-04-27T13:43:25Z</time>
      </trkpt>
      <trkpt lat="48.48003" lon="-3.07228">
        <ele>172</ele>
        <time>2014-04-27T13:43:26Z</time>
      </trkpt>
      <trkpt lat="48.48005" lon="-3.07229">
        <ele>172</ele>
        <time>2014-04-27T13:43:27Z</time>
      </trkpt>
      <trkpt lat="48.48006" lon="-3.0723">
        <ele>172</ele>
        <time>2014-04-27T13:43:28Z</time>
      </trkpt>
      <trkpt lat="48.48008" lon="-3.07232">
        <ele>172</ele>
        <time>2014-04-27T13:43:30Z</time>
      </trkpt>
      <trkpt lat="48.48009" lon="-3.0723">
        <ele>172</ele>
        <time>2014-04-27T13:43:35Z</time>
      </trkpt>
      <trkpt lat="48.48011" lon="-3.07227">
        <ele>172</ele>
        <time>2014-04-27T13:43:36Z</time>
      </trkpt>
      <trkpt lat="48.48012" lon="-3.07224">
        <ele>172</ele>
        <time>2014-04-27T13:43:37Z</time>
      </trkpt>
      <trkpt lat="48.48012" lon="-3.07222">
        <ele>172</ele>
        <time>2014-04-27T13:43:39Z</time>
      </trkpt>
      <trkpt lat="48.48013" lon="-3.07224">
        <ele>172</ele>
        <time>2014-04-27T13:43:51Z</time>
      </trkpt>
      <trkpt lat="48.48014" lon="-3.07226">
        <ele>172</ele>
        <time>2014-04-27T13:43:52Z</time>
      </trkpt>
      <trkpt lat="48.48012" lon="-3.07226">
        <ele>174</ele>
        <time>2014-04-27T13:43:58Z</time>
      </trkpt>
      <trkpt lat="48.4801" lon="-3.07224">
        <ele>174</ele>
        <time>2014-04-27T13:44:01Z</time>
      </trkpt>
      <trkpt lat="48.4801" lon="-3.07222">
        <ele>174</ele>
        <time>2014-04-27T13:44:03Z</time>
      </trkpt>
      <trkpt lat="48.48011" lon="-3.07222">
        <ele>174</ele>
        <time>2014-04-27T13:44:05Z</time>
      </trkpt>
      <trkpt lat="48.48013" lon="-3.07221">
        <ele>174</ele>
        <time>2014-04-27T13:44:06Z</time>
      </trkpt>
      <trkpt lat="48.48014" lon="-3.07221">
        <ele>174</ele>
        <time>2014-04-27T13:44:07Z</time>
      </trkpt>
      <trkpt lat="48.48012" lon="-3.07222">
        <ele>172</ele>
        <time>2014-04-27T13:44:13Z</time>
      </trkpt>
      <trkpt lat="48.48015" lon="-3.07224">
        <ele>172</ele>
        <time>2014-04-27T13:44:22Z</time>
      </trkpt>
      <trkpt lat="48.48013" lon="-3.07223">
        <ele>173</ele>
        <time>2014-04-27T13:44:24Z</time>
      </trkpt>
      <trkpt lat="48.48012" lon="-3.07223">
        <ele>174</ele>
        <time>2014-04-27T13:44:25Z</time>
      </trkpt>
      <trkpt lat="48.48011" lon="-3.07223">
        <ele>176</ele>
        <time>2014-04-27T13:44:27Z</time>
      </trkpt>
      <trkpt lat="48.48011" lon="-3.07225">
        <ele>178</ele>
        <time>2014-04-27T13:44:29Z</time>
      </trkpt>
      <trkpt lat="48.4801" lon="-3.07224">
        <ele>181</ele>
        <time>2014-04-27T13:44:32Z</time>
      </trkpt>
      <trkpt lat="48.48012" lon="-3.07224">
        <ele>182</ele>
        <time>2014-04-27T13:44:35Z</time>
      </trkpt>
      <trkpt lat="48.48014" lon="-3.07223">
        <ele>182</ele>
        <time>2014-04-27T13:44:37Z</time>
      </trkpt>
      <trkpt lat="48.48014" lon="-3.07224">
        <ele>182</ele>
        <time>2014-04-27T13:44:39Z</time>
      </trkpt>
      <trkpt lat="48.48014" lon="-3.07226">
        <ele>183</ele>
        <time>2014-04-27T13:44:41Z</time>
      </trkpt>
      <trkpt lat="48.48013" lon="-3.07226">
        <ele>184</ele>
        <time>2014-04-27T13:44:45Z</time>
      </trkpt>
      <trkpt lat="48.48015" lon="-3.07228">
        <ele>184</ele>
        <time>2014-04-27T13:44:48Z</time>
      </trkpt>
      <trkpt lat="48.48016" lon="-3.07229">
        <ele>184</ele>
        <time>2014-04-27T13:44:50Z</time>
      </trkpt>
      <trkpt lat="48.48015" lon="-3.07231">
        <ele>184</ele>
        <time>2014-04-27T13:44:52Z</time>
      </trkpt>
      <trkpt lat="48.48013" lon="-3.07231">
        <ele>184</ele>
        <time>2014-04-27T13:44:54Z</time>
      </trkpt>
      <trkpt lat="48.48014" lon="-3.07233">
        <ele>184</ele>
        <time>2014-04-27T13:44:58Z</time>
      </trkpt>
      <trkpt lat="48.48016" lon="-3.07234">
        <ele>184</ele>
        <time>2014-04-27T13:44:59Z</time>
      </trkpt>
      <trkpt lat="48.48018" lon="-3.07235">
        <ele>184</ele>
        <time>2014-04-27T13:45:00Z</time>
      </trkpt>
      <trkpt lat="48.4802" lon="-3.07235">
        <ele>184</ele>
        <time>2014-04-27T13:45:02Z</time>
      </trkpt>
      <trkpt lat="48.48021" lon="-3.07236">
        <ele>184</ele>
        <time>2014-04-27T13:45:03Z</time>
      </trkpt>
      <trkpt lat="48.48023" lon="-3.07236">
        <ele>184</ele>
        <time>2014-04-27T13:45:04Z</time>
      </trkpt>
      <trkpt lat="48.48025" lon="-3.07235">
        <ele>184</ele>
        <time>2014-04-27T13:45:06Z</time>
      </trkpt>
      <trkpt lat="48.48027" lon="-3.07234">
        <ele>184</ele>
        <time>2014-04-27T13:45:08Z</time>
      </trkpt>
      <trkpt lat="48.48029" lon="-3.07235">
        <ele>181</ele>
        <time>2014-04-27T13:45:11Z</time>
      </trkpt>
      <trkpt lat="48.4803" lon="-3.07239">
        <ele>179</ele>
        <time>2014-04-27T13:45:16Z</time>
      </trkpt>
      <trkpt lat="48.48033" lon="-3.07241">
        <ele>178</ele>
        <time>2014-04-27T13:45:19Z</time>
      </trkpt>
      <trkpt lat="48.48037" lon="-3.07242">
        <ele>178</ele>
        <time>2014-04-27T13:45:21Z</time>
      </trkpt>
      <trkpt lat="48.48041" lon="-3.07241">
        <ele>178</ele>
        <time>2014-04-27T13:45:22Z</time>
      </trkpt>
      <trkpt lat="48.48043" lon="-3.07241">
        <ele>178</ele>
        <time>2014-04-27T13:45:23Z</time>
      </trkpt>
      <trkpt lat="48.48046" lon="-3.07242">
        <ele>178</ele>
        <time>2014-04-27T13:45:24Z</time>
      </trkpt>
      <trkpt lat="48.48048" lon="-3.07242">
        <ele>178</ele>
        <time>2014-04-27T13:45:27Z</time>
      </trkpt>
      <trkpt lat="48.4805" lon="-3.07242">
        <ele>178</ele>
        <time>2014-04-27T13:45:31Z</time>
      </trkpt>
      <trkpt lat="48.48051" lon="-3.07242">
        <ele>175</ele>
        <time>2014-04-27T13:45:35Z</time>
      </trkpt>
      <trkpt lat="48.48053" lon="-3.07243">
        <ele>175</ele>
        <time>2014-04-27T13:45:37Z</time>
      </trkpt>
      <trkpt lat="48.48056" lon="-3.07244">
        <ele>175</ele>
        <time>2014-04-27T13:45:39Z</time>
      </trkpt>
      <trkpt lat="48.48057" lon="-3.07244">
        <ele>175</ele>
        <time>2014-04-27T13:45:40Z</time>
      </trkpt>
      <trkpt lat="48.48059" lon="-3.07244">
        <ele>175</ele>
        <time>2014-04-27T13:45:41Z</time>
      </trkpt>
      <trkpt lat="48.48061" lon="-3.07244">
        <ele>175</ele>
        <time>2014-04-27T13:45:44Z</time>
      </trkpt>
      <trkpt lat="48.48064" lon="-3.07243">
        <ele>175</ele>
        <time>2014-04-27T13:45:45Z</time>
      </trkpt>
      <trkpt lat="48.48066" lon="-3.07244">
        <ele>175</ele>
        <time>2014-04-27T13:45:46Z</time>
      </trkpt>
      <trkpt lat="48.48067" lon="-3.07248">
        <ele>175</ele>
        <time>2014-04-27T13:45:47Z</time>
      </trkpt>
      <trkpt lat="48.4807" lon="-3.0725">
        <ele>175</ele>
        <time>2014-04-27T13:45:48Z</time>
      </trkpt>
      <trkpt lat="48.48071" lon="-3.07251">
        <ele>175</ele>
        <time>2014-04-27T13:45:49Z</time>
      </trkpt>
      <trkpt lat="48.48074" lon="-3.07252">
        <ele>176</ele>
        <time>2014-04-27T13:45:52Z</time>
      </trkpt>
      <trkpt lat="48.48075" lon="-3.0725">
        <ele>178</ele>
        <time>2014-04-27T13:45:55Z</time>
      </trkpt>
      <trkpt lat="48.48077" lon="-3.07248">
        <ele>178</ele>
        <time>2014-04-27T13:45:56Z</time>
      </trkpt>
      <trkpt lat="48.48079" lon="-3.07247">
        <ele>179</ele>
        <time>2014-04-27T13:45:58Z</time>
      </trkpt>
      <trkpt lat="48.48081" lon="-3.07245">
        <ele>179</ele>
        <time>2014-04-27T13:45:59Z</time>
      </trkpt>
      <trkpt lat="48.48083" lon="-3.07245">
        <ele>179</ele>
        <time>2014-04-27T13:46:00Z</time>
      </trkpt>
      <trkpt lat="48.48083" lon="-3.07242">
        <ele>181</ele>
        <time>2014-04-27T13:46:02Z</time>
      </trkpt>
      <trkpt lat="48.48083" lon="-3.0724">
        <ele>182</ele>
        <time>2014-04-27T13:46:04Z</time>
      </trkpt>
      <trkpt lat="48.48085" lon="-3.0724">
        <ele>182</ele>
        <time>2014-04-27T13:46:05Z</time>
      </trkpt>
      <trkpt lat="48.48086" lon="-3.07239">
        <ele>182</ele>
        <time>2014-04-27T13:46:06Z</time>
      </trkpt>
      <trkpt lat="48.48086" lon="-3.07237">
        <ele>182</ele>
        <time>2014-04-27T13:46:08Z</time>
      </trkpt>
      <trkpt lat="48.48087" lon="-3.07235">
        <ele>182</ele>
        <time>2014-04-27T13:46:10Z</time>
      </trkpt>
      <trkpt lat="48.48088" lon="-3.07233">
        <ele>182</ele>
        <time>2014-04-27T13:46:12Z</time>
      </trkpt>
      <trkpt lat="48.48088" lon="-3.07231">
        <ele>182</ele>
        <time>2014-04-27T13:46:13Z</time>
      </trkpt>
      <trkpt lat="48.48088" lon="-3.07229">
        <ele>182</ele>
        <time>2014-04-27T13:46:15Z</time>
      </trkpt>
      <trkpt lat="48.48089" lon="-3.07227">
        <ele>182</ele>
        <time>2014-04-27T13:46:17Z</time>
      </trkpt>
      <trkpt lat="48.48089" lon="-3.07225">
        <ele>182</ele>
        <time>2014-04-27T13:46:19Z</time>
      </trkpt>
      <trkpt lat="48.48088" lon="-3.07213">
        <ele>182</ele>
        <time>2014-04-27T13:46:25Z</time>
      </trkpt>
      <trkpt lat="48.4809" lon="-3.07206">
        <ele>182</ele>
        <time>2014-04-27T13:46:26Z</time>
      </trkpt>
      <trkpt lat="48.48089" lon="-3.07204">
        <ele>182</ele>
        <time>2014-04-27T13:46:27Z</time>
      </trkpt>
      <trkpt lat="48.48089" lon="-3.07201">
        <ele>182</ele>
        <time>2014-04-27T13:46:28Z</time>
      </trkpt>
      <trkpt lat="48.48089" lon="-3.07197">
        <ele>181</ele>
        <time>2014-04-27T13:46:29Z</time>
      </trkpt>
      <trkpt lat="48.48088" lon="-3.07194">
        <ele>181</ele>
        <time>2014-04-27T13:46:30Z</time>
      </trkpt>
      <trkpt lat="48.48088" lon="-3.07192">
        <ele>181</ele>
        <time>2014-04-27T13:46:31Z</time>
      </trkpt>
      <trkpt lat="48.48087" lon="-3.0719">
        <ele>181</ele>
        <time>2014-04-27T13:46:33Z</time>
      </trkpt>
      <trkpt lat="48.48084" lon="-3.07188">
        <ele>182</ele>
        <time>2014-04-27T13:46:38Z</time>
      </trkpt>
      <trkpt lat="48.48084" lon="-3.07186">
        <ele>182</ele>
        <time>2014-04-27T13:46:40Z</time>
      </trkpt>
      <trkpt lat="48.48085" lon="-3.07185">
        <ele>182</ele>
        <time>2014-04-27T13:46:43Z</time>
      </trkpt>
      <trkpt lat="48.48085" lon="-3.07181">
        <ele>182</ele>
        <time>2014-04-27T13:46:45Z</time>
      </trkpt>
      <trkpt lat="48.48085" lon="-3.07177">
        <ele>182</ele>
        <time>2014-04-27T13:46:47Z</time>
      </trkpt>
      <trkpt lat="48.48086" lon="-3.07175">
        <ele>182</ele>
        <time>2014-04-27T13:46:49Z</time>
      </trkpt>
      <trkpt lat="48.48085" lon="-3.07173">
        <ele>182</ele>
        <time>2014-04-27T13:46:50Z</time>
      </trkpt>
      <trkpt lat="48.48086" lon="-3.07171">
        <ele>182</ele>
        <time>2014-04-27T13:46:51Z</time>
      </trkpt>
      <trkpt lat="48.48086" lon="-3.07168">
        <ele>182</ele>
        <time>2014-04-27T13:46:53Z</time>
      </trkpt>
      <trkpt lat="48.48086" lon="-3.07166">
        <ele>182</ele>
        <time>2014-04-27T13:46:54Z</time>
      </trkpt>
      <trkpt lat="48.48085" lon="-3.07164">
        <ele>182</ele>
        <time>2014-04-27T13:46:56Z</time>
      </trkpt>
      <trkpt lat="48.48084" lon="-3.07161">
        <ele>182</ele>
        <time>2014-04-27T13:46:58Z</time>
      </trkpt>
      <trkpt lat="48.48083" lon="-3.07159">
        <ele>182</ele>
        <time>2014-04-27T13:46:59Z</time>
      </trkpt>
      <trkpt lat="48.48083" lon="-3.07157">
        <ele>182</ele>
        <time>2014-04-27T13:47:00Z</time>
      </trkpt>
      <trkpt lat="48.48081" lon="-3.07156">
        <ele>182</ele>
        <time>2014-04-27T13:47:02Z</time>
      </trkpt>
      <trkpt lat="48.48079" lon="-3.07152">
        <ele>182</ele>
        <time>2014-04-27T13:47:05Z</time>
      </trkpt>
      <trkpt lat="48.48078" lon="-3.0715">
        <ele>182</ele>
        <time>2014-04-27T13:47:06Z</time>
      </trkpt>
      <trkpt lat="48.48076" lon="-3.07147">
        <ele>182</ele>
        <time>2014-04-27T13:47:07Z</time>
      </trkpt>
      <trkpt lat="48.48077" lon="-3.07146">
        <ele>182</ele>
        <time>2014-04-27T13:47:08Z</time>
      </trkpt>
      <trkpt lat="48.48077" lon="-3.07143">
        <ele>182</ele>
        <time>2014-04-27T13:47:09Z</time>
      </trkpt>
      <trkpt lat="48.48077" lon="-3.07141">
        <ele>182</ele>
        <time>2014-04-27T13:47:10Z</time>
      </trkpt>
      <trkpt lat="48.48078" lon="-3.07138">
        <ele>181</ele>
        <time>2014-04-27T13:47:13Z</time>
      </trkpt>
      <trkpt lat="48.48079" lon="-3.07136">
        <ele>181</ele>
        <time>2014-04-27T13:47:14Z</time>
      </trkpt>
      <trkpt lat="48.48079" lon="-3.07133">
        <ele>181</ele>
        <time>2014-04-27T13:47:15Z</time>
      </trkpt>
      <trkpt lat="48.48079" lon="-3.07131">
        <ele>181</ele>
        <time>2014-04-27T13:47:18Z</time>
      </trkpt>
      <trkpt lat="48.48079" lon="-3.07128">
        <ele>181</ele>
        <time>2014-04-27T13:47:19Z</time>
      </trkpt>
      <trkpt lat="48.48079" lon="-3.07127">
        <ele>181</ele>
        <time>2014-04-27T13:47:21Z</time>
      </trkpt>
      <trkpt lat="48.48079" lon="-3.07125">
        <ele>181</ele>
        <time>2014-04-27T13:47:23Z</time>
      </trkpt>
      <trkpt lat="48.4808" lon="-3.07122">
        <ele>181</ele>
        <time>2014-04-27T13:47:25Z</time>
      </trkpt>
      <trkpt lat="48.48081" lon="-3.07121">
        <ele>181</ele>
        <time>2014-04-27T13:47:26Z</time>
      </trkpt>
      <trkpt lat="48.48081" lon="-3.07116">
        <ele>181</ele>
        <time>2014-04-27T13:47:30Z</time>
      </trkpt>
      <trkpt lat="48.48082" lon="-3.07114">
        <ele>181</ele>
        <time>2014-04-27T13:47:31Z</time>
      </trkpt>
      <trkpt lat="48.48081" lon="-3.07112">
        <ele>181</ele>
        <time>2014-04-27T13:47:32Z</time>
      </trkpt>
      <trkpt lat="48.48081" lon="-3.07107">
        <ele>181</ele>
        <time>2014-04-27T13:47:34Z</time>
      </trkpt>
      <trkpt lat="48.48082" lon="-3.07103">
        <ele>181</ele>
        <time>2014-04-27T13:47:35Z</time>
      </trkpt>
      <trkpt lat="48.48083" lon="-3.07101">
        <ele>181</ele>
        <time>2014-04-27T13:47:36Z</time>
      </trkpt>
      <trkpt lat="48.48081" lon="-3.07099">
        <ele>182</ele>
        <time>2014-04-27T13:47:39Z</time>
      </trkpt>
      <trkpt lat="48.48082" lon="-3.07102">
        <ele>185</ele>
        <time>2014-04-27T13:47:42Z</time>
      </trkpt>
      <trkpt lat="48.4808" lon="-3.07103">
        <ele>186</ele>
        <time>2014-04-27T13:47:44Z</time>
      </trkpt>
      <trkpt lat="48.4808" lon="-3.07106">
        <ele>188</ele>
        <time>2014-04-27T13:47:46Z</time>
      </trkpt>
      <trkpt lat="48.48079" lon="-3.07108">
        <ele>188</ele>
        <time>2014-04-27T13:47:48Z</time>
      </trkpt>
      <trkpt lat="48.48079" lon="-3.07109">
        <ele>188</ele>
        <time>2014-04-27T13:47:49Z</time>
      </trkpt>
      <trkpt lat="48.48078" lon="-3.0711">
        <ele>188</ele>
        <time>2014-04-27T13:47:57Z</time>
      </trkpt>
      <trkpt lat="48.48076" lon="-3.07108">
        <ele>188</ele>
        <time>2014-04-27T13:47:59Z</time>
      </trkpt>
      <trkpt lat="48.48075" lon="-3.07108">
        <ele>188</ele>
        <time>2014-04-27T13:48:01Z</time>
      </trkpt>
      <trkpt lat="48.48073" lon="-3.07107">
        <ele>188</ele>
        <time>2014-04-27T13:48:04Z</time>
      </trkpt>
      <trkpt lat="48.48074" lon="-3.07108">
        <ele>188</ele>
        <time>2014-04-27T13:48:12Z</time>
      </trkpt>
      <trkpt lat="48.48075" lon="-3.07106">
        <ele>188</ele>
        <time>2014-04-27T13:48:21Z</time>
      </trkpt>
      <trkpt lat="48.48074" lon="-3.07104">
        <ele>184</ele>
        <time>2014-04-27T13:48:29Z</time>
      </trkpt>
      <trkpt lat="48.48074" lon="-3.07102">
        <ele>184</ele>
        <time>2014-04-27T13:48:31Z</time>
      </trkpt>
      <trkpt lat="48.48075" lon="-3.07099">
        <ele>184</ele>
        <time>2014-04-27T13:48:32Z</time>
      </trkpt>
      <trkpt lat="48.48075" lon="-3.07096">
        <ele>183</ele>
        <time>2014-04-27T13:48:34Z</time>
      </trkpt>
      <trkpt lat="48.48075" lon="-3.07093">
        <ele>182</ele>
        <time>2014-04-27T13:48:36Z</time>
      </trkpt>
      <trkpt lat="48.48075" lon="-3.07091">
        <ele>181</ele>
        <time>2014-04-27T13:48:38Z</time>
      </trkpt>
      <trkpt lat="48.48074" lon="-3.07088">
        <ele>181</ele>
        <time>2014-04-27T13:48:40Z</time>
      </trkpt>
      <trkpt lat="48.48073" lon="-3.07086">
        <ele>181</ele>
        <time>2014-04-27T13:48:42Z</time>
      </trkpt>
      <trkpt lat="48.48072" lon="-3.07084">
        <ele>181</ele>
        <time>2014-04-27T13:48:43Z</time>
      </trkpt>
      <trkpt lat="48.48072" lon="-3.07082">
        <ele>181</ele>
        <time>2014-04-27T13:48:44Z</time>
      </trkpt>
      <trkpt lat="48.48072" lon="-3.0708">
        <ele>181</ele>
        <time>2014-04-27T13:48:45Z</time>
      </trkpt>
      <trkpt lat="48.48071" lon="-3.07078">
        <ele>181</ele>
        <time>2014-04-27T13:48:47Z</time>
      </trkpt>
      <trkpt lat="48.48071" lon="-3.07075">
        <ele>181</ele>
        <time>2014-04-27T13:48:49Z</time>
      </trkpt>
      <trkpt lat="48.48071" lon="-3.07073">
        <ele>181</ele>
        <time>2014-04-27T13:48:50Z</time>
      </trkpt>
      <trkpt lat="48.4807" lon="-3.07072">
        <ele>181</ele>
        <time>2014-04-27T13:48:51Z</time>
      </trkpt>
      <trkpt lat="48.4807" lon="-3.07069">
        <ele>181</ele>
        <time>2014-04-27T13:48:53Z</time>
      </trkpt>
      <trkpt lat="48.4807" lon="-3.07068">
        <ele>181</ele>
        <time>2014-04-27T13:48:55Z</time>
      </trkpt>
      <trkpt lat="48.48069" lon="-3.07065">
        <ele>180</ele>
        <time>2014-04-27T13:48:57Z</time>
      </trkpt>
      <trkpt lat="48.48069" lon="-3.07063">
        <ele>180</ele>
        <time>2014-04-27T13:48:58Z</time>
      </trkpt>
      <trkpt lat="48.48069" lon="-3.07061">
        <ele>179</ele>
        <time>2014-04-27T13:48:59Z</time>
      </trkpt>
      <trkpt lat="48.48068" lon="-3.07059">
        <ele>179</ele>
        <time>2014-04-27T13:49:00Z</time>
      </trkpt>
      <trkpt lat="48.48067" lon="-3.07056">
        <ele>179</ele>
        <time>2014-04-27T13:49:02Z</time>
      </trkpt>
      <trkpt lat="48.48065" lon="-3.07052">
        <ele>179</ele>
        <time>2014-04-27T13:49:04Z</time>
      </trkpt>
      <trkpt lat="48.48065" lon="-3.07049">
        <ele>179</ele>
        <time>2014-04-27T13:49:06Z</time>
      </trkpt>
      <trkpt lat="48.48065" lon="-3.07047">
        <ele>179</ele>
        <time>2014-04-27T13:49:07Z</time>
      </trkpt>
      <trkpt lat="48.48064" lon="-3.07045">
        <ele>179</ele>
        <time>2014-04-27T13:49:08Z</time>
      </trkpt>
      <trkpt lat="48.48064" lon="-3.07041">
        <ele>179</ele>
        <time>2014-04-27T13:49:10Z</time>
      </trkpt>
      <trkpt lat="48.48063" lon="-3.07039">
        <ele>179</ele>
        <time>2014-04-27T13:49:13Z</time>
      </trkpt>
      <trkpt lat="48.48063" lon="-3.07036">
        <ele>179</ele>
        <time>2014-04-27T13:49:15Z</time>
      </trkpt>
      <trkpt lat="48.4806" lon="-3.0703">
        <ele>179</ele>
        <time>2014-04-27T13:49:20Z</time>
      </trkpt>
      <trkpt lat="48.4806" lon="-3.07028">
        <ele>179</ele>
        <time>2014-04-27T13:49:21Z</time>
      </trkpt>
      <trkpt lat="48.48059" lon="-3.07026">
        <ele>179</ele>
        <time>2014-04-27T13:49:22Z</time>
      </trkpt>
      <trkpt lat="48.48057" lon="-3.07024">
        <ele>179</ele>
        <time>2014-04-27T13:49:23Z</time>
      </trkpt>
      <trkpt lat="48.48056" lon="-3.07022">
        <ele>179</ele>
        <time>2014-04-27T13:49:24Z</time>
      </trkpt>
      <trkpt lat="48.48055" lon="-3.0702">
        <ele>179</ele>
        <time>2014-04-27T13:49:26Z</time>
      </trkpt>
      <trkpt lat="48.48054" lon="-3.07018">
        <ele>179</ele>
        <time>2014-04-27T13:49:28Z</time>
      </trkpt>
      <trkpt lat="48.48054" lon="-3.07016">
        <ele>179</ele>
        <time>2014-04-27T13:49:30Z</time>
      </trkpt>
      <trkpt lat="48.48052" lon="-3.07014">
        <ele>179</ele>
        <time>2014-04-27T13:49:32Z</time>
      </trkpt>
      <trkpt lat="48.4805" lon="-3.07012">
        <ele>179</ele>
        <time>2014-04-27T13:49:34Z</time>
      </trkpt>
      <trkpt lat="48.48049" lon="-3.07012">
        <ele>179</ele>
        <time>2014-04-27T13:49:35Z</time>
      </trkpt>
      <trkpt lat="48.48048" lon="-3.0701">
        <ele>179</ele>
        <time>2014-04-27T13:49:37Z</time>
      </trkpt>
      <trkpt lat="48.48048" lon="-3.07008">
        <ele>179</ele>
        <time>2014-04-27T13:49:39Z</time>
      </trkpt>
      <trkpt lat="48.48047" lon="-3.07006">
        <ele>179</ele>
        <time>2014-04-27T13:49:40Z</time>
      </trkpt>
      <trkpt lat="48.48045" lon="-3.07002">
        <ele>179</ele>
        <time>2014-04-27T13:49:42Z</time>
      </trkpt>
      <trkpt lat="48.48044" lon="-3.07">
        <ele>180</ele>
        <time>2014-04-27T13:49:43Z</time>
      </trkpt>
      <trkpt lat="48.48044" lon="-3.06998">
        <ele>180</ele>
        <time>2014-04-27T13:49:44Z</time>
      </trkpt>
      <trkpt lat="48.48042" lon="-3.06995">
        <ele>182</ele>
        <time>2014-04-27T13:49:46Z</time>
      </trkpt>
      <trkpt lat="48.48041" lon="-3.06992">
        <ele>182</ele>
        <time>2014-04-27T13:49:48Z</time>
      </trkpt>
      <trkpt lat="48.48041" lon="-3.0699">
        <ele>182</ele>
        <time>2014-04-27T13:49:49Z</time>
      </trkpt>
      <trkpt lat="48.4804" lon="-3.06987">
        <ele>182</ele>
        <time>2014-04-27T13:49:51Z</time>
      </trkpt>
      <trkpt lat="48.4804" lon="-3.06985">
        <ele>182</ele>
        <time>2014-04-27T13:49:54Z</time>
      </trkpt>
      <trkpt lat="48.4804" lon="-3.06982">
        <ele>182</ele>
        <time>2014-04-27T13:49:55Z</time>
      </trkpt>
      <trkpt lat="48.4804" lon="-3.06979">
        <ele>181</ele>
        <time>2014-04-27T13:49:57Z</time>
      </trkpt>
      <trkpt lat="48.48041" lon="-3.06977">
        <ele>179</ele>
        <time>2014-04-27T13:50:00Z</time>
      </trkpt>
      <trkpt lat="48.48042" lon="-3.06974">
        <ele>179</ele>
        <time>2014-04-27T13:50:02Z</time>
      </trkpt>
      <trkpt lat="48.48042" lon="-3.06972">
        <ele>179</ele>
        <time>2014-04-27T13:50:03Z</time>
      </trkpt>
      <trkpt lat="48.48042" lon="-3.0697">
        <ele>179</ele>
        <time>2014-04-27T13:50:05Z</time>
      </trkpt>
      <trkpt lat="48.48041" lon="-3.06965">
        <ele>179</ele>
        <time>2014-04-27T13:50:07Z</time>
      </trkpt>
      <trkpt lat="48.4804" lon="-3.06963">
        <ele>179</ele>
        <time>2014-04-27T13:50:09Z</time>
      </trkpt>
      <trkpt lat="48.48039" lon="-3.0696">
        <ele>179</ele>
        <time>2014-04-27T13:50:10Z</time>
      </trkpt>
      <trkpt lat="48.48038" lon="-3.06954">
        <ele>179</ele>
        <time>2014-04-27T13:50:13Z</time>
      </trkpt>
      <trkpt lat="48.48036" lon="-3.0695">
        <ele>179</ele>
        <time>2014-04-27T13:50:14Z</time>
      </trkpt>
      <trkpt lat="48.48037" lon="-3.06947">
        <ele>179</ele>
        <time>2014-04-27T13:50:15Z</time>
      </trkpt>
      <trkpt lat="48.48038" lon="-3.06944">
        <ele>179</ele>
        <time>2014-04-27T13:50:16Z</time>
      </trkpt>
      <trkpt lat="48.48039" lon="-3.06941">
        <ele>179</ele>
        <time>2014-04-27T13:50:18Z</time>
      </trkpt>
      <trkpt lat="48.4804" lon="-3.06939">
        <ele>180</ele>
        <time>2014-04-27T13:50:20Z</time>
      </trkpt>
      <trkpt lat="48.4804" lon="-3.06936">
        <ele>180</ele>
        <time>2014-04-27T13:50:22Z</time>
      </trkpt>
      <trkpt lat="48.48039" lon="-3.06934">
        <ele>180</ele>
        <time>2014-04-27T13:50:23Z</time>
      </trkpt>
      <trkpt lat="48.48041" lon="-3.06932">
        <ele>180</ele>
        <time>2014-04-27T13:50:25Z</time>
      </trkpt>
      <trkpt lat="48.48042" lon="-3.0693">
        <ele>181</ele>
        <time>2014-04-27T13:50:27Z</time>
      </trkpt>
      <trkpt lat="48.48044" lon="-3.06928">
        <ele>182</ele>
        <time>2014-04-27T13:50:29Z</time>
      </trkpt>
      <trkpt lat="48.48044" lon="-3.06925">
        <ele>183</ele>
        <time>2014-04-27T13:50:31Z</time>
      </trkpt>
      <trkpt lat="48.48044" lon="-3.06923">
        <ele>186</ele>
        <time>2014-04-27T13:50:35Z</time>
      </trkpt>
      <trkpt lat="48.48044" lon="-3.0692">
        <ele>186</ele>
        <time>2014-04-27T13:50:36Z</time>
      </trkpt>
      <trkpt lat="48.48042" lon="-3.06917">
        <ele>187</ele>
        <time>2014-04-27T13:50:38Z</time>
      </trkpt>
      <trkpt lat="48.48041" lon="-3.06915">
        <ele>187</ele>
        <time>2014-04-27T13:50:39Z</time>
      </trkpt>
      <trkpt lat="48.4804" lon="-3.06914">
        <ele>187</ele>
        <time>2014-04-27T13:50:40Z</time>
      </trkpt>
      <trkpt lat="48.48038" lon="-3.06912">
        <ele>187</ele>
        <time>2014-04-27T13:50:41Z</time>
      </trkpt>
      <trkpt lat="48.48036" lon="-3.0691">
        <ele>187</ele>
        <time>2014-04-27T13:50:42Z</time>
      </trkpt>
      <trkpt lat="48.48034" lon="-3.0691">
        <ele>187</ele>
        <time>2014-04-27T13:50:43Z</time>
      </trkpt>
      <trkpt lat="48.48032" lon="-3.06908">
        <ele>187</ele>
        <time>2014-04-27T13:50:45Z</time>
      </trkpt>
      <trkpt lat="48.4803" lon="-3.06906">
        <ele>187</ele>
        <time>2014-04-27T13:50:47Z</time>
      </trkpt>
      <trkpt lat="48.48028" lon="-3.06904">
        <ele>187</ele>
        <time>2014-04-27T13:50:48Z</time>
      </trkpt>
      <trkpt lat="48.48026" lon="-3.06903">
        <ele>187</ele>
        <time>2014-04-27T13:50:49Z</time>
      </trkpt>
      <trkpt lat="48.48024" lon="-3.069">
        <ele>187</ele>
        <time>2014-04-27T13:50:52Z</time>
      </trkpt>
      <trkpt lat="48.48022" lon="-3.06898">
        <ele>187</ele>
        <time>2014-04-27T13:50:53Z</time>
      </trkpt>
      <trkpt lat="48.48021" lon="-3.06895">
        <ele>187</ele>
        <time>2014-04-27T13:50:54Z</time>
      </trkpt>
      <trkpt lat="48.4802" lon="-3.06892">
        <ele>187</ele>
        <time>2014-04-27T13:50:55Z</time>
      </trkpt>
      <trkpt lat="48.48019" lon="-3.0689">
        <ele>187</ele>
        <time>2014-04-27T13:50:56Z</time>
      </trkpt>
      <trkpt lat="48.48017" lon="-3.06888">
        <ele>187</ele>
        <time>2014-04-27T13:50:58Z</time>
      </trkpt>
      <trkpt lat="48.48016" lon="-3.06886">
        <ele>187</ele>
        <time>2014-04-27T13:51:00Z</time>
      </trkpt>
      <trkpt lat="48.48015" lon="-3.06884">
        <ele>186</ele>
        <time>2014-04-27T13:51:06Z</time>
      </trkpt>
      <trkpt lat="48.48013" lon="-3.06882">
        <ele>186</ele>
        <time>2014-04-27T13:51:08Z</time>
      </trkpt>
      <trkpt lat="48.48012" lon="-3.06883">
        <ele>186</ele>
        <time>2014-04-27T13:51:09Z</time>
      </trkpt>
      <trkpt lat="48.4801" lon="-3.06884">
        <ele>186</ele>
        <time>2014-04-27T13:51:11Z</time>
      </trkpt>
      <trkpt lat="48.48008" lon="-3.06884">
        <ele>186</ele>
        <time>2014-04-27T13:51:13Z</time>
      </trkpt>
      <trkpt lat="48.48006" lon="-3.06882">
        <ele>186</ele>
        <time>2014-04-27T13:51:15Z</time>
      </trkpt>
      <trkpt lat="48.48007" lon="-3.0688">
        <ele>186</ele>
        <time>2014-04-27T13:51:17Z</time>
      </trkpt>
      <trkpt lat="48.48007" lon="-3.06877">
        <ele>186</ele>
        <time>2014-04-27T13:51:19Z</time>
      </trkpt>
      <trkpt lat="48.48007" lon="-3.06875">
        <ele>186</ele>
        <time>2014-04-27T13:51:20Z</time>
      </trkpt>
      <trkpt lat="48.48006" lon="-3.06873">
        <ele>186</ele>
        <time>2014-04-27T13:51:23Z</time>
      </trkpt>
      <trkpt lat="48.48006" lon="-3.06871">
        <ele>186</ele>
        <time>2014-04-27T13:51:24Z</time>
      </trkpt>
      <trkpt lat="48.48005" lon="-3.06869">
        <ele>187</ele>
        <time>2014-04-27T13:51:28Z</time>
      </trkpt>
      <trkpt lat="48.48006" lon="-3.06869">
        <ele>188</ele>
        <time>2014-04-27T13:51:30Z</time>
      </trkpt>
      <trkpt lat="48.48007" lon="-3.06868">
        <ele>189</ele>
        <time>2014-04-27T13:51:32Z</time>
      </trkpt>
      <trkpt lat="48.48008" lon="-3.06866">
        <ele>190</ele>
        <time>2014-04-27T13:51:33Z</time>
      </trkpt>
      <trkpt lat="48.4801" lon="-3.06865">
        <ele>190</ele>
        <time>2014-04-27T13:51:37Z</time>
      </trkpt>
      <trkpt lat="48.48012" lon="-3.06864">
        <ele>190</ele>
        <time>2014-04-27T13:51:38Z</time>
      </trkpt>
      <trkpt lat="48.48014" lon="-3.06864">
        <ele>190</ele>
        <time>2014-04-27T13:51:39Z</time>
      </trkpt>
      <trkpt lat="48.48016" lon="-3.06865">
        <ele>190</ele>
        <time>2014-04-27T13:51:41Z</time>
      </trkpt>
      <trkpt lat="48.48017" lon="-3.06864">
        <ele>190</ele>
        <time>2014-04-27T13:51:43Z</time>
      </trkpt>
      <trkpt lat="48.48019" lon="-3.06864">
        <ele>190</ele>
        <time>2014-04-27T13:51:45Z</time>
      </trkpt>
      <trkpt lat="48.4802" lon="-3.06865">
        <ele>190</ele>
        <time>2014-04-27T13:51:47Z</time>
      </trkpt>
      <trkpt lat="48.48022" lon="-3.06865">
        <ele>190</ele>
        <time>2014-04-27T13:51:49Z</time>
      </trkpt>
      <trkpt lat="48.48024" lon="-3.06865">
        <ele>190</ele>
        <time>2014-04-27T13:51:51Z</time>
      </trkpt>
      <trkpt lat="48.48026" lon="-3.06863">
        <ele>189</ele>
        <time>2014-04-27T13:51:53Z</time>
      </trkpt>
      <trkpt lat="48.48027" lon="-3.06863">
        <ele>189</ele>
        <time>2014-04-27T13:51:54Z</time>
      </trkpt>
      <trkpt lat="48.48029" lon="-3.06862">
        <ele>188</ele>
        <time>2014-04-27T13:51:57Z</time>
      </trkpt>
      <trkpt lat="48.4803" lon="-3.06862">
        <ele>188</ele>
        <time>2014-04-27T13:51:58Z</time>
      </trkpt>
      <trkpt lat="48.48032" lon="-3.0686">
        <ele>187</ele>
        <time>2014-04-27T13:51:59Z</time>
      </trkpt>
      <trkpt lat="48.48032" lon="-3.06858">
        <ele>186</ele>
        <time>2014-04-27T13:52:00Z</time>
      </trkpt>
      <trkpt lat="48.48033" lon="-3.06857">
        <ele>186</ele>
        <time>2014-04-27T13:52:01Z</time>
      </trkpt>
      <trkpt lat="48.48036" lon="-3.06856">
        <ele>185</ele>
        <time>2014-04-27T13:52:03Z</time>
      </trkpt>
      <trkpt lat="48.48038" lon="-3.06856">
        <ele>185</ele>
        <time>2014-04-27T13:52:04Z</time>
      </trkpt>
      <trkpt lat="48.48039" lon="-3.06854">
        <ele>184</ele>
        <time>2014-04-27T13:52:06Z</time>
      </trkpt>
      <trkpt lat="48.48041" lon="-3.06854">
        <ele>184</ele>
        <time>2014-04-27T13:52:08Z</time>
      </trkpt>
      <trkpt lat="48.48043" lon="-3.06853">
        <ele>184</ele>
        <time>2014-04-27T13:52:09Z</time>
      </trkpt>
      <trkpt lat="48.48045" lon="-3.06852">
        <ele>184</ele>
        <time>2014-04-27T13:52:12Z</time>
      </trkpt>
      <trkpt lat="48.48046" lon="-3.06852">
        <ele>184</ele>
        <time>2014-04-27T13:52:13Z</time>
      </trkpt>
      <trkpt lat="48.48047" lon="-3.0685">
        <ele>183</ele>
        <time>2014-04-27T13:52:15Z</time>
      </trkpt>
      <trkpt lat="48.48048" lon="-3.06849">
        <ele>182</ele>
        <time>2014-04-27T13:52:17Z</time>
      </trkpt>
      <trkpt lat="48.4805" lon="-3.06847">
        <ele>180</ele>
        <time>2014-04-27T13:52:19Z</time>
      </trkpt>
      <trkpt lat="48.48051" lon="-3.06847">
        <ele>180</ele>
        <time>2014-04-27T13:52:21Z</time>
      </trkpt>
      <trkpt lat="48.48051" lon="-3.06845">
        <ele>180</ele>
        <time>2014-04-27T13:52:23Z</time>
      </trkpt>
      <trkpt lat="48.48053" lon="-3.06845">
        <ele>180</ele>
        <time>2014-04-27T13:52:26Z</time>
      </trkpt>
      <trkpt lat="48.48054" lon="-3.06846">
        <ele>180</ele>
        <time>2014-04-27T13:52:27Z</time>
      </trkpt>
      <trkpt lat="48.48058" lon="-3.06848">
        <ele>180</ele>
        <time>2014-04-27T13:52:29Z</time>
      </trkpt>
      <trkpt lat="48.48059" lon="-3.06846">
        <ele>180</ele>
        <time>2014-04-27T13:52:31Z</time>
      </trkpt>
      <trkpt lat="48.48062" lon="-3.06847">
        <ele>180</ele>
        <time>2014-04-27T13:52:32Z</time>
      </trkpt>
      <trkpt lat="48.48063" lon="-3.06847">
        <ele>180</ele>
        <time>2014-04-27T13:52:33Z</time>
      </trkpt>
      <trkpt lat="48.48065" lon="-3.06848">
        <ele>180</ele>
        <time>2014-04-27T13:52:34Z</time>
      </trkpt>
      <trkpt lat="48.48066" lon="-3.06848">
        <ele>180</ele>
        <time>2014-04-27T13:52:35Z</time>
      </trkpt>
      <trkpt lat="48.48068" lon="-3.06847">
        <ele>181</ele>
        <time>2014-04-27T13:52:37Z</time>
      </trkpt>
      <trkpt lat="48.4807" lon="-3.06848">
        <ele>182</ele>
        <time>2014-04-27T13:52:38Z</time>
      </trkpt>
      <trkpt lat="48.48073" lon="-3.06848">
        <ele>183</ele>
        <time>2014-04-27T13:52:39Z</time>
      </trkpt>
      <trkpt lat="48.48075" lon="-3.06848">
        <ele>184</ele>
        <time>2014-04-27T13:52:40Z</time>
      </trkpt>
      <trkpt lat="48.48077" lon="-3.0685">
        <ele>185</ele>
        <time>2014-04-27T13:52:41Z</time>
      </trkpt>
      <trkpt lat="48.48078" lon="-3.06849">
        <ele>186</ele>
        <time>2014-04-27T13:52:43Z</time>
      </trkpt>
      <trkpt lat="48.48084" lon="-3.06848">
        <ele>191</ele>
        <time>2014-04-27T13:52:49Z</time>
      </trkpt>
      <trkpt lat="48.48086" lon="-3.06847">
        <ele>192</ele>
        <time>2014-04-27T13:52:50Z</time>
      </trkpt>
      <trkpt lat="48.48088" lon="-3.06847">
        <ele>193</ele>
        <time>2014-04-27T13:52:51Z</time>
      </trkpt>
      <trkpt lat="48.4809" lon="-3.06845">
        <ele>193</ele>
        <time>2014-04-27T13:52:52Z</time>
      </trkpt>
      <trkpt lat="48.48092" lon="-3.06846">
        <ele>193</ele>
        <time>2014-04-27T13:52:53Z</time>
      </trkpt>
      <trkpt lat="48.48092" lon="-3.06843">
        <ele>193</ele>
        <time>2014-04-27T13:52:56Z</time>
      </trkpt>
      <trkpt lat="48.48093" lon="-3.06843">
        <ele>193</ele>
        <time>2014-04-27T13:52:57Z</time>
      </trkpt>
      <trkpt lat="48.48094" lon="-3.06843">
        <ele>193</ele>
        <time>2014-04-27T13:52:58Z</time>
      </trkpt>
      <trkpt lat="48.48095" lon="-3.06842">
        <ele>193</ele>
        <time>2014-04-27T13:52:59Z</time>
      </trkpt>
      <trkpt lat="48.48097" lon="-3.0684">
        <ele>193</ele>
        <time>2014-04-27T13:53:01Z</time>
      </trkpt>
      <trkpt lat="48.48098" lon="-3.06839">
        <ele>193</ele>
        <time>2014-04-27T13:53:02Z</time>
      </trkpt>
      <trkpt lat="48.481" lon="-3.06838">
        <ele>193</ele>
        <time>2014-04-27T13:53:04Z</time>
      </trkpt>
      <trkpt lat="48.48102" lon="-3.06838">
        <ele>193</ele>
        <time>2014-04-27T13:53:06Z</time>
      </trkpt>
      <trkpt lat="48.48104" lon="-3.06838">
        <ele>193</ele>
        <time>2014-04-27T13:53:07Z</time>
      </trkpt>
      <trkpt lat="48.48106" lon="-3.06838">
        <ele>192</ele>
        <time>2014-04-27T13:53:08Z</time>
      </trkpt>
      <trkpt lat="48.48107" lon="-3.06839">
        <ele>192</ele>
        <time>2014-04-27T13:53:10Z</time>
      </trkpt>
      <trkpt lat="48.48109" lon="-3.06839">
        <ele>192</ele>
        <time>2014-04-27T13:53:11Z</time>
      </trkpt>
      <trkpt lat="48.48111" lon="-3.06839">
        <ele>192</ele>
        <time>2014-04-27T13:53:12Z</time>
      </trkpt>
      <trkpt lat="48.48114" lon="-3.06838">
        <ele>192</ele>
        <time>2014-04-27T13:53:17Z</time>
      </trkpt>
      <trkpt lat="48.48115" lon="-3.06837">
        <ele>192</ele>
        <time>2014-04-27T13:53:19Z</time>
      </trkpt>
      <trkpt lat="48.48116" lon="-3.06836">
        <ele>192</ele>
        <time>2014-04-27T13:53:21Z</time>
      </trkpt>
      <trkpt lat="48.48117" lon="-3.06833">
        <ele>192</ele>
        <time>2014-04-27T13:53:23Z</time>
      </trkpt>
      <trkpt lat="48.48117" lon="-3.06831">
        <ele>192</ele>
        <time>2014-04-27T13:53:24Z</time>
      </trkpt>
      <trkpt lat="48.48117" lon="-3.06829">
        <ele>192</ele>
        <time>2014-04-27T13:53:25Z</time>
      </trkpt>
      <trkpt lat="48.48116" lon="-3.06826">
        <ele>192</ele>
        <time>2014-04-27T13:53:27Z</time>
      </trkpt>
      <trkpt lat="48.48115" lon="-3.06823">
        <ele>191</ele>
        <time>2014-04-27T13:53:29Z</time>
      </trkpt>
      <trkpt lat="48.48116" lon="-3.06821">
        <ele>191</ele>
        <time>2014-04-27T13:53:30Z</time>
      </trkpt>
      <trkpt lat="48.48116" lon="-3.06819">
        <ele>190</ele>
        <time>2014-04-27T13:53:31Z</time>
      </trkpt>
      <trkpt lat="48.48116" lon="-3.06816">
        <ele>190</ele>
        <time>2014-04-27T13:53:33Z</time>
      </trkpt>
      <trkpt lat="48.48116" lon="-3.06814">
        <ele>190</ele>
        <time>2014-04-27T13:53:34Z</time>
      </trkpt>
      <trkpt lat="48.48115" lon="-3.06811">
        <ele>190</ele>
        <time>2014-04-27T13:53:36Z</time>
      </trkpt>
      <trkpt lat="48.48116" lon="-3.06809">
        <ele>189</ele>
        <time>2014-04-27T13:53:37Z</time>
      </trkpt>
      <trkpt lat="48.48116" lon="-3.06806">
        <ele>189</ele>
        <time>2014-04-27T13:53:39Z</time>
      </trkpt>
      <trkpt lat="48.48116" lon="-3.06803">
        <ele>189</ele>
        <time>2014-04-27T13:53:41Z</time>
      </trkpt>
      <trkpt lat="48.48118" lon="-3.068">
        <ele>189</ele>
        <time>2014-04-27T13:53:43Z</time>
      </trkpt>
      <trkpt lat="48.48119" lon="-3.06797">
        <ele>189</ele>
        <time>2014-04-27T13:53:45Z</time>
      </trkpt>
      <trkpt lat="48.48121" lon="-3.06796">
        <ele>189</ele>
        <time>2014-04-27T13:53:46Z</time>
      </trkpt>
      <trkpt lat="48.4812" lon="-3.06793">
        <ele>189</ele>
        <time>2014-04-27T13:53:47Z</time>
      </trkpt>
      <trkpt lat="48.48119" lon="-3.06791">
        <ele>190</ele>
        <time>2014-04-27T13:53:48Z</time>
      </trkpt>
      <trkpt lat="48.48119" lon="-3.06789">
        <ele>191</ele>
        <time>2014-04-27T13:53:49Z</time>
      </trkpt>
      <trkpt lat="48.48118" lon="-3.06787">
        <ele>191</ele>
        <time>2014-04-27T13:53:50Z</time>
      </trkpt>
      <trkpt lat="48.48119" lon="-3.06785">
        <ele>192</ele>
        <time>2014-04-27T13:53:52Z</time>
      </trkpt>
      <trkpt lat="48.48118" lon="-3.06783">
        <ele>192</ele>
        <time>2014-04-27T13:53:53Z</time>
      </trkpt>
      <trkpt lat="48.48119" lon="-3.06781">
        <ele>192</ele>
        <time>2014-04-27T13:53:55Z</time>
      </trkpt>
      <trkpt lat="48.48118" lon="-3.06778">
        <ele>192</ele>
        <time>2014-04-27T13:53:57Z</time>
      </trkpt>
      <trkpt lat="48.48118" lon="-3.06776">
        <ele>193</ele>
        <time>2014-04-27T13:53:58Z</time>
      </trkpt>
      <trkpt lat="48.48118" lon="-3.06773">
        <ele>193</ele>
        <time>2014-04-27T13:53:59Z</time>
      </trkpt>
      <trkpt lat="48.48118" lon="-3.0677">
        <ele>194</ele>
        <time>2014-04-27T13:54:01Z</time>
      </trkpt>
      <trkpt lat="48.48117" lon="-3.06766">
        <ele>195</ele>
        <time>2014-04-27T13:54:07Z</time>
      </trkpt>
      <trkpt lat="48.48116" lon="-3.06761">
        <ele>195</ele>
        <time>2014-04-27T13:54:08Z</time>
      </trkpt>
      <trkpt lat="48.48119" lon="-3.06756">
        <ele>195</ele>
        <time>2014-04-27T13:54:09Z</time>
      </trkpt>
      <trkpt lat="48.48119" lon="-3.06751">
        <ele>195</ele>
        <time>2014-04-27T13:54:10Z</time>
      </trkpt>
      <trkpt lat="48.4812" lon="-3.0675">
        <ele>195</ele>
        <time>2014-04-27T13:54:12Z</time>
      </trkpt>
      <trkpt lat="48.4812" lon="-3.06746">
        <ele>196</ele>
        <time>2014-04-27T13:54:14Z</time>
      </trkpt>
      <trkpt lat="48.48119" lon="-3.06743">
        <ele>197</ele>
        <time>2014-04-27T13:54:15Z</time>
      </trkpt>
      <trkpt lat="48.48118" lon="-3.06741">
        <ele>197</ele>
        <time>2014-04-27T13:54:16Z</time>
      </trkpt>
      <trkpt lat="48.48118" lon="-3.06739">
        <ele>197</ele>
        <time>2014-04-27T13:54:17Z</time>
      </trkpt>
      <trkpt lat="48.48116" lon="-3.06736">
        <ele>198</ele>
        <time>2014-04-27T13:54:19Z</time>
      </trkpt>
      <trkpt lat="48.48116" lon="-3.06733">
        <ele>198</ele>
        <time>2014-04-27T13:54:20Z</time>
      </trkpt>
      <trkpt lat="48.48115" lon="-3.06732">
        <ele>198</ele>
        <time>2014-04-27T13:54:21Z</time>
      </trkpt>
      <trkpt lat="48.48114" lon="-3.06728">
        <ele>198</ele>
        <time>2014-04-27T13:54:25Z</time>
      </trkpt>
      <trkpt lat="48.48113" lon="-3.06725">
        <ele>198</ele>
        <time>2014-04-27T13:54:26Z</time>
      </trkpt>
      <trkpt lat="48.48113" lon="-3.06722">
        <ele>198</ele>
        <time>2014-04-27T13:54:27Z</time>
      </trkpt>
      <trkpt lat="48.48112" lon="-3.06719">
        <ele>198</ele>
        <time>2014-04-27T13:54:29Z</time>
      </trkpt>
      <trkpt lat="48.48112" lon="-3.06717">
        <ele>198</ele>
        <time>2014-04-27T13:54:30Z</time>
      </trkpt>
      <trkpt lat="48.48113" lon="-3.06715">
        <ele>198</ele>
        <time>2014-04-27T13:54:32Z</time>
      </trkpt>
      <trkpt lat="48.48112" lon="-3.06712">
        <ele>198</ele>
        <time>2014-04-27T13:54:34Z</time>
      </trkpt>
      <trkpt lat="48.48112" lon="-3.0671">
        <ele>198</ele>
        <time>2014-04-27T13:54:37Z</time>
      </trkpt>
      <trkpt lat="48.4811" lon="-3.0671">
        <ele>198</ele>
        <time>2014-04-27T13:54:39Z</time>
      </trkpt>
      <trkpt lat="48.48108" lon="-3.06709">
        <ele>198</ele>
        <time>2014-04-27T13:54:41Z</time>
      </trkpt>
      <trkpt lat="48.48106" lon="-3.06706">
        <ele>198</ele>
        <time>2014-04-27T13:54:43Z</time>
      </trkpt>
      <trkpt lat="48.48104" lon="-3.06706">
        <ele>198</ele>
        <time>2014-04-27T13:54:45Z</time>
      </trkpt>
      <trkpt lat="48.48103" lon="-3.06706">
        <ele>198</ele>
        <time>2014-04-27T13:54:46Z</time>
      </trkpt>
      <trkpt lat="48.48101" lon="-3.06704">
        <ele>198</ele>
        <time>2014-04-27T13:54:47Z</time>
      </trkpt>
      <trkpt lat="48.481" lon="-3.06704">
        <ele>198</ele>
        <time>2014-04-27T13:54:48Z</time>
      </trkpt>
      <trkpt lat="48.48098" lon="-3.06703">
        <ele>198</ele>
        <time>2014-04-27T13:54:49Z</time>
      </trkpt>
      <trkpt lat="48.48097" lon="-3.06701">
        <ele>198</ele>
        <time>2014-04-27T13:54:51Z</time>
      </trkpt>
      <trkpt lat="48.48097" lon="-3.06698">
        <ele>198</ele>
        <time>2014-04-27T13:54:53Z</time>
      </trkpt>
      <trkpt lat="48.48097" lon="-3.06695">
        <ele>198</ele>
        <time>2014-04-27T13:54:55Z</time>
      </trkpt>
      <trkpt lat="48.48097" lon="-3.06692">
        <ele>198</ele>
        <time>2014-04-27T13:54:57Z</time>
      </trkpt>
      <trkpt lat="48.48097" lon="-3.0669">
        <ele>198</ele>
        <time>2014-04-27T13:54:58Z</time>
      </trkpt>
      <trkpt lat="48.48096" lon="-3.06688">
        <ele>198</ele>
        <time>2014-04-27T13:55:00Z</time>
      </trkpt>
      <trkpt lat="48.48095" lon="-3.06686">
        <ele>198</ele>
        <time>2014-04-27T13:55:01Z</time>
      </trkpt>
      <trkpt lat="48.48093" lon="-3.06684">
        <ele>197</ele>
        <time>2014-04-27T13:55:03Z</time>
      </trkpt>
      <trkpt lat="48.48092" lon="-3.06683">
        <ele>197</ele>
        <time>2014-04-27T13:55:04Z</time>
      </trkpt>
      <trkpt lat="48.4809" lon="-3.06681">
        <ele>197</ele>
        <time>2014-04-27T13:55:06Z</time>
      </trkpt>
      <trkpt lat="48.48088" lon="-3.06679">
        <ele>197</ele>
        <time>2014-04-27T13:55:08Z</time>
      </trkpt>
      <trkpt lat="48.48086" lon="-3.06678">
        <ele>197</ele>
        <time>2014-04-27T13:55:09Z</time>
      </trkpt>
      <trkpt lat="48.48085" lon="-3.06677">
        <ele>197</ele>
        <time>2014-04-27T13:55:10Z</time>
      </trkpt>
      <trkpt lat="48.48083" lon="-3.06676">
        <ele>196</ele>
        <time>2014-04-27T13:55:11Z</time>
      </trkpt>
      <trkpt lat="48.48082" lon="-3.06675">
        <ele>196</ele>
        <time>2014-04-27T13:55:12Z</time>
      </trkpt>
      <trkpt lat="48.4808" lon="-3.06673">
        <ele>196</ele>
        <time>2014-04-27T13:55:14Z</time>
      </trkpt>
      <trkpt lat="48.48078" lon="-3.06672">
        <ele>196</ele>
        <time>2014-04-27T13:55:17Z</time>
      </trkpt>
      <trkpt lat="48.48077" lon="-3.06672">
        <ele>195</ele>
        <time>2014-04-27T13:55:18Z</time>
      </trkpt>
      <trkpt lat="48.48075" lon="-3.06672">
        <ele>194</ele>
        <time>2014-04-27T13:55:20Z</time>
      </trkpt>
      <trkpt lat="48.48073" lon="-3.06671">
        <ele>194</ele>
        <time>2014-04-27T13:55:22Z</time>
      </trkpt>
      <trkpt lat="48.48072" lon="-3.0667">
        <ele>194</ele>
        <time>2014-04-27T13:55:23Z</time>
      </trkpt>
      <trkpt lat="48.48071" lon="-3.0667">
        <ele>194</ele>
        <time>2014-04-27T13:55:24Z</time>
      </trkpt>
      <trkpt lat="48.4807" lon="-3.06669">
        <ele>194</ele>
        <time>2014-04-27T13:55:25Z</time>
      </trkpt>
      <trkpt lat="48.48068" lon="-3.06667">
        <ele>194</ele>
        <time>2014-04-27T13:55:26Z</time>
      </trkpt>
      <trkpt lat="48.48067" lon="-3.06667">
        <ele>194</ele>
        <time>2014-04-27T13:55:28Z</time>
      </trkpt>
      <trkpt lat="48.48065" lon="-3.06667">
        <ele>194</ele>
        <time>2014-04-27T13:55:30Z</time>
      </trkpt>
      <trkpt lat="48.48064" lon="-3.06666">
        <ele>194</ele>
        <time>2014-04-27T13:55:31Z</time>
      </trkpt>
      <trkpt lat="48.48063" lon="-3.06665">
        <ele>194</ele>
        <time>2014-04-27T13:55:32Z</time>
      </trkpt>
      <trkpt lat="48.4806" lon="-3.06663">
        <ele>194</ele>
        <time>2014-04-27T13:55:34Z</time>
      </trkpt>
      <trkpt lat="48.48058" lon="-3.06661">
        <ele>194</ele>
        <time>2014-04-27T13:55:36Z</time>
      </trkpt>
      <trkpt lat="48.48057" lon="-3.06659">
        <ele>193</ele>
        <time>2014-04-27T13:55:38Z</time>
      </trkpt>
      <trkpt lat="48.48058" lon="-3.06655">
        <ele>192</ele>
        <time>2014-04-27T13:55:41Z</time>
      </trkpt>
      <trkpt lat="48.48057" lon="-3.06643">
        <ele>192</ele>
        <time>2014-04-27T13:55:48Z</time>
      </trkpt>
      <trkpt lat="48.48057" lon="-3.06641">
        <ele>192</ele>
        <time>2014-04-27T13:55:49Z</time>
      </trkpt>
      <trkpt lat="48.48057" lon="-3.06639">
        <ele>192</ele>
        <time>2014-04-27T13:55:51Z</time>
      </trkpt>
      <trkpt lat="48.48056" lon="-3.06637">
        <ele>192</ele>
        <time>2014-04-27T13:55:52Z</time>
      </trkpt>
      <trkpt lat="48.48056" lon="-3.06635">
        <ele>192</ele>
        <time>2014-04-27T13:55:54Z</time>
      </trkpt>
      <trkpt lat="48.48056" lon="-3.06633">
        <ele>192</ele>
        <time>2014-04-27T13:55:57Z</time>
      </trkpt>
      <trkpt lat="48.48054" lon="-3.0663">
        <ele>192</ele>
        <time>2014-04-27T13:55:58Z</time>
      </trkpt>
      <trkpt lat="48.48053" lon="-3.06628">
        <ele>192</ele>
        <time>2014-04-27T13:55:59Z</time>
      </trkpt>
      <trkpt lat="48.48053" lon="-3.06625">
        <ele>192</ele>
        <time>2014-04-27T13:56:00Z</time>
      </trkpt>
      <trkpt lat="48.48053" lon="-3.06623">
        <ele>192</ele>
        <time>2014-04-27T13:56:01Z</time>
      </trkpt>
      <trkpt lat="48.48051" lon="-3.0662">
        <ele>192</ele>
        <time>2014-04-27T13:56:02Z</time>
      </trkpt>
      <trkpt lat="48.48051" lon="-3.06619">
        <ele>192</ele>
        <time>2014-04-27T13:56:03Z</time>
      </trkpt>
      <trkpt lat="48.48049" lon="-3.06616">
        <ele>192</ele>
        <time>2014-04-27T13:56:04Z</time>
      </trkpt>
      <trkpt lat="48.48047" lon="-3.06614">
        <ele>192</ele>
        <time>2014-04-27T13:56:07Z</time>
      </trkpt>
      <trkpt lat="48.48046" lon="-3.06612">
        <ele>192</ele>
        <time>2014-04-27T13:56:09Z</time>
      </trkpt>
      <trkpt lat="48.48046" lon="-3.06609">
        <ele>192</ele>
        <time>2014-04-27T13:56:10Z</time>
      </trkpt>
      <trkpt lat="48.48046" lon="-3.06608">
        <ele>192</ele>
        <time>2014-04-27T13:56:11Z</time>
      </trkpt>
      <trkpt lat="48.48045" lon="-3.06605">
        <ele>192</ele>
        <time>2014-04-27T13:56:14Z</time>
      </trkpt>
      <trkpt lat="48.48045" lon="-3.06604">
        <ele>192</ele>
        <time>2014-04-27T13:56:15Z</time>
      </trkpt>
      <trkpt lat="48.48043" lon="-3.066">
        <ele>192</ele>
        <time>2014-04-27T13:56:17Z</time>
      </trkpt>
      <trkpt lat="48.48042" lon="-3.06591">
        <ele>192</ele>
        <time>2014-04-27T13:56:22Z</time>
      </trkpt>
      <trkpt lat="48.48039" lon="-3.0659">
        <ele>192</ele>
        <time>2014-04-27T13:56:28Z</time>
      </trkpt>
      <trkpt lat="48.48037" lon="-3.0659">
        <ele>192</ele>
        <time>2014-04-27T13:56:29Z</time>
      </trkpt>
      <trkpt lat="48.48034" lon="-3.06588">
        <ele>192</ele>
        <time>2014-04-27T13:56:31Z</time>
      </trkpt>
      <trkpt lat="48.4803" lon="-3.06585">
        <ele>192</ele>
        <time>2014-04-27T13:56:33Z</time>
      </trkpt>
      <trkpt lat="48.48029" lon="-3.06582">
        <ele>193</ele>
        <time>2014-04-27T13:56:35Z</time>
      </trkpt>
      <trkpt lat="48.48028" lon="-3.0658">
        <ele>193</ele>
        <time>2014-04-27T13:56:36Z</time>
      </trkpt>
      <trkpt lat="48.48028" lon="-3.06577">
        <ele>193</ele>
        <time>2014-04-27T13:56:38Z</time>
      </trkpt>
      <trkpt lat="48.48027" lon="-3.06575">
        <ele>193</ele>
        <time>2014-04-27T13:56:41Z</time>
      </trkpt>
      <trkpt lat="48.48021" lon="-3.06571">
        <ele>193</ele>
        <time>2014-04-27T13:56:47Z</time>
      </trkpt>
      <trkpt lat="48.4802" lon="-3.06569">
        <ele>193</ele>
        <time>2014-04-27T13:56:48Z</time>
      </trkpt>
      <trkpt lat="48.4802" lon="-3.06564">
        <ele>193</ele>
        <time>2014-04-27T13:56:50Z</time>
      </trkpt>
      <trkpt lat="48.48018" lon="-3.06559">
        <ele>193</ele>
        <time>2014-04-27T13:56:53Z</time>
      </trkpt>
      <trkpt lat="48.48018" lon="-3.06557">
        <ele>193</ele>
        <time>2014-04-27T13:56:54Z</time>
      </trkpt>
      <trkpt lat="48.48016" lon="-3.06554">
        <ele>193</ele>
        <time>2014-04-27T13:56:57Z</time>
      </trkpt>
      <trkpt lat="48.48015" lon="-3.06554">
        <ele>193</ele>
        <time>2014-04-27T13:56:58Z</time>
      </trkpt>
      <trkpt lat="48.48013" lon="-3.06552">
        <ele>193</ele>
        <time>2014-04-27T13:56:59Z</time>
      </trkpt>
      <trkpt lat="48.48012" lon="-3.06552">
        <ele>193</ele>
        <time>2014-04-27T13:57:00Z</time>
      </trkpt>
      <trkpt lat="48.4801" lon="-3.06552">
        <ele>193</ele>
        <time>2014-04-27T13:57:01Z</time>
      </trkpt>
      <trkpt lat="48.48009" lon="-3.0655">
        <ele>193</ele>
        <time>2014-04-27T13:57:02Z</time>
      </trkpt>
      <trkpt lat="48.48007" lon="-3.0655">
        <ele>193</ele>
        <time>2014-04-27T13:57:03Z</time>
      </trkpt>
      <trkpt lat="48.48006" lon="-3.06548">
        <ele>193</ele>
        <time>2014-04-27T13:57:04Z</time>
      </trkpt>
      <trkpt lat="48.48005" lon="-3.06546">
        <ele>193</ele>
        <time>2014-04-27T13:57:05Z</time>
      </trkpt>
      <trkpt lat="48.48004" lon="-3.06544">
        <ele>193</ele>
        <time>2014-04-27T13:57:06Z</time>
      </trkpt>
      <trkpt lat="48.48003" lon="-3.06543">
        <ele>193</ele>
        <time>2014-04-27T13:57:07Z</time>
      </trkpt>
      <trkpt lat="48.48001" lon="-3.06541">
        <ele>193</ele>
        <time>2014-04-27T13:57:09Z</time>
      </trkpt>
      <trkpt lat="48.48" lon="-3.06539">
        <ele>193</ele>
        <time>2014-04-27T13:57:10Z</time>
      </trkpt>
      <trkpt lat="48.47999" lon="-3.06538">
        <ele>193</ele>
        <time>2014-04-27T13:57:11Z</time>
      </trkpt>
      <trkpt lat="48.47997" lon="-3.06535">
        <ele>193</ele>
        <time>2014-04-27T13:57:13Z</time>
      </trkpt>
      <trkpt lat="48.47994" lon="-3.06534">
        <ele>193</ele>
        <time>2014-04-27T13:57:15Z</time>
      </trkpt>
      <trkpt lat="48.47992" lon="-3.06533">
        <ele>193</ele>
        <time>2014-04-27T13:57:17Z</time>
      </trkpt>
      <trkpt lat="48.47991" lon="-3.06534">
        <ele>193</ele>
        <time>2014-04-27T13:57:18Z</time>
      </trkpt>
      <trkpt lat="48.47989" lon="-3.06535">
        <ele>193</ele>
        <time>2014-04-27T13:57:19Z</time>
      </trkpt>
      <trkpt lat="48.47987" lon="-3.06539">
        <ele>193</ele>
        <time>2014-04-27T13:57:21Z</time>
      </trkpt>
      <trkpt lat="48.47986" lon="-3.06539">
        <ele>193</ele>
        <time>2014-04-27T13:57:22Z</time>
      </trkpt>
      <trkpt lat="48.47985" lon="-3.0654">
        <ele>193</ele>
        <time>2014-04-27T13:57:23Z</time>
      </trkpt>
      <trkpt lat="48.47983" lon="-3.06542">
        <ele>193</ele>
        <time>2014-04-27T13:57:24Z</time>
      </trkpt>
      <trkpt lat="48.47982" lon="-3.06542">
        <ele>193</ele>
        <time>2014-04-27T13:57:26Z</time>
      </trkpt>
      <trkpt lat="48.47981" lon="-3.06541">
        <ele>193</ele>
        <time>2014-04-27T13:57:27Z</time>
      </trkpt>
      <trkpt lat="48.47979" lon="-3.06542">
        <ele>193</ele>
        <time>2014-04-27T13:57:28Z</time>
      </trkpt>
      <trkpt lat="48.47977" lon="-3.06542">
        <ele>193</ele>
        <time>2014-04-27T13:57:30Z</time>
      </trkpt>
      <trkpt lat="48.47975" lon="-3.06542">
        <ele>193</ele>
        <time>2014-04-27T13:57:31Z</time>
      </trkpt>
      <trkpt lat="48.47974" lon="-3.06542">
        <ele>193</ele>
        <time>2014-04-27T13:57:32Z</time>
      </trkpt>
      <trkpt lat="48.47973" lon="-3.06541">
        <ele>193</ele>
        <time>2014-04-27T13:57:34Z</time>
      </trkpt>
      <trkpt lat="48.47972" lon="-3.06541">
        <ele>193</ele>
        <time>2014-04-27T13:57:36Z</time>
      </trkpt>
      <trkpt lat="48.4797" lon="-3.06541">
        <ele>193</ele>
        <time>2014-04-27T13:57:38Z</time>
      </trkpt>
      <trkpt lat="48.47969" lon="-3.06542">
        <ele>193</ele>
        <time>2014-04-27T13:57:40Z</time>
      </trkpt>
      <trkpt lat="48.47968" lon="-3.06543">
        <ele>193</ele>
        <time>2014-04-27T13:57:42Z</time>
      </trkpt>
      <trkpt lat="48.47966" lon="-3.06543">
        <ele>193</ele>
        <time>2014-04-27T13:57:44Z</time>
      </trkpt>
      <trkpt lat="48.47964" lon="-3.06545">
        <ele>193</ele>
        <time>2014-04-27T13:57:46Z</time>
      </trkpt>
      <trkpt lat="48.47963" lon="-3.06546">
        <ele>193</ele>
        <time>2014-04-27T13:57:48Z</time>
      </trkpt>
      <trkpt lat="48.4796" lon="-3.06546">
        <ele>193</ele>
        <time>2014-04-27T13:57:50Z</time>
      </trkpt>
      <trkpt lat="48.47958" lon="-3.06548">
        <ele>193</ele>
        <time>2014-04-27T13:57:52Z</time>
      </trkpt>
      <trkpt lat="48.47957" lon="-3.0655">
        <ele>192</ele>
        <time>2014-04-27T13:57:54Z</time>
      </trkpt>
      <trkpt lat="48.47957" lon="-3.06552">
        <ele>191</ele>
        <time>2014-04-27T13:57:55Z</time>
      </trkpt>
      <trkpt lat="48.47956" lon="-3.06553">
        <ele>191</ele>
        <time>2014-04-27T13:57:56Z</time>
      </trkpt>
      <trkpt lat="48.47955" lon="-3.06556">
        <ele>189</ele>
        <time>2014-04-27T13:57:58Z</time>
      </trkpt>
      <trkpt lat="48.47954" lon="-3.06558">
        <ele>189</ele>
        <time>2014-04-27T13:57:59Z</time>
      </trkpt>
      <trkpt lat="48.47953" lon="-3.06562">
        <ele>189</ele>
        <time>2014-04-27T13:58:01Z</time>
      </trkpt>
      <trkpt lat="48.47952" lon="-3.06563">
        <ele>189</ele>
        <time>2014-04-27T13:58:03Z</time>
      </trkpt>
      <trkpt lat="48.47951" lon="-3.06566">
        <ele>189</ele>
        <time>2014-04-27T13:58:05Z</time>
      </trkpt>
      <trkpt lat="48.47949" lon="-3.06568">
        <ele>189</ele>
        <time>2014-04-27T13:58:07Z</time>
      </trkpt>
      <trkpt lat="48.47947" lon="-3.06569">
        <ele>189</ele>
        <time>2014-04-27T13:58:09Z</time>
      </trkpt>
      <trkpt lat="48.47946" lon="-3.06569">
        <ele>189</ele>
        <time>2014-04-27T13:58:10Z</time>
      </trkpt>
      <trkpt lat="48.47945" lon="-3.06569">
        <ele>189</ele>
        <time>2014-04-27T13:58:11Z</time>
      </trkpt>
      <trkpt lat="48.47943" lon="-3.06569">
        <ele>188</ele>
        <time>2014-04-27T13:58:13Z</time>
      </trkpt>
      <trkpt lat="48.47942" lon="-3.06569">
        <ele>188</ele>
        <time>2014-04-27T13:58:15Z</time>
      </trkpt>
      <trkpt lat="48.4794" lon="-3.06571">
        <ele>188</ele>
        <time>2014-04-27T13:58:17Z</time>
      </trkpt>
      <trkpt lat="48.47938" lon="-3.06572">
        <ele>188</ele>
        <time>2014-04-27T13:58:18Z</time>
      </trkpt>
      <trkpt lat="48.47936" lon="-3.06574">
        <ele>188</ele>
        <time>2014-04-27T13:58:20Z</time>
      </trkpt>
      <trkpt lat="48.47935" lon="-3.06576">
        <ele>188</ele>
        <time>2014-04-27T13:58:22Z</time>
      </trkpt>
      <trkpt lat="48.47934" lon="-3.06579">
        <ele>188</ele>
        <time>2014-04-27T13:58:24Z</time>
      </trkpt>
      <trkpt lat="48.47933" lon="-3.06581">
        <ele>188</ele>
        <time>2014-04-27T13:58:25Z</time>
      </trkpt>
      <trkpt lat="48.47932" lon="-3.06583">
        <ele>188</ele>
        <time>2014-04-27T13:58:26Z</time>
      </trkpt>
      <trkpt lat="48.47932" lon="-3.06586">
        <ele>188</ele>
        <time>2014-04-27T13:58:28Z</time>
      </trkpt>
      <trkpt lat="48.47931" lon="-3.06588">
        <ele>188</ele>
        <time>2014-04-27T13:58:29Z</time>
      </trkpt>
      <trkpt lat="48.47931" lon="-3.06591">
        <ele>188</ele>
        <time>2014-04-27T13:58:31Z</time>
      </trkpt>
      <trkpt lat="48.4793" lon="-3.06593">
        <ele>188</ele>
        <time>2014-04-27T13:58:32Z</time>
      </trkpt>
      <trkpt lat="48.4793" lon="-3.06595">
        <ele>188</ele>
        <time>2014-04-27T13:58:33Z</time>
      </trkpt>
      <trkpt lat="48.47929" lon="-3.06599">
        <ele>188</ele>
        <time>2014-04-27T13:58:34Z</time>
      </trkpt>
      <trkpt lat="48.47929" lon="-3.06601">
        <ele>188</ele>
        <time>2014-04-27T13:58:35Z</time>
      </trkpt>
      <trkpt lat="48.47928" lon="-3.06603">
        <ele>188</ele>
        <time>2014-04-27T13:58:37Z</time>
      </trkpt>
      <trkpt lat="48.47927" lon="-3.06605">
        <ele>188</ele>
        <time>2014-04-27T13:58:39Z</time>
      </trkpt>
      <trkpt lat="48.47926" lon="-3.06607">
        <ele>188</ele>
        <time>2014-04-27T13:58:41Z</time>
      </trkpt>
      <trkpt lat="48.47925" lon="-3.06609">
        <ele>188</ele>
        <time>2014-04-27T13:58:43Z</time>
      </trkpt>
      <trkpt lat="48.47924" lon="-3.06611">
        <ele>188</ele>
        <time>2014-04-27T13:58:45Z</time>
      </trkpt>
      <trkpt lat="48.47922" lon="-3.06613">
        <ele>188</ele>
        <time>2014-04-27T13:58:47Z</time>
      </trkpt>
      <trkpt lat="48.47921" lon="-3.06614">
        <ele>188</ele>
        <time>2014-04-27T13:58:49Z</time>
      </trkpt>
      <trkpt lat="48.47919" lon="-3.06615">
        <ele>187</ele>
        <time>2014-04-27T13:58:51Z</time>
      </trkpt>
      <trkpt lat="48.47918" lon="-3.06616">
        <ele>187</ele>
        <time>2014-04-27T13:58:53Z</time>
      </trkpt>
      <trkpt lat="48.47916" lon="-3.06616">
        <ele>187</ele>
        <time>2014-04-27T13:58:55Z</time>
      </trkpt>
      <trkpt lat="48.47915" lon="-3.06616">
        <ele>187</ele>
        <time>2014-04-27T13:58:57Z</time>
      </trkpt>
      <trkpt lat="48.47913" lon="-3.06616">
        <ele>187</ele>
        <time>2014-04-27T13:59:00Z</time>
      </trkpt>
      <trkpt lat="48.47912" lon="-3.06616">
        <ele>187</ele>
        <time>2014-04-27T13:59:06Z</time>
      </trkpt>
      <trkpt lat="48.47911" lon="-3.06616">
        <ele>187</ele>
        <time>2014-04-27T13:59:13Z</time>
      </trkpt>
      <trkpt lat="48.4791" lon="-3.06614">
        <ele>187</ele>
        <time>2014-04-27T13:59:38Z</time>
      </trkpt>
      <trkpt lat="48.47909" lon="-3.06614">
        <ele>188</ele>
        <time>2014-04-27T13:59:46Z</time>
      </trkpt>
      <trkpt lat="48.47908" lon="-3.06617">
        <ele>188</ele>
        <time>2014-04-27T13:59:52Z</time>
      </trkpt>
      <trkpt lat="48.47909" lon="-3.06618">
        <ele>188</ele>
        <time>2014-04-27T13:59:55Z</time>
      </trkpt>
      <trkpt lat="48.47908" lon="-3.06621">
        <ele>188</ele>
        <time>2014-04-27T13:59:57Z</time>
      </trkpt>
      <trkpt lat="48.47909" lon="-3.06619">
        <ele>188</ele>
        <time>2014-04-27T14:00:07Z</time>
      </trkpt>
      <trkpt lat="48.47909" lon="-3.06622">
        <ele>190</ele>
        <time>2014-04-27T14:00:16Z</time>
      </trkpt>
      <trkpt lat="48.47908" lon="-3.06619">
        <ele>190</ele>
        <time>2014-04-27T14:00:21Z</time>
      </trkpt>
      <trkpt lat="48.47907" lon="-3.06618">
        <ele>190</ele>
        <time>2014-04-27T14:00:23Z</time>
      </trkpt>
      <trkpt lat="48.47907" lon="-3.0662">
        <ele>190</ele>
        <time>2014-04-27T14:00:26Z</time>
      </trkpt>
      <trkpt lat="48.47908" lon="-3.06618">
        <ele>190</ele>
        <time>2014-04-27T14:00:29Z</time>
      </trkpt>
      <trkpt lat="48.47909" lon="-3.06615">
        <ele>190</ele>
        <time>2014-04-27T14:00:31Z</time>
      </trkpt>
      <trkpt lat="48.4791" lon="-3.06614">
        <ele>190</ele>
        <time>2014-04-27T14:00:33Z</time>
      </trkpt>
      <trkpt lat="48.47912" lon="-3.06614">
        <ele>188</ele>
        <time>2014-04-27T14:00:40Z</time>
      </trkpt>
      <trkpt lat="48.47911" lon="-3.06616">
        <ele>188</ele>
        <time>2014-04-27T14:00:44Z</time>
      </trkpt>
      <trkpt lat="48.47911" lon="-3.06616">
        <ele>188</ele>
        <time>2014-04-27T14:00:45Z</time>
      </trkpt>
    </trkseg>
  </trk>
</gpx>